<?xml version="1.0" encoding="UTF-8" standalone="no" ?>
<gpx xmlns="http://www.topografix.com/GPX/1/1" xmlns:xsi="http://www.w3.org/2001/XMLSchema-instance" xsi:schemaLocation="http://www.topografix.com/GPX/1/1 http://www.topografix.com/GPX/1/1/gpx.xsd" version="1.1" creator="VisuGPX - https://www.visugpx.com">
  <metadata>
    <name>Course à pied en soirée</name>
  </metadata>
  <trk>
    <name><![CDATA[Course à pied en soirée_1]]></name>
    <trkseg>
      <trkpt lat="43.64668" lon="1.37665">
        <ele>142</ele>
        <time>2025-03-25T17:28:46Z</time>
      </trkpt>
      <trkpt lat="43.64665" lon="1.37666">
        <ele>142</ele>
        <time>2025-03-25T17:28:47Z</time>
      </trkpt>
      <trkpt lat="43.64662" lon="1.37668">
        <ele>142</ele>
        <time>2025-03-25T17:28:48Z</time>
      </trkpt>
      <trkpt lat="43.64659" lon="1.37669">
        <ele>142</ele>
        <time>2025-03-25T17:28:49Z</time>
      </trkpt>
      <trkpt lat="43.64657" lon="1.37669">
        <ele>142</ele>
        <time>2025-03-25T17:28:50Z</time>
      </trkpt>
      <trkpt lat="43.64655" lon="1.37669">
        <ele>142</ele>
        <time>2025-03-25T17:28:51Z</time>
      </trkpt>
      <trkpt lat="43.64653" lon="1.37669">
        <ele>142</ele>
        <time>2025-03-25T17:28:52Z</time>
      </trkpt>
      <trkpt lat="43.64651" lon="1.37669">
        <ele>142</ele>
        <time>2025-03-25T17:28:53Z</time>
      </trkpt>
      <trkpt lat="43.64649" lon="1.37667">
        <ele>141</ele>
        <time>2025-03-25T17:28:54Z</time>
      </trkpt>
      <trkpt lat="43.64648" lon="1.37668">
        <ele>141</ele>
        <time>2025-03-25T17:28:55Z</time>
      </trkpt>
      <trkpt lat="43.64647" lon="1.37668">
        <ele>141</ele>
        <time>2025-03-25T17:28:56Z</time>
      </trkpt>
      <trkpt lat="43.64646" lon="1.37668">
        <ele>142</ele>
        <time>2025-03-25T17:28:57Z</time>
      </trkpt>
      <trkpt lat="43.64645" lon="1.37669">
        <ele>142</ele>
        <time>2025-03-25T17:28:58Z</time>
      </trkpt>
      <trkpt lat="43.64645" lon="1.37669">
        <ele>142</ele>
        <time>2025-03-25T17:28:59Z</time>
      </trkpt>
      <trkpt lat="43.64644" lon="1.37669">
        <ele>142</ele>
        <time>2025-03-25T17:29:00Z</time>
      </trkpt>
      <trkpt lat="43.64637" lon="1.37672">
        <ele>143</ele>
        <time>2025-03-25T17:29:01Z</time>
      </trkpt>
      <trkpt lat="43.64636" lon="1.37673">
        <ele>143</ele>
        <time>2025-03-25T17:29:02Z</time>
      </trkpt>
      <trkpt lat="43.64635" lon="1.37673">
        <ele>143</ele>
        <time>2025-03-25T17:29:03Z</time>
      </trkpt>
      <trkpt lat="43.64633" lon="1.37674">
        <ele>143</ele>
        <time>2025-03-25T17:29:04Z</time>
      </trkpt>
      <trkpt lat="43.64627" lon="1.37676">
        <ele>143</ele>
        <time>2025-03-25T17:29:05Z</time>
      </trkpt>
      <trkpt lat="43.64626" lon="1.37677">
        <ele>143</ele>
        <time>2025-03-25T17:29:06Z</time>
      </trkpt>
      <trkpt lat="43.64624" lon="1.37677">
        <ele>142</ele>
        <time>2025-03-25T17:29:07Z</time>
      </trkpt>
      <trkpt lat="43.64623" lon="1.37678">
        <ele>142</ele>
        <time>2025-03-25T17:29:08Z</time>
      </trkpt>
      <trkpt lat="43.64618" lon="1.37679">
        <ele>142</ele>
        <time>2025-03-25T17:29:09Z</time>
      </trkpt>
      <trkpt lat="43.64618" lon="1.37679">
        <ele>142</ele>
        <time>2025-03-25T17:29:10Z</time>
      </trkpt>
      <trkpt lat="43.64618" lon="1.37679">
        <ele>142</ele>
        <time>2025-03-25T17:29:11Z</time>
      </trkpt>
      <trkpt lat="43.64618" lon="1.37679">
        <ele>142</ele>
        <time>2025-03-25T17:29:12Z</time>
      </trkpt>
      <trkpt lat="43.64618" lon="1.37679">
        <ele>142</ele>
        <time>2025-03-25T17:29:13Z</time>
      </trkpt>
      <trkpt lat="43.64618" lon="1.37679">
        <ele>142</ele>
        <time>2025-03-25T17:29:14Z</time>
      </trkpt>
      <trkpt lat="43.64618" lon="1.37679">
        <ele>142</ele>
        <time>2025-03-25T17:29:15Z</time>
      </trkpt>
      <trkpt lat="43.64618" lon="1.37679">
        <ele>142</ele>
        <time>2025-03-25T17:29:16Z</time>
      </trkpt>
      <trkpt lat="43.64618" lon="1.37679">
        <ele>142</ele>
        <time>2025-03-25T17:29:17Z</time>
      </trkpt>
      <trkpt lat="43.64618" lon="1.37679">
        <ele>142</ele>
        <time>2025-03-25T17:29:18Z</time>
      </trkpt>
      <trkpt lat="43.64618" lon="1.37679">
        <ele>142</ele>
        <time>2025-03-25T17:29:19Z</time>
      </trkpt>
      <trkpt lat="43.64618" lon="1.37679">
        <ele>142</ele>
        <time>2025-03-25T17:29:20Z</time>
      </trkpt>
      <trkpt lat="43.64618" lon="1.37679">
        <ele>142</ele>
        <time>2025-03-25T17:29:21Z</time>
      </trkpt>
      <trkpt lat="43.64618" lon="1.37679">
        <ele>143</ele>
        <time>2025-03-25T17:29:22Z</time>
      </trkpt>
      <trkpt lat="43.64618" lon="1.37679">
        <ele>143</ele>
        <time>2025-03-25T17:29:23Z</time>
      </trkpt>
      <trkpt lat="43.64618" lon="1.37679">
        <ele>143</ele>
        <time>2025-03-25T17:29:24Z</time>
      </trkpt>
      <trkpt lat="43.64618" lon="1.37679">
        <ele>143</ele>
        <time>2025-03-25T17:29:25Z</time>
      </trkpt>
      <trkpt lat="43.64618" lon="1.37679">
        <ele>143</ele>
        <time>2025-03-25T17:29:26Z</time>
      </trkpt>
      <trkpt lat="43.64618" lon="1.37679">
        <ele>143</ele>
        <time>2025-03-25T17:29:27Z</time>
      </trkpt>
      <trkpt lat="43.64596" lon="1.37682">
        <ele>142</ele>
        <time>2025-03-25T17:29:28Z</time>
      </trkpt>
      <trkpt lat="43.64571" lon="1.37683">
        <ele>142</ele>
        <time>2025-03-25T17:29:29Z</time>
      </trkpt>
      <trkpt lat="43.64569" lon="1.37682">
        <ele>142</ele>
        <time>2025-03-25T17:29:30Z</time>
      </trkpt>
      <trkpt lat="43.64566" lon="1.37681">
        <ele>142</ele>
        <time>2025-03-25T17:29:31Z</time>
      </trkpt>
      <trkpt lat="43.64564" lon="1.37681">
        <ele>142</ele>
        <time>2025-03-25T17:29:32Z</time>
      </trkpt>
      <trkpt lat="43.64562" lon="1.3768">
        <ele>142</ele>
        <time>2025-03-25T17:29:33Z</time>
      </trkpt>
      <trkpt lat="43.64561" lon="1.3768">
        <ele>143</ele>
        <time>2025-03-25T17:29:34Z</time>
      </trkpt>
      <trkpt lat="43.6456" lon="1.37679">
        <ele>143</ele>
        <time>2025-03-25T17:29:35Z</time>
      </trkpt>
      <trkpt lat="43.64558" lon="1.37679">
        <ele>143</ele>
        <time>2025-03-25T17:29:36Z</time>
      </trkpt>
      <trkpt lat="43.64557" lon="1.37678">
        <ele>143</ele>
        <time>2025-03-25T17:29:37Z</time>
      </trkpt>
      <trkpt lat="43.64555" lon="1.37678">
        <ele>143</ele>
        <time>2025-03-25T17:29:38Z</time>
      </trkpt>
      <trkpt lat="43.64554" lon="1.37677">
        <ele>143</ele>
        <time>2025-03-25T17:29:39Z</time>
      </trkpt>
      <trkpt lat="43.64552" lon="1.37677">
        <ele>143</ele>
        <time>2025-03-25T17:29:40Z</time>
      </trkpt>
      <trkpt lat="43.6455" lon="1.37676">
        <ele>143</ele>
        <time>2025-03-25T17:29:41Z</time>
      </trkpt>
      <trkpt lat="43.64549" lon="1.37676">
        <ele>143</ele>
        <time>2025-03-25T17:29:42Z</time>
      </trkpt>
      <trkpt lat="43.64541" lon="1.37675">
        <ele>143</ele>
        <time>2025-03-25T17:29:43Z</time>
      </trkpt>
      <trkpt lat="43.64538" lon="1.37675">
        <ele>143</ele>
        <time>2025-03-25T17:29:44Z</time>
      </trkpt>
      <trkpt lat="43.64536" lon="1.37675">
        <ele>143</ele>
        <time>2025-03-25T17:29:45Z</time>
      </trkpt>
      <trkpt lat="43.64533" lon="1.37675">
        <ele>143</ele>
        <time>2025-03-25T17:29:46Z</time>
      </trkpt>
      <trkpt lat="43.64532" lon="1.37675">
        <ele>143</ele>
        <time>2025-03-25T17:29:47Z</time>
      </trkpt>
      <trkpt lat="43.64531" lon="1.37676">
        <ele>143</ele>
        <time>2025-03-25T17:29:48Z</time>
      </trkpt>
      <trkpt lat="43.64529" lon="1.37676">
        <ele>143</ele>
        <time>2025-03-25T17:29:49Z</time>
      </trkpt>
      <trkpt lat="43.64528" lon="1.37677">
        <ele>143</ele>
        <time>2025-03-25T17:29:50Z</time>
      </trkpt>
      <trkpt lat="43.64521" lon="1.3768">
        <ele>143</ele>
        <time>2025-03-25T17:29:51Z</time>
      </trkpt>
      <trkpt lat="43.64519" lon="1.37682">
        <ele>143</ele>
        <time>2025-03-25T17:29:52Z</time>
      </trkpt>
      <trkpt lat="43.64517" lon="1.37684">
        <ele>144</ele>
        <time>2025-03-25T17:29:53Z</time>
      </trkpt>
      <trkpt lat="43.64515" lon="1.37686">
        <ele>144</ele>
        <time>2025-03-25T17:29:54Z</time>
      </trkpt>
      <trkpt lat="43.64514" lon="1.37687">
        <ele>144</ele>
        <time>2025-03-25T17:29:55Z</time>
      </trkpt>
      <trkpt lat="43.64514" lon="1.37688">
        <ele>143</ele>
        <time>2025-03-25T17:29:56Z</time>
      </trkpt>
      <trkpt lat="43.64513" lon="1.3769">
        <ele>143</ele>
        <time>2025-03-25T17:29:57Z</time>
      </trkpt>
      <trkpt lat="43.64513" lon="1.37691">
        <ele>143</ele>
        <time>2025-03-25T17:29:58Z</time>
      </trkpt>
      <trkpt lat="43.64512" lon="1.37692">
        <ele>143</ele>
        <time>2025-03-25T17:29:59Z</time>
      </trkpt>
      <trkpt lat="43.6451" lon="1.37699">
        <ele>143</ele>
        <time>2025-03-25T17:30:00Z</time>
      </trkpt>
      <trkpt lat="43.64509" lon="1.37705">
        <ele>143</ele>
        <time>2025-03-25T17:30:01Z</time>
      </trkpt>
      <trkpt lat="43.64508" lon="1.37708">
        <ele>143</ele>
        <time>2025-03-25T17:30:02Z</time>
      </trkpt>
      <trkpt lat="43.64508" lon="1.37711">
        <ele>143</ele>
        <time>2025-03-25T17:30:03Z</time>
      </trkpt>
      <trkpt lat="43.64507" lon="1.37714">
        <ele>143</ele>
        <time>2025-03-25T17:30:04Z</time>
      </trkpt>
      <trkpt lat="43.64506" lon="1.37717">
        <ele>143</ele>
        <time>2025-03-25T17:30:05Z</time>
      </trkpt>
      <trkpt lat="43.64505" lon="1.37721">
        <ele>143</ele>
        <time>2025-03-25T17:30:06Z</time>
      </trkpt>
      <trkpt lat="43.64503" lon="1.37725">
        <ele>143</ele>
        <time>2025-03-25T17:30:07Z</time>
      </trkpt>
      <trkpt lat="43.64501" lon="1.37727">
        <ele>143</ele>
        <time>2025-03-25T17:30:08Z</time>
      </trkpt>
      <trkpt lat="43.64499" lon="1.37731">
        <ele>143</ele>
        <time>2025-03-25T17:30:09Z</time>
      </trkpt>
      <trkpt lat="43.64497" lon="1.37733">
        <ele>143</ele>
        <time>2025-03-25T17:30:10Z</time>
      </trkpt>
      <trkpt lat="43.64496" lon="1.37735">
        <ele>143</ele>
        <time>2025-03-25T17:30:11Z</time>
      </trkpt>
      <trkpt lat="43.64494" lon="1.37737">
        <ele>143</ele>
        <time>2025-03-25T17:30:12Z</time>
      </trkpt>
      <trkpt lat="43.64492" lon="1.37739">
        <ele>143</ele>
        <time>2025-03-25T17:30:13Z</time>
      </trkpt>
      <trkpt lat="43.64491" lon="1.37742">
        <ele>143</ele>
        <time>2025-03-25T17:30:14Z</time>
      </trkpt>
      <trkpt lat="43.6449" lon="1.37745">
        <ele>144</ele>
        <time>2025-03-25T17:30:15Z</time>
      </trkpt>
      <trkpt lat="43.64489" lon="1.37748">
        <ele>144</ele>
        <time>2025-03-25T17:30:16Z</time>
      </trkpt>
      <trkpt lat="43.64489" lon="1.37751">
        <ele>144</ele>
        <time>2025-03-25T17:30:17Z</time>
      </trkpt>
      <trkpt lat="43.64488" lon="1.37753">
        <ele>144</ele>
        <time>2025-03-25T17:30:18Z</time>
      </trkpt>
      <trkpt lat="43.64488" lon="1.37755">
        <ele>144</ele>
        <time>2025-03-25T17:30:19Z</time>
      </trkpt>
      <trkpt lat="43.64487" lon="1.37758">
        <ele>144</ele>
        <time>2025-03-25T17:30:20Z</time>
      </trkpt>
      <trkpt lat="43.64485" lon="1.37761">
        <ele>144</ele>
        <time>2025-03-25T17:30:21Z</time>
      </trkpt>
      <trkpt lat="43.64484" lon="1.37765">
        <ele>144</ele>
        <time>2025-03-25T17:30:22Z</time>
      </trkpt>
      <trkpt lat="43.64483" lon="1.37768">
        <ele>144</ele>
        <time>2025-03-25T17:30:23Z</time>
      </trkpt>
      <trkpt lat="43.64483" lon="1.37771">
        <ele>144</ele>
        <time>2025-03-25T17:30:24Z</time>
      </trkpt>
      <trkpt lat="43.64482" lon="1.37773">
        <ele>144</ele>
        <time>2025-03-25T17:30:25Z</time>
      </trkpt>
      <trkpt lat="43.64481" lon="1.37776">
        <ele>144</ele>
        <time>2025-03-25T17:30:26Z</time>
      </trkpt>
      <trkpt lat="43.6448" lon="1.37779">
        <ele>144</ele>
        <time>2025-03-25T17:30:27Z</time>
      </trkpt>
      <trkpt lat="43.64479" lon="1.37782">
        <ele>144</ele>
        <time>2025-03-25T17:30:28Z</time>
      </trkpt>
      <trkpt lat="43.64478" lon="1.37785">
        <ele>144</ele>
        <time>2025-03-25T17:30:29Z</time>
      </trkpt>
      <trkpt lat="43.64477" lon="1.37787">
        <ele>143</ele>
        <time>2025-03-25T17:30:30Z</time>
      </trkpt>
      <trkpt lat="43.64476" lon="1.3779">
        <ele>143</ele>
        <time>2025-03-25T17:30:31Z</time>
      </trkpt>
      <trkpt lat="43.64476" lon="1.3779">
        <ele>143</ele>
        <time>2025-03-25T17:30:32Z</time>
      </trkpt>
      <trkpt lat="43.64474" lon="1.37794">
        <ele>143</ele>
        <time>2025-03-25T17:30:33Z</time>
      </trkpt>
      <trkpt lat="43.64474" lon="1.37794">
        <ele>143</ele>
        <time>2025-03-25T17:30:34Z</time>
      </trkpt>
      <trkpt lat="43.64473" lon="1.37797">
        <ele>143</ele>
        <time>2025-03-25T17:30:35Z</time>
      </trkpt>
      <trkpt lat="43.64473" lon="1.37797">
        <ele>143</ele>
        <time>2025-03-25T17:30:36Z</time>
      </trkpt>
      <trkpt lat="43.64471" lon="1.378">
        <ele>142</ele>
        <time>2025-03-25T17:30:37Z</time>
      </trkpt>
      <trkpt lat="43.64471" lon="1.378">
        <ele>144</ele>
        <time>2025-03-25T17:30:38Z</time>
      </trkpt>
      <trkpt lat="43.6447" lon="1.37804">
        <ele>144</ele>
        <time>2025-03-25T17:30:39Z</time>
      </trkpt>
      <trkpt lat="43.6447" lon="1.37804">
        <ele>144</ele>
        <time>2025-03-25T17:30:40Z</time>
      </trkpt>
      <trkpt lat="43.64469" lon="1.37807">
        <ele>144</ele>
        <time>2025-03-25T17:30:41Z</time>
      </trkpt>
      <trkpt lat="43.64469" lon="1.37807">
        <ele>144</ele>
        <time>2025-03-25T17:30:42Z</time>
      </trkpt>
      <trkpt lat="43.64469" lon="1.37809">
        <ele>144</ele>
        <time>2025-03-25T17:30:43Z</time>
      </trkpt>
      <trkpt lat="43.64564" lon="1.37967">
        <ele>142</ele>
        <time>2025-03-25T17:36:29Z</time>
      </trkpt>
      <trkpt lat="43.64565" lon="1.37965">
        <ele>142</ele>
        <time>2025-03-25T17:36:30Z</time>
      </trkpt>
      <trkpt lat="43.64566" lon="1.37963">
        <ele>142</ele>
        <time>2025-03-25T17:36:31Z</time>
      </trkpt>
      <trkpt lat="43.64567" lon="1.3796">
        <ele>142</ele>
        <time>2025-03-25T17:36:32Z</time>
      </trkpt>
      <trkpt lat="43.64568" lon="1.37957">
        <ele>142</ele>
        <time>2025-03-25T17:36:33Z</time>
      </trkpt>
      <trkpt lat="43.64568" lon="1.37953">
        <ele>142</ele>
        <time>2025-03-25T17:36:34Z</time>
      </trkpt>
      <trkpt lat="43.64568" lon="1.3795">
        <ele>142</ele>
        <time>2025-03-25T17:36:35Z</time>
      </trkpt>
      <trkpt lat="43.64568" lon="1.37946">
        <ele>142</ele>
        <time>2025-03-25T17:36:36Z</time>
      </trkpt>
      <trkpt lat="43.64568" lon="1.37943">
        <ele>142</ele>
        <time>2025-03-25T17:36:37Z</time>
      </trkpt>
      <trkpt lat="43.64567" lon="1.3794">
        <ele>142</ele>
        <time>2025-03-25T17:36:38Z</time>
      </trkpt>
      <trkpt lat="43.64567" lon="1.37937">
        <ele>142</ele>
        <time>2025-03-25T17:36:39Z</time>
      </trkpt>
      <trkpt lat="43.64566" lon="1.37934">
        <ele>142</ele>
        <time>2025-03-25T17:36:40Z</time>
      </trkpt>
      <trkpt lat="43.64565" lon="1.3793">
        <ele>142</ele>
        <time>2025-03-25T17:36:41Z</time>
      </trkpt>
      <trkpt lat="43.64564" lon="1.37927">
        <ele>142</ele>
        <time>2025-03-25T17:36:42Z</time>
      </trkpt>
      <trkpt lat="43.64563" lon="1.37924">
        <ele>142</ele>
        <time>2025-03-25T17:36:43Z</time>
      </trkpt>
      <trkpt lat="43.64562" lon="1.37921">
        <ele>142</ele>
        <time>2025-03-25T17:36:44Z</time>
      </trkpt>
      <trkpt lat="43.64561" lon="1.37919">
        <ele>142</ele>
        <time>2025-03-25T17:36:45Z</time>
      </trkpt>
      <trkpt lat="43.64559" lon="1.37916">
        <ele>142</ele>
        <time>2025-03-25T17:36:46Z</time>
      </trkpt>
      <trkpt lat="43.64558" lon="1.37914">
        <ele>142</ele>
        <time>2025-03-25T17:36:47Z</time>
      </trkpt>
      <trkpt lat="43.64556" lon="1.37912">
        <ele>142</ele>
        <time>2025-03-25T17:36:48Z</time>
      </trkpt>
      <trkpt lat="43.64554" lon="1.3791">
        <ele>142</ele>
        <time>2025-03-25T17:36:49Z</time>
      </trkpt>
      <trkpt lat="43.64553" lon="1.37908">
        <ele>142</ele>
        <time>2025-03-25T17:36:50Z</time>
      </trkpt>
      <trkpt lat="43.64551" lon="1.37907">
        <ele>142</ele>
        <time>2025-03-25T17:36:51Z</time>
      </trkpt>
      <trkpt lat="43.64549" lon="1.37905">
        <ele>142</ele>
        <time>2025-03-25T17:36:52Z</time>
      </trkpt>
      <trkpt lat="43.64547" lon="1.37904">
        <ele>143</ele>
        <time>2025-03-25T17:36:53Z</time>
      </trkpt>
      <trkpt lat="43.64545" lon="1.37903">
        <ele>143</ele>
        <time>2025-03-25T17:36:54Z</time>
      </trkpt>
      <trkpt lat="43.64543" lon="1.37902">
        <ele>142</ele>
        <time>2025-03-25T17:36:55Z</time>
      </trkpt>
      <trkpt lat="43.64541" lon="1.37901">
        <ele>142</ele>
        <time>2025-03-25T17:36:56Z</time>
      </trkpt>
      <trkpt lat="43.64539" lon="1.379">
        <ele>142</ele>
        <time>2025-03-25T17:36:57Z</time>
      </trkpt>
      <trkpt lat="43.64537" lon="1.37899">
        <ele>142</ele>
        <time>2025-03-25T17:36:58Z</time>
      </trkpt>
      <trkpt lat="43.64535" lon="1.37899">
        <ele>142</ele>
        <time>2025-03-25T17:36:59Z</time>
      </trkpt>
      <trkpt lat="43.64533" lon="1.37898">
        <ele>142</ele>
        <time>2025-03-25T17:37:00Z</time>
      </trkpt>
      <trkpt lat="43.64531" lon="1.37897">
        <ele>142</ele>
        <time>2025-03-25T17:37:01Z</time>
      </trkpt>
      <trkpt lat="43.64529" lon="1.37896">
        <ele>142</ele>
        <time>2025-03-25T17:37:02Z</time>
      </trkpt>
      <trkpt lat="43.64527" lon="1.37895">
        <ele>142</ele>
        <time>2025-03-25T17:37:03Z</time>
      </trkpt>
      <trkpt lat="43.64525" lon="1.37894">
        <ele>142</ele>
        <time>2025-03-25T17:37:04Z</time>
      </trkpt>
      <trkpt lat="43.64523" lon="1.37893">
        <ele>142</ele>
        <time>2025-03-25T17:37:05Z</time>
      </trkpt>
      <trkpt lat="43.64521" lon="1.37892">
        <ele>142</ele>
        <time>2025-03-25T17:37:06Z</time>
      </trkpt>
      <trkpt lat="43.64517" lon="1.37889">
        <ele>142</ele>
        <time>2025-03-25T17:37:07Z</time>
      </trkpt>
      <trkpt lat="43.64517" lon="1.37889">
        <ele>142</ele>
        <time>2025-03-25T17:37:08Z</time>
      </trkpt>
      <trkpt lat="43.64515" lon="1.37888">
        <ele>142</ele>
        <time>2025-03-25T17:37:09Z</time>
      </trkpt>
      <trkpt lat="43.64513" lon="1.37887">
        <ele>142</ele>
        <time>2025-03-25T17:37:10Z</time>
      </trkpt>
      <trkpt lat="43.64512" lon="1.37886">
        <ele>142</ele>
        <time>2025-03-25T17:37:11Z</time>
      </trkpt>
      <trkpt lat="43.6451" lon="1.37885">
        <ele>142</ele>
        <time>2025-03-25T17:37:12Z</time>
      </trkpt>
      <trkpt lat="43.64508" lon="1.37882">
        <ele>142</ele>
        <time>2025-03-25T17:37:13Z</time>
      </trkpt>
      <trkpt lat="43.64507" lon="1.37879">
        <ele>142</ele>
        <time>2025-03-25T17:37:14Z</time>
      </trkpt>
      <trkpt lat="43.64506" lon="1.37876">
        <ele>142</ele>
        <time>2025-03-25T17:37:15Z</time>
      </trkpt>
      <trkpt lat="43.64505" lon="1.37874">
        <ele>143</ele>
        <time>2025-03-25T17:37:16Z</time>
      </trkpt>
      <trkpt lat="43.64504" lon="1.37871">
        <ele>143</ele>
        <time>2025-03-25T17:37:17Z</time>
      </trkpt>
      <trkpt lat="43.64503" lon="1.37869">
        <ele>142</ele>
        <time>2025-03-25T17:37:18Z</time>
      </trkpt>
      <trkpt lat="43.64501" lon="1.37867">
        <ele>142</ele>
        <time>2025-03-25T17:37:19Z</time>
      </trkpt>
      <trkpt lat="43.645" lon="1.37866">
        <ele>142</ele>
        <time>2025-03-25T17:37:20Z</time>
      </trkpt>
      <trkpt lat="43.64498" lon="1.37865">
        <ele>142</ele>
        <time>2025-03-25T17:37:21Z</time>
      </trkpt>
      <trkpt lat="43.64496" lon="1.37863">
        <ele>142</ele>
        <time>2025-03-25T17:37:22Z</time>
      </trkpt>
      <trkpt lat="43.64496" lon="1.37863">
        <ele>142</ele>
        <time>2025-03-25T17:37:23Z</time>
      </trkpt>
      <trkpt lat="43.64493" lon="1.37862">
        <ele>142</ele>
        <time>2025-03-25T17:37:24Z</time>
      </trkpt>
      <trkpt lat="43.64491" lon="1.37862">
        <ele>142</ele>
        <time>2025-03-25T17:37:25Z</time>
      </trkpt>
      <trkpt lat="43.64486" lon="1.3786">
        <ele>142</ele>
        <time>2025-03-25T17:37:26Z</time>
      </trkpt>
      <trkpt lat="43.64486" lon="1.3786">
        <ele>142</ele>
        <time>2025-03-25T17:37:27Z</time>
      </trkpt>
      <trkpt lat="43.64484" lon="1.37858">
        <ele>142</ele>
        <time>2025-03-25T17:37:28Z</time>
      </trkpt>
      <trkpt lat="43.64483" lon="1.37857">
        <ele>142</ele>
        <time>2025-03-25T17:37:29Z</time>
      </trkpt>
      <trkpt lat="43.64481" lon="1.37855">
        <ele>142</ele>
        <time>2025-03-25T17:37:30Z</time>
      </trkpt>
      <trkpt lat="43.64479" lon="1.37854">
        <ele>142</ele>
        <time>2025-03-25T17:37:31Z</time>
      </trkpt>
      <trkpt lat="43.64476" lon="1.37853">
        <ele>142</ele>
        <time>2025-03-25T17:37:32Z</time>
      </trkpt>
      <trkpt lat="43.64474" lon="1.37852">
        <ele>142</ele>
        <time>2025-03-25T17:37:33Z</time>
      </trkpt>
      <trkpt lat="43.64472" lon="1.3785">
        <ele>142</ele>
        <time>2025-03-25T17:37:34Z</time>
      </trkpt>
      <trkpt lat="43.6447" lon="1.37848">
        <ele>141</ele>
        <time>2025-03-25T17:37:35Z</time>
      </trkpt>
      <trkpt lat="43.64468" lon="1.37847">
        <ele>141</ele>
        <time>2025-03-25T17:37:36Z</time>
      </trkpt>
      <trkpt lat="43.64466" lon="1.37847">
        <ele>141</ele>
        <time>2025-03-25T17:37:37Z</time>
      </trkpt>
      <trkpt lat="43.64464" lon="1.37846">
        <ele>141</ele>
        <time>2025-03-25T17:37:38Z</time>
      </trkpt>
      <trkpt lat="43.64463" lon="1.37844">
        <ele>141</ele>
        <time>2025-03-25T17:37:39Z</time>
      </trkpt>
      <trkpt lat="43.64461" lon="1.37842">
        <ele>141</ele>
        <time>2025-03-25T17:37:40Z</time>
      </trkpt>
      <trkpt lat="43.6446" lon="1.3784">
        <ele>141</ele>
        <time>2025-03-25T17:37:41Z</time>
      </trkpt>
      <trkpt lat="43.64459" lon="1.37837">
        <ele>141</ele>
        <time>2025-03-25T17:37:42Z</time>
      </trkpt>
      <trkpt lat="43.64458" lon="1.37834">
        <ele>141</ele>
        <time>2025-03-25T17:37:43Z</time>
      </trkpt>
      <trkpt lat="43.64457" lon="1.37832">
        <ele>141</ele>
        <time>2025-03-25T17:37:44Z</time>
      </trkpt>
      <trkpt lat="43.64456" lon="1.3783">
        <ele>141</ele>
        <time>2025-03-25T17:37:45Z</time>
      </trkpt>
      <trkpt lat="43.64455" lon="1.37828">
        <ele>141</ele>
        <time>2025-03-25T17:37:46Z</time>
      </trkpt>
      <trkpt lat="43.64454" lon="1.37827">
        <ele>141</ele>
        <time>2025-03-25T17:37:47Z</time>
      </trkpt>
      <trkpt lat="43.64453" lon="1.37826">
        <ele>141</ele>
        <time>2025-03-25T17:37:48Z</time>
      </trkpt>
      <trkpt lat="43.64452" lon="1.37826">
        <ele>141</ele>
        <time>2025-03-25T17:37:49Z</time>
      </trkpt>
      <trkpt lat="43.64451" lon="1.37825">
        <ele>141</ele>
        <time>2025-03-25T17:37:50Z</time>
      </trkpt>
      <trkpt lat="43.6445" lon="1.37825">
        <ele>142</ele>
        <time>2025-03-25T17:37:51Z</time>
      </trkpt>
      <trkpt lat="43.64442" lon="1.37821">
        <ele>142</ele>
        <time>2025-03-25T17:37:52Z</time>
      </trkpt>
      <trkpt lat="43.6444" lon="1.3782">
        <ele>141</ele>
        <time>2025-03-25T17:37:53Z</time>
      </trkpt>
      <trkpt lat="43.64437" lon="1.37819">
        <ele>141</ele>
        <time>2025-03-25T17:37:54Z</time>
      </trkpt>
      <trkpt lat="43.64434" lon="1.37818">
        <ele>141</ele>
        <time>2025-03-25T17:37:55Z</time>
      </trkpt>
      <trkpt lat="43.64432" lon="1.37817">
        <ele>141</ele>
        <time>2025-03-25T17:37:56Z</time>
      </trkpt>
      <trkpt lat="43.6443" lon="1.37816">
        <ele>141</ele>
        <time>2025-03-25T17:37:57Z</time>
      </trkpt>
      <trkpt lat="43.64427" lon="1.37814">
        <ele>141</ele>
        <time>2025-03-25T17:37:58Z</time>
      </trkpt>
      <trkpt lat="43.64426" lon="1.37814">
        <ele>141</ele>
        <time>2025-03-25T17:37:59Z</time>
      </trkpt>
      <trkpt lat="43.64424" lon="1.37813">
        <ele>141</ele>
        <time>2025-03-25T17:38:00Z</time>
      </trkpt>
      <trkpt lat="43.64421" lon="1.37813">
        <ele>141</ele>
        <time>2025-03-25T17:38:01Z</time>
      </trkpt>
      <trkpt lat="43.64419" lon="1.37813">
        <ele>141</ele>
        <time>2025-03-25T17:38:02Z</time>
      </trkpt>
      <trkpt lat="43.64417" lon="1.37812">
        <ele>141</ele>
        <time>2025-03-25T17:38:03Z</time>
      </trkpt>
      <trkpt lat="43.64414" lon="1.37811">
        <ele>141</ele>
        <time>2025-03-25T17:38:04Z</time>
      </trkpt>
      <trkpt lat="43.64412" lon="1.37811">
        <ele>141</ele>
        <time>2025-03-25T17:38:05Z</time>
      </trkpt>
      <trkpt lat="43.6441" lon="1.3781">
        <ele>141</ele>
        <time>2025-03-25T17:38:06Z</time>
      </trkpt>
      <trkpt lat="43.64408" lon="1.3781">
        <ele>141</ele>
        <time>2025-03-25T17:38:07Z</time>
      </trkpt>
      <trkpt lat="43.64405" lon="1.37809">
        <ele>141</ele>
        <time>2025-03-25T17:38:08Z</time>
      </trkpt>
      <trkpt lat="43.64403" lon="1.37809">
        <ele>141</ele>
        <time>2025-03-25T17:38:09Z</time>
      </trkpt>
      <trkpt lat="43.64401" lon="1.37808">
        <ele>141</ele>
        <time>2025-03-25T17:38:10Z</time>
      </trkpt>
      <trkpt lat="43.64399" lon="1.37807">
        <ele>142</ele>
        <time>2025-03-25T17:38:11Z</time>
      </trkpt>
      <trkpt lat="43.64397" lon="1.37807">
        <ele>142</ele>
        <time>2025-03-25T17:38:12Z</time>
      </trkpt>
      <trkpt lat="43.64395" lon="1.37806">
        <ele>142</ele>
        <time>2025-03-25T17:38:13Z</time>
      </trkpt>
      <trkpt lat="43.64393" lon="1.37806">
        <ele>142</ele>
        <time>2025-03-25T17:38:14Z</time>
      </trkpt>
      <trkpt lat="43.64391" lon="1.37806">
        <ele>142</ele>
        <time>2025-03-25T17:38:15Z</time>
      </trkpt>
      <trkpt lat="43.64388" lon="1.37806">
        <ele>142</ele>
        <time>2025-03-25T17:38:16Z</time>
      </trkpt>
      <trkpt lat="43.64386" lon="1.37806">
        <ele>142</ele>
        <time>2025-03-25T17:38:17Z</time>
      </trkpt>
      <trkpt lat="43.64384" lon="1.37805">
        <ele>142</ele>
        <time>2025-03-25T17:38:18Z</time>
      </trkpt>
      <trkpt lat="43.64381" lon="1.37804">
        <ele>142</ele>
        <time>2025-03-25T17:38:19Z</time>
      </trkpt>
      <trkpt lat="43.64379" lon="1.37804">
        <ele>142</ele>
        <time>2025-03-25T17:38:20Z</time>
      </trkpt>
      <trkpt lat="43.64377" lon="1.37803">
        <ele>142</ele>
        <time>2025-03-25T17:38:21Z</time>
      </trkpt>
      <trkpt lat="43.64375" lon="1.37803">
        <ele>142</ele>
        <time>2025-03-25T17:38:22Z</time>
      </trkpt>
      <trkpt lat="43.64373" lon="1.37803">
        <ele>142</ele>
        <time>2025-03-25T17:38:23Z</time>
      </trkpt>
      <trkpt lat="43.6437" lon="1.37803">
        <ele>142</ele>
        <time>2025-03-25T17:38:24Z</time>
      </trkpt>
      <trkpt lat="43.64368" lon="1.37803">
        <ele>142</ele>
        <time>2025-03-25T17:38:25Z</time>
      </trkpt>
      <trkpt lat="43.64366" lon="1.37802">
        <ele>142</ele>
        <time>2025-03-25T17:38:26Z</time>
      </trkpt>
      <trkpt lat="43.64364" lon="1.37802">
        <ele>142</ele>
        <time>2025-03-25T17:38:27Z</time>
      </trkpt>
      <trkpt lat="43.64361" lon="1.37801">
        <ele>142</ele>
        <time>2025-03-25T17:38:28Z</time>
      </trkpt>
      <trkpt lat="43.64359" lon="1.37801">
        <ele>142</ele>
        <time>2025-03-25T17:38:29Z</time>
      </trkpt>
      <trkpt lat="43.64357" lon="1.378">
        <ele>142</ele>
        <time>2025-03-25T17:38:30Z</time>
      </trkpt>
      <trkpt lat="43.64354" lon="1.378">
        <ele>142</ele>
        <time>2025-03-25T17:38:31Z</time>
      </trkpt>
      <trkpt lat="43.64352" lon="1.378">
        <ele>143</ele>
        <time>2025-03-25T17:38:32Z</time>
      </trkpt>
      <trkpt lat="43.6435" lon="1.378">
        <ele>143</ele>
        <time>2025-03-25T17:38:33Z</time>
      </trkpt>
      <trkpt lat="43.64348" lon="1.37798">
        <ele>143</ele>
        <time>2025-03-25T17:38:34Z</time>
      </trkpt>
      <trkpt lat="43.64346" lon="1.37796">
        <ele>143</ele>
        <time>2025-03-25T17:38:35Z</time>
      </trkpt>
      <trkpt lat="43.64345" lon="1.37794">
        <ele>143</ele>
        <time>2025-03-25T17:38:36Z</time>
      </trkpt>
      <trkpt lat="43.64343" lon="1.37791">
        <ele>143</ele>
        <time>2025-03-25T17:38:37Z</time>
      </trkpt>
      <trkpt lat="43.64342" lon="1.37788">
        <ele>143</ele>
        <time>2025-03-25T17:38:38Z</time>
      </trkpt>
      <trkpt lat="43.64341" lon="1.37786">
        <ele>143</ele>
        <time>2025-03-25T17:38:39Z</time>
      </trkpt>
      <trkpt lat="43.64339" lon="1.37783">
        <ele>143</ele>
        <time>2025-03-25T17:38:40Z</time>
      </trkpt>
      <trkpt lat="43.64338" lon="1.37781">
        <ele>143</ele>
        <time>2025-03-25T17:38:41Z</time>
      </trkpt>
      <trkpt lat="43.64336" lon="1.37778">
        <ele>143</ele>
        <time>2025-03-25T17:38:42Z</time>
      </trkpt>
      <trkpt lat="43.64335" lon="1.37776">
        <ele>143</ele>
        <time>2025-03-25T17:38:43Z</time>
      </trkpt>
      <trkpt lat="43.64333" lon="1.37773">
        <ele>143</ele>
        <time>2025-03-25T17:38:44Z</time>
      </trkpt>
      <trkpt lat="43.64332" lon="1.37771">
        <ele>143</ele>
        <time>2025-03-25T17:38:45Z</time>
      </trkpt>
      <trkpt lat="43.6433" lon="1.37768">
        <ele>143</ele>
        <time>2025-03-25T17:38:46Z</time>
      </trkpt>
      <trkpt lat="43.64328" lon="1.37767">
        <ele>142</ele>
        <time>2025-03-25T17:38:47Z</time>
      </trkpt>
      <trkpt lat="43.64326" lon="1.37764">
        <ele>143</ele>
        <time>2025-03-25T17:38:48Z</time>
      </trkpt>
      <trkpt lat="43.64325" lon="1.37763">
        <ele>143</ele>
        <time>2025-03-25T17:38:49Z</time>
      </trkpt>
      <trkpt lat="43.64323" lon="1.37761">
        <ele>143</ele>
        <time>2025-03-25T17:38:50Z</time>
      </trkpt>
      <trkpt lat="43.64321" lon="1.3776">
        <ele>143</ele>
        <time>2025-03-25T17:38:51Z</time>
      </trkpt>
      <trkpt lat="43.64319" lon="1.37759">
        <ele>143</ele>
        <time>2025-03-25T17:38:52Z</time>
      </trkpt>
      <trkpt lat="43.64317" lon="1.37759">
        <ele>143</ele>
        <time>2025-03-25T17:38:53Z</time>
      </trkpt>
      <trkpt lat="43.64315" lon="1.37759">
        <ele>143</ele>
        <time>2025-03-25T17:38:54Z</time>
      </trkpt>
      <trkpt lat="43.64313" lon="1.3776">
        <ele>143</ele>
        <time>2025-03-25T17:38:55Z</time>
      </trkpt>
      <trkpt lat="43.64311" lon="1.37761">
        <ele>143</ele>
        <time>2025-03-25T17:38:56Z</time>
      </trkpt>
      <trkpt lat="43.64309" lon="1.37762">
        <ele>143</ele>
        <time>2025-03-25T17:38:57Z</time>
      </trkpt>
      <trkpt lat="43.64307" lon="1.37763">
        <ele>143</ele>
        <time>2025-03-25T17:38:58Z</time>
      </trkpt>
      <trkpt lat="43.64304" lon="1.37765">
        <ele>143</ele>
        <time>2025-03-25T17:38:59Z</time>
      </trkpt>
      <trkpt lat="43.64304" lon="1.37765">
        <ele>143</ele>
        <time>2025-03-25T17:39:00Z</time>
      </trkpt>
      <trkpt lat="43.64301" lon="1.37767">
        <ele>143</ele>
        <time>2025-03-25T17:39:01Z</time>
      </trkpt>
      <trkpt lat="43.64301" lon="1.37767">
        <ele>143</ele>
        <time>2025-03-25T17:39:02Z</time>
      </trkpt>
      <trkpt lat="43.64299" lon="1.37768">
        <ele>143</ele>
        <time>2025-03-25T17:39:03Z</time>
      </trkpt>
      <trkpt lat="43.64297" lon="1.37769">
        <ele>142</ele>
        <time>2025-03-25T17:39:04Z</time>
      </trkpt>
      <trkpt lat="43.64295" lon="1.37771">
        <ele>142</ele>
        <time>2025-03-25T17:39:05Z</time>
      </trkpt>
      <trkpt lat="43.64293" lon="1.37772">
        <ele>142</ele>
        <time>2025-03-25T17:39:06Z</time>
      </trkpt>
      <trkpt lat="43.64293" lon="1.37772">
        <ele>142</ele>
        <time>2025-03-25T17:39:07Z</time>
      </trkpt>
      <trkpt lat="43.6429" lon="1.37773">
        <ele>143</ele>
        <time>2025-03-25T17:39:08Z</time>
      </trkpt>
      <trkpt lat="43.6429" lon="1.37773">
        <ele>143</ele>
        <time>2025-03-25T17:39:09Z</time>
      </trkpt>
      <trkpt lat="43.64288" lon="1.37774">
        <ele>143</ele>
        <time>2025-03-25T17:39:10Z</time>
      </trkpt>
      <trkpt lat="43.64286" lon="1.37775">
        <ele>143</ele>
        <time>2025-03-25T17:39:11Z</time>
      </trkpt>
      <trkpt lat="43.64284" lon="1.37776">
        <ele>143</ele>
        <time>2025-03-25T17:39:12Z</time>
      </trkpt>
      <trkpt lat="43.64284" lon="1.37776">
        <ele>144</ele>
        <time>2025-03-25T17:39:13Z</time>
      </trkpt>
      <trkpt lat="43.64281" lon="1.37777">
        <ele>144</ele>
        <time>2025-03-25T17:39:14Z</time>
      </trkpt>
      <trkpt lat="43.64281" lon="1.37777">
        <ele>143</ele>
        <time>2025-03-25T17:39:15Z</time>
      </trkpt>
      <trkpt lat="43.64277" lon="1.37777">
        <ele>143</ele>
        <time>2025-03-25T17:39:16Z</time>
      </trkpt>
      <trkpt lat="43.64277" lon="1.37777">
        <ele>143</ele>
        <time>2025-03-25T17:39:17Z</time>
      </trkpt>
      <trkpt lat="43.64274" lon="1.37778">
        <ele>143</ele>
        <time>2025-03-25T17:39:18Z</time>
      </trkpt>
      <trkpt lat="43.64272" lon="1.37778">
        <ele>143</ele>
        <time>2025-03-25T17:39:19Z</time>
      </trkpt>
      <trkpt lat="43.6427" lon="1.37779">
        <ele>143</ele>
        <time>2025-03-25T17:39:20Z</time>
      </trkpt>
      <trkpt lat="43.64267" lon="1.3778">
        <ele>143</ele>
        <time>2025-03-25T17:39:21Z</time>
      </trkpt>
      <trkpt lat="43.64265" lon="1.37781">
        <ele>143</ele>
        <time>2025-03-25T17:39:22Z</time>
      </trkpt>
      <trkpt lat="43.64264" lon="1.37781">
        <ele>143</ele>
        <time>2025-03-25T17:39:23Z</time>
      </trkpt>
      <trkpt lat="43.64264" lon="1.37781">
        <ele>143</ele>
        <time>2025-03-25T17:39:24Z</time>
      </trkpt>
      <trkpt lat="43.64261" lon="1.37783">
        <ele>143</ele>
        <time>2025-03-25T17:39:25Z</time>
      </trkpt>
      <trkpt lat="43.64259" lon="1.37784">
        <ele>143</ele>
        <time>2025-03-25T17:39:26Z</time>
      </trkpt>
      <trkpt lat="43.64257" lon="1.37785">
        <ele>143</ele>
        <time>2025-03-25T17:39:27Z</time>
      </trkpt>
      <trkpt lat="43.64255" lon="1.37786">
        <ele>143</ele>
        <time>2025-03-25T17:39:28Z</time>
      </trkpt>
      <trkpt lat="43.64253" lon="1.37787">
        <ele>143</ele>
        <time>2025-03-25T17:39:29Z</time>
      </trkpt>
      <trkpt lat="43.64252" lon="1.37788">
        <ele>143</ele>
        <time>2025-03-25T17:39:30Z</time>
      </trkpt>
      <trkpt lat="43.6425" lon="1.37789">
        <ele>143</ele>
        <time>2025-03-25T17:39:31Z</time>
      </trkpt>
      <trkpt lat="43.64248" lon="1.37791">
        <ele>143</ele>
        <time>2025-03-25T17:39:32Z</time>
      </trkpt>
      <trkpt lat="43.64245" lon="1.37792">
        <ele>143</ele>
        <time>2025-03-25T17:39:33Z</time>
      </trkpt>
      <trkpt lat="43.64243" lon="1.37794">
        <ele>143</ele>
        <time>2025-03-25T17:39:34Z</time>
      </trkpt>
      <trkpt lat="43.64241" lon="1.37795">
        <ele>143</ele>
        <time>2025-03-25T17:39:35Z</time>
      </trkpt>
      <trkpt lat="43.64238" lon="1.37797">
        <ele>143</ele>
        <time>2025-03-25T17:39:36Z</time>
      </trkpt>
      <trkpt lat="43.64235" lon="1.37799">
        <ele>143</ele>
        <time>2025-03-25T17:39:37Z</time>
      </trkpt>
      <trkpt lat="43.64232" lon="1.378">
        <ele>143</ele>
        <time>2025-03-25T17:39:38Z</time>
      </trkpt>
      <trkpt lat="43.6423" lon="1.37801">
        <ele>143</ele>
        <time>2025-03-25T17:39:39Z</time>
      </trkpt>
      <trkpt lat="43.64227" lon="1.37802">
        <ele>143</ele>
        <time>2025-03-25T17:39:40Z</time>
      </trkpt>
      <trkpt lat="43.64225" lon="1.37803">
        <ele>143</ele>
        <time>2025-03-25T17:39:41Z</time>
      </trkpt>
      <trkpt lat="43.64222" lon="1.37804">
        <ele>144</ele>
        <time>2025-03-25T17:39:42Z</time>
      </trkpt>
      <trkpt lat="43.6422" lon="1.37805">
        <ele>144</ele>
        <time>2025-03-25T17:39:43Z</time>
      </trkpt>
      <trkpt lat="43.64218" lon="1.37807">
        <ele>144</ele>
        <time>2025-03-25T17:39:44Z</time>
      </trkpt>
      <trkpt lat="43.64216" lon="1.37809">
        <ele>144</ele>
        <time>2025-03-25T17:39:45Z</time>
      </trkpt>
      <trkpt lat="43.64213" lon="1.3781">
        <ele>144</ele>
        <time>2025-03-25T17:39:46Z</time>
      </trkpt>
      <trkpt lat="43.64212" lon="1.37812">
        <ele>144</ele>
        <time>2025-03-25T17:39:47Z</time>
      </trkpt>
      <trkpt lat="43.64212" lon="1.37812">
        <ele>144</ele>
        <time>2025-03-25T17:39:48Z</time>
      </trkpt>
      <trkpt lat="43.6421" lon="1.37817">
        <ele>145</ele>
        <time>2025-03-25T17:39:49Z</time>
      </trkpt>
      <trkpt lat="43.64209" lon="1.37819">
        <ele>145</ele>
        <time>2025-03-25T17:39:50Z</time>
      </trkpt>
      <trkpt lat="43.64208" lon="1.37821">
        <ele>145</ele>
        <time>2025-03-25T17:39:51Z</time>
      </trkpt>
      <trkpt lat="43.64206" lon="1.37824">
        <ele>145</ele>
        <time>2025-03-25T17:39:52Z</time>
      </trkpt>
      <trkpt lat="43.64205" lon="1.37826">
        <ele>145</ele>
        <time>2025-03-25T17:39:53Z</time>
      </trkpt>
      <trkpt lat="43.64204" lon="1.37828">
        <ele>145</ele>
        <time>2025-03-25T17:39:54Z</time>
      </trkpt>
      <trkpt lat="43.64203" lon="1.37832">
        <ele>144</ele>
        <time>2025-03-25T17:39:55Z</time>
      </trkpt>
      <trkpt lat="43.64204" lon="1.37835">
        <ele>144</ele>
        <time>2025-03-25T17:39:56Z</time>
      </trkpt>
      <trkpt lat="43.64203" lon="1.3784">
        <ele>144</ele>
        <time>2025-03-25T17:39:57Z</time>
      </trkpt>
      <trkpt lat="43.64203" lon="1.37844">
        <ele>144</ele>
        <time>2025-03-25T17:39:58Z</time>
      </trkpt>
      <trkpt lat="43.64202" lon="1.37847">
        <ele>144</ele>
        <time>2025-03-25T17:39:59Z</time>
      </trkpt>
      <trkpt lat="43.64201" lon="1.3785">
        <ele>144</ele>
        <time>2025-03-25T17:40:00Z</time>
      </trkpt>
      <trkpt lat="43.642" lon="1.37853">
        <ele>144</ele>
        <time>2025-03-25T17:40:01Z</time>
      </trkpt>
      <trkpt lat="43.642" lon="1.37856">
        <ele>144</ele>
        <time>2025-03-25T17:40:02Z</time>
      </trkpt>
      <trkpt lat="43.64198" lon="1.37858">
        <ele>144</ele>
        <time>2025-03-25T17:40:03Z</time>
      </trkpt>
      <trkpt lat="43.64197" lon="1.37861">
        <ele>144</ele>
        <time>2025-03-25T17:40:04Z</time>
      </trkpt>
      <trkpt lat="43.64196" lon="1.37863">
        <ele>143</ele>
        <time>2025-03-25T17:40:05Z</time>
      </trkpt>
      <trkpt lat="43.64196" lon="1.37866">
        <ele>144</ele>
        <time>2025-03-25T17:40:06Z</time>
      </trkpt>
      <trkpt lat="43.64195" lon="1.37869">
        <ele>144</ele>
        <time>2025-03-25T17:40:07Z</time>
      </trkpt>
      <trkpt lat="43.64193" lon="1.37871">
        <ele>144</ele>
        <time>2025-03-25T17:40:08Z</time>
      </trkpt>
      <trkpt lat="43.64192" lon="1.37874">
        <ele>144</ele>
        <time>2025-03-25T17:40:09Z</time>
      </trkpt>
      <trkpt lat="43.64191" lon="1.37877">
        <ele>144</ele>
        <time>2025-03-25T17:40:10Z</time>
      </trkpt>
      <trkpt lat="43.6419" lon="1.37879">
        <ele>144</ele>
        <time>2025-03-25T17:40:11Z</time>
      </trkpt>
      <trkpt lat="43.64189" lon="1.37882">
        <ele>144</ele>
        <time>2025-03-25T17:40:12Z</time>
      </trkpt>
      <trkpt lat="43.64189" lon="1.37885">
        <ele>144</ele>
        <time>2025-03-25T17:40:13Z</time>
      </trkpt>
      <trkpt lat="43.64188" lon="1.37888">
        <ele>144</ele>
        <time>2025-03-25T17:40:14Z</time>
      </trkpt>
      <trkpt lat="43.64188" lon="1.37888">
        <ele>144</ele>
        <time>2025-03-25T17:40:15Z</time>
      </trkpt>
      <trkpt lat="43.64188" lon="1.37891">
        <ele>144</ele>
        <time>2025-03-25T17:40:16Z</time>
      </trkpt>
      <trkpt lat="43.64185" lon="1.37895">
        <ele>144</ele>
        <time>2025-03-25T17:40:17Z</time>
      </trkpt>
      <trkpt lat="43.64185" lon="1.37895">
        <ele>144</ele>
        <time>2025-03-25T17:40:18Z</time>
      </trkpt>
      <trkpt lat="43.64183" lon="1.37898">
        <ele>144</ele>
        <time>2025-03-25T17:40:19Z</time>
      </trkpt>
      <trkpt lat="43.64182" lon="1.37901">
        <ele>144</ele>
        <time>2025-03-25T17:40:20Z</time>
      </trkpt>
      <trkpt lat="43.64181" lon="1.37905">
        <ele>144</ele>
        <time>2025-03-25T17:40:21Z</time>
      </trkpt>
      <trkpt lat="43.6418" lon="1.37908">
        <ele>144</ele>
        <time>2025-03-25T17:40:22Z</time>
      </trkpt>
      <trkpt lat="43.64179" lon="1.37912">
        <ele>144</ele>
        <time>2025-03-25T17:40:23Z</time>
      </trkpt>
      <trkpt lat="43.64178" lon="1.37915">
        <ele>144</ele>
        <time>2025-03-25T17:40:24Z</time>
      </trkpt>
      <trkpt lat="43.64177" lon="1.37917">
        <ele>144</ele>
        <time>2025-03-25T17:40:25Z</time>
      </trkpt>
      <trkpt lat="43.64176" lon="1.3792">
        <ele>144</ele>
        <time>2025-03-25T17:40:26Z</time>
      </trkpt>
      <trkpt lat="43.64175" lon="1.37923">
        <ele>145</ele>
        <time>2025-03-25T17:40:27Z</time>
      </trkpt>
      <trkpt lat="43.64174" lon="1.37925">
        <ele>145</ele>
        <time>2025-03-25T17:40:28Z</time>
      </trkpt>
      <trkpt lat="43.64174" lon="1.37926">
        <ele>145</ele>
        <time>2025-03-25T17:40:29Z</time>
      </trkpt>
      <trkpt lat="43.64174" lon="1.37927">
        <ele>145</ele>
        <time>2025-03-25T17:40:30Z</time>
      </trkpt>
      <trkpt lat="43.64173" lon="1.37928">
        <ele>145</ele>
        <time>2025-03-25T17:40:31Z</time>
      </trkpt>
      <trkpt lat="43.64173" lon="1.37929">
        <ele>145</ele>
        <time>2025-03-25T17:40:32Z</time>
      </trkpt>
      <trkpt lat="43.64172" lon="1.37931">
        <ele>145</ele>
        <time>2025-03-25T17:40:33Z</time>
      </trkpt>
      <trkpt lat="43.64172" lon="1.37932">
        <ele>146</ele>
        <time>2025-03-25T17:40:34Z</time>
      </trkpt>
      <trkpt lat="43.64168" lon="1.37941">
        <ele>146</ele>
        <time>2025-03-25T17:40:35Z</time>
      </trkpt>
      <trkpt lat="43.64168" lon="1.37945">
        <ele>145</ele>
        <time>2025-03-25T17:40:36Z</time>
      </trkpt>
      <trkpt lat="43.64167" lon="1.37948">
        <ele>145</ele>
        <time>2025-03-25T17:40:37Z</time>
      </trkpt>
      <trkpt lat="43.64166" lon="1.37951">
        <ele>145</ele>
        <time>2025-03-25T17:40:38Z</time>
      </trkpt>
      <trkpt lat="43.64165" lon="1.37953">
        <ele>145</ele>
        <time>2025-03-25T17:40:39Z</time>
      </trkpt>
      <trkpt lat="43.64164" lon="1.37956">
        <ele>144</ele>
        <time>2025-03-25T17:40:40Z</time>
      </trkpt>
      <trkpt lat="43.64163" lon="1.37958">
        <ele>144</ele>
        <time>2025-03-25T17:40:41Z</time>
      </trkpt>
      <trkpt lat="43.64162" lon="1.3796">
        <ele>145</ele>
        <time>2025-03-25T17:40:42Z</time>
      </trkpt>
      <trkpt lat="43.64161" lon="1.37962">
        <ele>145</ele>
        <time>2025-03-25T17:40:43Z</time>
      </trkpt>
      <trkpt lat="43.64159" lon="1.37961">
        <ele>145</ele>
        <time>2025-03-25T17:40:44Z</time>
      </trkpt>
      <trkpt lat="43.64156" lon="1.3796">
        <ele>145</ele>
        <time>2025-03-25T17:40:45Z</time>
      </trkpt>
      <trkpt lat="43.64154" lon="1.3796">
        <ele>145</ele>
        <time>2025-03-25T17:40:46Z</time>
      </trkpt>
      <trkpt lat="43.64151" lon="1.3796">
        <ele>145</ele>
        <time>2025-03-25T17:40:47Z</time>
      </trkpt>
      <trkpt lat="43.64148" lon="1.37961">
        <ele>145</ele>
        <time>2025-03-25T17:40:48Z</time>
      </trkpt>
      <trkpt lat="43.64145" lon="1.37962">
        <ele>145</ele>
        <time>2025-03-25T17:40:49Z</time>
      </trkpt>
      <trkpt lat="43.64143" lon="1.37963">
        <ele>145</ele>
        <time>2025-03-25T17:40:50Z</time>
      </trkpt>
      <trkpt lat="43.64141" lon="1.37964">
        <ele>145</ele>
        <time>2025-03-25T17:40:51Z</time>
      </trkpt>
      <trkpt lat="43.64138" lon="1.37965">
        <ele>145</ele>
        <time>2025-03-25T17:40:52Z</time>
      </trkpt>
      <trkpt lat="43.64136" lon="1.37967">
        <ele>145</ele>
        <time>2025-03-25T17:40:53Z</time>
      </trkpt>
      <trkpt lat="43.64133" lon="1.37968">
        <ele>145</ele>
        <time>2025-03-25T17:40:54Z</time>
      </trkpt>
      <trkpt lat="43.64131" lon="1.3797">
        <ele>145</ele>
        <time>2025-03-25T17:40:55Z</time>
      </trkpt>
      <trkpt lat="43.64128" lon="1.37972">
        <ele>145</ele>
        <time>2025-03-25T17:40:56Z</time>
      </trkpt>
      <trkpt lat="43.64126" lon="1.37973">
        <ele>145</ele>
        <time>2025-03-25T17:40:57Z</time>
      </trkpt>
      <trkpt lat="43.64124" lon="1.37974">
        <ele>145</ele>
        <time>2025-03-25T17:40:58Z</time>
      </trkpt>
      <trkpt lat="43.64121" lon="1.37975">
        <ele>145</ele>
        <time>2025-03-25T17:40:59Z</time>
      </trkpt>
      <trkpt lat="43.6412" lon="1.37978">
        <ele>144</ele>
        <time>2025-03-25T17:41:00Z</time>
      </trkpt>
      <trkpt lat="43.64119" lon="1.3798">
        <ele>144</ele>
        <time>2025-03-25T17:41:01Z</time>
      </trkpt>
      <trkpt lat="43.64119" lon="1.3798">
        <ele>144</ele>
        <time>2025-03-25T17:41:02Z</time>
      </trkpt>
      <trkpt lat="43.6412" lon="1.37984">
        <ele>145</ele>
        <time>2025-03-25T17:41:03Z</time>
      </trkpt>
      <trkpt lat="43.6412" lon="1.37984">
        <ele>145</ele>
        <time>2025-03-25T17:41:04Z</time>
      </trkpt>
      <trkpt lat="43.64121" lon="1.37988">
        <ele>145</ele>
        <time>2025-03-25T17:41:05Z</time>
      </trkpt>
      <trkpt lat="43.64122" lon="1.37991">
        <ele>145</ele>
        <time>2025-03-25T17:41:06Z</time>
      </trkpt>
      <trkpt lat="43.64122" lon="1.37994">
        <ele>145</ele>
        <time>2025-03-25T17:41:07Z</time>
      </trkpt>
      <trkpt lat="43.64122" lon="1.37997">
        <ele>144</ele>
        <time>2025-03-25T17:41:08Z</time>
      </trkpt>
      <trkpt lat="43.64122" lon="1.38">
        <ele>144</ele>
        <time>2025-03-25T17:41:09Z</time>
      </trkpt>
      <trkpt lat="43.64121" lon="1.38004">
        <ele>144</ele>
        <time>2025-03-25T17:41:10Z</time>
      </trkpt>
      <trkpt lat="43.64121" lon="1.38007">
        <ele>144</ele>
        <time>2025-03-25T17:41:11Z</time>
      </trkpt>
      <trkpt lat="43.64121" lon="1.3801">
        <ele>144</ele>
        <time>2025-03-25T17:41:12Z</time>
      </trkpt>
      <trkpt lat="43.64121" lon="1.3801">
        <ele>143</ele>
        <time>2025-03-25T17:41:13Z</time>
      </trkpt>
      <trkpt lat="43.64121" lon="1.3801">
        <ele>143</ele>
        <time>2025-03-25T17:41:14Z</time>
      </trkpt>
      <trkpt lat="43.64121" lon="1.3801">
        <ele>143</ele>
        <time>2025-03-25T17:41:15Z</time>
      </trkpt>
      <trkpt lat="43.64119" lon="1.38012">
        <ele>143</ele>
        <time>2025-03-25T17:41:16Z</time>
      </trkpt>
      <trkpt lat="43.64116" lon="1.38013">
        <ele>143</ele>
        <time>2025-03-25T17:41:17Z</time>
      </trkpt>
      <trkpt lat="43.64113" lon="1.38014">
        <ele>143</ele>
        <time>2025-03-25T17:41:18Z</time>
      </trkpt>
      <trkpt lat="43.6411" lon="1.38015">
        <ele>143</ele>
        <time>2025-03-25T17:41:19Z</time>
      </trkpt>
      <trkpt lat="43.64107" lon="1.38016">
        <ele>143</ele>
        <time>2025-03-25T17:41:20Z</time>
      </trkpt>
      <trkpt lat="43.64104" lon="1.38017">
        <ele>143</ele>
        <time>2025-03-25T17:41:21Z</time>
      </trkpt>
      <trkpt lat="43.64102" lon="1.38018">
        <ele>143</ele>
        <time>2025-03-25T17:41:22Z</time>
      </trkpt>
      <trkpt lat="43.641" lon="1.38019">
        <ele>144</ele>
        <time>2025-03-25T17:41:23Z</time>
      </trkpt>
      <trkpt lat="43.64097" lon="1.3802">
        <ele>144</ele>
        <time>2025-03-25T17:41:24Z</time>
      </trkpt>
      <trkpt lat="43.64091" lon="1.38023">
        <ele>144</ele>
        <time>2025-03-25T17:41:25Z</time>
      </trkpt>
      <trkpt lat="43.64089" lon="1.38024">
        <ele>144</ele>
        <time>2025-03-25T17:41:26Z</time>
      </trkpt>
      <trkpt lat="43.64087" lon="1.38025">
        <ele>144</ele>
        <time>2025-03-25T17:41:27Z</time>
      </trkpt>
      <trkpt lat="43.64085" lon="1.38026">
        <ele>144</ele>
        <time>2025-03-25T17:41:28Z</time>
      </trkpt>
      <trkpt lat="43.64083" lon="1.38027">
        <ele>144</ele>
        <time>2025-03-25T17:41:29Z</time>
      </trkpt>
      <trkpt lat="43.64081" lon="1.38028">
        <ele>144</ele>
        <time>2025-03-25T17:41:30Z</time>
      </trkpt>
      <trkpt lat="43.64078" lon="1.3803">
        <ele>144</ele>
        <time>2025-03-25T17:41:31Z</time>
      </trkpt>
      <trkpt lat="43.64076" lon="1.38032">
        <ele>144</ele>
        <time>2025-03-25T17:41:32Z</time>
      </trkpt>
      <trkpt lat="43.64072" lon="1.38034">
        <ele>144</ele>
        <time>2025-03-25T17:41:33Z</time>
      </trkpt>
      <trkpt lat="43.64072" lon="1.38034">
        <ele>144</ele>
        <time>2025-03-25T17:41:34Z</time>
      </trkpt>
      <trkpt lat="43.6407" lon="1.38035">
        <ele>144</ele>
        <time>2025-03-25T17:41:35Z</time>
      </trkpt>
      <trkpt lat="43.64067" lon="1.38037">
        <ele>144</ele>
        <time>2025-03-25T17:41:36Z</time>
      </trkpt>
      <trkpt lat="43.64065" lon="1.38038">
        <ele>144</ele>
        <time>2025-03-25T17:41:37Z</time>
      </trkpt>
      <trkpt lat="43.64063" lon="1.3804">
        <ele>144</ele>
        <time>2025-03-25T17:41:38Z</time>
      </trkpt>
      <trkpt lat="43.64061" lon="1.3804">
        <ele>144</ele>
        <time>2025-03-25T17:41:39Z</time>
      </trkpt>
      <trkpt lat="43.64059" lon="1.38041">
        <ele>144</ele>
        <time>2025-03-25T17:41:40Z</time>
      </trkpt>
      <trkpt lat="43.64057" lon="1.38042">
        <ele>144</ele>
        <time>2025-03-25T17:41:41Z</time>
      </trkpt>
      <trkpt lat="43.64055" lon="1.38042">
        <ele>144</ele>
        <time>2025-03-25T17:41:42Z</time>
      </trkpt>
      <trkpt lat="43.64052" lon="1.38043">
        <ele>144</ele>
        <time>2025-03-25T17:41:43Z</time>
      </trkpt>
      <trkpt lat="43.6405" lon="1.38043">
        <ele>144</ele>
        <time>2025-03-25T17:41:44Z</time>
      </trkpt>
      <trkpt lat="43.6405" lon="1.38043">
        <ele>144</ele>
        <time>2025-03-25T17:41:45Z</time>
      </trkpt>
      <trkpt lat="43.64048" lon="1.38045">
        <ele>144</ele>
        <time>2025-03-25T17:41:46Z</time>
      </trkpt>
      <trkpt lat="43.64048" lon="1.38045">
        <ele>144</ele>
        <time>2025-03-25T17:41:47Z</time>
      </trkpt>
      <trkpt lat="43.64045" lon="1.38046">
        <ele>144</ele>
        <time>2025-03-25T17:41:48Z</time>
      </trkpt>
      <trkpt lat="43.64045" lon="1.38046">
        <ele>144</ele>
        <time>2025-03-25T17:41:49Z</time>
      </trkpt>
      <trkpt lat="43.64042" lon="1.38048">
        <ele>144</ele>
        <time>2025-03-25T17:41:50Z</time>
      </trkpt>
      <trkpt lat="43.6404" lon="1.38048">
        <ele>144</ele>
        <time>2025-03-25T17:41:51Z</time>
      </trkpt>
      <trkpt lat="43.64035" lon="1.38052">
        <ele>144</ele>
        <time>2025-03-25T17:41:52Z</time>
      </trkpt>
      <trkpt lat="43.64035" lon="1.38052">
        <ele>144</ele>
        <time>2025-03-25T17:41:53Z</time>
      </trkpt>
      <trkpt lat="43.64032" lon="1.38053">
        <ele>144</ele>
        <time>2025-03-25T17:41:54Z</time>
      </trkpt>
      <trkpt lat="43.64029" lon="1.38055">
        <ele>144</ele>
        <time>2025-03-25T17:41:55Z</time>
      </trkpt>
      <trkpt lat="43.64027" lon="1.38057">
        <ele>144</ele>
        <time>2025-03-25T17:41:56Z</time>
      </trkpt>
      <trkpt lat="43.64024" lon="1.38058">
        <ele>144</ele>
        <time>2025-03-25T17:41:57Z</time>
      </trkpt>
      <trkpt lat="43.64022" lon="1.3806">
        <ele>144</ele>
        <time>2025-03-25T17:41:58Z</time>
      </trkpt>
      <trkpt lat="43.64021" lon="1.38061">
        <ele>144</ele>
        <time>2025-03-25T17:41:59Z</time>
      </trkpt>
      <trkpt lat="43.64019" lon="1.38063">
        <ele>144</ele>
        <time>2025-03-25T17:42:00Z</time>
      </trkpt>
      <trkpt lat="43.64017" lon="1.38066">
        <ele>144</ele>
        <time>2025-03-25T17:42:01Z</time>
      </trkpt>
      <trkpt lat="43.64015" lon="1.38068">
        <ele>144</ele>
        <time>2025-03-25T17:42:02Z</time>
      </trkpt>
      <trkpt lat="43.64013" lon="1.38071">
        <ele>144</ele>
        <time>2025-03-25T17:42:03Z</time>
      </trkpt>
      <trkpt lat="43.64012" lon="1.38074">
        <ele>144</ele>
        <time>2025-03-25T17:42:04Z</time>
      </trkpt>
      <trkpt lat="43.6401" lon="1.38076">
        <ele>144</ele>
        <time>2025-03-25T17:42:05Z</time>
      </trkpt>
      <trkpt lat="43.64009" lon="1.38079">
        <ele>144</ele>
        <time>2025-03-25T17:42:06Z</time>
      </trkpt>
      <trkpt lat="43.64007" lon="1.38082">
        <ele>144</ele>
        <time>2025-03-25T17:42:07Z</time>
      </trkpt>
      <trkpt lat="43.64006" lon="1.38084">
        <ele>144</ele>
        <time>2025-03-25T17:42:08Z</time>
      </trkpt>
      <trkpt lat="43.64004" lon="1.38087">
        <ele>144</ele>
        <time>2025-03-25T17:42:09Z</time>
      </trkpt>
      <trkpt lat="43.64003" lon="1.3809">
        <ele>144</ele>
        <time>2025-03-25T17:42:10Z</time>
      </trkpt>
      <trkpt lat="43.64002" lon="1.38092">
        <ele>144</ele>
        <time>2025-03-25T17:42:11Z</time>
      </trkpt>
      <trkpt lat="43.63999" lon="1.38097">
        <ele>143</ele>
        <time>2025-03-25T17:42:12Z</time>
      </trkpt>
      <trkpt lat="43.63999" lon="1.38097">
        <ele>143</ele>
        <time>2025-03-25T17:42:13Z</time>
      </trkpt>
      <trkpt lat="43.63999" lon="1.38097">
        <ele>144</ele>
        <time>2025-03-25T17:42:14Z</time>
      </trkpt>
      <trkpt lat="43.63998" lon="1.38101">
        <ele>144</ele>
        <time>2025-03-25T17:42:15Z</time>
      </trkpt>
      <trkpt lat="43.63998" lon="1.38101">
        <ele>144</ele>
        <time>2025-03-25T17:42:16Z</time>
      </trkpt>
      <trkpt lat="43.63996" lon="1.38104">
        <ele>144</ele>
        <time>2025-03-25T17:42:17Z</time>
      </trkpt>
      <trkpt lat="43.63996" lon="1.38104">
        <ele>144</ele>
        <time>2025-03-25T17:42:18Z</time>
      </trkpt>
      <trkpt lat="43.63995" lon="1.38109">
        <ele>144</ele>
        <time>2025-03-25T17:42:19Z</time>
      </trkpt>
      <trkpt lat="43.63993" lon="1.38111">
        <ele>144</ele>
        <time>2025-03-25T17:42:20Z</time>
      </trkpt>
      <trkpt lat="43.63991" lon="1.38112">
        <ele>144</ele>
        <time>2025-03-25T17:42:21Z</time>
      </trkpt>
      <trkpt lat="43.63989" lon="1.38113">
        <ele>144</ele>
        <time>2025-03-25T17:42:22Z</time>
      </trkpt>
      <trkpt lat="43.63986" lon="1.38112">
        <ele>144</ele>
        <time>2025-03-25T17:42:23Z</time>
      </trkpt>
      <trkpt lat="43.63984" lon="1.3811">
        <ele>144</ele>
        <time>2025-03-25T17:42:24Z</time>
      </trkpt>
      <trkpt lat="43.63982" lon="1.38108">
        <ele>144</ele>
        <time>2025-03-25T17:42:25Z</time>
      </trkpt>
      <trkpt lat="43.6398" lon="1.38105">
        <ele>143</ele>
        <time>2025-03-25T17:42:26Z</time>
      </trkpt>
      <trkpt lat="43.63978" lon="1.38102">
        <ele>143</ele>
        <time>2025-03-25T17:42:27Z</time>
      </trkpt>
      <trkpt lat="43.63977" lon="1.381">
        <ele>143</ele>
        <time>2025-03-25T17:42:28Z</time>
      </trkpt>
      <trkpt lat="43.63976" lon="1.38097">
        <ele>143</ele>
        <time>2025-03-25T17:42:29Z</time>
      </trkpt>
      <trkpt lat="43.63974" lon="1.38095">
        <ele>143</ele>
        <time>2025-03-25T17:42:30Z</time>
      </trkpt>
      <trkpt lat="43.63973" lon="1.38092">
        <ele>143</ele>
        <time>2025-03-25T17:42:31Z</time>
      </trkpt>
      <trkpt lat="43.63971" lon="1.3809">
        <ele>143</ele>
        <time>2025-03-25T17:42:32Z</time>
      </trkpt>
      <trkpt lat="43.63968" lon="1.3809">
        <ele>143</ele>
        <time>2025-03-25T17:42:33Z</time>
      </trkpt>
      <trkpt lat="43.63966" lon="1.3809">
        <ele>143</ele>
        <time>2025-03-25T17:42:34Z</time>
      </trkpt>
      <trkpt lat="43.63963" lon="1.3809">
        <ele>143</ele>
        <time>2025-03-25T17:42:35Z</time>
      </trkpt>
      <trkpt lat="43.6396" lon="1.3809">
        <ele>143</ele>
        <time>2025-03-25T17:42:36Z</time>
      </trkpt>
      <trkpt lat="43.63958" lon="1.38091">
        <ele>143</ele>
        <time>2025-03-25T17:42:37Z</time>
      </trkpt>
      <trkpt lat="43.63955" lon="1.38091">
        <ele>143</ele>
        <time>2025-03-25T17:42:38Z</time>
      </trkpt>
      <trkpt lat="43.63953" lon="1.38092">
        <ele>143</ele>
        <time>2025-03-25T17:42:39Z</time>
      </trkpt>
      <trkpt lat="43.6395" lon="1.38092">
        <ele>143</ele>
        <time>2025-03-25T17:42:40Z</time>
      </trkpt>
      <trkpt lat="43.63948" lon="1.38092">
        <ele>143</ele>
        <time>2025-03-25T17:42:41Z</time>
      </trkpt>
      <trkpt lat="43.63946" lon="1.38091">
        <ele>143</ele>
        <time>2025-03-25T17:42:42Z</time>
      </trkpt>
      <trkpt lat="43.63944" lon="1.38091">
        <ele>143</ele>
        <time>2025-03-25T17:42:43Z</time>
      </trkpt>
      <trkpt lat="43.63942" lon="1.38091">
        <ele>143</ele>
        <time>2025-03-25T17:42:44Z</time>
      </trkpt>
      <trkpt lat="43.6394" lon="1.38091">
        <ele>143</ele>
        <time>2025-03-25T17:42:45Z</time>
      </trkpt>
      <trkpt lat="43.63937" lon="1.38092">
        <ele>143</ele>
        <time>2025-03-25T17:42:46Z</time>
      </trkpt>
      <trkpt lat="43.63935" lon="1.38092">
        <ele>143</ele>
        <time>2025-03-25T17:42:47Z</time>
      </trkpt>
      <trkpt lat="43.63932" lon="1.38093">
        <ele>143</ele>
        <time>2025-03-25T17:42:48Z</time>
      </trkpt>
      <trkpt lat="43.63927" lon="1.38093">
        <ele>143</ele>
        <time>2025-03-25T17:42:49Z</time>
      </trkpt>
      <trkpt lat="43.63927" lon="1.38093">
        <ele>143</ele>
        <time>2025-03-25T17:42:50Z</time>
      </trkpt>
      <trkpt lat="43.63925" lon="1.38093">
        <ele>143</ele>
        <time>2025-03-25T17:42:51Z</time>
      </trkpt>
      <trkpt lat="43.63922" lon="1.38093">
        <ele>143</ele>
        <time>2025-03-25T17:42:52Z</time>
      </trkpt>
      <trkpt lat="43.63921" lon="1.38092">
        <ele>143</ele>
        <time>2025-03-25T17:42:53Z</time>
      </trkpt>
      <trkpt lat="43.63921" lon="1.38092">
        <ele>143</ele>
        <time>2025-03-25T17:42:54Z</time>
      </trkpt>
      <trkpt lat="43.63918" lon="1.38092">
        <ele>143</ele>
        <time>2025-03-25T17:42:55Z</time>
      </trkpt>
      <trkpt lat="43.63918" lon="1.38092">
        <ele>143</ele>
        <time>2025-03-25T17:42:56Z</time>
      </trkpt>
      <trkpt lat="43.63914" lon="1.38091">
        <ele>143</ele>
        <time>2025-03-25T17:42:57Z</time>
      </trkpt>
      <trkpt lat="43.63912" lon="1.38091">
        <ele>143</ele>
        <time>2025-03-25T17:42:58Z</time>
      </trkpt>
      <trkpt lat="43.6391" lon="1.38091">
        <ele>144</ele>
        <time>2025-03-25T17:42:59Z</time>
      </trkpt>
      <trkpt lat="43.63908" lon="1.38091">
        <ele>144</ele>
        <time>2025-03-25T17:43:00Z</time>
      </trkpt>
      <trkpt lat="43.63906" lon="1.38092">
        <ele>144</ele>
        <time>2025-03-25T17:43:01Z</time>
      </trkpt>
      <trkpt lat="43.63904" lon="1.38093">
        <ele>144</ele>
        <time>2025-03-25T17:43:02Z</time>
      </trkpt>
      <trkpt lat="43.63902" lon="1.38094">
        <ele>144</ele>
        <time>2025-03-25T17:43:03Z</time>
      </trkpt>
      <trkpt lat="43.63899" lon="1.38095">
        <ele>144</ele>
        <time>2025-03-25T17:43:04Z</time>
      </trkpt>
      <trkpt lat="43.63897" lon="1.38095">
        <ele>144</ele>
        <time>2025-03-25T17:43:05Z</time>
      </trkpt>
      <trkpt lat="43.63894" lon="1.38096">
        <ele>144</ele>
        <time>2025-03-25T17:43:06Z</time>
      </trkpt>
      <trkpt lat="43.63892" lon="1.38097">
        <ele>144</ele>
        <time>2025-03-25T17:43:07Z</time>
      </trkpt>
      <trkpt lat="43.6389" lon="1.38097">
        <ele>144</ele>
        <time>2025-03-25T17:43:08Z</time>
      </trkpt>
      <trkpt lat="43.63887" lon="1.38096">
        <ele>144</ele>
        <time>2025-03-25T17:43:09Z</time>
      </trkpt>
      <trkpt lat="43.63884" lon="1.38095">
        <ele>144</ele>
        <time>2025-03-25T17:43:10Z</time>
      </trkpt>
      <trkpt lat="43.63881" lon="1.38095">
        <ele>144</ele>
        <time>2025-03-25T17:43:11Z</time>
      </trkpt>
      <trkpt lat="43.63879" lon="1.38094">
        <ele>144</ele>
        <time>2025-03-25T17:43:12Z</time>
      </trkpt>
      <trkpt lat="43.63876" lon="1.38094">
        <ele>144</ele>
        <time>2025-03-25T17:43:13Z</time>
      </trkpt>
      <trkpt lat="43.63874" lon="1.38093">
        <ele>144</ele>
        <time>2025-03-25T17:43:14Z</time>
      </trkpt>
      <trkpt lat="43.63871" lon="1.38093">
        <ele>144</ele>
        <time>2025-03-25T17:43:15Z</time>
      </trkpt>
      <trkpt lat="43.63869" lon="1.38093">
        <ele>144</ele>
        <time>2025-03-25T17:43:16Z</time>
      </trkpt>
      <trkpt lat="43.63866" lon="1.38093">
        <ele>144</ele>
        <time>2025-03-25T17:43:17Z</time>
      </trkpt>
      <trkpt lat="43.63864" lon="1.38093">
        <ele>144</ele>
        <time>2025-03-25T17:43:18Z</time>
      </trkpt>
      <trkpt lat="43.63861" lon="1.38092">
        <ele>144</ele>
        <time>2025-03-25T17:43:19Z</time>
      </trkpt>
      <trkpt lat="43.63858" lon="1.38092">
        <ele>144</ele>
        <time>2025-03-25T17:43:20Z</time>
      </trkpt>
      <trkpt lat="43.63856" lon="1.38092">
        <ele>144</ele>
        <time>2025-03-25T17:43:21Z</time>
      </trkpt>
      <trkpt lat="43.63853" lon="1.38092">
        <ele>144</ele>
        <time>2025-03-25T17:43:22Z</time>
      </trkpt>
      <trkpt lat="43.6385" lon="1.38092">
        <ele>144</ele>
        <time>2025-03-25T17:43:23Z</time>
      </trkpt>
      <trkpt lat="43.63847" lon="1.38092">
        <ele>144</ele>
        <time>2025-03-25T17:43:24Z</time>
      </trkpt>
      <trkpt lat="43.63844" lon="1.38093">
        <ele>144</ele>
        <time>2025-03-25T17:43:25Z</time>
      </trkpt>
      <trkpt lat="43.63842" lon="1.38093">
        <ele>144</ele>
        <time>2025-03-25T17:43:26Z</time>
      </trkpt>
      <trkpt lat="43.63837" lon="1.38093">
        <ele>144</ele>
        <time>2025-03-25T17:43:27Z</time>
      </trkpt>
      <trkpt lat="43.63837" lon="1.38093">
        <ele>144</ele>
        <time>2025-03-25T17:43:28Z</time>
      </trkpt>
      <trkpt lat="43.63834" lon="1.38093">
        <ele>144</ele>
        <time>2025-03-25T17:43:29Z</time>
      </trkpt>
      <trkpt lat="43.63832" lon="1.38094">
        <ele>144</ele>
        <time>2025-03-25T17:43:30Z</time>
      </trkpt>
      <trkpt lat="43.6383" lon="1.38094">
        <ele>144</ele>
        <time>2025-03-25T17:43:31Z</time>
      </trkpt>
      <trkpt lat="43.63827" lon="1.38094">
        <ele>144</ele>
        <time>2025-03-25T17:43:32Z</time>
      </trkpt>
      <trkpt lat="43.63825" lon="1.38094">
        <ele>144</ele>
        <time>2025-03-25T17:43:33Z</time>
      </trkpt>
      <trkpt lat="43.63822" lon="1.38095">
        <ele>144</ele>
        <time>2025-03-25T17:43:34Z</time>
      </trkpt>
      <trkpt lat="43.63819" lon="1.38096">
        <ele>144</ele>
        <time>2025-03-25T17:43:35Z</time>
      </trkpt>
      <trkpt lat="43.63816" lon="1.38097">
        <ele>144</ele>
        <time>2025-03-25T17:43:36Z</time>
      </trkpt>
      <trkpt lat="43.63813" lon="1.38096">
        <ele>144</ele>
        <time>2025-03-25T17:43:37Z</time>
      </trkpt>
      <trkpt lat="43.63811" lon="1.38096">
        <ele>144</ele>
        <time>2025-03-25T17:43:38Z</time>
      </trkpt>
      <trkpt lat="43.63808" lon="1.38095">
        <ele>144</ele>
        <time>2025-03-25T17:43:39Z</time>
      </trkpt>
      <trkpt lat="43.63806" lon="1.38095">
        <ele>144</ele>
        <time>2025-03-25T17:43:40Z</time>
      </trkpt>
      <trkpt lat="43.63803" lon="1.38094">
        <ele>144</ele>
        <time>2025-03-25T17:43:41Z</time>
      </trkpt>
      <trkpt lat="43.63801" lon="1.38093">
        <ele>144</ele>
        <time>2025-03-25T17:43:42Z</time>
      </trkpt>
      <trkpt lat="43.63799" lon="1.38092">
        <ele>144</ele>
        <time>2025-03-25T17:43:43Z</time>
      </trkpt>
      <trkpt lat="43.63797" lon="1.38091">
        <ele>144</ele>
        <time>2025-03-25T17:43:44Z</time>
      </trkpt>
      <trkpt lat="43.63795" lon="1.3809">
        <ele>144</ele>
        <time>2025-03-25T17:43:45Z</time>
      </trkpt>
      <trkpt lat="43.63793" lon="1.3809">
        <ele>144</ele>
        <time>2025-03-25T17:43:46Z</time>
      </trkpt>
      <trkpt lat="43.6379" lon="1.3809">
        <ele>144</ele>
        <time>2025-03-25T17:43:47Z</time>
      </trkpt>
      <trkpt lat="43.63788" lon="1.3809">
        <ele>144</ele>
        <time>2025-03-25T17:43:48Z</time>
      </trkpt>
      <trkpt lat="43.63786" lon="1.3809">
        <ele>144</ele>
        <time>2025-03-25T17:43:49Z</time>
      </trkpt>
      <trkpt lat="43.63783" lon="1.3809">
        <ele>145</ele>
        <time>2025-03-25T17:43:50Z</time>
      </trkpt>
      <trkpt lat="43.63781" lon="1.3809">
        <ele>145</ele>
        <time>2025-03-25T17:43:51Z</time>
      </trkpt>
      <trkpt lat="43.63776" lon="1.38089">
        <ele>145</ele>
        <time>2025-03-25T17:43:52Z</time>
      </trkpt>
      <trkpt lat="43.63776" lon="1.38089">
        <ele>145</ele>
        <time>2025-03-25T17:43:53Z</time>
      </trkpt>
      <trkpt lat="43.63773" lon="1.38089">
        <ele>145</ele>
        <time>2025-03-25T17:43:54Z</time>
      </trkpt>
      <trkpt lat="43.63771" lon="1.3809">
        <ele>145</ele>
        <time>2025-03-25T17:43:55Z</time>
      </trkpt>
      <trkpt lat="43.63769" lon="1.38089">
        <ele>144</ele>
        <time>2025-03-25T17:43:56Z</time>
      </trkpt>
      <trkpt lat="43.63766" lon="1.38089">
        <ele>145</ele>
        <time>2025-03-25T17:43:57Z</time>
      </trkpt>
      <trkpt lat="43.63764" lon="1.38089">
        <ele>145</ele>
        <time>2025-03-25T17:43:58Z</time>
      </trkpt>
      <trkpt lat="43.63761" lon="1.38088">
        <ele>145</ele>
        <time>2025-03-25T17:43:59Z</time>
      </trkpt>
      <trkpt lat="43.63759" lon="1.38088">
        <ele>145</ele>
        <time>2025-03-25T17:44:00Z</time>
      </trkpt>
      <trkpt lat="43.63757" lon="1.38087">
        <ele>145</ele>
        <time>2025-03-25T17:44:01Z</time>
      </trkpt>
      <trkpt lat="43.63754" lon="1.38087">
        <ele>145</ele>
        <time>2025-03-25T17:44:02Z</time>
      </trkpt>
      <trkpt lat="43.63752" lon="1.38086">
        <ele>145</ele>
        <time>2025-03-25T17:44:03Z</time>
      </trkpt>
      <trkpt lat="43.6375" lon="1.38085">
        <ele>145</ele>
        <time>2025-03-25T17:44:04Z</time>
      </trkpt>
      <trkpt lat="43.63745" lon="1.38084">
        <ele>145</ele>
        <time>2025-03-25T17:44:05Z</time>
      </trkpt>
      <trkpt lat="43.63745" lon="1.38084">
        <ele>145</ele>
        <time>2025-03-25T17:44:06Z</time>
      </trkpt>
      <trkpt lat="43.63742" lon="1.38084">
        <ele>145</ele>
        <time>2025-03-25T17:44:07Z</time>
      </trkpt>
      <trkpt lat="43.6374" lon="1.38083">
        <ele>145</ele>
        <time>2025-03-25T17:44:08Z</time>
      </trkpt>
      <trkpt lat="43.63738" lon="1.38082">
        <ele>145</ele>
        <time>2025-03-25T17:44:09Z</time>
      </trkpt>
      <trkpt lat="43.63735" lon="1.38082">
        <ele>145</ele>
        <time>2025-03-25T17:44:10Z</time>
      </trkpt>
      <trkpt lat="43.63733" lon="1.38081">
        <ele>145</ele>
        <time>2025-03-25T17:44:11Z</time>
      </trkpt>
      <trkpt lat="43.6373" lon="1.3808">
        <ele>145</ele>
        <time>2025-03-25T17:44:12Z</time>
      </trkpt>
      <trkpt lat="43.63727" lon="1.3808">
        <ele>145</ele>
        <time>2025-03-25T17:44:13Z</time>
      </trkpt>
      <trkpt lat="43.63725" lon="1.38079">
        <ele>145</ele>
        <time>2025-03-25T17:44:14Z</time>
      </trkpt>
      <trkpt lat="43.63722" lon="1.38079">
        <ele>145</ele>
        <time>2025-03-25T17:44:15Z</time>
      </trkpt>
      <trkpt lat="43.6372" lon="1.38078">
        <ele>145</ele>
        <time>2025-03-25T17:44:16Z</time>
      </trkpt>
      <trkpt lat="43.63718" lon="1.38078">
        <ele>145</ele>
        <time>2025-03-25T17:44:17Z</time>
      </trkpt>
      <trkpt lat="43.63715" lon="1.38077">
        <ele>145</ele>
        <time>2025-03-25T17:44:18Z</time>
      </trkpt>
      <trkpt lat="43.63713" lon="1.38076">
        <ele>145</ele>
        <time>2025-03-25T17:44:19Z</time>
      </trkpt>
      <trkpt lat="43.63711" lon="1.38075">
        <ele>145</ele>
        <time>2025-03-25T17:44:20Z</time>
      </trkpt>
      <trkpt lat="43.63709" lon="1.38075">
        <ele>145</ele>
        <time>2025-03-25T17:44:21Z</time>
      </trkpt>
      <trkpt lat="43.63706" lon="1.38074">
        <ele>145</ele>
        <time>2025-03-25T17:44:22Z</time>
      </trkpt>
      <trkpt lat="43.63704" lon="1.38073">
        <ele>145</ele>
        <time>2025-03-25T17:44:23Z</time>
      </trkpt>
      <trkpt lat="43.63702" lon="1.38073">
        <ele>145</ele>
        <time>2025-03-25T17:44:24Z</time>
      </trkpt>
      <trkpt lat="43.63699" lon="1.38072">
        <ele>145</ele>
        <time>2025-03-25T17:44:25Z</time>
      </trkpt>
      <trkpt lat="43.63697" lon="1.38072">
        <ele>145</ele>
        <time>2025-03-25T17:44:26Z</time>
      </trkpt>
      <trkpt lat="43.63695" lon="1.38071">
        <ele>145</ele>
        <time>2025-03-25T17:44:27Z</time>
      </trkpt>
      <trkpt lat="43.63692" lon="1.3807">
        <ele>145</ele>
        <time>2025-03-25T17:44:28Z</time>
      </trkpt>
      <trkpt lat="43.6369" lon="1.38069">
        <ele>145</ele>
        <time>2025-03-25T17:44:29Z</time>
      </trkpt>
      <trkpt lat="43.63687" lon="1.38068">
        <ele>145</ele>
        <time>2025-03-25T17:44:30Z</time>
      </trkpt>
      <trkpt lat="43.63685" lon="1.38068">
        <ele>145</ele>
        <time>2025-03-25T17:44:31Z</time>
      </trkpt>
      <trkpt lat="43.63683" lon="1.38067">
        <ele>145</ele>
        <time>2025-03-25T17:44:32Z</time>
      </trkpt>
      <trkpt lat="43.6368" lon="1.38066">
        <ele>145</ele>
        <time>2025-03-25T17:44:33Z</time>
      </trkpt>
      <trkpt lat="43.63678" lon="1.38065">
        <ele>145</ele>
        <time>2025-03-25T17:44:34Z</time>
      </trkpt>
      <trkpt lat="43.63676" lon="1.38064">
        <ele>145</ele>
        <time>2025-03-25T17:44:35Z</time>
      </trkpt>
      <trkpt lat="43.63673" lon="1.38064">
        <ele>145</ele>
        <time>2025-03-25T17:44:36Z</time>
      </trkpt>
      <trkpt lat="43.63671" lon="1.38064">
        <ele>145</ele>
        <time>2025-03-25T17:44:37Z</time>
      </trkpt>
      <trkpt lat="43.63668" lon="1.38063">
        <ele>145</ele>
        <time>2025-03-25T17:44:38Z</time>
      </trkpt>
      <trkpt lat="43.63666" lon="1.38063">
        <ele>145</ele>
        <time>2025-03-25T17:44:39Z</time>
      </trkpt>
      <trkpt lat="43.63663" lon="1.38062">
        <ele>145</ele>
        <time>2025-03-25T17:44:40Z</time>
      </trkpt>
      <trkpt lat="43.63661" lon="1.38062">
        <ele>145</ele>
        <time>2025-03-25T17:44:41Z</time>
      </trkpt>
      <trkpt lat="43.63658" lon="1.38061">
        <ele>145</ele>
        <time>2025-03-25T17:44:42Z</time>
      </trkpt>
      <trkpt lat="43.63653" lon="1.3806">
        <ele>145</ele>
        <time>2025-03-25T17:44:43Z</time>
      </trkpt>
      <trkpt lat="43.63653" lon="1.3806">
        <ele>145</ele>
        <time>2025-03-25T17:44:44Z</time>
      </trkpt>
      <trkpt lat="43.63651" lon="1.3806">
        <ele>145</ele>
        <time>2025-03-25T17:44:45Z</time>
      </trkpt>
      <trkpt lat="43.63648" lon="1.38059">
        <ele>145</ele>
        <time>2025-03-25T17:44:46Z</time>
      </trkpt>
      <trkpt lat="43.63646" lon="1.38059">
        <ele>145</ele>
        <time>2025-03-25T17:44:47Z</time>
      </trkpt>
      <trkpt lat="43.63644" lon="1.38058">
        <ele>145</ele>
        <time>2025-03-25T17:44:48Z</time>
      </trkpt>
      <trkpt lat="43.63642" lon="1.38057">
        <ele>145</ele>
        <time>2025-03-25T17:44:49Z</time>
      </trkpt>
      <trkpt lat="43.6364" lon="1.38056">
        <ele>145</ele>
        <time>2025-03-25T17:44:50Z</time>
      </trkpt>
      <trkpt lat="43.63638" lon="1.38056">
        <ele>145</ele>
        <time>2025-03-25T17:44:51Z</time>
      </trkpt>
      <trkpt lat="43.63636" lon="1.38055">
        <ele>145</ele>
        <time>2025-03-25T17:44:52Z</time>
      </trkpt>
      <trkpt lat="43.63634" lon="1.38054">
        <ele>145</ele>
        <time>2025-03-25T17:44:53Z</time>
      </trkpt>
      <trkpt lat="43.63632" lon="1.38054">
        <ele>145</ele>
        <time>2025-03-25T17:44:54Z</time>
      </trkpt>
      <trkpt lat="43.63629" lon="1.38054">
        <ele>145</ele>
        <time>2025-03-25T17:44:55Z</time>
      </trkpt>
      <trkpt lat="43.63627" lon="1.38054">
        <ele>145</ele>
        <time>2025-03-25T17:44:56Z</time>
      </trkpt>
      <trkpt lat="43.63624" lon="1.38054">
        <ele>145</ele>
        <time>2025-03-25T17:44:57Z</time>
      </trkpt>
      <trkpt lat="43.63622" lon="1.38053">
        <ele>145</ele>
        <time>2025-03-25T17:44:58Z</time>
      </trkpt>
      <trkpt lat="43.63619" lon="1.38053">
        <ele>145</ele>
        <time>2025-03-25T17:44:59Z</time>
      </trkpt>
      <trkpt lat="43.63617" lon="1.38053">
        <ele>145</ele>
        <time>2025-03-25T17:45:00Z</time>
      </trkpt>
      <trkpt lat="43.63614" lon="1.38052">
        <ele>145</ele>
        <time>2025-03-25T17:45:01Z</time>
      </trkpt>
      <trkpt lat="43.63609" lon="1.38052">
        <ele>145</ele>
        <time>2025-03-25T17:45:02Z</time>
      </trkpt>
      <trkpt lat="43.63609" lon="1.38052">
        <ele>145</ele>
        <time>2025-03-25T17:45:03Z</time>
      </trkpt>
      <trkpt lat="43.63607" lon="1.38051">
        <ele>145</ele>
        <time>2025-03-25T17:45:04Z</time>
      </trkpt>
      <trkpt lat="43.63604" lon="1.38051">
        <ele>145</ele>
        <time>2025-03-25T17:45:05Z</time>
      </trkpt>
      <trkpt lat="43.63602" lon="1.38051">
        <ele>145</ele>
        <time>2025-03-25T17:45:06Z</time>
      </trkpt>
      <trkpt lat="43.636" lon="1.3805">
        <ele>145</ele>
        <time>2025-03-25T17:45:07Z</time>
      </trkpt>
      <trkpt lat="43.63597" lon="1.38049">
        <ele>145</ele>
        <time>2025-03-25T17:45:08Z</time>
      </trkpt>
      <trkpt lat="43.63595" lon="1.38048">
        <ele>145</ele>
        <time>2025-03-25T17:45:09Z</time>
      </trkpt>
      <trkpt lat="43.63592" lon="1.38048">
        <ele>145</ele>
        <time>2025-03-25T17:45:10Z</time>
      </trkpt>
      <trkpt lat="43.6359" lon="1.38048">
        <ele>145</ele>
        <time>2025-03-25T17:45:11Z</time>
      </trkpt>
      <trkpt lat="43.63587" lon="1.38047">
        <ele>146</ele>
        <time>2025-03-25T17:45:12Z</time>
      </trkpt>
      <trkpt lat="43.63585" lon="1.38047">
        <ele>146</ele>
        <time>2025-03-25T17:45:13Z</time>
      </trkpt>
      <trkpt lat="43.63583" lon="1.38046">
        <ele>146</ele>
        <time>2025-03-25T17:45:14Z</time>
      </trkpt>
      <trkpt lat="43.6358" lon="1.38046">
        <ele>146</ele>
        <time>2025-03-25T17:45:15Z</time>
      </trkpt>
      <trkpt lat="43.63578" lon="1.38045">
        <ele>146</ele>
        <time>2025-03-25T17:45:16Z</time>
      </trkpt>
      <trkpt lat="43.63575" lon="1.38045">
        <ele>146</ele>
        <time>2025-03-25T17:45:17Z</time>
      </trkpt>
      <trkpt lat="43.63573" lon="1.38044">
        <ele>146</ele>
        <time>2025-03-25T17:45:18Z</time>
      </trkpt>
      <trkpt lat="43.63571" lon="1.38043">
        <ele>145</ele>
        <time>2025-03-25T17:45:19Z</time>
      </trkpt>
      <trkpt lat="43.63568" lon="1.38043">
        <ele>145</ele>
        <time>2025-03-25T17:45:20Z</time>
      </trkpt>
      <trkpt lat="43.63566" lon="1.38042">
        <ele>145</ele>
        <time>2025-03-25T17:45:21Z</time>
      </trkpt>
      <trkpt lat="43.63564" lon="1.38042">
        <ele>145</ele>
        <time>2025-03-25T17:45:22Z</time>
      </trkpt>
      <trkpt lat="43.63562" lon="1.38042">
        <ele>145</ele>
        <time>2025-03-25T17:45:23Z</time>
      </trkpt>
      <trkpt lat="43.6356" lon="1.38042">
        <ele>145</ele>
        <time>2025-03-25T17:45:24Z</time>
      </trkpt>
      <trkpt lat="43.63557" lon="1.38043">
        <ele>145</ele>
        <time>2025-03-25T17:45:25Z</time>
      </trkpt>
      <trkpt lat="43.63555" lon="1.38043">
        <ele>145</ele>
        <time>2025-03-25T17:45:26Z</time>
      </trkpt>
      <trkpt lat="43.63551" lon="1.38044">
        <ele>145</ele>
        <time>2025-03-25T17:45:27Z</time>
      </trkpt>
      <trkpt lat="43.63551" lon="1.38044">
        <ele>145</ele>
        <time>2025-03-25T17:45:28Z</time>
      </trkpt>
      <trkpt lat="43.63548" lon="1.38045">
        <ele>145</ele>
        <time>2025-03-25T17:45:29Z</time>
      </trkpt>
      <trkpt lat="43.63546" lon="1.38046">
        <ele>146</ele>
        <time>2025-03-25T17:45:30Z</time>
      </trkpt>
      <trkpt lat="43.63544" lon="1.38046">
        <ele>146</ele>
        <time>2025-03-25T17:45:31Z</time>
      </trkpt>
      <trkpt lat="43.63542" lon="1.38047">
        <ele>146</ele>
        <time>2025-03-25T17:45:32Z</time>
      </trkpt>
      <trkpt lat="43.6354" lon="1.38048">
        <ele>146</ele>
        <time>2025-03-25T17:45:33Z</time>
      </trkpt>
      <trkpt lat="43.63538" lon="1.3805">
        <ele>146</ele>
        <time>2025-03-25T17:45:34Z</time>
      </trkpt>
      <trkpt lat="43.63536" lon="1.38051">
        <ele>146</ele>
        <time>2025-03-25T17:45:35Z</time>
      </trkpt>
      <trkpt lat="43.63535" lon="1.38053">
        <ele>146</ele>
        <time>2025-03-25T17:45:36Z</time>
      </trkpt>
      <trkpt lat="43.63533" lon="1.38055">
        <ele>146</ele>
        <time>2025-03-25T17:45:37Z</time>
      </trkpt>
      <trkpt lat="43.63531" lon="1.38058">
        <ele>146</ele>
        <time>2025-03-25T17:45:38Z</time>
      </trkpt>
      <trkpt lat="43.6353" lon="1.38061">
        <ele>146</ele>
        <time>2025-03-25T17:45:39Z</time>
      </trkpt>
      <trkpt lat="43.63527" lon="1.38066">
        <ele>146</ele>
        <time>2025-03-25T17:45:40Z</time>
      </trkpt>
      <trkpt lat="43.63527" lon="1.38066">
        <ele>146</ele>
        <time>2025-03-25T17:45:41Z</time>
      </trkpt>
      <trkpt lat="43.63526" lon="1.38069">
        <ele>146</ele>
        <time>2025-03-25T17:45:42Z</time>
      </trkpt>
      <trkpt lat="43.63525" lon="1.38072">
        <ele>146</ele>
        <time>2025-03-25T17:45:43Z</time>
      </trkpt>
      <trkpt lat="43.63524" lon="1.38074">
        <ele>146</ele>
        <time>2025-03-25T17:45:44Z</time>
      </trkpt>
      <trkpt lat="43.63523" lon="1.38077">
        <ele>146</ele>
        <time>2025-03-25T17:45:45Z</time>
      </trkpt>
      <trkpt lat="43.63522" lon="1.3808">
        <ele>146</ele>
        <time>2025-03-25T17:45:46Z</time>
      </trkpt>
      <trkpt lat="43.63521" lon="1.38082">
        <ele>146</ele>
        <time>2025-03-25T17:45:47Z</time>
      </trkpt>
      <trkpt lat="43.6352" lon="1.38085">
        <ele>146</ele>
        <time>2025-03-25T17:45:48Z</time>
      </trkpt>
      <trkpt lat="43.63519" lon="1.38088">
        <ele>146</ele>
        <time>2025-03-25T17:45:49Z</time>
      </trkpt>
      <trkpt lat="43.63517" lon="1.38091">
        <ele>146</ele>
        <time>2025-03-25T17:45:50Z</time>
      </trkpt>
      <trkpt lat="43.63516" lon="1.38093">
        <ele>146</ele>
        <time>2025-03-25T17:45:51Z</time>
      </trkpt>
      <trkpt lat="43.63515" lon="1.38097">
        <ele>146</ele>
        <time>2025-03-25T17:45:52Z</time>
      </trkpt>
      <trkpt lat="43.63514" lon="1.381">
        <ele>147</ele>
        <time>2025-03-25T17:45:53Z</time>
      </trkpt>
      <trkpt lat="43.63513" lon="1.38103">
        <ele>147</ele>
        <time>2025-03-25T17:45:54Z</time>
      </trkpt>
      <trkpt lat="43.63512" lon="1.38106">
        <ele>146</ele>
        <time>2025-03-25T17:45:55Z</time>
      </trkpt>
      <trkpt lat="43.63512" lon="1.38109">
        <ele>146</ele>
        <time>2025-03-25T17:45:56Z</time>
      </trkpt>
      <trkpt lat="43.63511" lon="1.38112">
        <ele>146</ele>
        <time>2025-03-25T17:45:57Z</time>
      </trkpt>
      <trkpt lat="43.6351" lon="1.38115">
        <ele>146</ele>
        <time>2025-03-25T17:45:58Z</time>
      </trkpt>
      <trkpt lat="43.63508" lon="1.38121">
        <ele>146</ele>
        <time>2025-03-25T17:45:59Z</time>
      </trkpt>
      <trkpt lat="43.63508" lon="1.38121">
        <ele>146</ele>
        <time>2025-03-25T17:46:00Z</time>
      </trkpt>
      <trkpt lat="43.63507" lon="1.38124">
        <ele>146</ele>
        <time>2025-03-25T17:46:01Z</time>
      </trkpt>
      <trkpt lat="43.63506" lon="1.38127">
        <ele>146</ele>
        <time>2025-03-25T17:46:02Z</time>
      </trkpt>
      <trkpt lat="43.63505" lon="1.3813">
        <ele>146</ele>
        <time>2025-03-25T17:46:03Z</time>
      </trkpt>
      <trkpt lat="43.63504" lon="1.38133">
        <ele>146</ele>
        <time>2025-03-25T17:46:04Z</time>
      </trkpt>
      <trkpt lat="43.63503" lon="1.38136">
        <ele>146</ele>
        <time>2025-03-25T17:46:05Z</time>
      </trkpt>
      <trkpt lat="43.63502" lon="1.38139">
        <ele>146</ele>
        <time>2025-03-25T17:46:06Z</time>
      </trkpt>
      <trkpt lat="43.63501" lon="1.38141">
        <ele>146</ele>
        <time>2025-03-25T17:46:07Z</time>
      </trkpt>
      <trkpt lat="43.63501" lon="1.38141">
        <ele>146</ele>
        <time>2025-03-25T17:46:08Z</time>
      </trkpt>
      <trkpt lat="43.635" lon="1.38146">
        <ele>146</ele>
        <time>2025-03-25T17:46:09Z</time>
      </trkpt>
      <trkpt lat="43.63499" lon="1.38149">
        <ele>146</ele>
        <time>2025-03-25T17:46:10Z</time>
      </trkpt>
      <trkpt lat="43.63498" lon="1.38152">
        <ele>146</ele>
        <time>2025-03-25T17:46:11Z</time>
      </trkpt>
      <trkpt lat="43.63497" lon="1.38155">
        <ele>146</ele>
        <time>2025-03-25T17:46:12Z</time>
      </trkpt>
      <trkpt lat="43.63496" lon="1.38158">
        <ele>146</ele>
        <time>2025-03-25T17:46:13Z</time>
      </trkpt>
      <trkpt lat="43.63494" lon="1.38161">
        <ele>146</ele>
        <time>2025-03-25T17:46:14Z</time>
      </trkpt>
      <trkpt lat="43.63493" lon="1.38163">
        <ele>146</ele>
        <time>2025-03-25T17:46:15Z</time>
      </trkpt>
      <trkpt lat="43.63491" lon="1.38166">
        <ele>146</ele>
        <time>2025-03-25T17:46:16Z</time>
      </trkpt>
      <trkpt lat="43.63489" lon="1.38167">
        <ele>146</ele>
        <time>2025-03-25T17:46:17Z</time>
      </trkpt>
      <trkpt lat="43.63487" lon="1.38168">
        <ele>146</ele>
        <time>2025-03-25T17:46:18Z</time>
      </trkpt>
      <trkpt lat="43.63484" lon="1.38169">
        <ele>146</ele>
        <time>2025-03-25T17:46:19Z</time>
      </trkpt>
      <trkpt lat="43.63482" lon="1.3817">
        <ele>146</ele>
        <time>2025-03-25T17:46:20Z</time>
      </trkpt>
      <trkpt lat="43.63475" lon="1.38169">
        <ele>147</ele>
        <time>2025-03-25T17:49:28Z</time>
      </trkpt>
      <trkpt lat="43.63475" lon="1.38169">
        <ele>147</ele>
        <time>2025-03-25T17:49:29Z</time>
      </trkpt>
      <trkpt lat="43.63473" lon="1.38169">
        <ele>147</ele>
        <time>2025-03-25T17:49:30Z</time>
      </trkpt>
      <trkpt lat="43.63473" lon="1.38169">
        <ele>147</ele>
        <time>2025-03-25T17:49:31Z</time>
      </trkpt>
      <trkpt lat="43.6347" lon="1.3817">
        <ele>146</ele>
        <time>2025-03-25T17:49:32Z</time>
      </trkpt>
      <trkpt lat="43.63468" lon="1.38172">
        <ele>146</ele>
        <time>2025-03-25T17:49:33Z</time>
      </trkpt>
      <trkpt lat="43.63466" lon="1.38173">
        <ele>146</ele>
        <time>2025-03-25T17:49:34Z</time>
      </trkpt>
      <trkpt lat="43.63464" lon="1.38174">
        <ele>147</ele>
        <time>2025-03-25T17:49:35Z</time>
      </trkpt>
      <trkpt lat="43.63462" lon="1.38176">
        <ele>147</ele>
        <time>2025-03-25T17:49:36Z</time>
      </trkpt>
      <trkpt lat="43.6346" lon="1.38177">
        <ele>147</ele>
        <time>2025-03-25T17:49:37Z</time>
      </trkpt>
      <trkpt lat="43.63458" lon="1.38178">
        <ele>147</ele>
        <time>2025-03-25T17:49:38Z</time>
      </trkpt>
      <trkpt lat="43.63456" lon="1.38179">
        <ele>147</ele>
        <time>2025-03-25T17:49:39Z</time>
      </trkpt>
      <trkpt lat="43.63454" lon="1.38181">
        <ele>147</ele>
        <time>2025-03-25T17:49:40Z</time>
      </trkpt>
      <trkpt lat="43.63452" lon="1.38183">
        <ele>147</ele>
        <time>2025-03-25T17:49:41Z</time>
      </trkpt>
      <trkpt lat="43.6345" lon="1.38185">
        <ele>147</ele>
        <time>2025-03-25T17:49:42Z</time>
      </trkpt>
      <trkpt lat="43.63448" lon="1.38187">
        <ele>147</ele>
        <time>2025-03-25T17:49:43Z</time>
      </trkpt>
      <trkpt lat="43.63446" lon="1.38189">
        <ele>147</ele>
        <time>2025-03-25T17:49:44Z</time>
      </trkpt>
      <trkpt lat="43.63444" lon="1.3819">
        <ele>147</ele>
        <time>2025-03-25T17:49:45Z</time>
      </trkpt>
      <trkpt lat="43.63442" lon="1.38192">
        <ele>147</ele>
        <time>2025-03-25T17:49:46Z</time>
      </trkpt>
      <trkpt lat="43.63439" lon="1.38195">
        <ele>147</ele>
        <time>2025-03-25T17:49:47Z</time>
      </trkpt>
      <trkpt lat="43.63438" lon="1.38196">
        <ele>147</ele>
        <time>2025-03-25T17:49:48Z</time>
      </trkpt>
      <trkpt lat="43.63437" lon="1.38198">
        <ele>147</ele>
        <time>2025-03-25T17:49:49Z</time>
      </trkpt>
      <trkpt lat="43.63438" lon="1.38201">
        <ele>147</ele>
        <time>2025-03-25T17:49:50Z</time>
      </trkpt>
      <trkpt lat="43.63438" lon="1.38204">
        <ele>147</ele>
        <time>2025-03-25T17:49:51Z</time>
      </trkpt>
      <trkpt lat="43.63439" lon="1.38207">
        <ele>147</ele>
        <time>2025-03-25T17:49:52Z</time>
      </trkpt>
      <trkpt lat="43.6344" lon="1.38211">
        <ele>147</ele>
        <time>2025-03-25T17:49:53Z</time>
      </trkpt>
      <trkpt lat="43.6344" lon="1.38214">
        <ele>148</ele>
        <time>2025-03-25T17:49:54Z</time>
      </trkpt>
      <trkpt lat="43.6344" lon="1.38218">
        <ele>148</ele>
        <time>2025-03-25T17:49:55Z</time>
      </trkpt>
      <trkpt lat="43.63441" lon="1.38222">
        <ele>148</ele>
        <time>2025-03-25T17:49:56Z</time>
      </trkpt>
      <trkpt lat="43.63441" lon="1.38225">
        <ele>148</ele>
        <time>2025-03-25T17:49:57Z</time>
      </trkpt>
      <trkpt lat="43.63441" lon="1.38228">
        <ele>147</ele>
        <time>2025-03-25T17:49:58Z</time>
      </trkpt>
      <trkpt lat="43.63441" lon="1.38231">
        <ele>147</ele>
        <time>2025-03-25T17:49:59Z</time>
      </trkpt>
      <trkpt lat="43.6344" lon="1.38234">
        <ele>147</ele>
        <time>2025-03-25T17:50:00Z</time>
      </trkpt>
      <trkpt lat="43.6344" lon="1.38237">
        <ele>147</ele>
        <time>2025-03-25T17:50:01Z</time>
      </trkpt>
      <trkpt lat="43.6344" lon="1.38241">
        <ele>147</ele>
        <time>2025-03-25T17:50:02Z</time>
      </trkpt>
      <trkpt lat="43.63439" lon="1.38245">
        <ele>147</ele>
        <time>2025-03-25T17:50:03Z</time>
      </trkpt>
      <trkpt lat="43.63439" lon="1.38248">
        <ele>147</ele>
        <time>2025-03-25T17:50:04Z</time>
      </trkpt>
      <trkpt lat="43.63439" lon="1.38252">
        <ele>147</ele>
        <time>2025-03-25T17:50:05Z</time>
      </trkpt>
      <trkpt lat="43.63439" lon="1.38255">
        <ele>147</ele>
        <time>2025-03-25T17:50:06Z</time>
      </trkpt>
      <trkpt lat="43.63438" lon="1.38258">
        <ele>147</ele>
        <time>2025-03-25T17:50:07Z</time>
      </trkpt>
      <trkpt lat="43.63438" lon="1.38261">
        <ele>147</ele>
        <time>2025-03-25T17:50:08Z</time>
      </trkpt>
      <trkpt lat="43.63439" lon="1.38264">
        <ele>147</ele>
        <time>2025-03-25T17:50:09Z</time>
      </trkpt>
      <trkpt lat="43.63438" lon="1.38268">
        <ele>147</ele>
        <time>2025-03-25T17:50:10Z</time>
      </trkpt>
      <trkpt lat="43.63438" lon="1.38271">
        <ele>147</ele>
        <time>2025-03-25T17:50:11Z</time>
      </trkpt>
      <trkpt lat="43.63438" lon="1.38274">
        <ele>147</ele>
        <time>2025-03-25T17:50:12Z</time>
      </trkpt>
      <trkpt lat="43.63438" lon="1.38277">
        <ele>147</ele>
        <time>2025-03-25T17:50:13Z</time>
      </trkpt>
      <trkpt lat="43.63437" lon="1.3828">
        <ele>147</ele>
        <time>2025-03-25T17:50:14Z</time>
      </trkpt>
      <trkpt lat="43.63437" lon="1.38283">
        <ele>147</ele>
        <time>2025-03-25T17:50:15Z</time>
      </trkpt>
      <trkpt lat="43.63437" lon="1.38286">
        <ele>147</ele>
        <time>2025-03-25T17:50:16Z</time>
      </trkpt>
      <trkpt lat="43.63436" lon="1.3829">
        <ele>147</ele>
        <time>2025-03-25T17:50:17Z</time>
      </trkpt>
      <trkpt lat="43.63434" lon="1.38293">
        <ele>147</ele>
        <time>2025-03-25T17:50:18Z</time>
      </trkpt>
      <trkpt lat="43.63433" lon="1.38296">
        <ele>147</ele>
        <time>2025-03-25T17:50:19Z</time>
      </trkpt>
      <trkpt lat="43.6343" lon="1.38298">
        <ele>147</ele>
        <time>2025-03-25T17:50:20Z</time>
      </trkpt>
      <trkpt lat="43.63428" lon="1.38301">
        <ele>147</ele>
        <time>2025-03-25T17:50:21Z</time>
      </trkpt>
      <trkpt lat="43.63426" lon="1.38303">
        <ele>147</ele>
        <time>2025-03-25T17:50:22Z</time>
      </trkpt>
      <trkpt lat="43.63423" lon="1.38304">
        <ele>148</ele>
        <time>2025-03-25T17:50:23Z</time>
      </trkpt>
      <trkpt lat="43.63421" lon="1.38306">
        <ele>148</ele>
        <time>2025-03-25T17:50:24Z</time>
      </trkpt>
      <trkpt lat="43.6342" lon="1.38308">
        <ele>148</ele>
        <time>2025-03-25T17:50:25Z</time>
      </trkpt>
      <trkpt lat="43.63419" lon="1.3831">
        <ele>147</ele>
        <time>2025-03-25T17:50:26Z</time>
      </trkpt>
      <trkpt lat="43.63419" lon="1.38313">
        <ele>147</ele>
        <time>2025-03-25T17:50:27Z</time>
      </trkpt>
      <trkpt lat="43.6342" lon="1.38316">
        <ele>147</ele>
        <time>2025-03-25T17:50:28Z</time>
      </trkpt>
      <trkpt lat="43.6342" lon="1.3832">
        <ele>148</ele>
        <time>2025-03-25T17:50:29Z</time>
      </trkpt>
      <trkpt lat="43.63421" lon="1.38323">
        <ele>148</ele>
        <time>2025-03-25T17:50:30Z</time>
      </trkpt>
      <trkpt lat="43.63422" lon="1.38326">
        <ele>147</ele>
        <time>2025-03-25T17:50:31Z</time>
      </trkpt>
      <trkpt lat="43.63423" lon="1.38329">
        <ele>147</ele>
        <time>2025-03-25T17:50:32Z</time>
      </trkpt>
      <trkpt lat="43.63424" lon="1.38333">
        <ele>147</ele>
        <time>2025-03-25T17:50:33Z</time>
      </trkpt>
      <trkpt lat="43.63425" lon="1.38336">
        <ele>147</ele>
        <time>2025-03-25T17:50:34Z</time>
      </trkpt>
      <trkpt lat="43.63426" lon="1.38339">
        <ele>147</ele>
        <time>2025-03-25T17:50:35Z</time>
      </trkpt>
      <trkpt lat="43.63427" lon="1.38343">
        <ele>148</ele>
        <time>2025-03-25T17:50:36Z</time>
      </trkpt>
      <trkpt lat="43.63428" lon="1.38346">
        <ele>148</ele>
        <time>2025-03-25T17:50:37Z</time>
      </trkpt>
      <trkpt lat="43.63429" lon="1.38349">
        <ele>147</ele>
        <time>2025-03-25T17:50:38Z</time>
      </trkpt>
      <trkpt lat="43.63429" lon="1.38353">
        <ele>147</ele>
        <time>2025-03-25T17:50:39Z</time>
      </trkpt>
      <trkpt lat="43.6343" lon="1.38356">
        <ele>147</ele>
        <time>2025-03-25T17:50:40Z</time>
      </trkpt>
      <trkpt lat="43.63431" lon="1.38359">
        <ele>147</ele>
        <time>2025-03-25T17:50:41Z</time>
      </trkpt>
      <trkpt lat="43.63432" lon="1.38362">
        <ele>147</ele>
        <time>2025-03-25T17:50:42Z</time>
      </trkpt>
      <trkpt lat="43.63433" lon="1.38366">
        <ele>147</ele>
        <time>2025-03-25T17:50:43Z</time>
      </trkpt>
      <trkpt lat="43.63434" lon="1.38369">
        <ele>147</ele>
        <time>2025-03-25T17:50:44Z</time>
      </trkpt>
      <trkpt lat="43.63435" lon="1.38373">
        <ele>147</ele>
        <time>2025-03-25T17:50:45Z</time>
      </trkpt>
      <trkpt lat="43.63435" lon="1.38376">
        <ele>147</ele>
        <time>2025-03-25T17:50:46Z</time>
      </trkpt>
      <trkpt lat="43.63436" lon="1.38379">
        <ele>147</ele>
        <time>2025-03-25T17:50:47Z</time>
      </trkpt>
      <trkpt lat="43.63437" lon="1.38382">
        <ele>147</ele>
        <time>2025-03-25T17:50:48Z</time>
      </trkpt>
      <trkpt lat="43.63437" lon="1.38385">
        <ele>147</ele>
        <time>2025-03-25T17:50:49Z</time>
      </trkpt>
      <trkpt lat="43.63438" lon="1.38388">
        <ele>147</ele>
        <time>2025-03-25T17:50:50Z</time>
      </trkpt>
      <trkpt lat="43.63439" lon="1.38391">
        <ele>147</ele>
        <time>2025-03-25T17:50:51Z</time>
      </trkpt>
      <trkpt lat="43.6344" lon="1.38395">
        <ele>147</ele>
        <time>2025-03-25T17:50:52Z</time>
      </trkpt>
      <trkpt lat="43.63441" lon="1.38398">
        <ele>147</ele>
        <time>2025-03-25T17:50:53Z</time>
      </trkpt>
      <trkpt lat="43.63442" lon="1.38401">
        <ele>147</ele>
        <time>2025-03-25T17:50:54Z</time>
      </trkpt>
      <trkpt lat="43.63443" lon="1.38404">
        <ele>146</ele>
        <time>2025-03-25T17:50:55Z</time>
      </trkpt>
      <trkpt lat="43.63444" lon="1.38407">
        <ele>146</ele>
        <time>2025-03-25T17:50:56Z</time>
      </trkpt>
      <trkpt lat="43.63444" lon="1.3841">
        <ele>146</ele>
        <time>2025-03-25T17:50:57Z</time>
      </trkpt>
      <trkpt lat="43.63445" lon="1.38414">
        <ele>146</ele>
        <time>2025-03-25T17:50:58Z</time>
      </trkpt>
      <trkpt lat="43.63446" lon="1.38417">
        <ele>146</ele>
        <time>2025-03-25T17:50:59Z</time>
      </trkpt>
      <trkpt lat="43.63447" lon="1.3842">
        <ele>147</ele>
        <time>2025-03-25T17:51:00Z</time>
      </trkpt>
      <trkpt lat="43.63448" lon="1.38423">
        <ele>147</ele>
        <time>2025-03-25T17:51:01Z</time>
      </trkpt>
      <trkpt lat="43.63449" lon="1.38426">
        <ele>147</ele>
        <time>2025-03-25T17:51:02Z</time>
      </trkpt>
      <trkpt lat="43.63451" lon="1.38433">
        <ele>147</ele>
        <time>2025-03-25T17:51:03Z</time>
      </trkpt>
      <trkpt lat="43.63451" lon="1.38433">
        <ele>147</ele>
        <time>2025-03-25T17:51:04Z</time>
      </trkpt>
      <trkpt lat="43.63452" lon="1.38436">
        <ele>147</ele>
        <time>2025-03-25T17:51:05Z</time>
      </trkpt>
      <trkpt lat="43.63453" lon="1.38439">
        <ele>146</ele>
        <time>2025-03-25T17:51:06Z</time>
      </trkpt>
      <trkpt lat="43.63454" lon="1.38442">
        <ele>147</ele>
        <time>2025-03-25T17:51:07Z</time>
      </trkpt>
      <trkpt lat="43.63455" lon="1.38445">
        <ele>147</ele>
        <time>2025-03-25T17:51:08Z</time>
      </trkpt>
      <trkpt lat="43.63456" lon="1.38448">
        <ele>147</ele>
        <time>2025-03-25T17:51:09Z</time>
      </trkpt>
      <trkpt lat="43.63457" lon="1.38452">
        <ele>146</ele>
        <time>2025-03-25T17:51:10Z</time>
      </trkpt>
      <trkpt lat="43.63458" lon="1.38455">
        <ele>146</ele>
        <time>2025-03-25T17:51:11Z</time>
      </trkpt>
      <trkpt lat="43.63459" lon="1.38458">
        <ele>146</ele>
        <time>2025-03-25T17:51:12Z</time>
      </trkpt>
      <trkpt lat="43.6346" lon="1.38461">
        <ele>146</ele>
        <time>2025-03-25T17:51:13Z</time>
      </trkpt>
      <trkpt lat="43.6346" lon="1.38465">
        <ele>146</ele>
        <time>2025-03-25T17:51:14Z</time>
      </trkpt>
      <trkpt lat="43.63461" lon="1.38468">
        <ele>146</ele>
        <time>2025-03-25T17:51:15Z</time>
      </trkpt>
      <trkpt lat="43.63462" lon="1.38471">
        <ele>146</ele>
        <time>2025-03-25T17:51:16Z</time>
      </trkpt>
      <trkpt lat="43.63463" lon="1.38474">
        <ele>146</ele>
        <time>2025-03-25T17:51:17Z</time>
      </trkpt>
      <trkpt lat="43.63464" lon="1.38478">
        <ele>146</ele>
        <time>2025-03-25T17:51:18Z</time>
      </trkpt>
      <trkpt lat="43.63464" lon="1.38481">
        <ele>146</ele>
        <time>2025-03-25T17:51:19Z</time>
      </trkpt>
      <trkpt lat="43.63464" lon="1.38485">
        <ele>146</ele>
        <time>2025-03-25T17:51:20Z</time>
      </trkpt>
      <trkpt lat="43.63465" lon="1.38488">
        <ele>146</ele>
        <time>2025-03-25T17:51:21Z</time>
      </trkpt>
      <trkpt lat="43.63464" lon="1.38492">
        <ele>146</ele>
        <time>2025-03-25T17:51:22Z</time>
      </trkpt>
      <trkpt lat="43.63464" lon="1.38496">
        <ele>146</ele>
        <time>2025-03-25T17:51:23Z</time>
      </trkpt>
      <trkpt lat="43.63463" lon="1.38499">
        <ele>146</ele>
        <time>2025-03-25T17:51:24Z</time>
      </trkpt>
      <trkpt lat="43.63463" lon="1.38503">
        <ele>146</ele>
        <time>2025-03-25T17:51:25Z</time>
      </trkpt>
      <trkpt lat="43.63462" lon="1.38507">
        <ele>146</ele>
        <time>2025-03-25T17:51:26Z</time>
      </trkpt>
      <trkpt lat="43.63462" lon="1.3851">
        <ele>146</ele>
        <time>2025-03-25T17:51:27Z</time>
      </trkpt>
      <trkpt lat="43.63461" lon="1.38513">
        <ele>146</ele>
        <time>2025-03-25T17:51:28Z</time>
      </trkpt>
      <trkpt lat="43.6346" lon="1.38517">
        <ele>146</ele>
        <time>2025-03-25T17:51:29Z</time>
      </trkpt>
      <trkpt lat="43.6346" lon="1.38521">
        <ele>146</ele>
        <time>2025-03-25T17:51:30Z</time>
      </trkpt>
      <trkpt lat="43.63459" lon="1.38524">
        <ele>147</ele>
        <time>2025-03-25T17:51:31Z</time>
      </trkpt>
      <trkpt lat="43.63459" lon="1.38528">
        <ele>147</ele>
        <time>2025-03-25T17:51:32Z</time>
      </trkpt>
      <trkpt lat="43.63458" lon="1.38532">
        <ele>147</ele>
        <time>2025-03-25T17:51:33Z</time>
      </trkpt>
      <trkpt lat="43.63457" lon="1.38535">
        <ele>147</ele>
        <time>2025-03-25T17:51:34Z</time>
      </trkpt>
      <trkpt lat="43.63457" lon="1.38538">
        <ele>146</ele>
        <time>2025-03-25T17:51:35Z</time>
      </trkpt>
      <trkpt lat="43.63456" lon="1.38542">
        <ele>146</ele>
        <time>2025-03-25T17:51:36Z</time>
      </trkpt>
      <trkpt lat="43.63456" lon="1.38545">
        <ele>146</ele>
        <time>2025-03-25T17:51:37Z</time>
      </trkpt>
      <trkpt lat="43.63456" lon="1.38549">
        <ele>146</ele>
        <time>2025-03-25T17:51:38Z</time>
      </trkpt>
      <trkpt lat="43.63455" lon="1.38553">
        <ele>146</ele>
        <time>2025-03-25T17:51:39Z</time>
      </trkpt>
      <trkpt lat="43.63454" lon="1.38557">
        <ele>146</ele>
        <time>2025-03-25T17:51:40Z</time>
      </trkpt>
      <trkpt lat="43.63451" lon="1.38564">
        <ele>146</ele>
        <time>2025-03-25T17:51:41Z</time>
      </trkpt>
      <trkpt lat="43.63451" lon="1.38564">
        <ele>146</ele>
        <time>2025-03-25T17:51:42Z</time>
      </trkpt>
      <trkpt lat="43.6345" lon="1.38568">
        <ele>146</ele>
        <time>2025-03-25T17:51:43Z</time>
      </trkpt>
      <trkpt lat="43.6345" lon="1.38572">
        <ele>145</ele>
        <time>2025-03-25T17:51:44Z</time>
      </trkpt>
      <trkpt lat="43.63449" lon="1.38575">
        <ele>145</ele>
        <time>2025-03-25T17:51:45Z</time>
      </trkpt>
      <trkpt lat="43.63449" lon="1.38579">
        <ele>145</ele>
        <time>2025-03-25T17:51:46Z</time>
      </trkpt>
      <trkpt lat="43.63448" lon="1.38582">
        <ele>145</ele>
        <time>2025-03-25T17:51:47Z</time>
      </trkpt>
      <trkpt lat="43.63448" lon="1.38585">
        <ele>145</ele>
        <time>2025-03-25T17:51:48Z</time>
      </trkpt>
      <trkpt lat="43.63448" lon="1.38588">
        <ele>145</ele>
        <time>2025-03-25T17:51:49Z</time>
      </trkpt>
      <trkpt lat="43.63447" lon="1.38592">
        <ele>145</ele>
        <time>2025-03-25T17:51:50Z</time>
      </trkpt>
      <trkpt lat="43.63447" lon="1.38595">
        <ele>145</ele>
        <time>2025-03-25T17:51:51Z</time>
      </trkpt>
      <trkpt lat="43.63446" lon="1.38598">
        <ele>145</ele>
        <time>2025-03-25T17:51:52Z</time>
      </trkpt>
      <trkpt lat="43.63446" lon="1.38602">
        <ele>145</ele>
        <time>2025-03-25T17:51:53Z</time>
      </trkpt>
      <trkpt lat="43.63445" lon="1.38605">
        <ele>145</ele>
        <time>2025-03-25T17:51:54Z</time>
      </trkpt>
      <trkpt lat="43.63444" lon="1.38608">
        <ele>145</ele>
        <time>2025-03-25T17:51:55Z</time>
      </trkpt>
      <trkpt lat="43.63444" lon="1.38611">
        <ele>145</ele>
        <time>2025-03-25T17:51:56Z</time>
      </trkpt>
      <trkpt lat="43.63443" lon="1.38615">
        <ele>145</ele>
        <time>2025-03-25T17:51:57Z</time>
      </trkpt>
      <trkpt lat="43.63443" lon="1.38618">
        <ele>145</ele>
        <time>2025-03-25T17:51:58Z</time>
      </trkpt>
      <trkpt lat="43.63443" lon="1.38621">
        <ele>145</ele>
        <time>2025-03-25T17:51:59Z</time>
      </trkpt>
      <trkpt lat="43.63439" lon="1.38627">
        <ele>145</ele>
        <time>2025-03-25T17:52:00Z</time>
      </trkpt>
      <trkpt lat="43.63439" lon="1.38627">
        <ele>145</ele>
        <time>2025-03-25T17:52:01Z</time>
      </trkpt>
      <trkpt lat="43.63437" lon="1.38628">
        <ele>145</ele>
        <time>2025-03-25T17:52:02Z</time>
      </trkpt>
      <trkpt lat="43.63435" lon="1.38629">
        <ele>145</ele>
        <time>2025-03-25T17:52:03Z</time>
      </trkpt>
      <trkpt lat="43.63433" lon="1.3863">
        <ele>144</ele>
        <time>2025-03-25T17:52:04Z</time>
      </trkpt>
      <trkpt lat="43.6343" lon="1.38631">
        <ele>144</ele>
        <time>2025-03-25T17:52:05Z</time>
      </trkpt>
      <trkpt lat="43.63427" lon="1.38631">
        <ele>144</ele>
        <time>2025-03-25T17:52:06Z</time>
      </trkpt>
      <trkpt lat="43.63423" lon="1.38632">
        <ele>144</ele>
        <time>2025-03-25T17:52:07Z</time>
      </trkpt>
      <trkpt lat="43.63421" lon="1.38632">
        <ele>144</ele>
        <time>2025-03-25T17:52:08Z</time>
      </trkpt>
      <trkpt lat="43.63418" lon="1.38633">
        <ele>144</ele>
        <time>2025-03-25T17:52:09Z</time>
      </trkpt>
      <trkpt lat="43.63416" lon="1.38633">
        <ele>144</ele>
        <time>2025-03-25T17:52:10Z</time>
      </trkpt>
      <trkpt lat="43.63414" lon="1.38633">
        <ele>144</ele>
        <time>2025-03-25T17:52:11Z</time>
      </trkpt>
      <trkpt lat="43.63414" lon="1.38633">
        <ele>144</ele>
        <time>2025-03-25T17:52:12Z</time>
      </trkpt>
      <trkpt lat="43.6341" lon="1.38632">
        <ele>144</ele>
        <time>2025-03-25T17:52:13Z</time>
      </trkpt>
      <trkpt lat="43.63409" lon="1.38632">
        <ele>144</ele>
        <time>2025-03-25T17:52:14Z</time>
      </trkpt>
      <trkpt lat="43.63406" lon="1.38631">
        <ele>144</ele>
        <time>2025-03-25T17:52:15Z</time>
      </trkpt>
      <trkpt lat="43.63404" lon="1.38629">
        <ele>145</ele>
        <time>2025-03-25T17:52:16Z</time>
      </trkpt>
      <trkpt lat="43.63401" lon="1.38628">
        <ele>145</ele>
        <time>2025-03-25T17:52:17Z</time>
      </trkpt>
      <trkpt lat="43.63399" lon="1.38627">
        <ele>145</ele>
        <time>2025-03-25T17:52:18Z</time>
      </trkpt>
      <trkpt lat="43.63396" lon="1.38626">
        <ele>145</ele>
        <time>2025-03-25T17:52:19Z</time>
      </trkpt>
      <trkpt lat="43.63393" lon="1.38624">
        <ele>145</ele>
        <time>2025-03-25T17:52:20Z</time>
      </trkpt>
      <trkpt lat="43.6339" lon="1.38623">
        <ele>145</ele>
        <time>2025-03-25T17:52:21Z</time>
      </trkpt>
      <trkpt lat="43.63387" lon="1.38622">
        <ele>145</ele>
        <time>2025-03-25T17:52:22Z</time>
      </trkpt>
      <trkpt lat="43.63385" lon="1.38621">
        <ele>145</ele>
        <time>2025-03-25T17:52:23Z</time>
      </trkpt>
      <trkpt lat="43.63382" lon="1.3862">
        <ele>145</ele>
        <time>2025-03-25T17:52:24Z</time>
      </trkpt>
      <trkpt lat="43.63379" lon="1.3862">
        <ele>145</ele>
        <time>2025-03-25T17:52:25Z</time>
      </trkpt>
      <trkpt lat="43.63377" lon="1.3862">
        <ele>145</ele>
        <time>2025-03-25T17:52:26Z</time>
      </trkpt>
      <trkpt lat="43.63375" lon="1.3862">
        <ele>146</ele>
        <time>2025-03-25T17:52:27Z</time>
      </trkpt>
      <trkpt lat="43.63372" lon="1.38621">
        <ele>146</ele>
        <time>2025-03-25T17:52:28Z</time>
      </trkpt>
      <trkpt lat="43.6337" lon="1.38621">
        <ele>146</ele>
        <time>2025-03-25T17:52:29Z</time>
      </trkpt>
      <trkpt lat="43.63368" lon="1.38622">
        <ele>146</ele>
        <time>2025-03-25T17:52:30Z</time>
      </trkpt>
      <trkpt lat="43.63366" lon="1.38622">
        <ele>147</ele>
        <time>2025-03-25T17:52:31Z</time>
      </trkpt>
      <trkpt lat="43.63364" lon="1.38623">
        <ele>147</ele>
        <time>2025-03-25T17:52:32Z</time>
      </trkpt>
      <trkpt lat="43.63362" lon="1.38624">
        <ele>147</ele>
        <time>2025-03-25T17:52:33Z</time>
      </trkpt>
      <trkpt lat="43.6336" lon="1.38626">
        <ele>147</ele>
        <time>2025-03-25T17:52:34Z</time>
      </trkpt>
      <trkpt lat="43.63358" lon="1.38627">
        <ele>147</ele>
        <time>2025-03-25T17:52:35Z</time>
      </trkpt>
      <trkpt lat="43.63356" lon="1.38628">
        <ele>147</ele>
        <time>2025-03-25T17:52:36Z</time>
      </trkpt>
      <trkpt lat="43.63354" lon="1.38628">
        <ele>147</ele>
        <time>2025-03-25T17:52:37Z</time>
      </trkpt>
      <trkpt lat="43.63352" lon="1.38629">
        <ele>147</ele>
        <time>2025-03-25T17:52:38Z</time>
      </trkpt>
      <trkpt lat="43.63352" lon="1.38629">
        <ele>147</ele>
        <time>2025-03-25T17:52:39Z</time>
      </trkpt>
      <trkpt lat="43.63349" lon="1.3863">
        <ele>147</ele>
        <time>2025-03-25T17:52:40Z</time>
      </trkpt>
      <trkpt lat="43.63347" lon="1.3863">
        <ele>147</ele>
        <time>2025-03-25T17:52:41Z</time>
      </trkpt>
      <trkpt lat="43.63345" lon="1.3863">
        <ele>147</ele>
        <time>2025-03-25T17:52:42Z</time>
      </trkpt>
      <trkpt lat="43.63343" lon="1.3863">
        <ele>147</ele>
        <time>2025-03-25T17:52:43Z</time>
      </trkpt>
      <trkpt lat="43.63341" lon="1.3863">
        <ele>147</ele>
        <time>2025-03-25T17:52:44Z</time>
      </trkpt>
      <trkpt lat="43.63339" lon="1.3863">
        <ele>147</ele>
        <time>2025-03-25T17:52:45Z</time>
      </trkpt>
      <trkpt lat="43.63337" lon="1.3863">
        <ele>147</ele>
        <time>2025-03-25T17:52:46Z</time>
      </trkpt>
      <trkpt lat="43.63335" lon="1.3863">
        <ele>147</ele>
        <time>2025-03-25T17:52:47Z</time>
      </trkpt>
      <trkpt lat="43.63333" lon="1.3863">
        <ele>147</ele>
        <time>2025-03-25T17:52:48Z</time>
      </trkpt>
      <trkpt lat="43.63331" lon="1.3863">
        <ele>147</ele>
        <time>2025-03-25T17:52:49Z</time>
      </trkpt>
      <trkpt lat="43.63328" lon="1.38631">
        <ele>147</ele>
        <time>2025-03-25T17:52:50Z</time>
      </trkpt>
      <trkpt lat="43.63325" lon="1.38633">
        <ele>147</ele>
        <time>2025-03-25T17:52:51Z</time>
      </trkpt>
      <trkpt lat="43.63321" lon="1.38635">
        <ele>147</ele>
        <time>2025-03-25T17:52:52Z</time>
      </trkpt>
      <trkpt lat="43.63319" lon="1.38637">
        <ele>147</ele>
        <time>2025-03-25T17:52:53Z</time>
      </trkpt>
      <trkpt lat="43.63316" lon="1.38638">
        <ele>147</ele>
        <time>2025-03-25T17:52:54Z</time>
      </trkpt>
      <trkpt lat="43.63314" lon="1.38638">
        <ele>147</ele>
        <time>2025-03-25T17:52:55Z</time>
      </trkpt>
      <trkpt lat="43.63311" lon="1.38639">
        <ele>146</ele>
        <time>2025-03-25T17:52:56Z</time>
      </trkpt>
      <trkpt lat="43.63308" lon="1.38639">
        <ele>147</ele>
        <time>2025-03-25T17:52:57Z</time>
      </trkpt>
      <trkpt lat="43.63306" lon="1.3864">
        <ele>147</ele>
        <time>2025-03-25T17:52:58Z</time>
      </trkpt>
      <trkpt lat="43.63304" lon="1.38641">
        <ele>147</ele>
        <time>2025-03-25T17:52:59Z</time>
      </trkpt>
      <trkpt lat="43.63301" lon="1.38642">
        <ele>147</ele>
        <time>2025-03-25T17:53:00Z</time>
      </trkpt>
      <trkpt lat="43.63298" lon="1.38644">
        <ele>147</ele>
        <time>2025-03-25T17:53:01Z</time>
      </trkpt>
      <trkpt lat="43.63295" lon="1.38645">
        <ele>146</ele>
        <time>2025-03-25T17:53:02Z</time>
      </trkpt>
      <trkpt lat="43.63293" lon="1.38646">
        <ele>146</ele>
        <time>2025-03-25T17:53:03Z</time>
      </trkpt>
      <trkpt lat="43.63291" lon="1.38647">
        <ele>146</ele>
        <time>2025-03-25T17:53:04Z</time>
      </trkpt>
      <trkpt lat="43.63288" lon="1.38648">
        <ele>146</ele>
        <time>2025-03-25T17:53:05Z</time>
      </trkpt>
      <trkpt lat="43.63286" lon="1.38647">
        <ele>146</ele>
        <time>2025-03-25T17:53:06Z</time>
      </trkpt>
      <trkpt lat="43.63283" lon="1.38646">
        <ele>146</ele>
        <time>2025-03-25T17:53:07Z</time>
      </trkpt>
      <trkpt lat="43.6328" lon="1.38643">
        <ele>146</ele>
        <time>2025-03-25T17:53:08Z</time>
      </trkpt>
      <trkpt lat="43.63279" lon="1.38642">
        <ele>147</ele>
        <time>2025-03-25T17:53:09Z</time>
      </trkpt>
      <trkpt lat="43.63277" lon="1.3864">
        <ele>147</ele>
        <time>2025-03-25T17:53:10Z</time>
      </trkpt>
      <trkpt lat="43.63276" lon="1.38637">
        <ele>147</ele>
        <time>2025-03-25T17:53:11Z</time>
      </trkpt>
      <trkpt lat="43.63275" lon="1.38635">
        <ele>147</ele>
        <time>2025-03-25T17:53:12Z</time>
      </trkpt>
      <trkpt lat="43.63275" lon="1.38635">
        <ele>147</ele>
        <time>2025-03-25T17:53:13Z</time>
      </trkpt>
      <trkpt lat="43.63273" lon="1.3863">
        <ele>147</ele>
        <time>2025-03-25T17:53:14Z</time>
      </trkpt>
      <trkpt lat="43.63273" lon="1.3863">
        <ele>147</ele>
        <time>2025-03-25T17:53:15Z</time>
      </trkpt>
      <trkpt lat="43.63271" lon="1.38622">
        <ele>147</ele>
        <time>2025-03-25T17:53:16Z</time>
      </trkpt>
      <trkpt lat="43.63271" lon="1.38622">
        <ele>147</ele>
        <time>2025-03-25T17:53:17Z</time>
      </trkpt>
      <trkpt lat="43.63269" lon="1.3862">
        <ele>147</ele>
        <time>2025-03-25T17:53:18Z</time>
      </trkpt>
      <trkpt lat="43.63268" lon="1.38617">
        <ele>147</ele>
        <time>2025-03-25T17:53:19Z</time>
      </trkpt>
      <trkpt lat="43.63266" lon="1.38614">
        <ele>147</ele>
        <time>2025-03-25T17:53:20Z</time>
      </trkpt>
      <trkpt lat="43.63265" lon="1.38611">
        <ele>147</ele>
        <time>2025-03-25T17:53:21Z</time>
      </trkpt>
      <trkpt lat="43.63264" lon="1.38608">
        <ele>147</ele>
        <time>2025-03-25T17:53:22Z</time>
      </trkpt>
      <trkpt lat="43.63262" lon="1.38605">
        <ele>147</ele>
        <time>2025-03-25T17:53:23Z</time>
      </trkpt>
      <trkpt lat="43.63262" lon="1.38602">
        <ele>147</ele>
        <time>2025-03-25T17:53:24Z</time>
      </trkpt>
      <trkpt lat="43.63261" lon="1.386">
        <ele>147</ele>
        <time>2025-03-25T17:53:25Z</time>
      </trkpt>
      <trkpt lat="43.6326" lon="1.38596">
        <ele>147</ele>
        <time>2025-03-25T17:53:26Z</time>
      </trkpt>
      <trkpt lat="43.63259" lon="1.38593">
        <ele>147</ele>
        <time>2025-03-25T17:53:27Z</time>
      </trkpt>
      <trkpt lat="43.63258" lon="1.3859">
        <ele>146</ele>
        <time>2025-03-25T17:53:28Z</time>
      </trkpt>
      <trkpt lat="43.63257" lon="1.38586">
        <ele>146</ele>
        <time>2025-03-25T17:53:29Z</time>
      </trkpt>
      <trkpt lat="43.63256" lon="1.38582">
        <ele>146</ele>
        <time>2025-03-25T17:53:30Z</time>
      </trkpt>
      <trkpt lat="43.63254" lon="1.38579">
        <ele>146</ele>
        <time>2025-03-25T17:53:31Z</time>
      </trkpt>
      <trkpt lat="43.63253" lon="1.38575">
        <ele>147</ele>
        <time>2025-03-25T17:53:32Z</time>
      </trkpt>
      <trkpt lat="43.63252" lon="1.38572">
        <ele>147</ele>
        <time>2025-03-25T17:53:33Z</time>
      </trkpt>
      <trkpt lat="43.63251" lon="1.38568">
        <ele>147</ele>
        <time>2025-03-25T17:53:34Z</time>
      </trkpt>
      <trkpt lat="43.63249" lon="1.38562">
        <ele>147</ele>
        <time>2025-03-25T17:53:35Z</time>
      </trkpt>
      <trkpt lat="43.63249" lon="1.38562">
        <ele>147</ele>
        <time>2025-03-25T17:53:36Z</time>
      </trkpt>
      <trkpt lat="43.63248" lon="1.38559">
        <ele>147</ele>
        <time>2025-03-25T17:53:37Z</time>
      </trkpt>
      <trkpt lat="43.63247" lon="1.38557">
        <ele>147</ele>
        <time>2025-03-25T17:53:38Z</time>
      </trkpt>
      <trkpt lat="43.63247" lon="1.38555">
        <ele>147</ele>
        <time>2025-03-25T17:53:39Z</time>
      </trkpt>
      <trkpt lat="43.63246" lon="1.38551">
        <ele>147</ele>
        <time>2025-03-25T17:53:40Z</time>
      </trkpt>
      <trkpt lat="43.63244" lon="1.38547">
        <ele>147</ele>
        <time>2025-03-25T17:53:41Z</time>
      </trkpt>
      <trkpt lat="43.63243" lon="1.38544">
        <ele>147</ele>
        <time>2025-03-25T17:53:42Z</time>
      </trkpt>
      <trkpt lat="43.63242" lon="1.38541">
        <ele>147</ele>
        <time>2025-03-25T17:53:43Z</time>
      </trkpt>
      <trkpt lat="43.63241" lon="1.38538">
        <ele>147</ele>
        <time>2025-03-25T17:53:44Z</time>
      </trkpt>
      <trkpt lat="43.6324" lon="1.38534">
        <ele>147</ele>
        <time>2025-03-25T17:53:45Z</time>
      </trkpt>
      <trkpt lat="43.63239" lon="1.38531">
        <ele>147</ele>
        <time>2025-03-25T17:53:46Z</time>
      </trkpt>
      <trkpt lat="43.63238" lon="1.38529">
        <ele>147</ele>
        <time>2025-03-25T17:53:47Z</time>
      </trkpt>
      <trkpt lat="43.63238" lon="1.38526">
        <ele>148</ele>
        <time>2025-03-25T17:53:48Z</time>
      </trkpt>
      <trkpt lat="43.63237" lon="1.38523">
        <ele>148</ele>
        <time>2025-03-25T17:53:49Z</time>
      </trkpt>
      <trkpt lat="43.63237" lon="1.3852">
        <ele>148</ele>
        <time>2025-03-25T17:53:50Z</time>
      </trkpt>
      <trkpt lat="43.63237" lon="1.38518">
        <ele>148</ele>
        <time>2025-03-25T17:53:51Z</time>
      </trkpt>
      <trkpt lat="43.63237" lon="1.38514">
        <ele>148</ele>
        <time>2025-03-25T17:53:52Z</time>
      </trkpt>
      <trkpt lat="43.63237" lon="1.38511">
        <ele>148</ele>
        <time>2025-03-25T17:53:53Z</time>
      </trkpt>
      <trkpt lat="43.63238" lon="1.38508">
        <ele>148</ele>
        <time>2025-03-25T17:53:54Z</time>
      </trkpt>
      <trkpt lat="43.63239" lon="1.38505">
        <ele>148</ele>
        <time>2025-03-25T17:53:55Z</time>
      </trkpt>
      <trkpt lat="43.6324" lon="1.38502">
        <ele>148</ele>
        <time>2025-03-25T17:53:56Z</time>
      </trkpt>
      <trkpt lat="43.63242" lon="1.38498">
        <ele>148</ele>
        <time>2025-03-25T17:53:57Z</time>
      </trkpt>
      <trkpt lat="43.63243" lon="1.38495">
        <ele>148</ele>
        <time>2025-03-25T17:53:58Z</time>
      </trkpt>
      <trkpt lat="43.63245" lon="1.38492">
        <ele>148</ele>
        <time>2025-03-25T17:53:59Z</time>
      </trkpt>
      <trkpt lat="43.63247" lon="1.3849">
        <ele>148</ele>
        <time>2025-03-25T17:54:00Z</time>
      </trkpt>
      <trkpt lat="43.63247" lon="1.3849">
        <ele>148</ele>
        <time>2025-03-25T17:54:01Z</time>
      </trkpt>
      <trkpt lat="43.6325" lon="1.38487">
        <ele>148</ele>
        <time>2025-03-25T17:54:02Z</time>
      </trkpt>
      <trkpt lat="43.63252" lon="1.38485">
        <ele>148</ele>
        <time>2025-03-25T17:54:03Z</time>
      </trkpt>
      <trkpt lat="43.63254" lon="1.38483">
        <ele>148</ele>
        <time>2025-03-25T17:54:04Z</time>
      </trkpt>
      <trkpt lat="43.63256" lon="1.3848">
        <ele>148</ele>
        <time>2025-03-25T17:54:05Z</time>
      </trkpt>
      <trkpt lat="43.63258" lon="1.38479">
        <ele>148</ele>
        <time>2025-03-25T17:54:06Z</time>
      </trkpt>
      <trkpt lat="43.6326" lon="1.38477">
        <ele>148</ele>
        <time>2025-03-25T17:54:07Z</time>
      </trkpt>
      <trkpt lat="43.63263" lon="1.38476">
        <ele>148</ele>
        <time>2025-03-25T17:54:08Z</time>
      </trkpt>
      <trkpt lat="43.63265" lon="1.38475">
        <ele>148</ele>
        <time>2025-03-25T17:54:09Z</time>
      </trkpt>
      <trkpt lat="43.63267" lon="1.38473">
        <ele>148</ele>
        <time>2025-03-25T17:54:10Z</time>
      </trkpt>
      <trkpt lat="43.63269" lon="1.38471">
        <ele>149</ele>
        <time>2025-03-25T17:54:11Z</time>
      </trkpt>
      <trkpt lat="43.63271" lon="1.3847">
        <ele>149</ele>
        <time>2025-03-25T17:54:12Z</time>
      </trkpt>
      <trkpt lat="43.63275" lon="1.38466">
        <ele>149</ele>
        <time>2025-03-25T17:54:13Z</time>
      </trkpt>
      <trkpt lat="43.63275" lon="1.38466">
        <ele>149</ele>
        <time>2025-03-25T17:54:14Z</time>
      </trkpt>
      <trkpt lat="43.63278" lon="1.38465">
        <ele>149</ele>
        <time>2025-03-25T17:54:15Z</time>
      </trkpt>
      <trkpt lat="43.6328" lon="1.38464">
        <ele>149</ele>
        <time>2025-03-25T17:54:16Z</time>
      </trkpt>
      <trkpt lat="43.63283" lon="1.38463">
        <ele>149</ele>
        <time>2025-03-25T17:54:17Z</time>
      </trkpt>
      <trkpt lat="43.63285" lon="1.38461">
        <ele>148</ele>
        <time>2025-03-25T17:54:18Z</time>
      </trkpt>
      <trkpt lat="43.63288" lon="1.3846">
        <ele>149</ele>
        <time>2025-03-25T17:54:19Z</time>
      </trkpt>
      <trkpt lat="43.6329" lon="1.38459">
        <ele>149</ele>
        <time>2025-03-25T17:54:20Z</time>
      </trkpt>
      <trkpt lat="43.63293" lon="1.38457">
        <ele>149</ele>
        <time>2025-03-25T17:54:21Z</time>
      </trkpt>
      <trkpt lat="43.63296" lon="1.38456">
        <ele>149</ele>
        <time>2025-03-25T17:54:22Z</time>
      </trkpt>
      <trkpt lat="43.63299" lon="1.38455">
        <ele>149</ele>
        <time>2025-03-25T17:54:23Z</time>
      </trkpt>
      <trkpt lat="43.63302" lon="1.38453">
        <ele>149</ele>
        <time>2025-03-25T17:54:24Z</time>
      </trkpt>
      <trkpt lat="43.63304" lon="1.38451">
        <ele>149</ele>
        <time>2025-03-25T17:54:25Z</time>
      </trkpt>
      <trkpt lat="43.63306" lon="1.38448">
        <ele>149</ele>
        <time>2025-03-25T17:54:26Z</time>
      </trkpt>
      <trkpt lat="43.63307" lon="1.38445">
        <ele>149</ele>
        <time>2025-03-25T17:54:27Z</time>
      </trkpt>
      <trkpt lat="43.63308" lon="1.38442">
        <ele>149</ele>
        <time>2025-03-25T17:54:28Z</time>
      </trkpt>
      <trkpt lat="43.63309" lon="1.38439">
        <ele>149</ele>
        <time>2025-03-25T17:54:29Z</time>
      </trkpt>
      <trkpt lat="43.6331" lon="1.38436">
        <ele>149</ele>
        <time>2025-03-25T17:54:30Z</time>
      </trkpt>
      <trkpt lat="43.6331" lon="1.38433">
        <ele>149</ele>
        <time>2025-03-25T17:54:31Z</time>
      </trkpt>
      <trkpt lat="43.63311" lon="1.3843">
        <ele>149</ele>
        <time>2025-03-25T17:54:32Z</time>
      </trkpt>
      <trkpt lat="43.63311" lon="1.38427">
        <ele>149</ele>
        <time>2025-03-25T17:54:33Z</time>
      </trkpt>
      <trkpt lat="43.63311" lon="1.38424">
        <ele>149</ele>
        <time>2025-03-25T17:54:34Z</time>
      </trkpt>
      <trkpt lat="43.63311" lon="1.3842">
        <ele>149</ele>
        <time>2025-03-25T17:54:35Z</time>
      </trkpt>
      <trkpt lat="43.63311" lon="1.38417">
        <ele>149</ele>
        <time>2025-03-25T17:54:36Z</time>
      </trkpt>
      <trkpt lat="43.63311" lon="1.38413">
        <ele>149</ele>
        <time>2025-03-25T17:54:37Z</time>
      </trkpt>
      <trkpt lat="43.63311" lon="1.3841">
        <ele>149</ele>
        <time>2025-03-25T17:54:38Z</time>
      </trkpt>
      <trkpt lat="43.6331" lon="1.38407">
        <ele>149</ele>
        <time>2025-03-25T17:54:39Z</time>
      </trkpt>
      <trkpt lat="43.6331" lon="1.38404">
        <ele>149</ele>
        <time>2025-03-25T17:54:40Z</time>
      </trkpt>
      <trkpt lat="43.63309" lon="1.38401">
        <ele>149</ele>
        <time>2025-03-25T17:54:41Z</time>
      </trkpt>
      <trkpt lat="43.63308" lon="1.38398">
        <ele>149</ele>
        <time>2025-03-25T17:54:42Z</time>
      </trkpt>
      <trkpt lat="43.63305" lon="1.38393">
        <ele>149</ele>
        <time>2025-03-25T17:54:43Z</time>
      </trkpt>
      <trkpt lat="43.63305" lon="1.38393">
        <ele>148</ele>
        <time>2025-03-25T17:54:44Z</time>
      </trkpt>
      <trkpt lat="43.63304" lon="1.3839">
        <ele>148</ele>
        <time>2025-03-25T17:54:45Z</time>
      </trkpt>
      <trkpt lat="43.63302" lon="1.38388">
        <ele>148</ele>
        <time>2025-03-25T17:54:46Z</time>
      </trkpt>
      <trkpt lat="43.633" lon="1.38385">
        <ele>147</ele>
        <time>2025-03-25T17:54:47Z</time>
      </trkpt>
      <trkpt lat="43.63298" lon="1.38383">
        <ele>147</ele>
        <time>2025-03-25T17:54:48Z</time>
      </trkpt>
      <trkpt lat="43.63296" lon="1.38381">
        <ele>147</ele>
        <time>2025-03-25T17:54:49Z</time>
      </trkpt>
      <trkpt lat="43.63294" lon="1.38378">
        <ele>147</ele>
        <time>2025-03-25T17:54:50Z</time>
      </trkpt>
      <trkpt lat="43.63291" lon="1.38374">
        <ele>147</ele>
        <time>2025-03-25T17:54:51Z</time>
      </trkpt>
      <trkpt lat="43.63291" lon="1.38374">
        <ele>147</ele>
        <time>2025-03-25T17:54:52Z</time>
      </trkpt>
      <trkpt lat="43.6329" lon="1.38371">
        <ele>147</ele>
        <time>2025-03-25T17:54:53Z</time>
      </trkpt>
      <trkpt lat="43.63288" lon="1.38369">
        <ele>148</ele>
        <time>2025-03-25T17:54:54Z</time>
      </trkpt>
      <trkpt lat="43.63287" lon="1.38367">
        <ele>148</ele>
        <time>2025-03-25T17:54:55Z</time>
      </trkpt>
      <trkpt lat="43.63285" lon="1.38364">
        <ele>147</ele>
        <time>2025-03-25T17:54:56Z</time>
      </trkpt>
      <trkpt lat="43.63283" lon="1.38362">
        <ele>147</ele>
        <time>2025-03-25T17:54:57Z</time>
      </trkpt>
      <trkpt lat="43.63281" lon="1.38359">
        <ele>147</ele>
        <time>2025-03-25T17:54:58Z</time>
      </trkpt>
      <trkpt lat="43.6328" lon="1.38355">
        <ele>147</ele>
        <time>2025-03-25T17:54:59Z</time>
      </trkpt>
      <trkpt lat="43.63278" lon="1.38352">
        <ele>147</ele>
        <time>2025-03-25T17:55:00Z</time>
      </trkpt>
      <trkpt lat="43.63277" lon="1.38348">
        <ele>147</ele>
        <time>2025-03-25T17:55:01Z</time>
      </trkpt>
      <trkpt lat="43.63276" lon="1.38345">
        <ele>147</ele>
        <time>2025-03-25T17:55:02Z</time>
      </trkpt>
      <trkpt lat="43.63275" lon="1.38341">
        <ele>148</ele>
        <time>2025-03-25T17:55:03Z</time>
      </trkpt>
      <trkpt lat="43.63274" lon="1.38338">
        <ele>148</ele>
        <time>2025-03-25T17:55:04Z</time>
      </trkpt>
      <trkpt lat="43.63273" lon="1.38334">
        <ele>148</ele>
        <time>2025-03-25T17:55:05Z</time>
      </trkpt>
      <trkpt lat="43.63273" lon="1.38331">
        <ele>148</ele>
        <time>2025-03-25T17:55:06Z</time>
      </trkpt>
      <trkpt lat="43.63272" lon="1.38328">
        <ele>148</ele>
        <time>2025-03-25T17:55:07Z</time>
      </trkpt>
      <trkpt lat="43.63272" lon="1.38325">
        <ele>148</ele>
        <time>2025-03-25T17:55:08Z</time>
      </trkpt>
      <trkpt lat="43.63272" lon="1.38322">
        <ele>148</ele>
        <time>2025-03-25T17:55:09Z</time>
      </trkpt>
      <trkpt lat="43.63272" lon="1.38317">
        <ele>148</ele>
        <time>2025-03-25T17:55:10Z</time>
      </trkpt>
      <trkpt lat="43.63272" lon="1.38316">
        <ele>148</ele>
        <time>2025-03-25T17:55:11Z</time>
      </trkpt>
      <trkpt lat="43.63272" lon="1.38312">
        <ele>148</ele>
        <time>2025-03-25T17:55:12Z</time>
      </trkpt>
      <trkpt lat="43.63271" lon="1.38308">
        <ele>148</ele>
        <time>2025-03-25T17:55:13Z</time>
      </trkpt>
      <trkpt lat="43.63271" lon="1.38304">
        <ele>149</ele>
        <time>2025-03-25T17:55:14Z</time>
      </trkpt>
      <trkpt lat="43.63272" lon="1.38301">
        <ele>149</ele>
        <time>2025-03-25T17:55:15Z</time>
      </trkpt>
      <trkpt lat="43.63272" lon="1.38297">
        <ele>149</ele>
        <time>2025-03-25T17:55:16Z</time>
      </trkpt>
      <trkpt lat="43.63272" lon="1.38294">
        <ele>149</ele>
        <time>2025-03-25T17:55:17Z</time>
      </trkpt>
      <trkpt lat="43.63272" lon="1.3829">
        <ele>149</ele>
        <time>2025-03-25T17:55:18Z</time>
      </trkpt>
      <trkpt lat="43.63272" lon="1.38287">
        <ele>149</ele>
        <time>2025-03-25T17:55:19Z</time>
      </trkpt>
      <trkpt lat="43.63272" lon="1.38283">
        <ele>149</ele>
        <time>2025-03-25T17:55:20Z</time>
      </trkpt>
      <trkpt lat="43.63272" lon="1.38279">
        <ele>148</ele>
        <time>2025-03-25T17:55:21Z</time>
      </trkpt>
      <trkpt lat="43.63272" lon="1.38275">
        <ele>148</ele>
        <time>2025-03-25T17:55:22Z</time>
      </trkpt>
      <trkpt lat="43.63272" lon="1.38272">
        <ele>148</ele>
        <time>2025-03-25T17:55:23Z</time>
      </trkpt>
      <trkpt lat="43.63272" lon="1.38268">
        <ele>148</ele>
        <time>2025-03-25T17:55:24Z</time>
      </trkpt>
      <trkpt lat="43.63272" lon="1.38264">
        <ele>148</ele>
        <time>2025-03-25T17:55:25Z</time>
      </trkpt>
      <trkpt lat="43.63273" lon="1.38261">
        <ele>148</ele>
        <time>2025-03-25T17:55:26Z</time>
      </trkpt>
      <trkpt lat="43.63273" lon="1.38258">
        <ele>148</ele>
        <time>2025-03-25T17:55:27Z</time>
      </trkpt>
      <trkpt lat="43.63273" lon="1.38255">
        <ele>148</ele>
        <time>2025-03-25T17:55:28Z</time>
      </trkpt>
      <trkpt lat="43.63273" lon="1.3825">
        <ele>148</ele>
        <time>2025-03-25T17:55:29Z</time>
      </trkpt>
      <trkpt lat="43.63273" lon="1.38249">
        <ele>148</ele>
        <time>2025-03-25T17:55:30Z</time>
      </trkpt>
      <trkpt lat="43.63274" lon="1.38246">
        <ele>148</ele>
        <time>2025-03-25T17:55:31Z</time>
      </trkpt>
      <trkpt lat="43.63274" lon="1.38242">
        <ele>148</ele>
        <time>2025-03-25T17:55:32Z</time>
      </trkpt>
      <trkpt lat="43.63274" lon="1.38239">
        <ele>148</ele>
        <time>2025-03-25T17:55:33Z</time>
      </trkpt>
      <trkpt lat="43.63274" lon="1.38236">
        <ele>148</ele>
        <time>2025-03-25T17:55:34Z</time>
      </trkpt>
      <trkpt lat="43.63275" lon="1.38232">
        <ele>149</ele>
        <time>2025-03-25T17:55:35Z</time>
      </trkpt>
      <trkpt lat="43.63275" lon="1.38228">
        <ele>149</ele>
        <time>2025-03-25T17:55:36Z</time>
      </trkpt>
      <trkpt lat="43.63276" lon="1.38224">
        <ele>149</ele>
        <time>2025-03-25T17:55:37Z</time>
      </trkpt>
      <trkpt lat="43.63276" lon="1.38221">
        <ele>149</ele>
        <time>2025-03-25T17:55:38Z</time>
      </trkpt>
      <trkpt lat="43.63277" lon="1.38217">
        <ele>148</ele>
        <time>2025-03-25T17:55:39Z</time>
      </trkpt>
      <trkpt lat="43.63277" lon="1.38214">
        <ele>148</ele>
        <time>2025-03-25T17:55:40Z</time>
      </trkpt>
      <trkpt lat="43.63277" lon="1.38211">
        <ele>149</ele>
        <time>2025-03-25T17:55:41Z</time>
      </trkpt>
      <trkpt lat="43.63277" lon="1.38207">
        <ele>149</ele>
        <time>2025-03-25T17:55:42Z</time>
      </trkpt>
      <trkpt lat="43.63278" lon="1.38203">
        <ele>149</ele>
        <time>2025-03-25T17:55:43Z</time>
      </trkpt>
      <trkpt lat="43.63278" lon="1.38199">
        <ele>150</ele>
        <time>2025-03-25T17:55:44Z</time>
      </trkpt>
      <trkpt lat="43.63278" lon="1.38195">
        <ele>150</ele>
        <time>2025-03-25T17:55:45Z</time>
      </trkpt>
      <trkpt lat="43.63278" lon="1.38192">
        <ele>150</ele>
        <time>2025-03-25T17:55:46Z</time>
      </trkpt>
      <trkpt lat="43.63278" lon="1.38188">
        <ele>150</ele>
        <time>2025-03-25T17:55:47Z</time>
      </trkpt>
      <trkpt lat="43.63278" lon="1.38185">
        <ele>150</ele>
        <time>2025-03-25T17:55:48Z</time>
      </trkpt>
      <trkpt lat="43.63279" lon="1.38182">
        <ele>149</ele>
        <time>2025-03-25T17:55:49Z</time>
      </trkpt>
      <trkpt lat="43.63279" lon="1.38178">
        <ele>149</ele>
        <time>2025-03-25T17:55:50Z</time>
      </trkpt>
      <trkpt lat="43.6328" lon="1.38175">
        <ele>150</ele>
        <time>2025-03-25T17:55:51Z</time>
      </trkpt>
      <trkpt lat="43.63281" lon="1.38172">
        <ele>150</ele>
        <time>2025-03-25T17:55:52Z</time>
      </trkpt>
      <trkpt lat="43.63282" lon="1.38169">
        <ele>150</ele>
        <time>2025-03-25T17:55:53Z</time>
      </trkpt>
      <trkpt lat="43.63283" lon="1.38166">
        <ele>150</ele>
        <time>2025-03-25T17:55:54Z</time>
      </trkpt>
      <trkpt lat="43.63284" lon="1.38164">
        <ele>150</ele>
        <time>2025-03-25T17:55:55Z</time>
      </trkpt>
      <trkpt lat="43.63285" lon="1.38161">
        <ele>150</ele>
        <time>2025-03-25T17:55:56Z</time>
      </trkpt>
      <trkpt lat="43.63286" lon="1.38158">
        <ele>150</ele>
        <time>2025-03-25T17:55:57Z</time>
      </trkpt>
      <trkpt lat="43.63285" lon="1.38155">
        <ele>150</ele>
        <time>2025-03-25T17:55:58Z</time>
      </trkpt>
      <trkpt lat="43.63285" lon="1.38153">
        <ele>150</ele>
        <time>2025-03-25T17:55:59Z</time>
      </trkpt>
      <trkpt lat="43.63284" lon="1.3815">
        <ele>150</ele>
        <time>2025-03-25T17:56:00Z</time>
      </trkpt>
      <trkpt lat="43.63282" lon="1.38147">
        <ele>150</ele>
        <time>2025-03-25T17:56:01Z</time>
      </trkpt>
      <trkpt lat="43.63281" lon="1.38144">
        <ele>150</ele>
        <time>2025-03-25T17:56:02Z</time>
      </trkpt>
      <trkpt lat="43.63281" lon="1.38144">
        <ele>150</ele>
        <time>2025-03-25T17:56:03Z</time>
      </trkpt>
      <trkpt lat="43.63279" lon="1.3814">
        <ele>150</ele>
        <time>2025-03-25T17:56:04Z</time>
      </trkpt>
      <trkpt lat="43.63278" lon="1.38138">
        <ele>150</ele>
        <time>2025-03-25T17:56:05Z</time>
      </trkpt>
      <trkpt lat="43.63277" lon="1.38136">
        <ele>150</ele>
        <time>2025-03-25T17:56:06Z</time>
      </trkpt>
      <trkpt lat="43.63277" lon="1.38136">
        <ele>150</ele>
        <time>2025-03-25T17:56:07Z</time>
      </trkpt>
      <trkpt lat="43.63275" lon="1.38132">
        <ele>150</ele>
        <time>2025-03-25T17:56:08Z</time>
      </trkpt>
      <trkpt lat="43.63277" lon="1.3813">
        <ele>150</ele>
        <time>2025-03-25T17:56:09Z</time>
      </trkpt>
      <trkpt lat="43.63278" lon="1.38128">
        <ele>150</ele>
        <time>2025-03-25T17:56:10Z</time>
      </trkpt>
      <trkpt lat="43.6328" lon="1.38127">
        <ele>150</ele>
        <time>2025-03-25T17:56:11Z</time>
      </trkpt>
      <trkpt lat="43.6328" lon="1.38127">
        <ele>150</ele>
        <time>2025-03-25T17:56:12Z</time>
      </trkpt>
      <trkpt lat="43.63281" lon="1.38125">
        <ele>150</ele>
        <time>2025-03-25T17:56:13Z</time>
      </trkpt>
      <trkpt lat="43.63291" lon="1.38112">
        <ele>151</ele>
        <time>2025-03-25T17:58:11Z</time>
      </trkpt>
      <trkpt lat="43.63291" lon="1.38112">
        <ele>151</ele>
        <time>2025-03-25T17:58:12Z</time>
      </trkpt>
      <trkpt lat="43.63293" lon="1.38111">
        <ele>151</ele>
        <time>2025-03-25T17:58:13Z</time>
      </trkpt>
      <trkpt lat="43.63295" lon="1.3811">
        <ele>151</ele>
        <time>2025-03-25T17:58:14Z</time>
      </trkpt>
      <trkpt lat="43.63296" lon="1.38107">
        <ele>151</ele>
        <time>2025-03-25T17:58:15Z</time>
      </trkpt>
      <trkpt lat="43.63298" lon="1.38105">
        <ele>151</ele>
        <time>2025-03-25T17:58:16Z</time>
      </trkpt>
      <trkpt lat="43.63299" lon="1.38103">
        <ele>151</ele>
        <time>2025-03-25T17:58:17Z</time>
      </trkpt>
      <trkpt lat="43.633" lon="1.38101">
        <ele>151</ele>
        <time>2025-03-25T17:58:18Z</time>
      </trkpt>
      <trkpt lat="43.63302" lon="1.38099">
        <ele>151</ele>
        <time>2025-03-25T17:58:19Z</time>
      </trkpt>
      <trkpt lat="43.63303" lon="1.38097">
        <ele>151</ele>
        <time>2025-03-25T17:58:20Z</time>
      </trkpt>
      <trkpt lat="43.63303" lon="1.38097">
        <ele>151</ele>
        <time>2025-03-25T17:58:21Z</time>
      </trkpt>
      <trkpt lat="43.63305" lon="1.38093">
        <ele>151</ele>
        <time>2025-03-25T17:58:22Z</time>
      </trkpt>
      <trkpt lat="43.63305" lon="1.38093">
        <ele>150</ele>
        <time>2025-03-25T17:58:23Z</time>
      </trkpt>
      <trkpt lat="43.63308" lon="1.3809">
        <ele>151</ele>
        <time>2025-03-25T17:58:24Z</time>
      </trkpt>
      <trkpt lat="43.63308" lon="1.3809">
        <ele>151</ele>
        <time>2025-03-25T17:58:25Z</time>
      </trkpt>
      <trkpt lat="43.6331" lon="1.38086">
        <ele>151</ele>
        <time>2025-03-25T17:58:26Z</time>
      </trkpt>
      <trkpt lat="43.63311" lon="1.38084">
        <ele>152</ele>
        <time>2025-03-25T17:58:27Z</time>
      </trkpt>
      <trkpt lat="43.63311" lon="1.38084">
        <ele>152</ele>
        <time>2025-03-25T17:58:28Z</time>
      </trkpt>
      <trkpt lat="43.63314" lon="1.38081">
        <ele>152</ele>
        <time>2025-03-25T17:58:29Z</time>
      </trkpt>
      <trkpt lat="43.63316" lon="1.38078">
        <ele>152</ele>
        <time>2025-03-25T17:58:30Z</time>
      </trkpt>
      <trkpt lat="43.63316" lon="1.38078">
        <ele>152</ele>
        <time>2025-03-25T17:58:31Z</time>
      </trkpt>
      <trkpt lat="43.63318" lon="1.38077">
        <ele>152</ele>
        <time>2025-03-25T17:58:32Z</time>
      </trkpt>
      <trkpt lat="43.6332" lon="1.38076">
        <ele>152</ele>
        <time>2025-03-25T17:58:33Z</time>
      </trkpt>
      <trkpt lat="43.6332" lon="1.38076">
        <ele>152</ele>
        <time>2025-03-25T17:58:34Z</time>
      </trkpt>
      <trkpt lat="43.63323" lon="1.38074">
        <ele>153</ele>
        <time>2025-03-25T17:58:35Z</time>
      </trkpt>
      <trkpt lat="43.63323" lon="1.38074">
        <ele>153</ele>
        <time>2025-03-25T17:58:36Z</time>
      </trkpt>
      <trkpt lat="43.63326" lon="1.38071">
        <ele>153</ele>
        <time>2025-03-25T17:58:37Z</time>
      </trkpt>
      <trkpt lat="43.63328" lon="1.3807">
        <ele>153</ele>
        <time>2025-03-25T17:58:38Z</time>
      </trkpt>
      <trkpt lat="43.6333" lon="1.38069">
        <ele>153</ele>
        <time>2025-03-25T17:58:39Z</time>
      </trkpt>
      <trkpt lat="43.63332" lon="1.38067">
        <ele>153</ele>
        <time>2025-03-25T17:58:40Z</time>
      </trkpt>
      <trkpt lat="43.63333" lon="1.38066">
        <ele>153</ele>
        <time>2025-03-25T17:58:41Z</time>
      </trkpt>
      <trkpt lat="43.63335" lon="1.38065">
        <ele>153</ele>
        <time>2025-03-25T17:58:42Z</time>
      </trkpt>
      <trkpt lat="43.63337" lon="1.38063">
        <ele>153</ele>
        <time>2025-03-25T17:58:43Z</time>
      </trkpt>
      <trkpt lat="43.63337" lon="1.38063">
        <ele>153</ele>
        <time>2025-03-25T17:58:44Z</time>
      </trkpt>
      <trkpt lat="43.6334" lon="1.38061">
        <ele>153</ele>
        <time>2025-03-25T17:58:45Z</time>
      </trkpt>
      <trkpt lat="43.63342" lon="1.3806">
        <ele>153</ele>
        <time>2025-03-25T17:58:46Z</time>
      </trkpt>
      <trkpt lat="43.63344" lon="1.38058">
        <ele>153</ele>
        <time>2025-03-25T17:58:47Z</time>
      </trkpt>
      <trkpt lat="43.63346" lon="1.38056">
        <ele>152</ele>
        <time>2025-03-25T17:58:48Z</time>
      </trkpt>
      <trkpt lat="43.63349" lon="1.38053">
        <ele>152</ele>
        <time>2025-03-25T17:58:49Z</time>
      </trkpt>
      <trkpt lat="43.6335" lon="1.38052">
        <ele>153</ele>
        <time>2025-03-25T17:58:50Z</time>
      </trkpt>
      <trkpt lat="43.63353" lon="1.38049">
        <ele>153</ele>
        <time>2025-03-25T17:58:51Z</time>
      </trkpt>
      <trkpt lat="43.63355" lon="1.38048">
        <ele>152</ele>
        <time>2025-03-25T17:58:52Z</time>
      </trkpt>
      <trkpt lat="43.63357" lon="1.38046">
        <ele>151</ele>
        <time>2025-03-25T17:58:53Z</time>
      </trkpt>
      <trkpt lat="43.63359" lon="1.38045">
        <ele>151</ele>
        <time>2025-03-25T17:58:54Z</time>
      </trkpt>
      <trkpt lat="43.63361" lon="1.38043">
        <ele>151</ele>
        <time>2025-03-25T17:58:55Z</time>
      </trkpt>
      <trkpt lat="43.63363" lon="1.38042">
        <ele>151</ele>
        <time>2025-03-25T17:58:56Z</time>
      </trkpt>
      <trkpt lat="43.63365" lon="1.3804">
        <ele>151</ele>
        <time>2025-03-25T17:58:57Z</time>
      </trkpt>
      <trkpt lat="43.63366" lon="1.38038">
        <ele>151</ele>
        <time>2025-03-25T17:58:58Z</time>
      </trkpt>
      <trkpt lat="43.63368" lon="1.38036">
        <ele>151</ele>
        <time>2025-03-25T17:58:59Z</time>
      </trkpt>
      <trkpt lat="43.63371" lon="1.38034">
        <ele>151</ele>
        <time>2025-03-25T17:59:00Z</time>
      </trkpt>
      <trkpt lat="43.63373" lon="1.38033">
        <ele>151</ele>
        <time>2025-03-25T17:59:01Z</time>
      </trkpt>
      <trkpt lat="43.63375" lon="1.38031">
        <ele>151</ele>
        <time>2025-03-25T17:59:02Z</time>
      </trkpt>
      <trkpt lat="43.63376" lon="1.38029">
        <ele>151</ele>
        <time>2025-03-25T17:59:03Z</time>
      </trkpt>
      <trkpt lat="43.63378" lon="1.38028">
        <ele>151</ele>
        <time>2025-03-25T17:59:04Z</time>
      </trkpt>
      <trkpt lat="43.63381" lon="1.38027">
        <ele>151</ele>
        <time>2025-03-25T17:59:05Z</time>
      </trkpt>
      <trkpt lat="43.63383" lon="1.38026">
        <ele>152</ele>
        <time>2025-03-25T17:59:06Z</time>
      </trkpt>
      <trkpt lat="43.63385" lon="1.38024">
        <ele>152</ele>
        <time>2025-03-25T17:59:07Z</time>
      </trkpt>
      <trkpt lat="43.63389" lon="1.38023">
        <ele>152</ele>
        <time>2025-03-25T17:59:08Z</time>
      </trkpt>
      <trkpt lat="43.63389" lon="1.38023">
        <ele>152</ele>
        <time>2025-03-25T17:59:09Z</time>
      </trkpt>
      <trkpt lat="43.63391" lon="1.38022">
        <ele>152</ele>
        <time>2025-03-25T17:59:10Z</time>
      </trkpt>
      <trkpt lat="43.63393" lon="1.38022">
        <ele>152</ele>
        <time>2025-03-25T17:59:11Z</time>
      </trkpt>
      <trkpt lat="43.63395" lon="1.38021">
        <ele>152</ele>
        <time>2025-03-25T17:59:12Z</time>
      </trkpt>
      <trkpt lat="43.63397" lon="1.38019">
        <ele>152</ele>
        <time>2025-03-25T17:59:13Z</time>
      </trkpt>
      <trkpt lat="43.63399" lon="1.38017">
        <ele>152</ele>
        <time>2025-03-25T17:59:14Z</time>
      </trkpt>
      <trkpt lat="43.634" lon="1.38016">
        <ele>152</ele>
        <time>2025-03-25T17:59:15Z</time>
      </trkpt>
      <trkpt lat="43.63402" lon="1.38013">
        <ele>151</ele>
        <time>2025-03-25T17:59:16Z</time>
      </trkpt>
      <trkpt lat="43.63404" lon="1.38011">
        <ele>151</ele>
        <time>2025-03-25T17:59:17Z</time>
      </trkpt>
      <trkpt lat="43.63407" lon="1.38008">
        <ele>151</ele>
        <time>2025-03-25T17:59:18Z</time>
      </trkpt>
      <trkpt lat="43.63409" lon="1.38006">
        <ele>151</ele>
        <time>2025-03-25T17:59:19Z</time>
      </trkpt>
      <trkpt lat="43.63412" lon="1.38003">
        <ele>150</ele>
        <time>2025-03-25T17:59:20Z</time>
      </trkpt>
      <trkpt lat="43.63415" lon="1.38001">
        <ele>150</ele>
        <time>2025-03-25T17:59:21Z</time>
      </trkpt>
      <trkpt lat="43.63417" lon="1.38">
        <ele>150</ele>
        <time>2025-03-25T17:59:22Z</time>
      </trkpt>
      <trkpt lat="43.63418" lon="1.37999">
        <ele>150</ele>
        <time>2025-03-25T17:59:23Z</time>
      </trkpt>
      <trkpt lat="43.6342" lon="1.37998">
        <ele>150</ele>
        <time>2025-03-25T17:59:24Z</time>
      </trkpt>
      <trkpt lat="43.63422" lon="1.37997">
        <ele>150</ele>
        <time>2025-03-25T17:59:25Z</time>
      </trkpt>
      <trkpt lat="43.63424" lon="1.37995">
        <ele>150</ele>
        <time>2025-03-25T17:59:26Z</time>
      </trkpt>
      <trkpt lat="43.63428" lon="1.37991">
        <ele>150</ele>
        <time>2025-03-25T17:59:27Z</time>
      </trkpt>
      <trkpt lat="43.63428" lon="1.37991">
        <ele>150</ele>
        <time>2025-03-25T17:59:28Z</time>
      </trkpt>
      <trkpt lat="43.63431" lon="1.3799">
        <ele>150</ele>
        <time>2025-03-25T17:59:29Z</time>
      </trkpt>
      <trkpt lat="43.63433" lon="1.37988">
        <ele>150</ele>
        <time>2025-03-25T17:59:30Z</time>
      </trkpt>
      <trkpt lat="43.63435" lon="1.37986">
        <ele>150</ele>
        <time>2025-03-25T17:59:31Z</time>
      </trkpt>
      <trkpt lat="43.63437" lon="1.37984">
        <ele>150</ele>
        <time>2025-03-25T17:59:32Z</time>
      </trkpt>
      <trkpt lat="43.63439" lon="1.37982">
        <ele>150</ele>
        <time>2025-03-25T17:59:33Z</time>
      </trkpt>
      <trkpt lat="43.63441" lon="1.3798">
        <ele>150</ele>
        <time>2025-03-25T17:59:34Z</time>
      </trkpt>
      <trkpt lat="43.63444" lon="1.37978">
        <ele>150</ele>
        <time>2025-03-25T17:59:35Z</time>
      </trkpt>
      <trkpt lat="43.63446" lon="1.37977">
        <ele>150</ele>
        <time>2025-03-25T17:59:36Z</time>
      </trkpt>
      <trkpt lat="43.63448" lon="1.37975">
        <ele>150</ele>
        <time>2025-03-25T17:59:37Z</time>
      </trkpt>
      <trkpt lat="43.6345" lon="1.37973">
        <ele>151</ele>
        <time>2025-03-25T17:59:38Z</time>
      </trkpt>
      <trkpt lat="43.63452" lon="1.37971">
        <ele>151</ele>
        <time>2025-03-25T17:59:39Z</time>
      </trkpt>
      <trkpt lat="43.63455" lon="1.37969">
        <ele>150</ele>
        <time>2025-03-25T17:59:40Z</time>
      </trkpt>
      <trkpt lat="43.63457" lon="1.37968">
        <ele>150</ele>
        <time>2025-03-25T17:59:41Z</time>
      </trkpt>
      <trkpt lat="43.63459" lon="1.37966">
        <ele>150</ele>
        <time>2025-03-25T17:59:42Z</time>
      </trkpt>
      <trkpt lat="43.63461" lon="1.37965">
        <ele>150</ele>
        <time>2025-03-25T17:59:43Z</time>
      </trkpt>
      <trkpt lat="43.63463" lon="1.37963">
        <ele>150</ele>
        <time>2025-03-25T17:59:44Z</time>
      </trkpt>
      <trkpt lat="43.63465" lon="1.37962">
        <ele>150</ele>
        <time>2025-03-25T17:59:45Z</time>
      </trkpt>
      <trkpt lat="43.63467" lon="1.3796">
        <ele>150</ele>
        <time>2025-03-25T17:59:46Z</time>
      </trkpt>
      <trkpt lat="43.63469" lon="1.37958">
        <ele>150</ele>
        <time>2025-03-25T17:59:47Z</time>
      </trkpt>
      <trkpt lat="43.63471" lon="1.37956">
        <ele>150</ele>
        <time>2025-03-25T17:59:48Z</time>
      </trkpt>
      <trkpt lat="43.63473" lon="1.37955">
        <ele>150</ele>
        <time>2025-03-25T17:59:49Z</time>
      </trkpt>
      <trkpt lat="43.63476" lon="1.37953">
        <ele>150</ele>
        <time>2025-03-25T17:59:50Z</time>
      </trkpt>
      <trkpt lat="43.63478" lon="1.37951">
        <ele>150</ele>
        <time>2025-03-25T17:59:51Z</time>
      </trkpt>
      <trkpt lat="43.6348" lon="1.37949">
        <ele>150</ele>
        <time>2025-03-25T17:59:52Z</time>
      </trkpt>
      <trkpt lat="43.63482" lon="1.37947">
        <ele>150</ele>
        <time>2025-03-25T17:59:53Z</time>
      </trkpt>
      <trkpt lat="43.63484" lon="1.37945">
        <ele>151</ele>
        <time>2025-03-25T17:59:54Z</time>
      </trkpt>
      <trkpt lat="43.63486" lon="1.37943">
        <ele>151</ele>
        <time>2025-03-25T17:59:55Z</time>
      </trkpt>
      <trkpt lat="43.63489" lon="1.37942">
        <ele>151</ele>
        <time>2025-03-25T17:59:56Z</time>
      </trkpt>
      <trkpt lat="43.63491" lon="1.3794">
        <ele>151</ele>
        <time>2025-03-25T17:59:57Z</time>
      </trkpt>
      <trkpt lat="43.63494" lon="1.37938">
        <ele>151</ele>
        <time>2025-03-25T17:59:58Z</time>
      </trkpt>
      <trkpt lat="43.63497" lon="1.37936">
        <ele>151</ele>
        <time>2025-03-25T17:59:59Z</time>
      </trkpt>
      <trkpt lat="43.63498" lon="1.37935">
        <ele>150</ele>
        <time>2025-03-25T18:00:00Z</time>
      </trkpt>
      <trkpt lat="43.635" lon="1.37933">
        <ele>150</ele>
        <time>2025-03-25T18:00:01Z</time>
      </trkpt>
      <trkpt lat="43.63502" lon="1.37931">
        <ele>149</ele>
        <time>2025-03-25T18:00:02Z</time>
      </trkpt>
      <trkpt lat="43.63504" lon="1.37929">
        <ele>150</ele>
        <time>2025-03-25T18:00:03Z</time>
      </trkpt>
      <trkpt lat="43.63507" lon="1.37927">
        <ele>150</ele>
        <time>2025-03-25T18:00:04Z</time>
      </trkpt>
      <trkpt lat="43.63512" lon="1.37923">
        <ele>150</ele>
        <time>2025-03-25T18:00:05Z</time>
      </trkpt>
      <trkpt lat="43.63512" lon="1.37923">
        <ele>150</ele>
        <time>2025-03-25T18:00:06Z</time>
      </trkpt>
      <trkpt lat="43.63514" lon="1.37921">
        <ele>150</ele>
        <time>2025-03-25T18:00:07Z</time>
      </trkpt>
      <trkpt lat="43.63516" lon="1.37919">
        <ele>150</ele>
        <time>2025-03-25T18:00:08Z</time>
      </trkpt>
      <trkpt lat="43.63518" lon="1.37918">
        <ele>150</ele>
        <time>2025-03-25T18:00:09Z</time>
      </trkpt>
      <trkpt lat="43.63521" lon="1.37915">
        <ele>150</ele>
        <time>2025-03-25T18:00:10Z</time>
      </trkpt>
      <trkpt lat="43.63523" lon="1.37914">
        <ele>150</ele>
        <time>2025-03-25T18:00:11Z</time>
      </trkpt>
      <trkpt lat="43.63525" lon="1.37912">
        <ele>150</ele>
        <time>2025-03-25T18:00:12Z</time>
      </trkpt>
      <trkpt lat="43.63527" lon="1.3791">
        <ele>151</ele>
        <time>2025-03-25T18:00:13Z</time>
      </trkpt>
      <trkpt lat="43.6353" lon="1.37908">
        <ele>151</ele>
        <time>2025-03-25T18:00:14Z</time>
      </trkpt>
      <trkpt lat="43.63532" lon="1.37907">
        <ele>151</ele>
        <time>2025-03-25T18:00:15Z</time>
      </trkpt>
      <trkpt lat="43.63534" lon="1.37905">
        <ele>151</ele>
        <time>2025-03-25T18:00:16Z</time>
      </trkpt>
      <trkpt lat="43.63537" lon="1.37904">
        <ele>151</ele>
        <time>2025-03-25T18:00:17Z</time>
      </trkpt>
      <trkpt lat="43.63539" lon="1.37902">
        <ele>151</ele>
        <time>2025-03-25T18:00:18Z</time>
      </trkpt>
      <trkpt lat="43.63541" lon="1.379">
        <ele>151</ele>
        <time>2025-03-25T18:00:19Z</time>
      </trkpt>
      <trkpt lat="43.63543" lon="1.37898">
        <ele>151</ele>
        <time>2025-03-25T18:00:20Z</time>
      </trkpt>
      <trkpt lat="43.63545" lon="1.37897">
        <ele>151</ele>
        <time>2025-03-25T18:00:21Z</time>
      </trkpt>
      <trkpt lat="43.63547" lon="1.37894">
        <ele>151</ele>
        <time>2025-03-25T18:00:22Z</time>
      </trkpt>
      <trkpt lat="43.6355" lon="1.37892">
        <ele>151</ele>
        <time>2025-03-25T18:00:23Z</time>
      </trkpt>
      <trkpt lat="43.63554" lon="1.37888">
        <ele>151</ele>
        <time>2025-03-25T18:00:24Z</time>
      </trkpt>
      <trkpt lat="43.63554" lon="1.37888">
        <ele>151</ele>
        <time>2025-03-25T18:00:25Z</time>
      </trkpt>
      <trkpt lat="43.63556" lon="1.37886">
        <ele>151</ele>
        <time>2025-03-25T18:00:26Z</time>
      </trkpt>
      <trkpt lat="43.63559" lon="1.37884">
        <ele>151</ele>
        <time>2025-03-25T18:00:27Z</time>
      </trkpt>
      <trkpt lat="43.63561" lon="1.37882">
        <ele>151</ele>
        <time>2025-03-25T18:00:28Z</time>
      </trkpt>
      <trkpt lat="43.63563" lon="1.3788">
        <ele>151</ele>
        <time>2025-03-25T18:00:29Z</time>
      </trkpt>
      <trkpt lat="43.63566" lon="1.37879">
        <ele>151</ele>
        <time>2025-03-25T18:00:30Z</time>
      </trkpt>
      <trkpt lat="43.63568" lon="1.37877">
        <ele>151</ele>
        <time>2025-03-25T18:00:31Z</time>
      </trkpt>
      <trkpt lat="43.6357" lon="1.37875">
        <ele>150</ele>
        <time>2025-03-25T18:00:32Z</time>
      </trkpt>
      <trkpt lat="43.63572" lon="1.37873">
        <ele>150</ele>
        <time>2025-03-25T18:00:33Z</time>
      </trkpt>
      <trkpt lat="43.63574" lon="1.37871">
        <ele>150</ele>
        <time>2025-03-25T18:00:34Z</time>
      </trkpt>
      <trkpt lat="43.63576" lon="1.3787">
        <ele>150</ele>
        <time>2025-03-25T18:00:35Z</time>
      </trkpt>
      <trkpt lat="43.63578" lon="1.37868">
        <ele>150</ele>
        <time>2025-03-25T18:00:36Z</time>
      </trkpt>
      <trkpt lat="43.6358" lon="1.37866">
        <ele>151</ele>
        <time>2025-03-25T18:00:37Z</time>
      </trkpt>
      <trkpt lat="43.63582" lon="1.37864">
        <ele>151</ele>
        <time>2025-03-25T18:00:38Z</time>
      </trkpt>
      <trkpt lat="43.63584" lon="1.37863">
        <ele>150</ele>
        <time>2025-03-25T18:00:39Z</time>
      </trkpt>
      <trkpt lat="43.63586" lon="1.37861">
        <ele>150</ele>
        <time>2025-03-25T18:00:40Z</time>
      </trkpt>
      <trkpt lat="43.63589" lon="1.37859">
        <ele>150</ele>
        <time>2025-03-25T18:00:41Z</time>
      </trkpt>
      <trkpt lat="43.63591" lon="1.37857">
        <ele>150</ele>
        <time>2025-03-25T18:00:42Z</time>
      </trkpt>
      <trkpt lat="43.63593" lon="1.37855">
        <ele>150</ele>
        <time>2025-03-25T18:00:43Z</time>
      </trkpt>
      <trkpt lat="43.63596" lon="1.37853">
        <ele>150</ele>
        <time>2025-03-25T18:00:44Z</time>
      </trkpt>
      <trkpt lat="43.63598" lon="1.37851">
        <ele>150</ele>
        <time>2025-03-25T18:00:45Z</time>
      </trkpt>
      <trkpt lat="43.63601" lon="1.3785">
        <ele>150</ele>
        <time>2025-03-25T18:00:46Z</time>
      </trkpt>
      <trkpt lat="43.63603" lon="1.37848">
        <ele>150</ele>
        <time>2025-03-25T18:00:47Z</time>
      </trkpt>
      <trkpt lat="43.63605" lon="1.37846">
        <ele>150</ele>
        <time>2025-03-25T18:00:48Z</time>
      </trkpt>
      <trkpt lat="43.63607" lon="1.37844">
        <ele>150</ele>
        <time>2025-03-25T18:00:49Z</time>
      </trkpt>
      <trkpt lat="43.63609" lon="1.37842">
        <ele>150</ele>
        <time>2025-03-25T18:00:50Z</time>
      </trkpt>
      <trkpt lat="43.63612" lon="1.3784">
        <ele>150</ele>
        <time>2025-03-25T18:00:51Z</time>
      </trkpt>
      <trkpt lat="43.63614" lon="1.37838">
        <ele>150</ele>
        <time>2025-03-25T18:00:52Z</time>
      </trkpt>
      <trkpt lat="43.63616" lon="1.37837">
        <ele>150</ele>
        <time>2025-03-25T18:00:53Z</time>
      </trkpt>
      <trkpt lat="43.63619" lon="1.37835">
        <ele>150</ele>
        <time>2025-03-25T18:00:54Z</time>
      </trkpt>
      <trkpt lat="43.63621" lon="1.37833">
        <ele>150</ele>
        <time>2025-03-25T18:00:55Z</time>
      </trkpt>
      <trkpt lat="43.63624" lon="1.37832">
        <ele>150</ele>
        <time>2025-03-25T18:00:56Z</time>
      </trkpt>
      <trkpt lat="43.63626" lon="1.3783">
        <ele>150</ele>
        <time>2025-03-25T18:00:57Z</time>
      </trkpt>
      <trkpt lat="43.63628" lon="1.37828">
        <ele>150</ele>
        <time>2025-03-25T18:00:58Z</time>
      </trkpt>
      <trkpt lat="43.63631" lon="1.37827">
        <ele>150</ele>
        <time>2025-03-25T18:00:59Z</time>
      </trkpt>
      <trkpt lat="43.63633" lon="1.37826">
        <ele>150</ele>
        <time>2025-03-25T18:01:00Z</time>
      </trkpt>
      <trkpt lat="43.63635" lon="1.37824">
        <ele>150</ele>
        <time>2025-03-25T18:01:01Z</time>
      </trkpt>
      <trkpt lat="43.63638" lon="1.37823">
        <ele>150</ele>
        <time>2025-03-25T18:01:02Z</time>
      </trkpt>
      <trkpt lat="43.6364" lon="1.37821">
        <ele>150</ele>
        <time>2025-03-25T18:01:03Z</time>
      </trkpt>
      <trkpt lat="43.63642" lon="1.37819">
        <ele>150</ele>
        <time>2025-03-25T18:01:04Z</time>
      </trkpt>
      <trkpt lat="43.63645" lon="1.37817">
        <ele>150</ele>
        <time>2025-03-25T18:01:05Z</time>
      </trkpt>
      <trkpt lat="43.63647" lon="1.37816">
        <ele>150</ele>
        <time>2025-03-25T18:01:06Z</time>
      </trkpt>
      <trkpt lat="43.63649" lon="1.37815">
        <ele>150</ele>
        <time>2025-03-25T18:01:07Z</time>
      </trkpt>
      <trkpt lat="43.63652" lon="1.37813">
        <ele>150</ele>
        <time>2025-03-25T18:01:08Z</time>
      </trkpt>
      <trkpt lat="43.63654" lon="1.37812">
        <ele>150</ele>
        <time>2025-03-25T18:01:09Z</time>
      </trkpt>
      <trkpt lat="43.63657" lon="1.3781">
        <ele>150</ele>
        <time>2025-03-25T18:01:10Z</time>
      </trkpt>
      <trkpt lat="43.63659" lon="1.37809">
        <ele>150</ele>
        <time>2025-03-25T18:01:11Z</time>
      </trkpt>
      <trkpt lat="43.63662" lon="1.37807">
        <ele>150</ele>
        <time>2025-03-25T18:01:12Z</time>
      </trkpt>
      <trkpt lat="43.63664" lon="1.37805">
        <ele>150</ele>
        <time>2025-03-25T18:01:13Z</time>
      </trkpt>
      <trkpt lat="43.63666" lon="1.37804">
        <ele>150</ele>
        <time>2025-03-25T18:01:14Z</time>
      </trkpt>
      <trkpt lat="43.63668" lon="1.37802">
        <ele>150</ele>
        <time>2025-03-25T18:01:15Z</time>
      </trkpt>
      <trkpt lat="43.6367" lon="1.37801">
        <ele>150</ele>
        <time>2025-03-25T18:01:16Z</time>
      </trkpt>
      <trkpt lat="43.63672" lon="1.37799">
        <ele>150</ele>
        <time>2025-03-25T18:01:17Z</time>
      </trkpt>
      <trkpt lat="43.63674" lon="1.37798">
        <ele>150</ele>
        <time>2025-03-25T18:01:18Z</time>
      </trkpt>
      <trkpt lat="43.63676" lon="1.37796">
        <ele>150</ele>
        <time>2025-03-25T18:01:19Z</time>
      </trkpt>
      <trkpt lat="43.63678" lon="1.37794">
        <ele>150</ele>
        <time>2025-03-25T18:01:20Z</time>
      </trkpt>
      <trkpt lat="43.6368" lon="1.37792">
        <ele>150</ele>
        <time>2025-03-25T18:01:21Z</time>
      </trkpt>
      <trkpt lat="43.63682" lon="1.37791">
        <ele>150</ele>
        <time>2025-03-25T18:01:22Z</time>
      </trkpt>
      <trkpt lat="43.63685" lon="1.37789">
        <ele>150</ele>
        <time>2025-03-25T18:01:23Z</time>
      </trkpt>
      <trkpt lat="43.63687" lon="1.37788">
        <ele>150</ele>
        <time>2025-03-25T18:01:24Z</time>
      </trkpt>
      <trkpt lat="43.63689" lon="1.37786">
        <ele>150</ele>
        <time>2025-03-25T18:01:25Z</time>
      </trkpt>
      <trkpt lat="43.63692" lon="1.37785">
        <ele>150</ele>
        <time>2025-03-25T18:01:26Z</time>
      </trkpt>
      <trkpt lat="43.63694" lon="1.37784">
        <ele>150</ele>
        <time>2025-03-25T18:01:27Z</time>
      </trkpt>
      <trkpt lat="43.63696" lon="1.37782">
        <ele>150</ele>
        <time>2025-03-25T18:01:28Z</time>
      </trkpt>
      <trkpt lat="43.63699" lon="1.3778">
        <ele>150</ele>
        <time>2025-03-25T18:01:29Z</time>
      </trkpt>
      <trkpt lat="43.63701" lon="1.37778">
        <ele>150</ele>
        <time>2025-03-25T18:01:30Z</time>
      </trkpt>
      <trkpt lat="43.63703" lon="1.37777">
        <ele>150</ele>
        <time>2025-03-25T18:01:31Z</time>
      </trkpt>
      <trkpt lat="43.63705" lon="1.37775">
        <ele>150</ele>
        <time>2025-03-25T18:01:32Z</time>
      </trkpt>
      <trkpt lat="43.63707" lon="1.37773">
        <ele>150</ele>
        <time>2025-03-25T18:01:33Z</time>
      </trkpt>
      <trkpt lat="43.63709" lon="1.37772">
        <ele>150</ele>
        <time>2025-03-25T18:01:34Z</time>
      </trkpt>
      <trkpt lat="43.63712" lon="1.3777">
        <ele>150</ele>
        <time>2025-03-25T18:01:35Z</time>
      </trkpt>
      <trkpt lat="43.63714" lon="1.37769">
        <ele>150</ele>
        <time>2025-03-25T18:01:36Z</time>
      </trkpt>
      <trkpt lat="43.63717" lon="1.37768">
        <ele>150</ele>
        <time>2025-03-25T18:01:37Z</time>
      </trkpt>
      <trkpt lat="43.6372" lon="1.37767">
        <ele>150</ele>
        <time>2025-03-25T18:01:38Z</time>
      </trkpt>
      <trkpt lat="43.63722" lon="1.37766">
        <ele>151</ele>
        <time>2025-03-25T18:01:39Z</time>
      </trkpt>
      <trkpt lat="43.63727" lon="1.3777">
        <ele>151</ele>
        <time>2025-03-25T18:01:40Z</time>
      </trkpt>
      <trkpt lat="43.63728" lon="1.37773">
        <ele>150</ele>
        <time>2025-03-25T18:01:41Z</time>
      </trkpt>
      <trkpt lat="43.63728" lon="1.37773">
        <ele>150</ele>
        <time>2025-03-25T18:01:42Z</time>
      </trkpt>
      <trkpt lat="43.63729" lon="1.37776">
        <ele>150</ele>
        <time>2025-03-25T18:01:43Z</time>
      </trkpt>
      <trkpt lat="43.6373" lon="1.3778">
        <ele>150</ele>
        <time>2025-03-25T18:01:44Z</time>
      </trkpt>
      <trkpt lat="43.63731" lon="1.37783">
        <ele>150</ele>
        <time>2025-03-25T18:01:45Z</time>
      </trkpt>
      <trkpt lat="43.63732" lon="1.37786">
        <ele>150</ele>
        <time>2025-03-25T18:01:46Z</time>
      </trkpt>
      <trkpt lat="43.63733" lon="1.37789">
        <ele>150</ele>
        <time>2025-03-25T18:01:47Z</time>
      </trkpt>
      <trkpt lat="43.63735" lon="1.37792">
        <ele>150</ele>
        <time>2025-03-25T18:01:48Z</time>
      </trkpt>
      <trkpt lat="43.63736" lon="1.37794">
        <ele>150</ele>
        <time>2025-03-25T18:01:49Z</time>
      </trkpt>
      <trkpt lat="43.63737" lon="1.37797">
        <ele>150</ele>
        <time>2025-03-25T18:01:50Z</time>
      </trkpt>
      <trkpt lat="43.63737" lon="1.37797">
        <ele>150</ele>
        <time>2025-03-25T18:01:51Z</time>
      </trkpt>
      <trkpt lat="43.63738" lon="1.37801">
        <ele>150</ele>
        <time>2025-03-25T18:01:52Z</time>
      </trkpt>
      <trkpt lat="43.63738" lon="1.37801">
        <ele>150</ele>
        <time>2025-03-25T18:01:53Z</time>
      </trkpt>
      <trkpt lat="43.63742" lon="1.378">
        <ele>150</ele>
        <time>2025-03-25T18:01:54Z</time>
      </trkpt>
      <trkpt lat="43.63744" lon="1.37799">
        <ele>150</ele>
        <time>2025-03-25T18:01:55Z</time>
      </trkpt>
      <trkpt lat="43.63747" lon="1.37798">
        <ele>150</ele>
        <time>2025-03-25T18:01:56Z</time>
      </trkpt>
      <trkpt lat="43.6375" lon="1.37798">
        <ele>150</ele>
        <time>2025-03-25T18:01:57Z</time>
      </trkpt>
      <trkpt lat="43.63753" lon="1.37797">
        <ele>150</ele>
        <time>2025-03-25T18:01:58Z</time>
      </trkpt>
      <trkpt lat="43.63757" lon="1.37798">
        <ele>150</ele>
        <time>2025-03-25T18:01:59Z</time>
      </trkpt>
      <trkpt lat="43.63758" lon="1.37798">
        <ele>150</ele>
        <time>2025-03-25T18:02:00Z</time>
      </trkpt>
      <trkpt lat="43.63761" lon="1.37799">
        <ele>150</ele>
        <time>2025-03-25T18:02:01Z</time>
      </trkpt>
      <trkpt lat="43.63764" lon="1.378">
        <ele>150</ele>
        <time>2025-03-25T18:02:02Z</time>
      </trkpt>
      <trkpt lat="43.63767" lon="1.378">
        <ele>150</ele>
        <time>2025-03-25T18:02:03Z</time>
      </trkpt>
      <trkpt lat="43.63769" lon="1.378">
        <ele>150</ele>
        <time>2025-03-25T18:02:04Z</time>
      </trkpt>
      <trkpt lat="43.63771" lon="1.378">
        <ele>150</ele>
        <time>2025-03-25T18:02:05Z</time>
      </trkpt>
      <trkpt lat="43.63773" lon="1.378">
        <ele>150</ele>
        <time>2025-03-25T18:02:06Z</time>
      </trkpt>
      <trkpt lat="43.63775" lon="1.37799">
        <ele>150</ele>
        <time>2025-03-25T18:02:07Z</time>
      </trkpt>
      <trkpt lat="43.63776" lon="1.37796">
        <ele>150</ele>
        <time>2025-03-25T18:02:08Z</time>
      </trkpt>
      <trkpt lat="43.63776" lon="1.37793">
        <ele>150</ele>
        <time>2025-03-25T18:02:09Z</time>
      </trkpt>
      <trkpt lat="43.63776" lon="1.3779">
        <ele>150</ele>
        <time>2025-03-25T18:02:10Z</time>
      </trkpt>
      <trkpt lat="43.63777" lon="1.37786">
        <ele>150</ele>
        <time>2025-03-25T18:02:11Z</time>
      </trkpt>
      <trkpt lat="43.63777" lon="1.37783">
        <ele>150</ele>
        <time>2025-03-25T18:02:12Z</time>
      </trkpt>
      <trkpt lat="43.63778" lon="1.37777">
        <ele>150</ele>
        <time>2025-03-25T18:02:13Z</time>
      </trkpt>
      <trkpt lat="43.63778" lon="1.37777">
        <ele>150</ele>
        <time>2025-03-25T18:02:14Z</time>
      </trkpt>
      <trkpt lat="43.63778" lon="1.37773">
        <ele>150</ele>
        <time>2025-03-25T18:02:15Z</time>
      </trkpt>
      <trkpt lat="43.63778" lon="1.3777">
        <ele>150</ele>
        <time>2025-03-25T18:02:16Z</time>
      </trkpt>
      <trkpt lat="43.63778" lon="1.37766">
        <ele>150</ele>
        <time>2025-03-25T18:02:17Z</time>
      </trkpt>
      <trkpt lat="43.63779" lon="1.37762">
        <ele>150</ele>
        <time>2025-03-25T18:02:18Z</time>
      </trkpt>
      <trkpt lat="43.6378" lon="1.37759">
        <ele>150</ele>
        <time>2025-03-25T18:02:19Z</time>
      </trkpt>
      <trkpt lat="43.63781" lon="1.37755">
        <ele>150</ele>
        <time>2025-03-25T18:02:20Z</time>
      </trkpt>
      <trkpt lat="43.63782" lon="1.37752">
        <ele>150</ele>
        <time>2025-03-25T18:02:21Z</time>
      </trkpt>
      <trkpt lat="43.63783" lon="1.37748">
        <ele>150</ele>
        <time>2025-03-25T18:02:22Z</time>
      </trkpt>
      <trkpt lat="43.63784" lon="1.37745">
        <ele>150</ele>
        <time>2025-03-25T18:02:23Z</time>
      </trkpt>
      <trkpt lat="43.63786" lon="1.37741">
        <ele>150</ele>
        <time>2025-03-25T18:02:24Z</time>
      </trkpt>
      <trkpt lat="43.63787" lon="1.37738">
        <ele>150</ele>
        <time>2025-03-25T18:02:25Z</time>
      </trkpt>
      <trkpt lat="43.63788" lon="1.37734">
        <ele>150</ele>
        <time>2025-03-25T18:02:26Z</time>
      </trkpt>
      <trkpt lat="43.63789" lon="1.37731">
        <ele>150</ele>
        <time>2025-03-25T18:02:27Z</time>
      </trkpt>
      <trkpt lat="43.6379" lon="1.37728">
        <ele>150</ele>
        <time>2025-03-25T18:02:28Z</time>
      </trkpt>
      <trkpt lat="43.63791" lon="1.37725">
        <ele>150</ele>
        <time>2025-03-25T18:02:29Z</time>
      </trkpt>
      <trkpt lat="43.63792" lon="1.37722">
        <ele>150</ele>
        <time>2025-03-25T18:02:30Z</time>
      </trkpt>
      <trkpt lat="43.63792" lon="1.37722">
        <ele>150</ele>
        <time>2025-03-25T18:02:31Z</time>
      </trkpt>
      <trkpt lat="43.63793" lon="1.3772">
        <ele>150</ele>
        <time>2025-03-25T18:02:32Z</time>
      </trkpt>
      <trkpt lat="43.63793" lon="1.3772">
        <ele>150</ele>
        <time>2025-03-25T18:02:33Z</time>
      </trkpt>
      <trkpt lat="43.63793" lon="1.3772">
        <ele>150</ele>
        <time>2025-03-25T18:02:34Z</time>
      </trkpt>
      <trkpt lat="43.63795" lon="1.37718">
        <ele>150</ele>
        <time>2025-03-25T18:02:35Z</time>
      </trkpt>
      <trkpt lat="43.63795" lon="1.37718">
        <ele>150</ele>
        <time>2025-03-25T18:02:36Z</time>
      </trkpt>
      <trkpt lat="43.63795" lon="1.37714">
        <ele>149</ele>
        <time>2025-03-25T18:02:37Z</time>
      </trkpt>
      <trkpt lat="43.63795" lon="1.37714">
        <ele>148</ele>
        <time>2025-03-25T18:02:38Z</time>
      </trkpt>
      <trkpt lat="43.63796" lon="1.37711">
        <ele>148</ele>
        <time>2025-03-25T18:02:39Z</time>
      </trkpt>
      <trkpt lat="43.63798" lon="1.3771">
        <ele>147</ele>
        <time>2025-03-25T18:02:40Z</time>
      </trkpt>
      <trkpt lat="43.638" lon="1.37711">
        <ele>146</ele>
        <time>2025-03-25T18:02:41Z</time>
      </trkpt>
      <trkpt lat="43.63803" lon="1.37712">
        <ele>146</ele>
        <time>2025-03-25T18:02:42Z</time>
      </trkpt>
      <trkpt lat="43.63805" lon="1.37714">
        <ele>146</ele>
        <time>2025-03-25T18:02:43Z</time>
      </trkpt>
      <trkpt lat="43.63807" lon="1.37715">
        <ele>146</ele>
        <time>2025-03-25T18:02:44Z</time>
      </trkpt>
      <trkpt lat="43.63809" lon="1.37716">
        <ele>146</ele>
        <time>2025-03-25T18:02:45Z</time>
      </trkpt>
      <trkpt lat="43.63811" lon="1.37718">
        <ele>146</ele>
        <time>2025-03-25T18:02:46Z</time>
      </trkpt>
      <trkpt lat="43.63814" lon="1.3772">
        <ele>146</ele>
        <time>2025-03-25T18:02:47Z</time>
      </trkpt>
      <trkpt lat="43.63816" lon="1.37722">
        <ele>146</ele>
        <time>2025-03-25T18:02:48Z</time>
      </trkpt>
      <trkpt lat="43.63819" lon="1.37724">
        <ele>146</ele>
        <time>2025-03-25T18:02:49Z</time>
      </trkpt>
      <trkpt lat="43.63821" lon="1.37726">
        <ele>146</ele>
        <time>2025-03-25T18:02:50Z</time>
      </trkpt>
      <trkpt lat="43.63824" lon="1.37728">
        <ele>147</ele>
        <time>2025-03-25T18:02:51Z</time>
      </trkpt>
      <trkpt lat="43.63826" lon="1.37731">
        <ele>147</ele>
        <time>2025-03-25T18:02:52Z</time>
      </trkpt>
      <trkpt lat="43.63828" lon="1.37733">
        <ele>147</ele>
        <time>2025-03-25T18:02:53Z</time>
      </trkpt>
      <trkpt lat="43.63831" lon="1.37735">
        <ele>147</ele>
        <time>2025-03-25T18:02:54Z</time>
      </trkpt>
      <trkpt lat="43.63833" lon="1.37737">
        <ele>148</ele>
        <time>2025-03-25T18:02:55Z</time>
      </trkpt>
      <trkpt lat="43.63838" lon="1.37742">
        <ele>148</ele>
        <time>2025-03-25T18:02:56Z</time>
      </trkpt>
      <trkpt lat="43.63838" lon="1.37742">
        <ele>149</ele>
        <time>2025-03-25T18:02:57Z</time>
      </trkpt>
      <trkpt lat="43.63841" lon="1.37744">
        <ele>149</ele>
        <time>2025-03-25T18:02:58Z</time>
      </trkpt>
      <trkpt lat="43.63844" lon="1.37746">
        <ele>149</ele>
        <time>2025-03-25T18:02:59Z</time>
      </trkpt>
      <trkpt lat="43.63846" lon="1.37748">
        <ele>149</ele>
        <time>2025-03-25T18:03:00Z</time>
      </trkpt>
      <trkpt lat="43.63849" lon="1.37751">
        <ele>149</ele>
        <time>2025-03-25T18:03:01Z</time>
      </trkpt>
      <trkpt lat="43.63852" lon="1.37754">
        <ele>149</ele>
        <time>2025-03-25T18:03:02Z</time>
      </trkpt>
      <trkpt lat="43.63852" lon="1.37754">
        <ele>149</ele>
        <time>2025-03-25T18:03:03Z</time>
      </trkpt>
      <trkpt lat="43.63854" lon="1.37757">
        <ele>149</ele>
        <time>2025-03-25T18:03:04Z</time>
      </trkpt>
      <trkpt lat="43.63856" lon="1.37758">
        <ele>148</ele>
        <time>2025-03-25T18:03:05Z</time>
      </trkpt>
      <trkpt lat="43.63858" lon="1.3776">
        <ele>148</ele>
        <time>2025-03-25T18:03:06Z</time>
      </trkpt>
      <trkpt lat="43.6386" lon="1.37762">
        <ele>148</ele>
        <time>2025-03-25T18:03:07Z</time>
      </trkpt>
      <trkpt lat="43.63862" lon="1.37764">
        <ele>148</ele>
        <time>2025-03-25T18:03:08Z</time>
      </trkpt>
      <trkpt lat="43.63864" lon="1.37766">
        <ele>149</ele>
        <time>2025-03-25T18:03:09Z</time>
      </trkpt>
      <trkpt lat="43.63866" lon="1.37768">
        <ele>149</ele>
        <time>2025-03-25T18:03:10Z</time>
      </trkpt>
      <trkpt lat="43.63868" lon="1.3777">
        <ele>149</ele>
        <time>2025-03-25T18:03:11Z</time>
      </trkpt>
      <trkpt lat="43.63871" lon="1.37772">
        <ele>149</ele>
        <time>2025-03-25T18:03:12Z</time>
      </trkpt>
      <trkpt lat="43.63872" lon="1.37774">
        <ele>149</ele>
        <time>2025-03-25T18:03:13Z</time>
      </trkpt>
      <trkpt lat="43.63874" lon="1.37776">
        <ele>148</ele>
        <time>2025-03-25T18:03:14Z</time>
      </trkpt>
      <trkpt lat="43.63876" lon="1.37778">
        <ele>149</ele>
        <time>2025-03-25T18:03:15Z</time>
      </trkpt>
      <trkpt lat="43.63877" lon="1.37781">
        <ele>149</ele>
        <time>2025-03-25T18:03:16Z</time>
      </trkpt>
      <trkpt lat="43.63879" lon="1.37784">
        <ele>149</ele>
        <time>2025-03-25T18:03:17Z</time>
      </trkpt>
      <trkpt lat="43.6388" lon="1.37787">
        <ele>149</ele>
        <time>2025-03-25T18:03:18Z</time>
      </trkpt>
      <trkpt lat="43.63882" lon="1.37793">
        <ele>149</ele>
        <time>2025-03-25T18:03:19Z</time>
      </trkpt>
      <trkpt lat="43.63882" lon="1.37793">
        <ele>149</ele>
        <time>2025-03-25T18:03:20Z</time>
      </trkpt>
      <trkpt lat="43.63883" lon="1.37796">
        <ele>149</ele>
        <time>2025-03-25T18:03:21Z</time>
      </trkpt>
      <trkpt lat="43.63883" lon="1.37799">
        <ele>149</ele>
        <time>2025-03-25T18:03:22Z</time>
      </trkpt>
      <trkpt lat="43.63884" lon="1.37801">
        <ele>149</ele>
        <time>2025-03-25T18:03:23Z</time>
      </trkpt>
      <trkpt lat="43.63885" lon="1.37804">
        <ele>149</ele>
        <time>2025-03-25T18:03:24Z</time>
      </trkpt>
      <trkpt lat="43.63885" lon="1.37804">
        <ele>149</ele>
        <time>2025-03-25T18:03:25Z</time>
      </trkpt>
      <trkpt lat="43.63887" lon="1.37806">
        <ele>149</ele>
        <time>2025-03-25T18:03:26Z</time>
      </trkpt>
      <trkpt lat="43.63887" lon="1.37806">
        <ele>149</ele>
        <time>2025-03-25T18:03:27Z</time>
      </trkpt>
      <trkpt lat="43.63889" lon="1.37804">
        <ele>149</ele>
        <time>2025-03-25T18:03:28Z</time>
      </trkpt>
      <trkpt lat="43.63891" lon="1.37803">
        <ele>149</ele>
        <time>2025-03-25T18:03:29Z</time>
      </trkpt>
      <trkpt lat="43.63892" lon="1.378">
        <ele>148</ele>
        <time>2025-03-25T18:03:30Z</time>
      </trkpt>
      <trkpt lat="43.63893" lon="1.37797">
        <ele>148</ele>
        <time>2025-03-25T18:03:31Z</time>
      </trkpt>
      <trkpt lat="43.63893" lon="1.37794">
        <ele>148</ele>
        <time>2025-03-25T18:03:32Z</time>
      </trkpt>
      <trkpt lat="43.63893" lon="1.37792">
        <ele>148</ele>
        <time>2025-03-25T18:03:33Z</time>
      </trkpt>
      <trkpt lat="43.63893" lon="1.37789">
        <ele>149</ele>
        <time>2025-03-25T18:03:34Z</time>
      </trkpt>
      <trkpt lat="43.63895" lon="1.37786">
        <ele>149</ele>
        <time>2025-03-25T18:03:35Z</time>
      </trkpt>
      <trkpt lat="43.63897" lon="1.37783">
        <ele>149</ele>
        <time>2025-03-25T18:03:36Z</time>
      </trkpt>
      <trkpt lat="43.63899" lon="1.37781">
        <ele>149</ele>
        <time>2025-03-25T18:03:37Z</time>
      </trkpt>
      <trkpt lat="43.63901" lon="1.37779">
        <ele>150</ele>
        <time>2025-03-25T18:03:38Z</time>
      </trkpt>
      <trkpt lat="43.63903" lon="1.37777">
        <ele>150</ele>
        <time>2025-03-25T18:03:39Z</time>
      </trkpt>
      <trkpt lat="43.63906" lon="1.37775">
        <ele>149</ele>
        <time>2025-03-25T18:03:40Z</time>
      </trkpt>
      <trkpt lat="43.63908" lon="1.37773">
        <ele>149</ele>
        <time>2025-03-25T18:03:41Z</time>
      </trkpt>
      <trkpt lat="43.6391" lon="1.37771">
        <ele>149</ele>
        <time>2025-03-25T18:03:42Z</time>
      </trkpt>
      <trkpt lat="43.63912" lon="1.37769">
        <ele>149</ele>
        <time>2025-03-25T18:03:43Z</time>
      </trkpt>
      <trkpt lat="43.63915" lon="1.37767">
        <ele>149</ele>
        <time>2025-03-25T18:03:44Z</time>
      </trkpt>
      <trkpt lat="43.63917" lon="1.37765">
        <ele>149</ele>
        <time>2025-03-25T18:03:45Z</time>
      </trkpt>
      <trkpt lat="43.63919" lon="1.37763">
        <ele>149</ele>
        <time>2025-03-25T18:03:46Z</time>
      </trkpt>
      <trkpt lat="43.63921" lon="1.37762">
        <ele>149</ele>
        <time>2025-03-25T18:03:47Z</time>
      </trkpt>
      <trkpt lat="43.63923" lon="1.37762">
        <ele>149</ele>
        <time>2025-03-25T18:03:48Z</time>
      </trkpt>
      <trkpt lat="43.63923" lon="1.37762">
        <ele>149</ele>
        <time>2025-03-25T18:03:49Z</time>
      </trkpt>
      <trkpt lat="43.63927" lon="1.37764">
        <ele>149</ele>
        <time>2025-03-25T18:03:50Z</time>
      </trkpt>
      <trkpt lat="43.63929" lon="1.37766">
        <ele>149</ele>
        <time>2025-03-25T18:03:51Z</time>
      </trkpt>
      <trkpt lat="43.63931" lon="1.37768">
        <ele>149</ele>
        <time>2025-03-25T18:03:52Z</time>
      </trkpt>
      <trkpt lat="43.63933" lon="1.3777">
        <ele>149</ele>
        <time>2025-03-25T18:03:53Z</time>
      </trkpt>
      <trkpt lat="43.63935" lon="1.37772">
        <ele>149</ele>
        <time>2025-03-25T18:03:54Z</time>
      </trkpt>
      <trkpt lat="43.63937" lon="1.37773">
        <ele>149</ele>
        <time>2025-03-25T18:03:55Z</time>
      </trkpt>
      <trkpt lat="43.63939" lon="1.37775">
        <ele>149</ele>
        <time>2025-03-25T18:03:56Z</time>
      </trkpt>
      <trkpt lat="43.63941" lon="1.37776">
        <ele>149</ele>
        <time>2025-03-25T18:03:57Z</time>
      </trkpt>
      <trkpt lat="43.63941" lon="1.37776">
        <ele>149</ele>
        <time>2025-03-25T18:03:58Z</time>
      </trkpt>
      <trkpt lat="43.63944" lon="1.37776">
        <ele>149</ele>
        <time>2025-03-25T18:03:59Z</time>
      </trkpt>
      <trkpt lat="43.63946" lon="1.37777">
        <ele>148</ele>
        <time>2025-03-25T18:04:00Z</time>
      </trkpt>
      <trkpt lat="43.63948" lon="1.37776">
        <ele>148</ele>
        <time>2025-03-25T18:04:01Z</time>
      </trkpt>
      <trkpt lat="43.63951" lon="1.37776">
        <ele>148</ele>
        <time>2025-03-25T18:04:02Z</time>
      </trkpt>
      <trkpt lat="43.63954" lon="1.37777">
        <ele>148</ele>
        <time>2025-03-25T18:04:03Z</time>
      </trkpt>
      <trkpt lat="43.63957" lon="1.37778">
        <ele>149</ele>
        <time>2025-03-25T18:04:04Z</time>
      </trkpt>
      <trkpt lat="43.63959" lon="1.37779">
        <ele>149</ele>
        <time>2025-03-25T18:04:05Z</time>
      </trkpt>
      <trkpt lat="43.63959" lon="1.37779">
        <ele>149</ele>
        <time>2025-03-25T18:04:06Z</time>
      </trkpt>
      <trkpt lat="43.63962" lon="1.3778">
        <ele>149</ele>
        <time>2025-03-25T18:04:07Z</time>
      </trkpt>
      <trkpt lat="43.63964" lon="1.37778">
        <ele>149</ele>
        <time>2025-03-25T18:04:08Z</time>
      </trkpt>
      <trkpt lat="43.63966" lon="1.37776">
        <ele>149</ele>
        <time>2025-03-25T18:04:09Z</time>
      </trkpt>
      <trkpt lat="43.63967" lon="1.37774">
        <ele>149</ele>
        <time>2025-03-25T18:04:10Z</time>
      </trkpt>
      <trkpt lat="43.63969" lon="1.37771">
        <ele>149</ele>
        <time>2025-03-25T18:04:11Z</time>
      </trkpt>
      <trkpt lat="43.6397" lon="1.37768">
        <ele>148</ele>
        <time>2025-03-25T18:04:12Z</time>
      </trkpt>
      <trkpt lat="43.63971" lon="1.37765">
        <ele>148</ele>
        <time>2025-03-25T18:04:13Z</time>
      </trkpt>
      <trkpt lat="43.63973" lon="1.37762">
        <ele>148</ele>
        <time>2025-03-25T18:04:14Z</time>
      </trkpt>
      <trkpt lat="43.63974" lon="1.3776">
        <ele>148</ele>
        <time>2025-03-25T18:04:15Z</time>
      </trkpt>
      <trkpt lat="43.63975" lon="1.37757">
        <ele>148</ele>
        <time>2025-03-25T18:04:16Z</time>
      </trkpt>
      <trkpt lat="43.63976" lon="1.37755">
        <ele>148</ele>
        <time>2025-03-25T18:04:17Z</time>
      </trkpt>
      <trkpt lat="43.63977" lon="1.37751">
        <ele>149</ele>
        <time>2025-03-25T18:04:18Z</time>
      </trkpt>
      <trkpt lat="43.63977" lon="1.37747">
        <ele>149</ele>
        <time>2025-03-25T18:04:19Z</time>
      </trkpt>
      <trkpt lat="43.63977" lon="1.37747">
        <ele>149</ele>
        <time>2025-03-25T18:04:20Z</time>
      </trkpt>
      <trkpt lat="43.63978" lon="1.37742">
        <ele>149</ele>
        <time>2025-03-25T18:04:21Z</time>
      </trkpt>
      <trkpt lat="43.63978" lon="1.37739">
        <ele>149</ele>
        <time>2025-03-25T18:04:22Z</time>
      </trkpt>
      <trkpt lat="43.63979" lon="1.37736">
        <ele>148</ele>
        <time>2025-03-25T18:04:23Z</time>
      </trkpt>
      <trkpt lat="43.63979" lon="1.37732">
        <ele>148</ele>
        <time>2025-03-25T18:04:24Z</time>
      </trkpt>
      <trkpt lat="43.6398" lon="1.37728">
        <ele>149</ele>
        <time>2025-03-25T18:04:25Z</time>
      </trkpt>
      <trkpt lat="43.6398" lon="1.37724">
        <ele>149</ele>
        <time>2025-03-25T18:04:26Z</time>
      </trkpt>
      <trkpt lat="43.63981" lon="1.3772">
        <ele>149</ele>
        <time>2025-03-25T18:04:27Z</time>
      </trkpt>
      <trkpt lat="43.63982" lon="1.37716">
        <ele>149</ele>
        <time>2025-03-25T18:04:28Z</time>
      </trkpt>
      <trkpt lat="43.63984" lon="1.37713">
        <ele>149</ele>
        <time>2025-03-25T18:04:29Z</time>
      </trkpt>
      <trkpt lat="43.63986" lon="1.37709">
        <ele>150</ele>
        <time>2025-03-25T18:04:30Z</time>
      </trkpt>
      <trkpt lat="43.63988" lon="1.37706">
        <ele>150</ele>
        <time>2025-03-25T18:04:31Z</time>
      </trkpt>
      <trkpt lat="43.6399" lon="1.37703">
        <ele>150</ele>
        <time>2025-03-25T18:04:32Z</time>
      </trkpt>
      <trkpt lat="43.63992" lon="1.37701">
        <ele>150</ele>
        <time>2025-03-25T18:04:33Z</time>
      </trkpt>
      <trkpt lat="43.63994" lon="1.37698">
        <ele>150</ele>
        <time>2025-03-25T18:04:34Z</time>
      </trkpt>
      <trkpt lat="43.63996" lon="1.37696">
        <ele>150</ele>
        <time>2025-03-25T18:04:35Z</time>
      </trkpt>
      <trkpt lat="43.63998" lon="1.37693">
        <ele>150</ele>
        <time>2025-03-25T18:04:36Z</time>
      </trkpt>
      <trkpt lat="43.64" lon="1.37691">
        <ele>150</ele>
        <time>2025-03-25T18:04:37Z</time>
      </trkpt>
      <trkpt lat="43.64002" lon="1.37689">
        <ele>150</ele>
        <time>2025-03-25T18:04:38Z</time>
      </trkpt>
      <trkpt lat="43.64004" lon="1.37686">
        <ele>150</ele>
        <time>2025-03-25T18:04:39Z</time>
      </trkpt>
      <trkpt lat="43.64005" lon="1.37683">
        <ele>150</ele>
        <time>2025-03-25T18:04:40Z</time>
      </trkpt>
      <trkpt lat="43.64006" lon="1.37681">
        <ele>150</ele>
        <time>2025-03-25T18:04:41Z</time>
      </trkpt>
      <trkpt lat="43.64007" lon="1.37677">
        <ele>150</ele>
        <time>2025-03-25T18:04:42Z</time>
      </trkpt>
      <trkpt lat="43.64008" lon="1.37674">
        <ele>150</ele>
        <time>2025-03-25T18:04:43Z</time>
      </trkpt>
      <trkpt lat="43.64009" lon="1.37671">
        <ele>149</ele>
        <time>2025-03-25T18:04:44Z</time>
      </trkpt>
      <trkpt lat="43.64011" lon="1.37667">
        <ele>149</ele>
        <time>2025-03-25T18:04:45Z</time>
      </trkpt>
      <trkpt lat="43.64012" lon="1.37664">
        <ele>149</ele>
        <time>2025-03-25T18:04:46Z</time>
      </trkpt>
      <trkpt lat="43.64014" lon="1.37662">
        <ele>149</ele>
        <time>2025-03-25T18:04:47Z</time>
      </trkpt>
      <trkpt lat="43.64016" lon="1.3766">
        <ele>150</ele>
        <time>2025-03-25T18:04:48Z</time>
      </trkpt>
      <trkpt lat="43.64018" lon="1.37657">
        <ele>150</ele>
        <time>2025-03-25T18:04:49Z</time>
      </trkpt>
      <trkpt lat="43.64021" lon="1.37652">
        <ele>150</ele>
        <time>2025-03-25T18:04:50Z</time>
      </trkpt>
      <trkpt lat="43.64021" lon="1.37652">
        <ele>149</ele>
        <time>2025-03-25T18:04:51Z</time>
      </trkpt>
      <trkpt lat="43.64023" lon="1.37649">
        <ele>149</ele>
        <time>2025-03-25T18:04:52Z</time>
      </trkpt>
      <trkpt lat="43.64024" lon="1.37646">
        <ele>149</ele>
        <time>2025-03-25T18:04:53Z</time>
      </trkpt>
      <trkpt lat="43.64026" lon="1.37643">
        <ele>149</ele>
        <time>2025-03-25T18:04:54Z</time>
      </trkpt>
      <trkpt lat="43.64027" lon="1.3764">
        <ele>149</ele>
        <time>2025-03-25T18:04:55Z</time>
      </trkpt>
      <trkpt lat="43.64029" lon="1.37637">
        <ele>149</ele>
        <time>2025-03-25T18:04:56Z</time>
      </trkpt>
      <trkpt lat="43.6403" lon="1.37633">
        <ele>149</ele>
        <time>2025-03-25T18:04:57Z</time>
      </trkpt>
      <trkpt lat="43.64032" lon="1.37631">
        <ele>149</ele>
        <time>2025-03-25T18:04:58Z</time>
      </trkpt>
      <trkpt lat="43.64034" lon="1.37628">
        <ele>149</ele>
        <time>2025-03-25T18:04:59Z</time>
      </trkpt>
      <trkpt lat="43.64035" lon="1.37625">
        <ele>149</ele>
        <time>2025-03-25T18:05:00Z</time>
      </trkpt>
      <trkpt lat="43.64037" lon="1.37622">
        <ele>149</ele>
        <time>2025-03-25T18:05:01Z</time>
      </trkpt>
      <trkpt lat="43.64039" lon="1.3762">
        <ele>149</ele>
        <time>2025-03-25T18:05:02Z</time>
      </trkpt>
      <trkpt lat="43.6404" lon="1.37617">
        <ele>149</ele>
        <time>2025-03-25T18:05:03Z</time>
      </trkpt>
      <trkpt lat="43.64042" lon="1.37615">
        <ele>148</ele>
        <time>2025-03-25T18:05:04Z</time>
      </trkpt>
      <trkpt lat="43.64044" lon="1.37612">
        <ele>149</ele>
        <time>2025-03-25T18:05:05Z</time>
      </trkpt>
      <trkpt lat="43.64045" lon="1.37609">
        <ele>149</ele>
        <time>2025-03-25T18:05:06Z</time>
      </trkpt>
      <trkpt lat="43.64047" lon="1.37606">
        <ele>148</ele>
        <time>2025-03-25T18:05:07Z</time>
      </trkpt>
      <trkpt lat="43.64048" lon="1.37603">
        <ele>148</ele>
        <time>2025-03-25T18:05:08Z</time>
      </trkpt>
      <trkpt lat="43.64052" lon="1.37597">
        <ele>149</ele>
        <time>2025-03-25T18:05:09Z</time>
      </trkpt>
      <trkpt lat="43.64052" lon="1.37597">
        <ele>149</ele>
        <time>2025-03-25T18:05:10Z</time>
      </trkpt>
      <trkpt lat="43.64053" lon="1.37594">
        <ele>149</ele>
        <time>2025-03-25T18:05:11Z</time>
      </trkpt>
      <trkpt lat="43.64055" lon="1.37592">
        <ele>149</ele>
        <time>2025-03-25T18:05:12Z</time>
      </trkpt>
      <trkpt lat="43.64056" lon="1.37588">
        <ele>149</ele>
        <time>2025-03-25T18:05:13Z</time>
      </trkpt>
      <trkpt lat="43.64058" lon="1.37585">
        <ele>149</ele>
        <time>2025-03-25T18:05:14Z</time>
      </trkpt>
      <trkpt lat="43.64059" lon="1.37582">
        <ele>149</ele>
        <time>2025-03-25T18:05:15Z</time>
      </trkpt>
      <trkpt lat="43.64061" lon="1.37579">
        <ele>149</ele>
        <time>2025-03-25T18:05:16Z</time>
      </trkpt>
      <trkpt lat="43.64063" lon="1.37576">
        <ele>149</ele>
        <time>2025-03-25T18:05:17Z</time>
      </trkpt>
      <trkpt lat="43.64065" lon="1.37574">
        <ele>149</ele>
        <time>2025-03-25T18:05:18Z</time>
      </trkpt>
      <trkpt lat="43.64068" lon="1.37573">
        <ele>149</ele>
        <time>2025-03-25T18:05:19Z</time>
      </trkpt>
      <trkpt lat="43.6407" lon="1.37571">
        <ele>149</ele>
        <time>2025-03-25T18:05:20Z</time>
      </trkpt>
      <trkpt lat="43.64073" lon="1.3757">
        <ele>149</ele>
        <time>2025-03-25T18:05:21Z</time>
      </trkpt>
      <trkpt lat="43.64075" lon="1.37569">
        <ele>149</ele>
        <time>2025-03-25T18:05:22Z</time>
      </trkpt>
      <trkpt lat="43.64078" lon="1.37568">
        <ele>149</ele>
        <time>2025-03-25T18:05:23Z</time>
      </trkpt>
      <trkpt lat="43.64081" lon="1.37567">
        <ele>149</ele>
        <time>2025-03-25T18:05:24Z</time>
      </trkpt>
      <trkpt lat="43.64083" lon="1.37567">
        <ele>149</ele>
        <time>2025-03-25T18:05:25Z</time>
      </trkpt>
      <trkpt lat="43.64086" lon="1.37568">
        <ele>148</ele>
        <time>2025-03-25T18:05:26Z</time>
      </trkpt>
      <trkpt lat="43.64089" lon="1.37569">
        <ele>148</ele>
        <time>2025-03-25T18:05:27Z</time>
      </trkpt>
      <trkpt lat="43.64094" lon="1.37571">
        <ele>148</ele>
        <time>2025-03-25T18:05:28Z</time>
      </trkpt>
      <trkpt lat="43.64094" lon="1.37571">
        <ele>148</ele>
        <time>2025-03-25T18:05:29Z</time>
      </trkpt>
      <trkpt lat="43.64097" lon="1.37572">
        <ele>148</ele>
        <time>2025-03-25T18:05:30Z</time>
      </trkpt>
      <trkpt lat="43.641" lon="1.37573">
        <ele>148</ele>
        <time>2025-03-25T18:05:31Z</time>
      </trkpt>
      <trkpt lat="43.64102" lon="1.37574">
        <ele>148</ele>
        <time>2025-03-25T18:05:32Z</time>
      </trkpt>
      <trkpt lat="43.64105" lon="1.37576">
        <ele>148</ele>
        <time>2025-03-25T18:05:33Z</time>
      </trkpt>
      <trkpt lat="43.64107" lon="1.37577">
        <ele>148</ele>
        <time>2025-03-25T18:05:34Z</time>
      </trkpt>
      <trkpt lat="43.6411" lon="1.37578">
        <ele>148</ele>
        <time>2025-03-25T18:05:35Z</time>
      </trkpt>
      <trkpt lat="43.64113" lon="1.37579">
        <ele>148</ele>
        <time>2025-03-25T18:05:36Z</time>
      </trkpt>
      <trkpt lat="43.64115" lon="1.37579">
        <ele>148</ele>
        <time>2025-03-25T18:05:37Z</time>
      </trkpt>
      <trkpt lat="43.64117" lon="1.3758">
        <ele>148</ele>
        <time>2025-03-25T18:05:38Z</time>
      </trkpt>
      <trkpt lat="43.6412" lon="1.3758">
        <ele>148</ele>
        <time>2025-03-25T18:05:39Z</time>
      </trkpt>
      <trkpt lat="43.64122" lon="1.3758">
        <ele>148</ele>
        <time>2025-03-25T18:05:40Z</time>
      </trkpt>
      <trkpt lat="43.64125" lon="1.3758">
        <ele>148</ele>
        <time>2025-03-25T18:05:41Z</time>
      </trkpt>
      <trkpt lat="43.64127" lon="1.3758">
        <ele>148</ele>
        <time>2025-03-25T18:05:42Z</time>
      </trkpt>
      <trkpt lat="43.6413" lon="1.37579">
        <ele>148</ele>
        <time>2025-03-25T18:05:43Z</time>
      </trkpt>
      <trkpt lat="43.64132" lon="1.37579">
        <ele>148</ele>
        <time>2025-03-25T18:05:44Z</time>
      </trkpt>
      <trkpt lat="43.64135" lon="1.3758">
        <ele>148</ele>
        <time>2025-03-25T18:05:45Z</time>
      </trkpt>
      <trkpt lat="43.64138" lon="1.37581">
        <ele>147</ele>
        <time>2025-03-25T18:05:46Z</time>
      </trkpt>
      <trkpt lat="43.64144" lon="1.37584">
        <ele>147</ele>
        <time>2025-03-25T18:05:47Z</time>
      </trkpt>
      <trkpt lat="43.64144" lon="1.37584">
        <ele>147</ele>
        <time>2025-03-25T18:05:48Z</time>
      </trkpt>
      <trkpt lat="43.64147" lon="1.37585">
        <ele>147</ele>
        <time>2025-03-25T18:05:49Z</time>
      </trkpt>
      <trkpt lat="43.6415" lon="1.37587">
        <ele>147</ele>
        <time>2025-03-25T18:05:50Z</time>
      </trkpt>
      <trkpt lat="43.64153" lon="1.37589">
        <ele>147</ele>
        <time>2025-03-25T18:05:51Z</time>
      </trkpt>
      <trkpt lat="43.64155" lon="1.37592">
        <ele>148</ele>
        <time>2025-03-25T18:05:52Z</time>
      </trkpt>
      <trkpt lat="43.64158" lon="1.37595">
        <ele>148</ele>
        <time>2025-03-25T18:05:53Z</time>
      </trkpt>
      <trkpt lat="43.6416" lon="1.37598">
        <ele>148</ele>
        <time>2025-03-25T18:05:54Z</time>
      </trkpt>
      <trkpt lat="43.64162" lon="1.376">
        <ele>147</ele>
        <time>2025-03-25T18:05:55Z</time>
      </trkpt>
      <trkpt lat="43.64164" lon="1.37603">
        <ele>147</ele>
        <time>2025-03-25T18:05:56Z</time>
      </trkpt>
      <trkpt lat="43.64166" lon="1.37606">
        <ele>147</ele>
        <time>2025-03-25T18:05:57Z</time>
      </trkpt>
      <trkpt lat="43.64167" lon="1.37609">
        <ele>147</ele>
        <time>2025-03-25T18:05:58Z</time>
      </trkpt>
      <trkpt lat="43.64169" lon="1.37611">
        <ele>147</ele>
        <time>2025-03-25T18:05:59Z</time>
      </trkpt>
      <trkpt lat="43.6417" lon="1.37613">
        <ele>147</ele>
        <time>2025-03-25T18:06:00Z</time>
      </trkpt>
      <trkpt lat="43.6417" lon="1.37613">
        <ele>147</ele>
        <time>2025-03-25T18:06:01Z</time>
      </trkpt>
      <trkpt lat="43.64173" lon="1.37616">
        <ele>147</ele>
        <time>2025-03-25T18:06:02Z</time>
      </trkpt>
      <trkpt lat="43.64173" lon="1.37616">
        <ele>147</ele>
        <time>2025-03-25T18:06:03Z</time>
      </trkpt>
      <trkpt lat="43.64175" lon="1.37618">
        <ele>147</ele>
        <time>2025-03-25T18:06:04Z</time>
      </trkpt>
      <trkpt lat="43.64175" lon="1.37618">
        <ele>147</ele>
        <time>2025-03-25T18:06:05Z</time>
      </trkpt>
      <trkpt lat="43.64179" lon="1.3762">
        <ele>148</ele>
        <time>2025-03-25T18:06:06Z</time>
      </trkpt>
      <trkpt lat="43.64179" lon="1.3762">
        <ele>148</ele>
        <time>2025-03-25T18:06:07Z</time>
      </trkpt>
      <trkpt lat="43.64181" lon="1.37621">
        <ele>148</ele>
        <time>2025-03-25T18:06:08Z</time>
      </trkpt>
      <trkpt lat="43.64183" lon="1.37622">
        <ele>148</ele>
        <time>2025-03-25T18:06:09Z</time>
      </trkpt>
      <trkpt lat="43.64186" lon="1.37621">
        <ele>148</ele>
        <time>2025-03-25T18:06:10Z</time>
      </trkpt>
      <trkpt lat="43.64188" lon="1.3762">
        <ele>148</ele>
        <time>2025-03-25T18:06:11Z</time>
      </trkpt>
      <trkpt lat="43.6419" lon="1.37619">
        <ele>148</ele>
        <time>2025-03-25T18:06:12Z</time>
      </trkpt>
      <trkpt lat="43.64192" lon="1.37618">
        <ele>148</ele>
        <time>2025-03-25T18:06:13Z</time>
      </trkpt>
      <trkpt lat="43.64195" lon="1.37617">
        <ele>148</ele>
        <time>2025-03-25T18:06:14Z</time>
      </trkpt>
      <trkpt lat="43.64196" lon="1.37616">
        <ele>148</ele>
        <time>2025-03-25T18:06:15Z</time>
      </trkpt>
      <trkpt lat="43.64198" lon="1.37615">
        <ele>147</ele>
        <time>2025-03-25T18:06:16Z</time>
      </trkpt>
      <trkpt lat="43.642" lon="1.37614">
        <ele>147</ele>
        <time>2025-03-25T18:06:17Z</time>
      </trkpt>
      <trkpt lat="43.64202" lon="1.37614">
        <ele>148</ele>
        <time>2025-03-25T18:06:18Z</time>
      </trkpt>
      <trkpt lat="43.64204" lon="1.37612">
        <ele>148</ele>
        <time>2025-03-25T18:06:19Z</time>
      </trkpt>
      <trkpt lat="43.64206" lon="1.37611">
        <ele>147</ele>
        <time>2025-03-25T18:06:20Z</time>
      </trkpt>
      <trkpt lat="43.64209" lon="1.3761">
        <ele>147</ele>
        <time>2025-03-25T18:06:21Z</time>
      </trkpt>
      <trkpt lat="43.64211" lon="1.37609">
        <ele>147</ele>
        <time>2025-03-25T18:06:22Z</time>
      </trkpt>
      <trkpt lat="43.64213" lon="1.37606">
        <ele>147</ele>
        <time>2025-03-25T18:06:23Z</time>
      </trkpt>
      <trkpt lat="43.64216" lon="1.37605">
        <ele>147</ele>
        <time>2025-03-25T18:06:24Z</time>
      </trkpt>
      <trkpt lat="43.64219" lon="1.37604">
        <ele>147</ele>
        <time>2025-03-25T18:06:25Z</time>
      </trkpt>
      <trkpt lat="43.6422" lon="1.37604">
        <ele>147</ele>
        <time>2025-03-25T18:06:26Z</time>
      </trkpt>
      <trkpt lat="43.64223" lon="1.37604">
        <ele>147</ele>
        <time>2025-03-25T18:06:27Z</time>
      </trkpt>
      <trkpt lat="43.64225" lon="1.37603">
        <ele>147</ele>
        <time>2025-03-25T18:06:28Z</time>
      </trkpt>
      <trkpt lat="43.64227" lon="1.37602">
        <ele>148</ele>
        <time>2025-03-25T18:06:29Z</time>
      </trkpt>
      <trkpt lat="43.64229" lon="1.37601">
        <ele>148</ele>
        <time>2025-03-25T18:06:30Z</time>
      </trkpt>
      <trkpt lat="43.64231" lon="1.37599">
        <ele>148</ele>
        <time>2025-03-25T18:06:31Z</time>
      </trkpt>
      <trkpt lat="43.64234" lon="1.37598">
        <ele>148</ele>
        <time>2025-03-25T18:06:32Z</time>
      </trkpt>
      <trkpt lat="43.64236" lon="1.37596">
        <ele>148</ele>
        <time>2025-03-25T18:06:33Z</time>
      </trkpt>
      <trkpt lat="43.64239" lon="1.37594">
        <ele>148</ele>
        <time>2025-03-25T18:06:34Z</time>
      </trkpt>
      <trkpt lat="43.64242" lon="1.37593">
        <ele>148</ele>
        <time>2025-03-25T18:06:35Z</time>
      </trkpt>
      <trkpt lat="43.64244" lon="1.37592">
        <ele>148</ele>
        <time>2025-03-25T18:06:36Z</time>
      </trkpt>
      <trkpt lat="43.64247" lon="1.37591">
        <ele>148</ele>
        <time>2025-03-25T18:06:37Z</time>
      </trkpt>
      <trkpt lat="43.64252" lon="1.37589">
        <ele>148</ele>
        <time>2025-03-25T18:06:38Z</time>
      </trkpt>
      <trkpt lat="43.64252" lon="1.37589">
        <ele>148</ele>
        <time>2025-03-25T18:06:39Z</time>
      </trkpt>
      <trkpt lat="43.64254" lon="1.37588">
        <ele>148</ele>
        <time>2025-03-25T18:06:40Z</time>
      </trkpt>
      <trkpt lat="43.64256" lon="1.37587">
        <ele>148</ele>
        <time>2025-03-25T18:06:41Z</time>
      </trkpt>
      <trkpt lat="43.64258" lon="1.37586">
        <ele>148</ele>
        <time>2025-03-25T18:06:42Z</time>
      </trkpt>
      <trkpt lat="43.64261" lon="1.37585">
        <ele>148</ele>
        <time>2025-03-25T18:06:43Z</time>
      </trkpt>
      <trkpt lat="43.64265" lon="1.37584">
        <ele>148</ele>
        <time>2025-03-25T18:06:44Z</time>
      </trkpt>
      <trkpt lat="43.64266" lon="1.37583">
        <ele>148</ele>
        <time>2025-03-25T18:06:45Z</time>
      </trkpt>
      <trkpt lat="43.64268" lon="1.37582">
        <ele>148</ele>
        <time>2025-03-25T18:06:46Z</time>
      </trkpt>
      <trkpt lat="43.64271" lon="1.3758">
        <ele>148</ele>
        <time>2025-03-25T18:06:47Z</time>
      </trkpt>
      <trkpt lat="43.64274" lon="1.37579">
        <ele>148</ele>
        <time>2025-03-25T18:06:48Z</time>
      </trkpt>
      <trkpt lat="43.64276" lon="1.37579">
        <ele>148</ele>
        <time>2025-03-25T18:06:49Z</time>
      </trkpt>
      <trkpt lat="43.64279" lon="1.37581">
        <ele>148</ele>
        <time>2025-03-25T18:06:50Z</time>
      </trkpt>
      <trkpt lat="43.64282" lon="1.37583">
        <ele>148</ele>
        <time>2025-03-25T18:06:51Z</time>
      </trkpt>
      <trkpt lat="43.64284" lon="1.37585">
        <ele>148</ele>
        <time>2025-03-25T18:06:52Z</time>
      </trkpt>
      <trkpt lat="43.64285" lon="1.37587">
        <ele>148</ele>
        <time>2025-03-25T18:06:53Z</time>
      </trkpt>
      <trkpt lat="43.64286" lon="1.37589">
        <ele>148</ele>
        <time>2025-03-25T18:06:54Z</time>
      </trkpt>
      <trkpt lat="43.64287" lon="1.37591">
        <ele>148</ele>
        <time>2025-03-25T18:06:55Z</time>
      </trkpt>
      <trkpt lat="43.64288" lon="1.37593">
        <ele>148</ele>
        <time>2025-03-25T18:06:56Z</time>
      </trkpt>
      <trkpt lat="43.64291" lon="1.376">
        <ele>148</ele>
        <time>2025-03-25T18:06:57Z</time>
      </trkpt>
      <trkpt lat="43.64293" lon="1.37603">
        <ele>148</ele>
        <time>2025-03-25T18:06:58Z</time>
      </trkpt>
      <trkpt lat="43.64294" lon="1.37607">
        <ele>148</ele>
        <time>2025-03-25T18:06:59Z</time>
      </trkpt>
      <trkpt lat="43.64296" lon="1.3761">
        <ele>147</ele>
        <time>2025-03-25T18:07:00Z</time>
      </trkpt>
      <trkpt lat="43.64297" lon="1.37613">
        <ele>147</ele>
        <time>2025-03-25T18:07:01Z</time>
      </trkpt>
      <trkpt lat="43.64299" lon="1.37616">
        <ele>147</ele>
        <time>2025-03-25T18:07:02Z</time>
      </trkpt>
      <trkpt lat="43.64301" lon="1.37621">
        <ele>147</ele>
        <time>2025-03-25T18:07:03Z</time>
      </trkpt>
      <trkpt lat="43.64302" lon="1.37623">
        <ele>147</ele>
        <time>2025-03-25T18:07:04Z</time>
      </trkpt>
      <trkpt lat="43.64304" lon="1.37627">
        <ele>147</ele>
        <time>2025-03-25T18:07:05Z</time>
      </trkpt>
      <trkpt lat="43.64305" lon="1.37631">
        <ele>147</ele>
        <time>2025-03-25T18:07:06Z</time>
      </trkpt>
      <trkpt lat="43.64307" lon="1.37634">
        <ele>147</ele>
        <time>2025-03-25T18:07:07Z</time>
      </trkpt>
      <trkpt lat="43.64308" lon="1.37637">
        <ele>147</ele>
        <time>2025-03-25T18:07:08Z</time>
      </trkpt>
      <trkpt lat="43.6431" lon="1.37641">
        <ele>147</ele>
        <time>2025-03-25T18:07:09Z</time>
      </trkpt>
      <trkpt lat="43.6431" lon="1.37645">
        <ele>147</ele>
        <time>2025-03-25T18:07:10Z</time>
      </trkpt>
      <trkpt lat="43.64311" lon="1.37648">
        <ele>147</ele>
        <time>2025-03-25T18:07:11Z</time>
      </trkpt>
      <trkpt lat="43.64312" lon="1.37651">
        <ele>147</ele>
        <time>2025-03-25T18:07:12Z</time>
      </trkpt>
      <trkpt lat="43.64313" lon="1.37655">
        <ele>147</ele>
        <time>2025-03-25T18:07:13Z</time>
      </trkpt>
      <trkpt lat="43.64314" lon="1.37658">
        <ele>148</ele>
        <time>2025-03-25T18:07:14Z</time>
      </trkpt>
      <trkpt lat="43.64315" lon="1.37662">
        <ele>148</ele>
        <time>2025-03-25T18:07:15Z</time>
      </trkpt>
      <trkpt lat="43.64316" lon="1.37665">
        <ele>147</ele>
        <time>2025-03-25T18:07:16Z</time>
      </trkpt>
      <trkpt lat="43.64317" lon="1.37668">
        <ele>147</ele>
        <time>2025-03-25T18:07:17Z</time>
      </trkpt>
      <trkpt lat="43.64318" lon="1.37671">
        <ele>147</ele>
        <time>2025-03-25T18:07:18Z</time>
      </trkpt>
      <trkpt lat="43.6432" lon="1.37675">
        <ele>147</ele>
        <time>2025-03-25T18:07:19Z</time>
      </trkpt>
      <trkpt lat="43.64321" lon="1.37679">
        <ele>147</ele>
        <time>2025-03-25T18:07:20Z</time>
      </trkpt>
      <trkpt lat="43.64322" lon="1.37682">
        <ele>147</ele>
        <time>2025-03-25T18:07:21Z</time>
      </trkpt>
      <trkpt lat="43.64324" lon="1.37688">
        <ele>147</ele>
        <time>2025-03-25T18:07:22Z</time>
      </trkpt>
      <trkpt lat="43.64324" lon="1.37688">
        <ele>147</ele>
        <time>2025-03-25T18:07:23Z</time>
      </trkpt>
      <trkpt lat="43.64326" lon="1.37692">
        <ele>147</ele>
        <time>2025-03-25T18:07:24Z</time>
      </trkpt>
      <trkpt lat="43.64327" lon="1.37696">
        <ele>147</ele>
        <time>2025-03-25T18:07:25Z</time>
      </trkpt>
      <trkpt lat="43.64327" lon="1.37699">
        <ele>147</ele>
        <time>2025-03-25T18:07:26Z</time>
      </trkpt>
      <trkpt lat="43.64328" lon="1.37702">
        <ele>147</ele>
        <time>2025-03-25T18:07:27Z</time>
      </trkpt>
      <trkpt lat="43.64328" lon="1.37706">
        <ele>148</ele>
        <time>2025-03-25T18:07:28Z</time>
      </trkpt>
      <trkpt lat="43.64328" lon="1.3771">
        <ele>148</ele>
        <time>2025-03-25T18:07:29Z</time>
      </trkpt>
      <trkpt lat="43.64328" lon="1.37714">
        <ele>148</ele>
        <time>2025-03-25T18:07:30Z</time>
      </trkpt>
      <trkpt lat="43.64327" lon="1.37718">
        <ele>148</ele>
        <time>2025-03-25T18:07:31Z</time>
      </trkpt>
      <trkpt lat="43.64328" lon="1.37722">
        <ele>148</ele>
        <time>2025-03-25T18:07:32Z</time>
      </trkpt>
      <trkpt lat="43.64327" lon="1.37727">
        <ele>147</ele>
        <time>2025-03-25T18:07:33Z</time>
      </trkpt>
      <trkpt lat="43.64327" lon="1.37731">
        <ele>147</ele>
        <time>2025-03-25T18:07:34Z</time>
      </trkpt>
      <trkpt lat="43.64326" lon="1.37735">
        <ele>147</ele>
        <time>2025-03-25T18:07:35Z</time>
      </trkpt>
      <trkpt lat="43.64324" lon="1.37739">
        <ele>147</ele>
        <time>2025-03-25T18:07:36Z</time>
      </trkpt>
      <trkpt lat="43.64324" lon="1.37743">
        <ele>147</ele>
        <time>2025-03-25T18:07:37Z</time>
      </trkpt>
      <trkpt lat="43.64324" lon="1.37747">
        <ele>147</ele>
        <time>2025-03-25T18:07:38Z</time>
      </trkpt>
      <trkpt lat="43.64326" lon="1.3775">
        <ele>147</ele>
        <time>2025-03-25T18:07:39Z</time>
      </trkpt>
      <trkpt lat="43.64328" lon="1.37753">
        <ele>147</ele>
        <time>2025-03-25T18:07:40Z</time>
      </trkpt>
      <trkpt lat="43.64332" lon="1.37758">
        <ele>147</ele>
        <time>2025-03-25T18:07:41Z</time>
      </trkpt>
      <trkpt lat="43.64332" lon="1.37758">
        <ele>147</ele>
        <time>2025-03-25T18:07:42Z</time>
      </trkpt>
      <trkpt lat="43.64335" lon="1.3776">
        <ele>147</ele>
        <time>2025-03-25T18:07:43Z</time>
      </trkpt>
      <trkpt lat="43.64337" lon="1.37763">
        <ele>146</ele>
        <time>2025-03-25T18:07:44Z</time>
      </trkpt>
      <trkpt lat="43.64339" lon="1.37765">
        <ele>146</ele>
        <time>2025-03-25T18:07:45Z</time>
      </trkpt>
      <trkpt lat="43.64341" lon="1.37768">
        <ele>146</ele>
        <time>2025-03-25T18:07:46Z</time>
      </trkpt>
      <trkpt lat="43.64343" lon="1.37771">
        <ele>146</ele>
        <time>2025-03-25T18:07:47Z</time>
      </trkpt>
      <trkpt lat="43.64345" lon="1.37774">
        <ele>146</ele>
        <time>2025-03-25T18:07:48Z</time>
      </trkpt>
      <trkpt lat="43.64347" lon="1.37777">
        <ele>146</ele>
        <time>2025-03-25T18:07:49Z</time>
      </trkpt>
      <trkpt lat="43.64348" lon="1.3778">
        <ele>146</ele>
        <time>2025-03-25T18:07:50Z</time>
      </trkpt>
      <trkpt lat="43.64349" lon="1.37784">
        <ele>146</ele>
        <time>2025-03-25T18:07:51Z</time>
      </trkpt>
      <trkpt lat="43.64351" lon="1.37787">
        <ele>146</ele>
        <time>2025-03-25T18:07:52Z</time>
      </trkpt>
      <trkpt lat="43.64352" lon="1.3779">
        <ele>146</ele>
        <time>2025-03-25T18:07:53Z</time>
      </trkpt>
      <trkpt lat="43.64353" lon="1.37793">
        <ele>146</ele>
        <time>2025-03-25T18:07:54Z</time>
      </trkpt>
      <trkpt lat="43.64355" lon="1.37795">
        <ele>146</ele>
        <time>2025-03-25T18:07:55Z</time>
      </trkpt>
      <trkpt lat="43.64357" lon="1.37796">
        <ele>146</ele>
        <time>2025-03-25T18:07:56Z</time>
      </trkpt>
      <trkpt lat="43.64359" lon="1.37797">
        <ele>146</ele>
        <time>2025-03-25T18:07:57Z</time>
      </trkpt>
      <trkpt lat="43.64361" lon="1.37797">
        <ele>146</ele>
        <time>2025-03-25T18:07:58Z</time>
      </trkpt>
      <trkpt lat="43.64363" lon="1.37797">
        <ele>146</ele>
        <time>2025-03-25T18:07:59Z</time>
      </trkpt>
      <trkpt lat="43.64369" lon="1.37798">
        <ele>146</ele>
        <time>2025-03-25T18:08:00Z</time>
      </trkpt>
      <trkpt lat="43.64369" lon="1.37798">
        <ele>146</ele>
        <time>2025-03-25T18:08:01Z</time>
      </trkpt>
      <trkpt lat="43.64372" lon="1.37798">
        <ele>146</ele>
        <time>2025-03-25T18:08:02Z</time>
      </trkpt>
      <trkpt lat="43.64374" lon="1.37798">
        <ele>146</ele>
        <time>2025-03-25T18:08:03Z</time>
      </trkpt>
      <trkpt lat="43.64377" lon="1.37799">
        <ele>146</ele>
        <time>2025-03-25T18:08:04Z</time>
      </trkpt>
      <trkpt lat="43.64379" lon="1.37799">
        <ele>146</ele>
        <time>2025-03-25T18:08:05Z</time>
      </trkpt>
      <trkpt lat="43.64382" lon="1.378">
        <ele>146</ele>
        <time>2025-03-25T18:08:06Z</time>
      </trkpt>
      <trkpt lat="43.64385" lon="1.378">
        <ele>146</ele>
        <time>2025-03-25T18:08:07Z</time>
      </trkpt>
      <trkpt lat="43.64387" lon="1.37801">
        <ele>146</ele>
        <time>2025-03-25T18:08:08Z</time>
      </trkpt>
      <trkpt lat="43.6439" lon="1.37801">
        <ele>146</ele>
        <time>2025-03-25T18:08:09Z</time>
      </trkpt>
      <trkpt lat="43.64393" lon="1.37802">
        <ele>146</ele>
        <time>2025-03-25T18:08:10Z</time>
      </trkpt>
      <trkpt lat="43.64396" lon="1.37802">
        <ele>146</ele>
        <time>2025-03-25T18:08:11Z</time>
      </trkpt>
      <trkpt lat="43.64398" lon="1.37803">
        <ele>145</ele>
        <time>2025-03-25T18:08:12Z</time>
      </trkpt>
      <trkpt lat="43.64401" lon="1.37804">
        <ele>145</ele>
        <time>2025-03-25T18:08:13Z</time>
      </trkpt>
      <trkpt lat="43.64404" lon="1.37804">
        <ele>145</ele>
        <time>2025-03-25T18:08:14Z</time>
      </trkpt>
      <trkpt lat="43.64406" lon="1.37805">
        <ele>145</ele>
        <time>2025-03-25T18:08:15Z</time>
      </trkpt>
      <trkpt lat="43.64409" lon="1.37805">
        <ele>144</ele>
        <time>2025-03-25T18:08:16Z</time>
      </trkpt>
      <trkpt lat="43.64412" lon="1.37806">
        <ele>144</ele>
        <time>2025-03-25T18:08:17Z</time>
      </trkpt>
      <trkpt lat="43.64414" lon="1.37807">
        <ele>144</ele>
        <time>2025-03-25T18:08:18Z</time>
      </trkpt>
      <trkpt lat="43.64419" lon="1.37808">
        <ele>143</ele>
        <time>2025-03-25T18:08:19Z</time>
      </trkpt>
      <trkpt lat="43.64419" lon="1.37808">
        <ele>143</ele>
        <time>2025-03-25T18:08:20Z</time>
      </trkpt>
      <trkpt lat="43.64421" lon="1.37808">
        <ele>143</ele>
        <time>2025-03-25T18:08:21Z</time>
      </trkpt>
      <trkpt lat="43.64424" lon="1.37809">
        <ele>144</ele>
        <time>2025-03-25T18:08:22Z</time>
      </trkpt>
      <trkpt lat="43.64427" lon="1.3781">
        <ele>144</ele>
        <time>2025-03-25T18:08:23Z</time>
      </trkpt>
      <trkpt lat="43.64429" lon="1.37811">
        <ele>144</ele>
        <time>2025-03-25T18:08:24Z</time>
      </trkpt>
      <trkpt lat="43.64432" lon="1.37813">
        <ele>144</ele>
        <time>2025-03-25T18:08:25Z</time>
      </trkpt>
      <trkpt lat="43.64434" lon="1.37815">
        <ele>143</ele>
        <time>2025-03-25T18:08:26Z</time>
      </trkpt>
      <trkpt lat="43.64436" lon="1.37816">
        <ele>143</ele>
        <time>2025-03-25T18:08:27Z</time>
      </trkpt>
      <trkpt lat="43.64437" lon="1.37817">
        <ele>143</ele>
        <time>2025-03-25T18:08:28Z</time>
      </trkpt>
      <trkpt lat="43.64439" lon="1.37818">
        <ele>143</ele>
        <time>2025-03-25T18:08:29Z</time>
      </trkpt>
      <trkpt lat="43.64439" lon="1.37818">
        <ele>143</ele>
        <time>2025-03-25T18:08:30Z</time>
      </trkpt>
      <trkpt lat="43.64441" lon="1.37819">
        <ele>143</ele>
        <time>2025-03-25T18:08:31Z</time>
      </trkpt>
      <trkpt lat="43.64441" lon="1.37819">
        <ele>143</ele>
        <time>2025-03-25T18:08:32Z</time>
      </trkpt>
      <trkpt lat="43.64441" lon="1.37819">
        <ele>143</ele>
        <time>2025-03-25T18:08:33Z</time>
      </trkpt>
      <trkpt lat="43.64444" lon="1.37818">
        <ele>143</ele>
        <time>2025-03-25T18:08:34Z</time>
      </trkpt>
      <trkpt lat="43.64445" lon="1.37819">
        <ele>143</ele>
        <time>2025-03-25T18:08:35Z</time>
      </trkpt>
      <trkpt lat="43.64446" lon="1.3782">
        <ele>143</ele>
        <time>2025-03-25T18:08:36Z</time>
      </trkpt>
      <trkpt lat="43.64447" lon="1.37821">
        <ele>143</ele>
        <time>2025-03-25T18:08:37Z</time>
      </trkpt>
      <trkpt lat="43.64449" lon="1.37822">
        <ele>143</ele>
        <time>2025-03-25T18:08:38Z</time>
      </trkpt>
      <trkpt lat="43.64456" lon="1.37828">
        <ele>144</ele>
        <time>2025-03-25T18:08:39Z</time>
      </trkpt>
      <trkpt lat="43.64459" lon="1.3783">
        <ele>144</ele>
        <time>2025-03-25T18:08:40Z</time>
      </trkpt>
      <trkpt lat="43.64462" lon="1.37832">
        <ele>144</ele>
        <time>2025-03-25T18:08:41Z</time>
      </trkpt>
      <trkpt lat="43.64465" lon="1.37834">
        <ele>143</ele>
        <time>2025-03-25T18:08:42Z</time>
      </trkpt>
      <trkpt lat="43.64468" lon="1.37835">
        <ele>143</ele>
        <time>2025-03-25T18:08:43Z</time>
      </trkpt>
      <trkpt lat="43.64471" lon="1.37839">
        <ele>143</ele>
        <time>2025-03-25T18:08:44Z</time>
      </trkpt>
      <trkpt lat="43.64474" lon="1.37841">
        <ele>143</ele>
        <time>2025-03-25T18:08:45Z</time>
      </trkpt>
      <trkpt lat="43.64477" lon="1.37843">
        <ele>143</ele>
        <time>2025-03-25T18:08:46Z</time>
      </trkpt>
      <trkpt lat="43.6448" lon="1.37845">
        <ele>143</ele>
        <time>2025-03-25T18:08:47Z</time>
      </trkpt>
      <trkpt lat="43.64483" lon="1.37847">
        <ele>143</ele>
        <time>2025-03-25T18:08:48Z</time>
      </trkpt>
      <trkpt lat="43.64485" lon="1.37849">
        <ele>143</ele>
        <time>2025-03-25T18:08:49Z</time>
      </trkpt>
      <trkpt lat="43.64488" lon="1.37852">
        <ele>144</ele>
        <time>2025-03-25T18:08:50Z</time>
      </trkpt>
      <trkpt lat="43.64491" lon="1.37853">
        <ele>144</ele>
        <time>2025-03-25T18:08:51Z</time>
      </trkpt>
      <trkpt lat="43.64494" lon="1.37854">
        <ele>145</ele>
        <time>2025-03-25T18:08:52Z</time>
      </trkpt>
      <trkpt lat="43.64497" lon="1.37856">
        <ele>145</ele>
        <time>2025-03-25T18:08:53Z</time>
      </trkpt>
      <trkpt lat="43.645" lon="1.37856">
        <ele>145</ele>
        <time>2025-03-25T18:08:54Z</time>
      </trkpt>
      <trkpt lat="43.64502" lon="1.37857">
        <ele>145</ele>
        <time>2025-03-25T18:08:55Z</time>
      </trkpt>
      <trkpt lat="43.64504" lon="1.37859">
        <ele>145</ele>
        <time>2025-03-25T18:08:56Z</time>
      </trkpt>
      <trkpt lat="43.64506" lon="1.37861">
        <ele>145</ele>
        <time>2025-03-25T18:08:57Z</time>
      </trkpt>
      <trkpt lat="43.64509" lon="1.37862">
        <ele>145</ele>
        <time>2025-03-25T18:08:58Z</time>
      </trkpt>
      <trkpt lat="43.64511" lon="1.37864">
        <ele>145</ele>
        <time>2025-03-25T18:08:59Z</time>
      </trkpt>
      <trkpt lat="43.64513" lon="1.37866">
        <ele>145</ele>
        <time>2025-03-25T18:09:00Z</time>
      </trkpt>
      <trkpt lat="43.64516" lon="1.37867">
        <ele>145</ele>
        <time>2025-03-25T18:09:01Z</time>
      </trkpt>
      <trkpt lat="43.64518" lon="1.37868">
        <ele>145</ele>
        <time>2025-03-25T18:09:02Z</time>
      </trkpt>
      <trkpt lat="43.64521" lon="1.37869">
        <ele>145</ele>
        <time>2025-03-25T18:09:03Z</time>
      </trkpt>
      <trkpt lat="43.64524" lon="1.37869">
        <ele>145</ele>
        <time>2025-03-25T18:09:04Z</time>
      </trkpt>
      <trkpt lat="43.64527" lon="1.37869">
        <ele>145</ele>
        <time>2025-03-25T18:09:05Z</time>
      </trkpt>
      <trkpt lat="43.6453" lon="1.37869">
        <ele>145</ele>
        <time>2025-03-25T18:09:06Z</time>
      </trkpt>
      <trkpt lat="43.64533" lon="1.37868">
        <ele>145</ele>
        <time>2025-03-25T18:09:07Z</time>
      </trkpt>
      <trkpt lat="43.64536" lon="1.37867">
        <ele>146</ele>
        <time>2025-03-25T18:09:08Z</time>
      </trkpt>
      <trkpt lat="43.64539" lon="1.37867">
        <ele>146</ele>
        <time>2025-03-25T18:09:09Z</time>
      </trkpt>
      <trkpt lat="43.64542" lon="1.37866">
        <ele>146</ele>
        <time>2025-03-25T18:09:10Z</time>
      </trkpt>
      <trkpt lat="43.64544" lon="1.37865">
        <ele>146</ele>
        <time>2025-03-25T18:09:11Z</time>
      </trkpt>
      <trkpt lat="43.64546" lon="1.37864">
        <ele>146</ele>
        <time>2025-03-25T18:09:12Z</time>
      </trkpt>
      <trkpt lat="43.64549" lon="1.37863">
        <ele>146</ele>
        <time>2025-03-25T18:09:13Z</time>
      </trkpt>
      <trkpt lat="43.64551" lon="1.37862">
        <ele>145</ele>
        <time>2025-03-25T18:09:14Z</time>
      </trkpt>
      <trkpt lat="43.64554" lon="1.37861">
        <ele>145</ele>
        <time>2025-03-25T18:09:15Z</time>
      </trkpt>
      <trkpt lat="43.64557" lon="1.37861">
        <ele>146</ele>
        <time>2025-03-25T18:09:16Z</time>
      </trkpt>
      <trkpt lat="43.6456" lon="1.37861">
        <ele>146</ele>
        <time>2025-03-25T18:09:17Z</time>
      </trkpt>
      <trkpt lat="43.64563" lon="1.37861">
        <ele>146</ele>
        <time>2025-03-25T18:09:18Z</time>
      </trkpt>
      <trkpt lat="43.64566" lon="1.37861">
        <ele>146</ele>
        <time>2025-03-25T18:09:19Z</time>
      </trkpt>
      <trkpt lat="43.64569" lon="1.37861">
        <ele>146</ele>
        <time>2025-03-25T18:09:20Z</time>
      </trkpt>
      <trkpt lat="43.64572" lon="1.37861">
        <ele>146</ele>
        <time>2025-03-25T18:09:21Z</time>
      </trkpt>
      <trkpt lat="43.64575" lon="1.37861">
        <ele>146</ele>
        <time>2025-03-25T18:09:22Z</time>
      </trkpt>
      <trkpt lat="43.64577" lon="1.37861">
        <ele>145</ele>
        <time>2025-03-25T18:09:23Z</time>
      </trkpt>
      <trkpt lat="43.6458" lon="1.37861">
        <ele>145</ele>
        <time>2025-03-25T18:09:24Z</time>
      </trkpt>
      <trkpt lat="43.64583" lon="1.37861">
        <ele>145</ele>
        <time>2025-03-25T18:09:25Z</time>
      </trkpt>
      <trkpt lat="43.64586" lon="1.37861">
        <ele>145</ele>
        <time>2025-03-25T18:09:26Z</time>
      </trkpt>
      <trkpt lat="43.64589" lon="1.37861">
        <ele>145</ele>
        <time>2025-03-25T18:09:27Z</time>
      </trkpt>
      <trkpt lat="43.64592" lon="1.37861">
        <ele>145</ele>
        <time>2025-03-25T18:09:28Z</time>
      </trkpt>
      <trkpt lat="43.64595" lon="1.37861">
        <ele>145</ele>
        <time>2025-03-25T18:09:29Z</time>
      </trkpt>
      <trkpt lat="43.64597" lon="1.37863">
        <ele>146</ele>
        <time>2025-03-25T18:09:30Z</time>
      </trkpt>
      <trkpt lat="43.646" lon="1.37865">
        <ele>146</ele>
        <time>2025-03-25T18:09:31Z</time>
      </trkpt>
      <trkpt lat="43.646" lon="1.37869">
        <ele>146</ele>
        <time>2025-03-25T18:09:32Z</time>
      </trkpt>
      <trkpt lat="43.646" lon="1.37873">
        <ele>146</ele>
        <time>2025-03-25T18:09:33Z</time>
      </trkpt>
      <trkpt lat="43.646" lon="1.37876">
        <ele>145</ele>
        <time>2025-03-25T18:09:34Z</time>
      </trkpt>
      <trkpt lat="43.646" lon="1.3788">
        <ele>145</ele>
        <time>2025-03-25T18:09:35Z</time>
      </trkpt>
      <trkpt lat="43.64599" lon="1.37884">
        <ele>145</ele>
        <time>2025-03-25T18:09:36Z</time>
      </trkpt>
      <trkpt lat="43.64599" lon="1.37887">
        <ele>145</ele>
        <time>2025-03-25T18:09:37Z</time>
      </trkpt>
      <trkpt lat="43.64598" lon="1.3789">
        <ele>145</ele>
        <time>2025-03-25T18:09:38Z</time>
      </trkpt>
      <trkpt lat="43.64597" lon="1.37894">
        <ele>145</ele>
        <time>2025-03-25T18:09:39Z</time>
      </trkpt>
      <trkpt lat="43.64596" lon="1.37897">
        <ele>145</ele>
        <time>2025-03-25T18:09:40Z</time>
      </trkpt>
      <trkpt lat="43.64595" lon="1.379">
        <ele>145</ele>
        <time>2025-03-25T18:09:41Z</time>
      </trkpt>
      <trkpt lat="43.64595" lon="1.37904">
        <ele>145</ele>
        <time>2025-03-25T18:09:42Z</time>
      </trkpt>
      <trkpt lat="43.64593" lon="1.37911">
        <ele>145</ele>
        <time>2025-03-25T18:09:43Z</time>
      </trkpt>
      <trkpt lat="43.64593" lon="1.37911">
        <ele>145</ele>
        <time>2025-03-25T18:09:44Z</time>
      </trkpt>
      <trkpt lat="43.64591" lon="1.37915">
        <ele>145</ele>
        <time>2025-03-25T18:09:45Z</time>
      </trkpt>
      <trkpt lat="43.6459" lon="1.37918">
        <ele>145</ele>
        <time>2025-03-25T18:09:46Z</time>
      </trkpt>
      <trkpt lat="43.64589" lon="1.37921">
        <ele>145</ele>
        <time>2025-03-25T18:09:47Z</time>
      </trkpt>
      <trkpt lat="43.64587" lon="1.37925">
        <ele>145</ele>
        <time>2025-03-25T18:09:48Z</time>
      </trkpt>
      <trkpt lat="43.64586" lon="1.37928">
        <ele>145</ele>
        <time>2025-03-25T18:09:49Z</time>
      </trkpt>
      <trkpt lat="43.64584" lon="1.37932">
        <ele>145</ele>
        <time>2025-03-25T18:09:50Z</time>
      </trkpt>
      <trkpt lat="43.64583" lon="1.37935">
        <ele>145</ele>
        <time>2025-03-25T18:09:51Z</time>
      </trkpt>
      <trkpt lat="43.64581" lon="1.37939">
        <ele>145</ele>
        <time>2025-03-25T18:09:52Z</time>
      </trkpt>
      <trkpt lat="43.6458" lon="1.37942">
        <ele>145</ele>
        <time>2025-03-25T18:09:53Z</time>
      </trkpt>
      <trkpt lat="43.6458" lon="1.37942">
        <ele>145</ele>
        <time>2025-03-25T18:09:54Z</time>
      </trkpt>
      <trkpt lat="43.64477" lon="1.37964">
        <ele>146</ele>
        <time>2025-03-25T18:25:42Z</time>
      </trkpt>
      <trkpt lat="43.64477" lon="1.37964">
        <ele>146</ele>
        <time>2025-03-25T18:25:43Z</time>
      </trkpt>
      <trkpt lat="43.64477" lon="1.37964">
        <ele>146</ele>
        <time>2025-03-25T18:25:44Z</time>
      </trkpt>
      <trkpt lat="43.64477" lon="1.37964">
        <ele>146</ele>
        <time>2025-03-25T18:25:45Z</time>
      </trkpt>
      <trkpt lat="43.64477" lon="1.37964">
        <ele>146</ele>
        <time>2025-03-25T18:25:46Z</time>
      </trkpt>
      <trkpt lat="43.64477" lon="1.37964">
        <ele>146</ele>
        <time>2025-03-25T18:25:47Z</time>
      </trkpt>
      <trkpt lat="43.64477" lon="1.37964">
        <ele>146</ele>
        <time>2025-03-25T18:25:48Z</time>
      </trkpt>
      <trkpt lat="43.64477" lon="1.37964">
        <ele>146</ele>
        <time>2025-03-25T18:25:49Z</time>
      </trkpt>
      <trkpt lat="43.6448" lon="1.37964">
        <ele>146</ele>
        <time>2025-03-25T18:25:50Z</time>
      </trkpt>
      <trkpt lat="43.64483" lon="1.37966">
        <ele>147</ele>
        <time>2025-03-25T18:25:51Z</time>
      </trkpt>
      <trkpt lat="43.64486" lon="1.37967">
        <ele>147</ele>
        <time>2025-03-25T18:25:52Z</time>
      </trkpt>
      <trkpt lat="43.6449" lon="1.37969">
        <ele>147</ele>
        <time>2025-03-25T18:25:53Z</time>
      </trkpt>
      <trkpt lat="43.64494" lon="1.3797">
        <ele>147</ele>
        <time>2025-03-25T18:25:54Z</time>
      </trkpt>
      <trkpt lat="43.64499" lon="1.37973">
        <ele>147</ele>
        <time>2025-03-25T18:25:55Z</time>
      </trkpt>
      <trkpt lat="43.64504" lon="1.37974">
        <ele>146</ele>
        <time>2025-03-25T18:25:56Z</time>
      </trkpt>
      <trkpt lat="43.64508" lon="1.37977">
        <ele>146</ele>
        <time>2025-03-25T18:25:57Z</time>
      </trkpt>
      <trkpt lat="43.64513" lon="1.37979">
        <ele>146</ele>
        <time>2025-03-25T18:25:58Z</time>
      </trkpt>
      <trkpt lat="43.64517" lon="1.37981">
        <ele>146</ele>
        <time>2025-03-25T18:25:59Z</time>
      </trkpt>
      <trkpt lat="43.64521" lon="1.37983">
        <ele>146</ele>
        <time>2025-03-25T18:26:00Z</time>
      </trkpt>
      <trkpt lat="43.64526" lon="1.37984">
        <ele>146</ele>
        <time>2025-03-25T18:26:01Z</time>
      </trkpt>
      <trkpt lat="43.6453" lon="1.37986">
        <ele>146</ele>
        <time>2025-03-25T18:26:02Z</time>
      </trkpt>
      <trkpt lat="43.64534" lon="1.37987">
        <ele>146</ele>
        <time>2025-03-25T18:26:03Z</time>
      </trkpt>
      <trkpt lat="43.64538" lon="1.37987">
        <ele>146</ele>
        <time>2025-03-25T18:26:04Z</time>
      </trkpt>
      <trkpt lat="43.64542" lon="1.37987">
        <ele>147</ele>
        <time>2025-03-25T18:26:05Z</time>
      </trkpt>
      <trkpt lat="43.64546" lon="1.37986">
        <ele>147</ele>
        <time>2025-03-25T18:26:06Z</time>
      </trkpt>
      <trkpt lat="43.64549" lon="1.37985">
        <ele>147</ele>
        <time>2025-03-25T18:26:07Z</time>
      </trkpt>
      <trkpt lat="43.64553" lon="1.37983">
        <ele>147</ele>
        <time>2025-03-25T18:26:08Z</time>
      </trkpt>
      <trkpt lat="43.64556" lon="1.37981">
        <ele>147</ele>
        <time>2025-03-25T18:26:09Z</time>
      </trkpt>
      <trkpt lat="43.64559" lon="1.37978">
        <ele>147</ele>
        <time>2025-03-25T18:26:10Z</time>
      </trkpt>
      <trkpt lat="43.64562" lon="1.37975">
        <ele>147</ele>
        <time>2025-03-25T18:26:11Z</time>
      </trkpt>
      <trkpt lat="43.64564" lon="1.37971">
        <ele>147</ele>
        <time>2025-03-25T18:26:12Z</time>
      </trkpt>
      <trkpt lat="43.64566" lon="1.37967">
        <ele>147</ele>
        <time>2025-03-25T18:26:13Z</time>
      </trkpt>
      <trkpt lat="43.64567" lon="1.37964">
        <ele>147</ele>
        <time>2025-03-25T18:26:14Z</time>
      </trkpt>
      <trkpt lat="43.64567" lon="1.37961">
        <ele>147</ele>
        <time>2025-03-25T18:26:15Z</time>
      </trkpt>
      <trkpt lat="43.64568" lon="1.37958">
        <ele>147</ele>
        <time>2025-03-25T18:26:16Z</time>
      </trkpt>
      <trkpt lat="43.64569" lon="1.37948">
        <ele>147</ele>
        <time>2025-03-25T18:26:17Z</time>
      </trkpt>
      <trkpt lat="43.6457" lon="1.37944">
        <ele>147</ele>
        <time>2025-03-25T18:26:18Z</time>
      </trkpt>
      <trkpt lat="43.64569" lon="1.37939">
        <ele>147</ele>
        <time>2025-03-25T18:26:19Z</time>
      </trkpt>
      <trkpt lat="43.64567" lon="1.3793">
        <ele>147</ele>
        <time>2025-03-25T18:26:20Z</time>
      </trkpt>
      <trkpt lat="43.64567" lon="1.3793">
        <ele>146</ele>
        <time>2025-03-25T18:26:21Z</time>
      </trkpt>
      <trkpt lat="43.64566" lon="1.37926">
        <ele>146</ele>
        <time>2025-03-25T18:26:22Z</time>
      </trkpt>
      <trkpt lat="43.64564" lon="1.37921">
        <ele>146</ele>
        <time>2025-03-25T18:26:23Z</time>
      </trkpt>
      <trkpt lat="43.64562" lon="1.37917">
        <ele>146</ele>
        <time>2025-03-25T18:26:24Z</time>
      </trkpt>
      <trkpt lat="43.64559" lon="1.37913">
        <ele>146</ele>
        <time>2025-03-25T18:26:25Z</time>
      </trkpt>
      <trkpt lat="43.64557" lon="1.37911">
        <ele>146</ele>
        <time>2025-03-25T18:26:26Z</time>
      </trkpt>
      <trkpt lat="43.64554" lon="1.37908">
        <ele>146</ele>
        <time>2025-03-25T18:26:27Z</time>
      </trkpt>
      <trkpt lat="43.64551" lon="1.37906">
        <ele>146</ele>
        <time>2025-03-25T18:26:28Z</time>
      </trkpt>
      <trkpt lat="43.64547" lon="1.37904">
        <ele>147</ele>
        <time>2025-03-25T18:26:29Z</time>
      </trkpt>
      <trkpt lat="43.64544" lon="1.37901">
        <ele>147</ele>
        <time>2025-03-25T18:26:30Z</time>
      </trkpt>
      <trkpt lat="43.6454" lon="1.379">
        <ele>147</ele>
        <time>2025-03-25T18:26:31Z</time>
      </trkpt>
      <trkpt lat="43.64537" lon="1.37899">
        <ele>147</ele>
        <time>2025-03-25T18:26:32Z</time>
      </trkpt>
      <trkpt lat="43.64534" lon="1.37897">
        <ele>147</ele>
        <time>2025-03-25T18:26:33Z</time>
      </trkpt>
      <trkpt lat="43.6453" lon="1.37895">
        <ele>147</ele>
        <time>2025-03-25T18:26:34Z</time>
      </trkpt>
      <trkpt lat="43.64527" lon="1.37894">
        <ele>147</ele>
        <time>2025-03-25T18:26:35Z</time>
      </trkpt>
      <trkpt lat="43.64524" lon="1.37892">
        <ele>147</ele>
        <time>2025-03-25T18:26:36Z</time>
      </trkpt>
      <trkpt lat="43.6452" lon="1.3789">
        <ele>147</ele>
        <time>2025-03-25T18:26:37Z</time>
      </trkpt>
      <trkpt lat="43.64517" lon="1.37888">
        <ele>147</ele>
        <time>2025-03-25T18:26:38Z</time>
      </trkpt>
      <trkpt lat="43.64514" lon="1.37886">
        <ele>147</ele>
        <time>2025-03-25T18:26:39Z</time>
      </trkpt>
      <trkpt lat="43.64511" lon="1.37884">
        <ele>147</ele>
        <time>2025-03-25T18:26:40Z</time>
      </trkpt>
      <trkpt lat="43.64508" lon="1.37882">
        <ele>147</ele>
        <time>2025-03-25T18:26:41Z</time>
      </trkpt>
      <trkpt lat="43.64504" lon="1.3788">
        <ele>146</ele>
        <time>2025-03-25T18:26:42Z</time>
      </trkpt>
      <trkpt lat="43.64501" lon="1.37878">
        <ele>146</ele>
        <time>2025-03-25T18:26:43Z</time>
      </trkpt>
      <trkpt lat="43.64499" lon="1.37876">
        <ele>146</ele>
        <time>2025-03-25T18:26:44Z</time>
      </trkpt>
      <trkpt lat="43.64496" lon="1.37873">
        <ele>146</ele>
        <time>2025-03-25T18:26:45Z</time>
      </trkpt>
      <trkpt lat="43.64492" lon="1.37872">
        <ele>146</ele>
        <time>2025-03-25T18:26:46Z</time>
      </trkpt>
      <trkpt lat="43.64489" lon="1.37872">
        <ele>146</ele>
        <time>2025-03-25T18:26:47Z</time>
      </trkpt>
      <trkpt lat="43.64486" lon="1.37872">
        <ele>146</ele>
        <time>2025-03-25T18:26:48Z</time>
      </trkpt>
      <trkpt lat="43.64483" lon="1.37873">
        <ele>147</ele>
        <time>2025-03-25T18:26:49Z</time>
      </trkpt>
      <trkpt lat="43.6448" lon="1.37874">
        <ele>147</ele>
        <time>2025-03-25T18:26:50Z</time>
      </trkpt>
      <trkpt lat="43.64476" lon="1.37876">
        <ele>147</ele>
        <time>2025-03-25T18:26:51Z</time>
      </trkpt>
      <trkpt lat="43.64472" lon="1.37878">
        <ele>147</ele>
        <time>2025-03-25T18:26:52Z</time>
      </trkpt>
      <trkpt lat="43.6447" lon="1.37881">
        <ele>147</ele>
        <time>2025-03-25T18:26:53Z</time>
      </trkpt>
      <trkpt lat="43.64467" lon="1.37884">
        <ele>146</ele>
        <time>2025-03-25T18:26:54Z</time>
      </trkpt>
      <trkpt lat="43.64464" lon="1.37887">
        <ele>146</ele>
        <time>2025-03-25T18:26:55Z</time>
      </trkpt>
      <trkpt lat="43.64462" lon="1.37891">
        <ele>146</ele>
        <time>2025-03-25T18:26:56Z</time>
      </trkpt>
      <trkpt lat="43.64461" lon="1.37896">
        <ele>146</ele>
        <time>2025-03-25T18:26:57Z</time>
      </trkpt>
      <trkpt lat="43.64459" lon="1.37904">
        <ele>146</ele>
        <time>2025-03-25T18:26:58Z</time>
      </trkpt>
      <trkpt lat="43.64459" lon="1.37904">
        <ele>146</ele>
        <time>2025-03-25T18:26:59Z</time>
      </trkpt>
      <trkpt lat="43.64458" lon="1.37909">
        <ele>146</ele>
        <time>2025-03-25T18:27:00Z</time>
      </trkpt>
      <trkpt lat="43.64457" lon="1.37913">
        <ele>147</ele>
        <time>2025-03-25T18:27:01Z</time>
      </trkpt>
      <trkpt lat="43.64457" lon="1.37917">
        <ele>147</ele>
        <time>2025-03-25T18:27:02Z</time>
      </trkpt>
      <trkpt lat="43.64457" lon="1.37921">
        <ele>147</ele>
        <time>2025-03-25T18:27:03Z</time>
      </trkpt>
      <trkpt lat="43.64458" lon="1.37926">
        <ele>147</ele>
        <time>2025-03-25T18:27:04Z</time>
      </trkpt>
      <trkpt lat="43.64459" lon="1.3793">
        <ele>147</ele>
        <time>2025-03-25T18:27:05Z</time>
      </trkpt>
      <trkpt lat="43.6446" lon="1.37935">
        <ele>147</ele>
        <time>2025-03-25T18:27:06Z</time>
      </trkpt>
      <trkpt lat="43.64462" lon="1.37939">
        <ele>147</ele>
        <time>2025-03-25T18:27:07Z</time>
      </trkpt>
      <trkpt lat="43.64464" lon="1.37943">
        <ele>147</ele>
        <time>2025-03-25T18:27:08Z</time>
      </trkpt>
      <trkpt lat="43.64467" lon="1.37946">
        <ele>147</ele>
        <time>2025-03-25T18:27:09Z</time>
      </trkpt>
      <trkpt lat="43.64469" lon="1.37949">
        <ele>147</ele>
        <time>2025-03-25T18:27:10Z</time>
      </trkpt>
      <trkpt lat="43.64472" lon="1.37953">
        <ele>147</ele>
        <time>2025-03-25T18:27:11Z</time>
      </trkpt>
      <trkpt lat="43.64475" lon="1.37954">
        <ele>147</ele>
        <time>2025-03-25T18:27:12Z</time>
      </trkpt>
      <trkpt lat="43.64478" lon="1.37956">
        <ele>147</ele>
        <time>2025-03-25T18:27:13Z</time>
      </trkpt>
      <trkpt lat="43.64481" lon="1.37958">
        <ele>147</ele>
        <time>2025-03-25T18:27:14Z</time>
      </trkpt>
      <trkpt lat="43.64485" lon="1.37959">
        <ele>147</ele>
        <time>2025-03-25T18:27:15Z</time>
      </trkpt>
      <trkpt lat="43.64491" lon="1.37963">
        <ele>146</ele>
        <time>2025-03-25T18:27:16Z</time>
      </trkpt>
      <trkpt lat="43.64494" lon="1.37965">
        <ele>146</ele>
        <time>2025-03-25T18:27:17Z</time>
      </trkpt>
      <trkpt lat="43.64494" lon="1.37965">
        <ele>146</ele>
        <time>2025-03-25T18:27:18Z</time>
      </trkpt>
      <trkpt lat="43.64497" lon="1.37967">
        <ele>147</ele>
        <time>2025-03-25T18:27:19Z</time>
      </trkpt>
      <trkpt lat="43.64501" lon="1.37969">
        <ele>147</ele>
        <time>2025-03-25T18:27:20Z</time>
      </trkpt>
      <trkpt lat="43.64504" lon="1.3797">
        <ele>147</ele>
        <time>2025-03-25T18:27:21Z</time>
      </trkpt>
      <trkpt lat="43.64507" lon="1.37972">
        <ele>146</ele>
        <time>2025-03-25T18:27:22Z</time>
      </trkpt>
      <trkpt lat="43.6451" lon="1.37974">
        <ele>146</ele>
        <time>2025-03-25T18:27:23Z</time>
      </trkpt>
      <trkpt lat="43.64512" lon="1.37975">
        <ele>146</ele>
        <time>2025-03-25T18:27:24Z</time>
      </trkpt>
      <trkpt lat="43.64515" lon="1.37977">
        <ele>146</ele>
        <time>2025-03-25T18:27:25Z</time>
      </trkpt>
      <trkpt lat="43.64518" lon="1.37979">
        <ele>146</ele>
        <time>2025-03-25T18:27:26Z</time>
      </trkpt>
      <trkpt lat="43.6452" lon="1.37981">
        <ele>146</ele>
        <time>2025-03-25T18:27:27Z</time>
      </trkpt>
      <trkpt lat="43.64523" lon="1.37982">
        <ele>146</ele>
        <time>2025-03-25T18:27:28Z</time>
      </trkpt>
      <trkpt lat="43.64525" lon="1.37984">
        <ele>146</ele>
        <time>2025-03-25T18:27:29Z</time>
      </trkpt>
      <trkpt lat="43.64527" lon="1.37985">
        <ele>146</ele>
        <time>2025-03-25T18:27:30Z</time>
      </trkpt>
      <trkpt lat="43.64527" lon="1.37985">
        <ele>146</ele>
        <time>2025-03-25T18:27:31Z</time>
      </trkpt>
      <trkpt lat="43.64529" lon="1.37986">
        <ele>146</ele>
        <time>2025-03-25T18:27:32Z</time>
      </trkpt>
      <trkpt lat="43.64529" lon="1.37986">
        <ele>146</ele>
        <time>2025-03-25T18:27:33Z</time>
      </trkpt>
      <trkpt lat="43.64532" lon="1.37986">
        <ele>146</ele>
        <time>2025-03-25T18:27:34Z</time>
      </trkpt>
      <trkpt lat="43.64532" lon="1.37986">
        <ele>146</ele>
        <time>2025-03-25T18:27:35Z</time>
      </trkpt>
      <trkpt lat="43.64532" lon="1.37986">
        <ele>146</ele>
        <time>2025-03-25T18:27:36Z</time>
      </trkpt>
      <trkpt lat="43.64532" lon="1.37986">
        <ele>146</ele>
        <time>2025-03-25T18:27:37Z</time>
      </trkpt>
      <trkpt lat="43.64532" lon="1.37986">
        <ele>146</ele>
        <time>2025-03-25T18:27:38Z</time>
      </trkpt>
      <trkpt lat="43.64532" lon="1.37986">
        <ele>146</ele>
        <time>2025-03-25T18:27:39Z</time>
      </trkpt>
      <trkpt lat="43.6453" lon="1.37984">
        <ele>146</ele>
        <time>2025-03-25T18:27:40Z</time>
      </trkpt>
      <trkpt lat="43.6453" lon="1.37984">
        <ele>147</ele>
        <time>2025-03-25T18:27:41Z</time>
      </trkpt>
      <trkpt lat="43.6453" lon="1.37984">
        <ele>147</ele>
        <time>2025-03-25T18:27:42Z</time>
      </trkpt>
      <trkpt lat="43.6453" lon="1.37984">
        <ele>147</ele>
        <time>2025-03-25T18:27:43Z</time>
      </trkpt>
      <trkpt lat="43.64528" lon="1.37986">
        <ele>147</ele>
        <time>2025-03-25T18:27:44Z</time>
      </trkpt>
      <trkpt lat="43.64528" lon="1.37986">
        <ele>147</ele>
        <time>2025-03-25T18:27:45Z</time>
      </trkpt>
      <trkpt lat="43.64525" lon="1.37985">
        <ele>147</ele>
        <time>2025-03-25T18:27:46Z</time>
      </trkpt>
      <trkpt lat="43.64525" lon="1.37985">
        <ele>147</ele>
        <time>2025-03-25T18:27:47Z</time>
      </trkpt>
      <trkpt lat="43.64525" lon="1.37985">
        <ele>147</ele>
        <time>2025-03-25T18:27:48Z</time>
      </trkpt>
      <trkpt lat="43.64525" lon="1.37985">
        <ele>147</ele>
        <time>2025-03-25T18:27:49Z</time>
      </trkpt>
      <trkpt lat="43.64522" lon="1.37985">
        <ele>147</ele>
        <time>2025-03-25T18:27:50Z</time>
      </trkpt>
      <trkpt lat="43.64522" lon="1.37985">
        <ele>147</ele>
        <time>2025-03-25T18:27:51Z</time>
      </trkpt>
      <trkpt lat="43.64519" lon="1.37983">
        <ele>146</ele>
        <time>2025-03-25T18:27:52Z</time>
      </trkpt>
      <trkpt lat="43.64519" lon="1.37983">
        <ele>146</ele>
        <time>2025-03-25T18:27:53Z</time>
      </trkpt>
      <trkpt lat="43.64517" lon="1.37981">
        <ele>146</ele>
        <time>2025-03-25T18:27:54Z</time>
      </trkpt>
      <trkpt lat="43.64517" lon="1.37981">
        <ele>146</ele>
        <time>2025-03-25T18:27:55Z</time>
      </trkpt>
      <trkpt lat="43.64514" lon="1.37981">
        <ele>146</ele>
        <time>2025-03-25T18:27:56Z</time>
      </trkpt>
      <trkpt lat="43.64514" lon="1.37981">
        <ele>146</ele>
        <time>2025-03-25T18:27:57Z</time>
      </trkpt>
      <trkpt lat="43.64512" lon="1.3798">
        <ele>146</ele>
        <time>2025-03-25T18:27:58Z</time>
      </trkpt>
      <trkpt lat="43.64512" lon="1.3798">
        <ele>146</ele>
        <time>2025-03-25T18:27:59Z</time>
      </trkpt>
      <trkpt lat="43.6451" lon="1.3798">
        <ele>146</ele>
        <time>2025-03-25T18:28:00Z</time>
      </trkpt>
      <trkpt lat="43.6451" lon="1.3798">
        <ele>146</ele>
        <time>2025-03-25T18:28:01Z</time>
      </trkpt>
      <trkpt lat="43.64508" lon="1.37979">
        <ele>146</ele>
        <time>2025-03-25T18:28:02Z</time>
      </trkpt>
      <trkpt lat="43.64508" lon="1.37979">
        <ele>146</ele>
        <time>2025-03-25T18:28:03Z</time>
      </trkpt>
      <trkpt lat="43.64508" lon="1.37979">
        <ele>146</ele>
        <time>2025-03-25T18:28:04Z</time>
      </trkpt>
      <trkpt lat="43.64506" lon="1.37982">
        <ele>146</ele>
        <time>2025-03-25T18:28:05Z</time>
      </trkpt>
      <trkpt lat="43.64506" lon="1.37982">
        <ele>146</ele>
        <time>2025-03-25T18:28:06Z</time>
      </trkpt>
      <trkpt lat="43.64506" lon="1.37982">
        <ele>146</ele>
        <time>2025-03-25T18:28:07Z</time>
      </trkpt>
      <trkpt lat="43.64504" lon="1.37982">
        <ele>146</ele>
        <time>2025-03-25T18:28:08Z</time>
      </trkpt>
      <trkpt lat="43.64504" lon="1.37982">
        <ele>146</ele>
        <time>2025-03-25T18:28:09Z</time>
      </trkpt>
      <trkpt lat="43.64502" lon="1.37981">
        <ele>146</ele>
        <time>2025-03-25T18:28:10Z</time>
      </trkpt>
      <trkpt lat="43.64502" lon="1.37981">
        <ele>146</ele>
        <time>2025-03-25T18:28:11Z</time>
      </trkpt>
      <trkpt lat="43.645" lon="1.3798">
        <ele>146</ele>
        <time>2025-03-25T18:28:12Z</time>
      </trkpt>
      <trkpt lat="43.645" lon="1.3798">
        <ele>146</ele>
        <time>2025-03-25T18:28:13Z</time>
      </trkpt>
      <trkpt lat="43.64497" lon="1.37979">
        <ele>146</ele>
        <time>2025-03-25T18:28:14Z</time>
      </trkpt>
      <trkpt lat="43.64497" lon="1.37979">
        <ele>146</ele>
        <time>2025-03-25T18:28:15Z</time>
      </trkpt>
      <trkpt lat="43.64494" lon="1.37977">
        <ele>146</ele>
        <time>2025-03-25T18:28:16Z</time>
      </trkpt>
      <trkpt lat="43.64494" lon="1.37977">
        <ele>146</ele>
        <time>2025-03-25T18:28:17Z</time>
      </trkpt>
      <trkpt lat="43.64492" lon="1.37975">
        <ele>146</ele>
        <time>2025-03-25T18:28:18Z</time>
      </trkpt>
      <trkpt lat="43.64492" lon="1.37975">
        <ele>146</ele>
        <time>2025-03-25T18:28:19Z</time>
      </trkpt>
      <trkpt lat="43.6449" lon="1.37973">
        <ele>146</ele>
        <time>2025-03-25T18:28:20Z</time>
      </trkpt>
      <trkpt lat="43.6449" lon="1.37973">
        <ele>146</ele>
        <time>2025-03-25T18:28:21Z</time>
      </trkpt>
      <trkpt lat="43.64488" lon="1.37972">
        <ele>146</ele>
        <time>2025-03-25T18:28:22Z</time>
      </trkpt>
      <trkpt lat="43.64488" lon="1.37972">
        <ele>146</ele>
        <time>2025-03-25T18:28:23Z</time>
      </trkpt>
      <trkpt lat="43.64486" lon="1.3797">
        <ele>146</ele>
        <time>2025-03-25T18:28:24Z</time>
      </trkpt>
      <trkpt lat="43.64486" lon="1.3797">
        <ele>146</ele>
        <time>2025-03-25T18:28:25Z</time>
      </trkpt>
      <trkpt lat="43.64484" lon="1.37968">
        <ele>146</ele>
        <time>2025-03-25T18:28:26Z</time>
      </trkpt>
      <trkpt lat="43.64484" lon="1.37968">
        <ele>146</ele>
        <time>2025-03-25T18:28:27Z</time>
      </trkpt>
      <trkpt lat="43.64481" lon="1.37968">
        <ele>146</ele>
        <time>2025-03-25T18:28:28Z</time>
      </trkpt>
      <trkpt lat="43.64481" lon="1.37968">
        <ele>146</ele>
        <time>2025-03-25T18:28:29Z</time>
      </trkpt>
      <trkpt lat="43.64479" lon="1.37966">
        <ele>146</ele>
        <time>2025-03-25T18:28:30Z</time>
      </trkpt>
      <trkpt lat="43.64479" lon="1.37966">
        <ele>146</ele>
        <time>2025-03-25T18:28:31Z</time>
      </trkpt>
      <trkpt lat="43.64479" lon="1.37966">
        <ele>146</ele>
        <time>2025-03-25T18:28:32Z</time>
      </trkpt>
      <trkpt lat="43.64477" lon="1.37964">
        <ele>146</ele>
        <time>2025-03-25T18:28:33Z</time>
      </trkpt>
      <trkpt lat="43.64477" lon="1.37964">
        <ele>146</ele>
        <time>2025-03-25T18:28:34Z</time>
      </trkpt>
      <trkpt lat="43.64476" lon="1.37962">
        <ele>146</ele>
        <time>2025-03-25T18:28:35Z</time>
      </trkpt>
      <trkpt lat="43.64476" lon="1.37962">
        <ele>146</ele>
        <time>2025-03-25T18:28:36Z</time>
      </trkpt>
      <trkpt lat="43.64476" lon="1.37962">
        <ele>146</ele>
        <time>2025-03-25T18:28:37Z</time>
      </trkpt>
      <trkpt lat="43.64476" lon="1.37962">
        <ele>146</ele>
        <time>2025-03-25T18:28:38Z</time>
      </trkpt>
      <trkpt lat="43.64474" lon="1.37961">
        <ele>146</ele>
        <time>2025-03-25T18:28:39Z</time>
      </trkpt>
      <trkpt lat="43.64474" lon="1.37961">
        <ele>146</ele>
        <time>2025-03-25T18:28:40Z</time>
      </trkpt>
      <trkpt lat="43.64474" lon="1.37961">
        <ele>146</ele>
        <time>2025-03-25T18:28:41Z</time>
      </trkpt>
      <trkpt lat="43.64471" lon="1.3796">
        <ele>146</ele>
        <time>2025-03-25T18:28:42Z</time>
      </trkpt>
      <trkpt lat="43.64471" lon="1.3796">
        <ele>146</ele>
        <time>2025-03-25T18:28:43Z</time>
      </trkpt>
      <trkpt lat="43.64471" lon="1.3796">
        <ele>146</ele>
        <time>2025-03-25T18:28:44Z</time>
      </trkpt>
      <trkpt lat="43.64471" lon="1.3796">
        <ele>146</ele>
        <time>2025-03-25T18:28:45Z</time>
      </trkpt>
      <trkpt lat="43.64471" lon="1.3796">
        <ele>146</ele>
        <time>2025-03-25T18:28:46Z</time>
      </trkpt>
      <trkpt lat="43.64471" lon="1.3796">
        <ele>146</ele>
        <time>2025-03-25T18:28:47Z</time>
      </trkpt>
      <trkpt lat="43.64472" lon="1.37958">
        <ele>146</ele>
        <time>2025-03-25T18:28:48Z</time>
      </trkpt>
      <trkpt lat="43.64472" lon="1.37958">
        <ele>146</ele>
        <time>2025-03-25T18:28:49Z</time>
      </trkpt>
      <trkpt lat="43.64474" lon="1.37957">
        <ele>146</ele>
        <time>2025-03-25T18:28:50Z</time>
      </trkpt>
      <trkpt lat="43.64474" lon="1.37957">
        <ele>146</ele>
        <time>2025-03-25T18:28:51Z</time>
      </trkpt>
      <trkpt lat="43.64474" lon="1.37957">
        <ele>146</ele>
        <time>2025-03-25T18:28:52Z</time>
      </trkpt>
      <trkpt lat="43.64476" lon="1.37957">
        <ele>146</ele>
        <time>2025-03-25T18:28:53Z</time>
      </trkpt>
      <trkpt lat="43.64476" lon="1.37957">
        <ele>146</ele>
        <time>2025-03-25T18:28:54Z</time>
      </trkpt>
      <trkpt lat="43.64476" lon="1.37957">
        <ele>146</ele>
        <time>2025-03-25T18:28:55Z</time>
      </trkpt>
      <trkpt lat="43.64476" lon="1.37957">
        <ele>145</ele>
        <time>2025-03-25T18:28:56Z</time>
      </trkpt>
      <trkpt lat="43.64476" lon="1.37957">
        <ele>146</ele>
        <time>2025-03-25T18:28:57Z</time>
      </trkpt>
      <trkpt lat="43.64478" lon="1.37958">
        <ele>146</ele>
        <time>2025-03-25T18:28:58Z</time>
      </trkpt>
      <trkpt lat="43.64478" lon="1.37958">
        <ele>146</ele>
        <time>2025-03-25T18:28:59Z</time>
      </trkpt>
      <trkpt lat="43.64478" lon="1.37958">
        <ele>146</ele>
        <time>2025-03-25T18:29:00Z</time>
      </trkpt>
      <trkpt lat="43.64478" lon="1.37958">
        <ele>146</ele>
        <time>2025-03-25T18:29:01Z</time>
      </trkpt>
      <trkpt lat="43.64478" lon="1.37958">
        <ele>146</ele>
        <time>2025-03-25T18:29:02Z</time>
      </trkpt>
      <trkpt lat="43.64478" lon="1.37958">
        <ele>146</ele>
        <time>2025-03-25T18:29:03Z</time>
      </trkpt>
      <trkpt lat="43.64478" lon="1.37958">
        <ele>146</ele>
        <time>2025-03-25T18:29:04Z</time>
      </trkpt>
      <trkpt lat="43.64478" lon="1.37958">
        <ele>146</ele>
        <time>2025-03-25T18:29:05Z</time>
      </trkpt>
      <trkpt lat="43.64478" lon="1.37958">
        <ele>146</ele>
        <time>2025-03-25T18:29:06Z</time>
      </trkpt>
      <trkpt lat="43.64478" lon="1.37958">
        <ele>146</ele>
        <time>2025-03-25T18:29:07Z</time>
      </trkpt>
      <trkpt lat="43.64478" lon="1.37958">
        <ele>146</ele>
        <time>2025-03-25T18:29:08Z</time>
      </trkpt>
      <trkpt lat="43.64478" lon="1.37958">
        <ele>146</ele>
        <time>2025-03-25T18:29:09Z</time>
      </trkpt>
      <trkpt lat="43.6448" lon="1.37958">
        <ele>146</ele>
        <time>2025-03-25T18:29:10Z</time>
      </trkpt>
      <trkpt lat="43.6448" lon="1.37958">
        <ele>146</ele>
        <time>2025-03-25T18:29:11Z</time>
      </trkpt>
      <trkpt lat="43.6448" lon="1.37958">
        <ele>146</ele>
        <time>2025-03-25T18:29:12Z</time>
      </trkpt>
      <trkpt lat="43.6448" lon="1.37958">
        <ele>146</ele>
        <time>2025-03-25T18:29:13Z</time>
      </trkpt>
      <trkpt lat="43.6448" lon="1.37958">
        <ele>146</ele>
        <time>2025-03-25T18:29:14Z</time>
      </trkpt>
      <trkpt lat="43.6448" lon="1.37958">
        <ele>146</ele>
        <time>2025-03-25T18:29:15Z</time>
      </trkpt>
      <trkpt lat="43.6448" lon="1.37958">
        <ele>146</ele>
        <time>2025-03-25T18:29:16Z</time>
      </trkpt>
      <trkpt lat="43.6448" lon="1.37958">
        <ele>146</ele>
        <time>2025-03-25T18:29:17Z</time>
      </trkpt>
      <trkpt lat="43.6448" lon="1.37958">
        <ele>146</ele>
        <time>2025-03-25T18:29:18Z</time>
      </trkpt>
      <trkpt lat="43.6448" lon="1.37958">
        <ele>146</ele>
        <time>2025-03-25T18:29:19Z</time>
      </trkpt>
      <trkpt lat="43.6448" lon="1.37958">
        <ele>146</ele>
        <time>2025-03-25T18:29:20Z</time>
      </trkpt>
      <trkpt lat="43.64479" lon="1.3796">
        <ele>146</ele>
        <time>2025-03-25T18:29:21Z</time>
      </trkpt>
      <trkpt lat="43.64479" lon="1.3796">
        <ele>146</ele>
        <time>2025-03-25T18:29:22Z</time>
      </trkpt>
      <trkpt lat="43.64479" lon="1.3796">
        <ele>146</ele>
        <time>2025-03-25T18:29:23Z</time>
      </trkpt>
      <trkpt lat="43.64479" lon="1.3796">
        <ele>147</ele>
        <time>2025-03-25T18:29:24Z</time>
      </trkpt>
      <trkpt lat="43.64479" lon="1.3796">
        <ele>147</ele>
        <time>2025-03-25T18:29:25Z</time>
      </trkpt>
      <trkpt lat="43.64479" lon="1.3796">
        <ele>147</ele>
        <time>2025-03-25T18:29:26Z</time>
      </trkpt>
      <trkpt lat="43.64479" lon="1.3796">
        <ele>147</ele>
        <time>2025-03-25T18:29:27Z</time>
      </trkpt>
      <trkpt lat="43.64478" lon="1.37962">
        <ele>147</ele>
        <time>2025-03-25T18:29:28Z</time>
      </trkpt>
      <trkpt lat="43.64478" lon="1.37962">
        <ele>147</ele>
        <time>2025-03-25T18:29:29Z</time>
      </trkpt>
      <trkpt lat="43.64478" lon="1.37962">
        <ele>147</ele>
        <time>2025-03-25T18:29:30Z</time>
      </trkpt>
      <trkpt lat="43.64478" lon="1.37962">
        <ele>147</ele>
        <time>2025-03-25T18:29:31Z</time>
      </trkpt>
      <trkpt lat="43.64478" lon="1.37962">
        <ele>147</ele>
        <time>2025-03-25T18:29:32Z</time>
      </trkpt>
      <trkpt lat="43.64478" lon="1.37962">
        <ele>147</ele>
        <time>2025-03-25T18:29:33Z</time>
      </trkpt>
      <trkpt lat="43.64478" lon="1.37962">
        <ele>147</ele>
        <time>2025-03-25T18:29:34Z</time>
      </trkpt>
      <trkpt lat="43.64478" lon="1.37962">
        <ele>147</ele>
        <time>2025-03-25T18:29:35Z</time>
      </trkpt>
      <trkpt lat="43.64478" lon="1.37962">
        <ele>147</ele>
        <time>2025-03-25T18:29:36Z</time>
      </trkpt>
      <trkpt lat="43.64478" lon="1.37962">
        <ele>147</ele>
        <time>2025-03-25T18:29:37Z</time>
      </trkpt>
      <trkpt lat="43.64478" lon="1.37962">
        <ele>147</ele>
        <time>2025-03-25T18:29:38Z</time>
      </trkpt>
      <trkpt lat="43.64478" lon="1.37962">
        <ele>147</ele>
        <time>2025-03-25T18:29:39Z</time>
      </trkpt>
      <trkpt lat="43.6448" lon="1.37964">
        <ele>147</ele>
        <time>2025-03-25T18:29:40Z</time>
      </trkpt>
      <trkpt lat="43.64482" lon="1.37966">
        <ele>147</ele>
        <time>2025-03-25T18:29:41Z</time>
      </trkpt>
      <trkpt lat="43.64485" lon="1.37968">
        <ele>147</ele>
        <time>2025-03-25T18:29:42Z</time>
      </trkpt>
      <trkpt lat="43.64488" lon="1.3797">
        <ele>147</ele>
        <time>2025-03-25T18:29:43Z</time>
      </trkpt>
      <trkpt lat="43.64491" lon="1.37972">
        <ele>147</ele>
        <time>2025-03-25T18:29:44Z</time>
      </trkpt>
      <trkpt lat="43.64494" lon="1.37974">
        <ele>147</ele>
        <time>2025-03-25T18:29:45Z</time>
      </trkpt>
      <trkpt lat="43.64498" lon="1.37977">
        <ele>147</ele>
        <time>2025-03-25T18:29:46Z</time>
      </trkpt>
      <trkpt lat="43.64502" lon="1.37978">
        <ele>147</ele>
        <time>2025-03-25T18:29:47Z</time>
      </trkpt>
      <trkpt lat="43.64506" lon="1.3798">
        <ele>147</ele>
        <time>2025-03-25T18:29:48Z</time>
      </trkpt>
      <trkpt lat="43.64511" lon="1.37982">
        <ele>147</ele>
        <time>2025-03-25T18:29:49Z</time>
      </trkpt>
      <trkpt lat="43.64515" lon="1.37984">
        <ele>147</ele>
        <time>2025-03-25T18:29:50Z</time>
      </trkpt>
      <trkpt lat="43.6452" lon="1.37985">
        <ele>147</ele>
        <time>2025-03-25T18:29:51Z</time>
      </trkpt>
      <trkpt lat="43.64523" lon="1.37987">
        <ele>147</ele>
        <time>2025-03-25T18:29:52Z</time>
      </trkpt>
      <trkpt lat="43.64527" lon="1.37988">
        <ele>146</ele>
        <time>2025-03-25T18:29:53Z</time>
      </trkpt>
      <trkpt lat="43.64531" lon="1.37989">
        <ele>147</ele>
        <time>2025-03-25T18:29:54Z</time>
      </trkpt>
      <trkpt lat="43.64534" lon="1.3799">
        <ele>147</ele>
        <time>2025-03-25T18:29:55Z</time>
      </trkpt>
      <trkpt lat="43.64538" lon="1.3799">
        <ele>147</ele>
        <time>2025-03-25T18:29:56Z</time>
      </trkpt>
      <trkpt lat="43.64542" lon="1.3799">
        <ele>147</ele>
        <time>2025-03-25T18:29:57Z</time>
      </trkpt>
      <trkpt lat="43.64546" lon="1.37989">
        <ele>147</ele>
        <time>2025-03-25T18:29:58Z</time>
      </trkpt>
      <trkpt lat="43.64549" lon="1.37987">
        <ele>147</ele>
        <time>2025-03-25T18:29:59Z</time>
      </trkpt>
      <trkpt lat="43.64552" lon="1.37985">
        <ele>147</ele>
        <time>2025-03-25T18:30:00Z</time>
      </trkpt>
      <trkpt lat="43.64555" lon="1.37982">
        <ele>147</ele>
        <time>2025-03-25T18:30:01Z</time>
      </trkpt>
      <trkpt lat="43.64558" lon="1.37979">
        <ele>147</ele>
        <time>2025-03-25T18:30:02Z</time>
      </trkpt>
      <trkpt lat="43.64561" lon="1.37977">
        <ele>147</ele>
        <time>2025-03-25T18:30:03Z</time>
      </trkpt>
      <trkpt lat="43.64563" lon="1.37973">
        <ele>147</ele>
        <time>2025-03-25T18:30:04Z</time>
      </trkpt>
      <trkpt lat="43.64565" lon="1.3797">
        <ele>147</ele>
        <time>2025-03-25T18:30:05Z</time>
      </trkpt>
      <trkpt lat="43.64567" lon="1.37966">
        <ele>147</ele>
        <time>2025-03-25T18:30:06Z</time>
      </trkpt>
      <trkpt lat="43.64568" lon="1.37962">
        <ele>147</ele>
        <time>2025-03-25T18:30:07Z</time>
      </trkpt>
      <trkpt lat="43.6457" lon="1.37952">
        <ele>147</ele>
        <time>2025-03-25T18:30:08Z</time>
      </trkpt>
      <trkpt lat="43.6457" lon="1.37952">
        <ele>147</ele>
        <time>2025-03-25T18:30:09Z</time>
      </trkpt>
      <trkpt lat="43.6457" lon="1.37947">
        <ele>147</ele>
        <time>2025-03-25T18:30:10Z</time>
      </trkpt>
      <trkpt lat="43.6457" lon="1.37943">
        <ele>147</ele>
        <time>2025-03-25T18:30:11Z</time>
      </trkpt>
      <trkpt lat="43.64569" lon="1.37937">
        <ele>147</ele>
        <time>2025-03-25T18:30:12Z</time>
      </trkpt>
      <trkpt lat="43.64568" lon="1.37932">
        <ele>147</ele>
        <time>2025-03-25T18:30:13Z</time>
      </trkpt>
      <trkpt lat="43.64567" lon="1.37928">
        <ele>147</ele>
        <time>2025-03-25T18:30:14Z</time>
      </trkpt>
      <trkpt lat="43.64565" lon="1.37924">
        <ele>147</ele>
        <time>2025-03-25T18:30:15Z</time>
      </trkpt>
      <trkpt lat="43.64563" lon="1.3792">
        <ele>147</ele>
        <time>2025-03-25T18:30:16Z</time>
      </trkpt>
      <trkpt lat="43.64561" lon="1.37917">
        <ele>147</ele>
        <time>2025-03-25T18:30:17Z</time>
      </trkpt>
      <trkpt lat="43.64558" lon="1.37914">
        <ele>147</ele>
        <time>2025-03-25T18:30:18Z</time>
      </trkpt>
      <trkpt lat="43.64555" lon="1.37913">
        <ele>147</ele>
        <time>2025-03-25T18:30:19Z</time>
      </trkpt>
      <trkpt lat="43.64552" lon="1.37911">
        <ele>147</ele>
        <time>2025-03-25T18:30:20Z</time>
      </trkpt>
      <trkpt lat="43.6455" lon="1.37909">
        <ele>147</ele>
        <time>2025-03-25T18:30:21Z</time>
      </trkpt>
      <trkpt lat="43.64547" lon="1.37907">
        <ele>147</ele>
        <time>2025-03-25T18:30:22Z</time>
      </trkpt>
      <trkpt lat="43.64544" lon="1.37906">
        <ele>147</ele>
        <time>2025-03-25T18:30:23Z</time>
      </trkpt>
      <trkpt lat="43.64541" lon="1.37904">
        <ele>147</ele>
        <time>2025-03-25T18:30:24Z</time>
      </trkpt>
      <trkpt lat="43.64538" lon="1.37902">
        <ele>147</ele>
        <time>2025-03-25T18:30:25Z</time>
      </trkpt>
      <trkpt lat="43.64534" lon="1.379">
        <ele>147</ele>
        <time>2025-03-25T18:30:26Z</time>
      </trkpt>
      <trkpt lat="43.64531" lon="1.37898">
        <ele>147</ele>
        <time>2025-03-25T18:30:27Z</time>
      </trkpt>
      <trkpt lat="43.64528" lon="1.37896">
        <ele>147</ele>
        <time>2025-03-25T18:30:28Z</time>
      </trkpt>
      <trkpt lat="43.64525" lon="1.37894">
        <ele>147</ele>
        <time>2025-03-25T18:30:29Z</time>
      </trkpt>
      <trkpt lat="43.64522" lon="1.37892">
        <ele>147</ele>
        <time>2025-03-25T18:30:30Z</time>
      </trkpt>
      <trkpt lat="43.64519" lon="1.3789">
        <ele>147</ele>
        <time>2025-03-25T18:30:31Z</time>
      </trkpt>
      <trkpt lat="43.64516" lon="1.37888">
        <ele>147</ele>
        <time>2025-03-25T18:30:32Z</time>
      </trkpt>
      <trkpt lat="43.64513" lon="1.37886">
        <ele>147</ele>
        <time>2025-03-25T18:30:33Z</time>
      </trkpt>
      <trkpt lat="43.6451" lon="1.37884">
        <ele>147</ele>
        <time>2025-03-25T18:30:34Z</time>
      </trkpt>
      <trkpt lat="43.64506" lon="1.37882">
        <ele>147</ele>
        <time>2025-03-25T18:30:35Z</time>
      </trkpt>
      <trkpt lat="43.64504" lon="1.3788">
        <ele>147</ele>
        <time>2025-03-25T18:30:36Z</time>
      </trkpt>
      <trkpt lat="43.645" lon="1.37878">
        <ele>147</ele>
        <time>2025-03-25T18:30:37Z</time>
      </trkpt>
      <trkpt lat="43.64498" lon="1.37876">
        <ele>147</ele>
        <time>2025-03-25T18:30:38Z</time>
      </trkpt>
      <trkpt lat="43.64495" lon="1.37874">
        <ele>147</ele>
        <time>2025-03-25T18:30:39Z</time>
      </trkpt>
      <trkpt lat="43.64492" lon="1.37873">
        <ele>147</ele>
        <time>2025-03-25T18:30:40Z</time>
      </trkpt>
      <trkpt lat="43.64489" lon="1.37872">
        <ele>147</ele>
        <time>2025-03-25T18:30:41Z</time>
      </trkpt>
      <trkpt lat="43.64486" lon="1.37872">
        <ele>147</ele>
        <time>2025-03-25T18:30:42Z</time>
      </trkpt>
      <trkpt lat="43.64483" lon="1.37872">
        <ele>147</ele>
        <time>2025-03-25T18:30:43Z</time>
      </trkpt>
      <trkpt lat="43.6448" lon="1.37873">
        <ele>147</ele>
        <time>2025-03-25T18:30:44Z</time>
      </trkpt>
      <trkpt lat="43.64478" lon="1.37875">
        <ele>147</ele>
        <time>2025-03-25T18:30:45Z</time>
      </trkpt>
      <trkpt lat="43.64472" lon="1.37879">
        <ele>147</ele>
        <time>2025-03-25T18:30:46Z</time>
      </trkpt>
      <trkpt lat="43.64472" lon="1.37879">
        <ele>147</ele>
        <time>2025-03-25T18:30:47Z</time>
      </trkpt>
      <trkpt lat="43.64469" lon="1.37882">
        <ele>147</ele>
        <time>2025-03-25T18:30:48Z</time>
      </trkpt>
      <trkpt lat="43.64466" lon="1.37885">
        <ele>147</ele>
        <time>2025-03-25T18:30:49Z</time>
      </trkpt>
      <trkpt lat="43.64464" lon="1.37888">
        <ele>147</ele>
        <time>2025-03-25T18:30:50Z</time>
      </trkpt>
      <trkpt lat="43.64462" lon="1.37893">
        <ele>147</ele>
        <time>2025-03-25T18:30:51Z</time>
      </trkpt>
      <trkpt lat="43.64461" lon="1.37897">
        <ele>147</ele>
        <time>2025-03-25T18:30:52Z</time>
      </trkpt>
      <trkpt lat="43.6446" lon="1.379">
        <ele>147</ele>
        <time>2025-03-25T18:30:53Z</time>
      </trkpt>
      <trkpt lat="43.64459" lon="1.37905">
        <ele>147</ele>
        <time>2025-03-25T18:30:54Z</time>
      </trkpt>
      <trkpt lat="43.64459" lon="1.37909">
        <ele>147</ele>
        <time>2025-03-25T18:30:55Z</time>
      </trkpt>
      <trkpt lat="43.64459" lon="1.37914">
        <ele>147</ele>
        <time>2025-03-25T18:30:56Z</time>
      </trkpt>
      <trkpt lat="43.64459" lon="1.37918">
        <ele>147</ele>
        <time>2025-03-25T18:30:57Z</time>
      </trkpt>
      <trkpt lat="43.64459" lon="1.37923">
        <ele>147</ele>
        <time>2025-03-25T18:30:58Z</time>
      </trkpt>
      <trkpt lat="43.64459" lon="1.37927">
        <ele>147</ele>
        <time>2025-03-25T18:30:59Z</time>
      </trkpt>
      <trkpt lat="43.6446" lon="1.37932">
        <ele>147</ele>
        <time>2025-03-25T18:31:00Z</time>
      </trkpt>
      <trkpt lat="43.64461" lon="1.37936">
        <ele>147</ele>
        <time>2025-03-25T18:31:01Z</time>
      </trkpt>
      <trkpt lat="43.64463" lon="1.3794">
        <ele>147</ele>
        <time>2025-03-25T18:31:02Z</time>
      </trkpt>
      <trkpt lat="43.64464" lon="1.37944">
        <ele>147</ele>
        <time>2025-03-25T18:31:03Z</time>
      </trkpt>
      <trkpt lat="43.64466" lon="1.37947">
        <ele>147</ele>
        <time>2025-03-25T18:31:04Z</time>
      </trkpt>
      <trkpt lat="43.64469" lon="1.3795">
        <ele>147</ele>
        <time>2025-03-25T18:31:05Z</time>
      </trkpt>
      <trkpt lat="43.64472" lon="1.37952">
        <ele>147</ele>
        <time>2025-03-25T18:31:06Z</time>
      </trkpt>
      <trkpt lat="43.64475" lon="1.37955">
        <ele>147</ele>
        <time>2025-03-25T18:31:07Z</time>
      </trkpt>
      <trkpt lat="43.64478" lon="1.37956">
        <ele>147</ele>
        <time>2025-03-25T18:31:08Z</time>
      </trkpt>
      <trkpt lat="43.64481" lon="1.37958">
        <ele>147</ele>
        <time>2025-03-25T18:31:09Z</time>
      </trkpt>
      <trkpt lat="43.64484" lon="1.37959">
        <ele>146</ele>
        <time>2025-03-25T18:31:10Z</time>
      </trkpt>
      <trkpt lat="43.64487" lon="1.37961">
        <ele>146</ele>
        <time>2025-03-25T18:31:11Z</time>
      </trkpt>
      <trkpt lat="43.6449" lon="1.37963">
        <ele>147</ele>
        <time>2025-03-25T18:31:12Z</time>
      </trkpt>
      <trkpt lat="43.64493" lon="1.37965">
        <ele>147</ele>
        <time>2025-03-25T18:31:13Z</time>
      </trkpt>
      <trkpt lat="43.64496" lon="1.37967">
        <ele>147</ele>
        <time>2025-03-25T18:31:14Z</time>
      </trkpt>
      <trkpt lat="43.64499" lon="1.37969">
        <ele>147</ele>
        <time>2025-03-25T18:31:15Z</time>
      </trkpt>
      <trkpt lat="43.64502" lon="1.37971">
        <ele>147</ele>
        <time>2025-03-25T18:31:16Z</time>
      </trkpt>
      <trkpt lat="43.64505" lon="1.37973">
        <ele>147</ele>
        <time>2025-03-25T18:31:17Z</time>
      </trkpt>
      <trkpt lat="43.64508" lon="1.37976">
        <ele>147</ele>
        <time>2025-03-25T18:31:18Z</time>
      </trkpt>
      <trkpt lat="43.64511" lon="1.37978">
        <ele>147</ele>
        <time>2025-03-25T18:31:19Z</time>
      </trkpt>
      <trkpt lat="43.64514" lon="1.37981">
        <ele>147</ele>
        <time>2025-03-25T18:31:20Z</time>
      </trkpt>
      <trkpt lat="43.64517" lon="1.37983">
        <ele>147</ele>
        <time>2025-03-25T18:31:21Z</time>
      </trkpt>
      <trkpt lat="43.64521" lon="1.37985">
        <ele>147</ele>
        <time>2025-03-25T18:31:22Z</time>
      </trkpt>
      <trkpt lat="43.64523" lon="1.37987">
        <ele>147</ele>
        <time>2025-03-25T18:31:23Z</time>
      </trkpt>
      <trkpt lat="43.64526" lon="1.37987">
        <ele>146</ele>
        <time>2025-03-25T18:31:24Z</time>
      </trkpt>
      <trkpt lat="43.64526" lon="1.37987">
        <ele>146</ele>
        <time>2025-03-25T18:31:25Z</time>
      </trkpt>
      <trkpt lat="43.64528" lon="1.37988">
        <ele>146</ele>
        <time>2025-03-25T18:31:26Z</time>
      </trkpt>
      <trkpt lat="43.64528" lon="1.37988">
        <ele>146</ele>
        <time>2025-03-25T18:31:27Z</time>
      </trkpt>
      <trkpt lat="43.6453" lon="1.37989">
        <ele>146</ele>
        <time>2025-03-25T18:31:28Z</time>
      </trkpt>
      <trkpt lat="43.6453" lon="1.37989">
        <ele>146</ele>
        <time>2025-03-25T18:31:29Z</time>
      </trkpt>
      <trkpt lat="43.64532" lon="1.3799">
        <ele>146</ele>
        <time>2025-03-25T18:31:30Z</time>
      </trkpt>
      <trkpt lat="43.64532" lon="1.3799">
        <ele>146</ele>
        <time>2025-03-25T18:31:31Z</time>
      </trkpt>
      <trkpt lat="43.64534" lon="1.37992">
        <ele>146</ele>
        <time>2025-03-25T18:31:32Z</time>
      </trkpt>
      <trkpt lat="43.64534" lon="1.37992">
        <ele>146</ele>
        <time>2025-03-25T18:31:33Z</time>
      </trkpt>
      <trkpt lat="43.64535" lon="1.37993">
        <ele>146</ele>
        <time>2025-03-25T18:31:34Z</time>
      </trkpt>
      <trkpt lat="43.64535" lon="1.37993">
        <ele>146</ele>
        <time>2025-03-25T18:31:35Z</time>
      </trkpt>
      <trkpt lat="43.64537" lon="1.37993">
        <ele>146</ele>
        <time>2025-03-25T18:31:36Z</time>
      </trkpt>
      <trkpt lat="43.64537" lon="1.37993">
        <ele>147</ele>
        <time>2025-03-25T18:31:37Z</time>
      </trkpt>
      <trkpt lat="43.64537" lon="1.37993">
        <ele>147</ele>
        <time>2025-03-25T18:31:38Z</time>
      </trkpt>
      <trkpt lat="43.64539" lon="1.37992">
        <ele>147</ele>
        <time>2025-03-25T18:31:39Z</time>
      </trkpt>
      <trkpt lat="43.64539" lon="1.37992">
        <ele>147</ele>
        <time>2025-03-25T18:31:40Z</time>
      </trkpt>
      <trkpt lat="43.64539" lon="1.37992">
        <ele>147</ele>
        <time>2025-03-25T18:31:41Z</time>
      </trkpt>
      <trkpt lat="43.64537" lon="1.37992">
        <ele>147</ele>
        <time>2025-03-25T18:31:42Z</time>
      </trkpt>
      <trkpt lat="43.64537" lon="1.37992">
        <ele>147</ele>
        <time>2025-03-25T18:31:43Z</time>
      </trkpt>
      <trkpt lat="43.64535" lon="1.37992">
        <ele>147</ele>
        <time>2025-03-25T18:31:44Z</time>
      </trkpt>
      <trkpt lat="43.64535" lon="1.37992">
        <ele>147</ele>
        <time>2025-03-25T18:31:45Z</time>
      </trkpt>
      <trkpt lat="43.64535" lon="1.37992">
        <ele>147</ele>
        <time>2025-03-25T18:31:46Z</time>
      </trkpt>
      <trkpt lat="43.64532" lon="1.37992">
        <ele>146</ele>
        <time>2025-03-25T18:31:47Z</time>
      </trkpt>
      <trkpt lat="43.64532" lon="1.37992">
        <ele>146</ele>
        <time>2025-03-25T18:31:48Z</time>
      </trkpt>
      <trkpt lat="43.6453" lon="1.37991">
        <ele>146</ele>
        <time>2025-03-25T18:31:49Z</time>
      </trkpt>
      <trkpt lat="43.6453" lon="1.37991">
        <ele>146</ele>
        <time>2025-03-25T18:31:50Z</time>
      </trkpt>
      <trkpt lat="43.64528" lon="1.37991">
        <ele>146</ele>
        <time>2025-03-25T18:31:51Z</time>
      </trkpt>
      <trkpt lat="43.64528" lon="1.37991">
        <ele>147</ele>
        <time>2025-03-25T18:31:52Z</time>
      </trkpt>
      <trkpt lat="43.64528" lon="1.37991">
        <ele>147</ele>
        <time>2025-03-25T18:31:53Z</time>
      </trkpt>
      <trkpt lat="43.64525" lon="1.37989">
        <ele>147</ele>
        <time>2025-03-25T18:31:54Z</time>
      </trkpt>
      <trkpt lat="43.64525" lon="1.37989">
        <ele>147</ele>
        <time>2025-03-25T18:31:55Z</time>
      </trkpt>
      <trkpt lat="43.64525" lon="1.37989">
        <ele>147</ele>
        <time>2025-03-25T18:31:56Z</time>
      </trkpt>
      <trkpt lat="43.64525" lon="1.37989">
        <ele>147</ele>
        <time>2025-03-25T18:31:57Z</time>
      </trkpt>
      <trkpt lat="43.64525" lon="1.37989">
        <ele>147</ele>
        <time>2025-03-25T18:31:58Z</time>
      </trkpt>
      <trkpt lat="43.64527" lon="1.37989">
        <ele>147</ele>
        <time>2025-03-25T18:31:59Z</time>
      </trkpt>
      <trkpt lat="43.64527" lon="1.37989">
        <ele>147</ele>
        <time>2025-03-25T18:32:00Z</time>
      </trkpt>
      <trkpt lat="43.6453" lon="1.37989">
        <ele>147</ele>
        <time>2025-03-25T18:32:01Z</time>
      </trkpt>
      <trkpt lat="43.6453" lon="1.37989">
        <ele>147</ele>
        <time>2025-03-25T18:32:02Z</time>
      </trkpt>
      <trkpt lat="43.64533" lon="1.37989">
        <ele>147</ele>
        <time>2025-03-25T18:32:03Z</time>
      </trkpt>
      <trkpt lat="43.64533" lon="1.37989">
        <ele>147</ele>
        <time>2025-03-25T18:32:04Z</time>
      </trkpt>
      <trkpt lat="43.64535" lon="1.37988">
        <ele>147</ele>
        <time>2025-03-25T18:32:05Z</time>
      </trkpt>
      <trkpt lat="43.64535" lon="1.37988">
        <ele>147</ele>
        <time>2025-03-25T18:32:06Z</time>
      </trkpt>
      <trkpt lat="43.64538" lon="1.37988">
        <ele>147</ele>
        <time>2025-03-25T18:32:07Z</time>
      </trkpt>
      <trkpt lat="43.6454" lon="1.37988">
        <ele>147</ele>
        <time>2025-03-25T18:32:08Z</time>
      </trkpt>
      <trkpt lat="43.64542" lon="1.37988">
        <ele>147</ele>
        <time>2025-03-25T18:32:09Z</time>
      </trkpt>
      <trkpt lat="43.64542" lon="1.37988">
        <ele>147</ele>
        <time>2025-03-25T18:32:10Z</time>
      </trkpt>
      <trkpt lat="43.64545" lon="1.37988">
        <ele>147</ele>
        <time>2025-03-25T18:32:11Z</time>
      </trkpt>
      <trkpt lat="43.64545" lon="1.37988">
        <ele>147</ele>
        <time>2025-03-25T18:32:12Z</time>
      </trkpt>
      <trkpt lat="43.64548" lon="1.37988">
        <ele>147</ele>
        <time>2025-03-25T18:32:13Z</time>
      </trkpt>
      <trkpt lat="43.64548" lon="1.37988">
        <ele>147</ele>
        <time>2025-03-25T18:32:14Z</time>
      </trkpt>
      <trkpt lat="43.6455" lon="1.37987">
        <ele>147</ele>
        <time>2025-03-25T18:32:15Z</time>
      </trkpt>
      <trkpt lat="43.6455" lon="1.37987">
        <ele>147</ele>
        <time>2025-03-25T18:32:16Z</time>
      </trkpt>
      <trkpt lat="43.64553" lon="1.37985">
        <ele>147</ele>
        <time>2025-03-25T18:32:17Z</time>
      </trkpt>
      <trkpt lat="43.64553" lon="1.37985">
        <ele>147</ele>
        <time>2025-03-25T18:32:18Z</time>
      </trkpt>
      <trkpt lat="43.64555" lon="1.37984">
        <ele>147</ele>
        <time>2025-03-25T18:32:19Z</time>
      </trkpt>
      <trkpt lat="43.64555" lon="1.37984">
        <ele>147</ele>
        <time>2025-03-25T18:32:20Z</time>
      </trkpt>
      <trkpt lat="43.64557" lon="1.37984">
        <ele>147</ele>
        <time>2025-03-25T18:32:21Z</time>
      </trkpt>
      <trkpt lat="43.64557" lon="1.37984">
        <ele>147</ele>
        <time>2025-03-25T18:32:22Z</time>
      </trkpt>
      <trkpt lat="43.64557" lon="1.37984">
        <ele>147</ele>
        <time>2025-03-25T18:32:23Z</time>
      </trkpt>
      <trkpt lat="43.64557" lon="1.37984">
        <ele>147</ele>
        <time>2025-03-25T18:32:24Z</time>
      </trkpt>
      <trkpt lat="43.64557" lon="1.37984">
        <ele>147</ele>
        <time>2025-03-25T18:32:25Z</time>
      </trkpt>
      <trkpt lat="43.64557" lon="1.37984">
        <ele>147</ele>
        <time>2025-03-25T18:32:26Z</time>
      </trkpt>
      <trkpt lat="43.64557" lon="1.37984">
        <ele>147</ele>
        <time>2025-03-25T18:32:27Z</time>
      </trkpt>
      <trkpt lat="43.64557" lon="1.37984">
        <ele>147</ele>
        <time>2025-03-25T18:32:28Z</time>
      </trkpt>
      <trkpt lat="43.64557" lon="1.37984">
        <ele>147</ele>
        <time>2025-03-25T18:32:29Z</time>
      </trkpt>
      <trkpt lat="43.64557" lon="1.37984">
        <ele>147</ele>
        <time>2025-03-25T18:32:30Z</time>
      </trkpt>
      <trkpt lat="43.64557" lon="1.37984">
        <ele>147</ele>
        <time>2025-03-25T18:32:31Z</time>
      </trkpt>
      <trkpt lat="43.64557" lon="1.37984">
        <ele>147</ele>
        <time>2025-03-25T18:32:32Z</time>
      </trkpt>
      <trkpt lat="43.64557" lon="1.37984">
        <ele>147</ele>
        <time>2025-03-25T18:32:33Z</time>
      </trkpt>
      <trkpt lat="43.64557" lon="1.37984">
        <ele>147</ele>
        <time>2025-03-25T18:32:34Z</time>
      </trkpt>
      <trkpt lat="43.64557" lon="1.37984">
        <ele>147</ele>
        <time>2025-03-25T18:32:35Z</time>
      </trkpt>
      <trkpt lat="43.64558" lon="1.37981">
        <ele>147</ele>
        <time>2025-03-25T18:32:36Z</time>
      </trkpt>
      <trkpt lat="43.64558" lon="1.37981">
        <ele>147</ele>
        <time>2025-03-25T18:32:37Z</time>
      </trkpt>
      <trkpt lat="43.64558" lon="1.37981">
        <ele>147</ele>
        <time>2025-03-25T18:32:38Z</time>
      </trkpt>
      <trkpt lat="43.64558" lon="1.37981">
        <ele>147</ele>
        <time>2025-03-25T18:32:39Z</time>
      </trkpt>
      <trkpt lat="43.64558" lon="1.37981">
        <ele>147</ele>
        <time>2025-03-25T18:32:40Z</time>
      </trkpt>
      <trkpt lat="43.64558" lon="1.37981">
        <ele>147</ele>
        <time>2025-03-25T18:32:41Z</time>
      </trkpt>
      <trkpt lat="43.64558" lon="1.37981">
        <ele>147</ele>
        <time>2025-03-25T18:32:42Z</time>
      </trkpt>
      <trkpt lat="43.64558" lon="1.37981">
        <ele>147</ele>
        <time>2025-03-25T18:32:43Z</time>
      </trkpt>
      <trkpt lat="43.64558" lon="1.37981">
        <ele>147</ele>
        <time>2025-03-25T18:32:44Z</time>
      </trkpt>
      <trkpt lat="43.64558" lon="1.37981">
        <ele>147</ele>
        <time>2025-03-25T18:32:45Z</time>
      </trkpt>
      <trkpt lat="43.64558" lon="1.37981">
        <ele>147</ele>
        <time>2025-03-25T18:32:46Z</time>
      </trkpt>
      <trkpt lat="43.64558" lon="1.37981">
        <ele>147</ele>
        <time>2025-03-25T18:32:47Z</time>
      </trkpt>
      <trkpt lat="43.64558" lon="1.37981">
        <ele>147</ele>
        <time>2025-03-25T18:32:48Z</time>
      </trkpt>
      <trkpt lat="43.64558" lon="1.37981">
        <ele>147</ele>
        <time>2025-03-25T18:32:49Z</time>
      </trkpt>
      <trkpt lat="43.64558" lon="1.37981">
        <ele>147</ele>
        <time>2025-03-25T18:32:50Z</time>
      </trkpt>
      <trkpt lat="43.64558" lon="1.37981">
        <ele>147</ele>
        <time>2025-03-25T18:32:51Z</time>
      </trkpt>
      <trkpt lat="43.64558" lon="1.37981">
        <ele>147</ele>
        <time>2025-03-25T18:32:52Z</time>
      </trkpt>
      <trkpt lat="43.64558" lon="1.37981">
        <ele>147</ele>
        <time>2025-03-25T18:32:53Z</time>
      </trkpt>
      <trkpt lat="43.64558" lon="1.37981">
        <ele>146</ele>
        <time>2025-03-25T18:32:54Z</time>
      </trkpt>
      <trkpt lat="43.64556" lon="1.37983">
        <ele>146</ele>
        <time>2025-03-25T18:32:55Z</time>
      </trkpt>
      <trkpt lat="43.64556" lon="1.37983">
        <ele>146</ele>
        <time>2025-03-25T18:32:56Z</time>
      </trkpt>
      <trkpt lat="43.64554" lon="1.37984">
        <ele>146</ele>
        <time>2025-03-25T18:32:57Z</time>
      </trkpt>
      <trkpt lat="43.64554" lon="1.37984">
        <ele>146</ele>
        <time>2025-03-25T18:32:58Z</time>
      </trkpt>
      <trkpt lat="43.64552" lon="1.37985">
        <ele>146</ele>
        <time>2025-03-25T18:32:59Z</time>
      </trkpt>
      <trkpt lat="43.64552" lon="1.37985">
        <ele>146</ele>
        <time>2025-03-25T18:33:00Z</time>
      </trkpt>
      <trkpt lat="43.64552" lon="1.37985">
        <ele>146</ele>
        <time>2025-03-25T18:33:01Z</time>
      </trkpt>
      <trkpt lat="43.64552" lon="1.37985">
        <ele>146</ele>
        <time>2025-03-25T18:33:02Z</time>
      </trkpt>
      <trkpt lat="43.64552" lon="1.37985">
        <ele>146</ele>
        <time>2025-03-25T18:33:03Z</time>
      </trkpt>
      <trkpt lat="43.64552" lon="1.37985">
        <ele>146</ele>
        <time>2025-03-25T18:33:04Z</time>
      </trkpt>
      <trkpt lat="43.64552" lon="1.37985">
        <ele>146</ele>
        <time>2025-03-25T18:33:05Z</time>
      </trkpt>
      <trkpt lat="43.64551" lon="1.37987">
        <ele>146</ele>
        <time>2025-03-25T18:33:06Z</time>
      </trkpt>
      <trkpt lat="43.64551" lon="1.37987">
        <ele>146</ele>
        <time>2025-03-25T18:33:07Z</time>
      </trkpt>
      <trkpt lat="43.64551" lon="1.37987">
        <ele>146</ele>
        <time>2025-03-25T18:33:08Z</time>
      </trkpt>
      <trkpt lat="43.64549" lon="1.37989">
        <ele>146</ele>
        <time>2025-03-25T18:33:09Z</time>
      </trkpt>
      <trkpt lat="43.64549" lon="1.37989">
        <ele>147</ele>
        <time>2025-03-25T18:33:10Z</time>
      </trkpt>
      <trkpt lat="43.64549" lon="1.37989">
        <ele>147</ele>
        <time>2025-03-25T18:33:11Z</time>
      </trkpt>
      <trkpt lat="43.64549" lon="1.37989">
        <ele>147</ele>
        <time>2025-03-25T18:33:12Z</time>
      </trkpt>
      <trkpt lat="43.64549" lon="1.37989">
        <ele>147</ele>
        <time>2025-03-25T18:33:13Z</time>
      </trkpt>
      <trkpt lat="43.64549" lon="1.37989">
        <ele>147</ele>
        <time>2025-03-25T18:33:14Z</time>
      </trkpt>
      <trkpt lat="43.64549" lon="1.37989">
        <ele>147</ele>
        <time>2025-03-25T18:33:15Z</time>
      </trkpt>
      <trkpt lat="43.64549" lon="1.37989">
        <ele>146</ele>
        <time>2025-03-25T18:33:16Z</time>
      </trkpt>
      <trkpt lat="43.64549" lon="1.37989">
        <ele>146</ele>
        <time>2025-03-25T18:33:17Z</time>
      </trkpt>
      <trkpt lat="43.64549" lon="1.37989">
        <ele>146</ele>
        <time>2025-03-25T18:33:18Z</time>
      </trkpt>
      <trkpt lat="43.64549" lon="1.37989">
        <ele>146</ele>
        <time>2025-03-25T18:33:19Z</time>
      </trkpt>
      <trkpt lat="43.64549" lon="1.37989">
        <ele>146</ele>
        <time>2025-03-25T18:33:20Z</time>
      </trkpt>
      <trkpt lat="43.64549" lon="1.37989">
        <ele>147</ele>
        <time>2025-03-25T18:33:21Z</time>
      </trkpt>
      <trkpt lat="43.64549" lon="1.37989">
        <ele>147</ele>
        <time>2025-03-25T18:33:22Z</time>
      </trkpt>
      <trkpt lat="43.64549" lon="1.37989">
        <ele>147</ele>
        <time>2025-03-25T18:33:23Z</time>
      </trkpt>
      <trkpt lat="43.64549" lon="1.37989">
        <ele>147</ele>
        <time>2025-03-25T18:33:24Z</time>
      </trkpt>
      <trkpt lat="43.64549" lon="1.37989">
        <ele>147</ele>
        <time>2025-03-25T18:33:25Z</time>
      </trkpt>
      <trkpt lat="43.64549" lon="1.37989">
        <ele>147</ele>
        <time>2025-03-25T18:33:26Z</time>
      </trkpt>
      <trkpt lat="43.64549" lon="1.37989">
        <ele>147</ele>
        <time>2025-03-25T18:33:27Z</time>
      </trkpt>
      <trkpt lat="43.64549" lon="1.37989">
        <ele>147</ele>
        <time>2025-03-25T18:33:28Z</time>
      </trkpt>
      <trkpt lat="43.64549" lon="1.37989">
        <ele>147</ele>
        <time>2025-03-25T18:33:29Z</time>
      </trkpt>
      <trkpt lat="43.64549" lon="1.37989">
        <ele>147</ele>
        <time>2025-03-25T18:33:30Z</time>
      </trkpt>
      <trkpt lat="43.64549" lon="1.37989">
        <ele>147</ele>
        <time>2025-03-25T18:33:31Z</time>
      </trkpt>
      <trkpt lat="43.64549" lon="1.37989">
        <ele>147</ele>
        <time>2025-03-25T18:33:32Z</time>
      </trkpt>
      <trkpt lat="43.64549" lon="1.37989">
        <ele>147</ele>
        <time>2025-03-25T18:33:33Z</time>
      </trkpt>
      <trkpt lat="43.64549" lon="1.37989">
        <ele>147</ele>
        <time>2025-03-25T18:33:34Z</time>
      </trkpt>
      <trkpt lat="43.64549" lon="1.37989">
        <ele>147</ele>
        <time>2025-03-25T18:33:35Z</time>
      </trkpt>
      <trkpt lat="43.64549" lon="1.37989">
        <ele>147</ele>
        <time>2025-03-25T18:33:36Z</time>
      </trkpt>
      <trkpt lat="43.64549" lon="1.37989">
        <ele>147</ele>
        <time>2025-03-25T18:33:37Z</time>
      </trkpt>
      <trkpt lat="43.64549" lon="1.37989">
        <ele>147</ele>
        <time>2025-03-25T18:33:38Z</time>
      </trkpt>
      <trkpt lat="43.64551" lon="1.37988">
        <ele>147</ele>
        <time>2025-03-25T18:33:39Z</time>
      </trkpt>
      <trkpt lat="43.64551" lon="1.37988">
        <ele>147</ele>
        <time>2025-03-25T18:33:40Z</time>
      </trkpt>
      <trkpt lat="43.64551" lon="1.37988">
        <ele>147</ele>
        <time>2025-03-25T18:33:41Z</time>
      </trkpt>
      <trkpt lat="43.64551" lon="1.37988">
        <ele>147</ele>
        <time>2025-03-25T18:33:42Z</time>
      </trkpt>
      <trkpt lat="43.64551" lon="1.37988">
        <ele>147</ele>
        <time>2025-03-25T18:33:43Z</time>
      </trkpt>
      <trkpt lat="43.64551" lon="1.37988">
        <ele>147</ele>
        <time>2025-03-25T18:33:44Z</time>
      </trkpt>
      <trkpt lat="43.64551" lon="1.37988">
        <ele>147</ele>
        <time>2025-03-25T18:33:45Z</time>
      </trkpt>
      <trkpt lat="43.64551" lon="1.37988">
        <ele>147</ele>
        <time>2025-03-25T18:33:46Z</time>
      </trkpt>
      <trkpt lat="43.64551" lon="1.37988">
        <ele>147</ele>
        <time>2025-03-25T18:33:47Z</time>
      </trkpt>
      <trkpt lat="43.64551" lon="1.37988">
        <ele>147</ele>
        <time>2025-03-25T18:33:48Z</time>
      </trkpt>
      <trkpt lat="43.64551" lon="1.37988">
        <ele>147</ele>
        <time>2025-03-25T18:33:49Z</time>
      </trkpt>
      <trkpt lat="43.64551" lon="1.37988">
        <ele>147</ele>
        <time>2025-03-25T18:33:50Z</time>
      </trkpt>
      <trkpt lat="43.64551" lon="1.37988">
        <ele>147</ele>
        <time>2025-03-25T18:33:51Z</time>
      </trkpt>
      <trkpt lat="43.64551" lon="1.37988">
        <ele>147</ele>
        <time>2025-03-25T18:33:52Z</time>
      </trkpt>
      <trkpt lat="43.64551" lon="1.37988">
        <ele>147</ele>
        <time>2025-03-25T18:33:53Z</time>
      </trkpt>
      <trkpt lat="43.64551" lon="1.37988">
        <ele>147</ele>
        <time>2025-03-25T18:33:54Z</time>
      </trkpt>
      <trkpt lat="43.64551" lon="1.37988">
        <ele>147</ele>
        <time>2025-03-25T18:33:55Z</time>
      </trkpt>
      <trkpt lat="43.64551" lon="1.37988">
        <ele>147</ele>
        <time>2025-03-25T18:33:56Z</time>
      </trkpt>
      <trkpt lat="43.64551" lon="1.37988">
        <ele>147</ele>
        <time>2025-03-25T18:33:57Z</time>
      </trkpt>
      <trkpt lat="43.64551" lon="1.37988">
        <ele>147</ele>
        <time>2025-03-25T18:33:58Z</time>
      </trkpt>
      <trkpt lat="43.64551" lon="1.37988">
        <ele>147</ele>
        <time>2025-03-25T18:33:59Z</time>
      </trkpt>
      <trkpt lat="43.64551" lon="1.37988">
        <ele>147</ele>
        <time>2025-03-25T18:34:00Z</time>
      </trkpt>
      <trkpt lat="43.64551" lon="1.37988">
        <ele>147</ele>
        <time>2025-03-25T18:34:01Z</time>
      </trkpt>
      <trkpt lat="43.64551" lon="1.37988">
        <ele>147</ele>
        <time>2025-03-25T18:34:02Z</time>
      </trkpt>
      <trkpt lat="43.64551" lon="1.37988">
        <ele>147</ele>
        <time>2025-03-25T18:34:03Z</time>
      </trkpt>
      <trkpt lat="43.64551" lon="1.37988">
        <ele>147</ele>
        <time>2025-03-25T18:34:04Z</time>
      </trkpt>
      <trkpt lat="43.64551" lon="1.37988">
        <ele>147</ele>
        <time>2025-03-25T18:34:05Z</time>
      </trkpt>
      <trkpt lat="43.64551" lon="1.37988">
        <ele>147</ele>
        <time>2025-03-25T18:34:06Z</time>
      </trkpt>
      <trkpt lat="43.64551" lon="1.37988">
        <ele>147</ele>
        <time>2025-03-25T18:34:07Z</time>
      </trkpt>
      <trkpt lat="43.64551" lon="1.37988">
        <ele>147</ele>
        <time>2025-03-25T18:34:08Z</time>
      </trkpt>
      <trkpt lat="43.64551" lon="1.37988">
        <ele>147</ele>
        <time>2025-03-25T18:34:09Z</time>
      </trkpt>
      <trkpt lat="43.64551" lon="1.37988">
        <ele>147</ele>
        <time>2025-03-25T18:34:10Z</time>
      </trkpt>
      <trkpt lat="43.64551" lon="1.37988">
        <ele>147</ele>
        <time>2025-03-25T18:34:11Z</time>
      </trkpt>
      <trkpt lat="43.64551" lon="1.37988">
        <ele>147</ele>
        <time>2025-03-25T18:34:12Z</time>
      </trkpt>
      <trkpt lat="43.64551" lon="1.37988">
        <ele>147</ele>
        <time>2025-03-25T18:34:13Z</time>
      </trkpt>
      <trkpt lat="43.64551" lon="1.37988">
        <ele>147</ele>
        <time>2025-03-25T18:34:14Z</time>
      </trkpt>
      <trkpt lat="43.64551" lon="1.37988">
        <ele>147</ele>
        <time>2025-03-25T18:34:15Z</time>
      </trkpt>
      <trkpt lat="43.64551" lon="1.37988">
        <ele>147</ele>
        <time>2025-03-25T18:34:16Z</time>
      </trkpt>
      <trkpt lat="43.64551" lon="1.37988">
        <ele>147</ele>
        <time>2025-03-25T18:34:17Z</time>
      </trkpt>
      <trkpt lat="43.64551" lon="1.37988">
        <ele>147</ele>
        <time>2025-03-25T18:34:18Z</time>
      </trkpt>
      <trkpt lat="43.64551" lon="1.37988">
        <ele>147</ele>
        <time>2025-03-25T18:34:19Z</time>
      </trkpt>
      <trkpt lat="43.64551" lon="1.37988">
        <ele>147</ele>
        <time>2025-03-25T18:34:20Z</time>
      </trkpt>
      <trkpt lat="43.64551" lon="1.37988">
        <ele>146</ele>
        <time>2025-03-25T18:34:21Z</time>
      </trkpt>
      <trkpt lat="43.64552" lon="1.37988">
        <ele>146</ele>
        <time>2025-03-25T18:34:22Z</time>
      </trkpt>
      <trkpt lat="43.64552" lon="1.37988">
        <ele>146</ele>
        <time>2025-03-25T18:34:23Z</time>
      </trkpt>
      <trkpt lat="43.64552" lon="1.37988">
        <ele>146</ele>
        <time>2025-03-25T18:34:24Z</time>
      </trkpt>
      <trkpt lat="43.64552" lon="1.37988">
        <ele>146</ele>
        <time>2025-03-25T18:34:25Z</time>
      </trkpt>
      <trkpt lat="43.64554" lon="1.37989">
        <ele>146</ele>
        <time>2025-03-25T18:34:26Z</time>
      </trkpt>
      <trkpt lat="43.64554" lon="1.37989">
        <ele>146</ele>
        <time>2025-03-25T18:34:27Z</time>
      </trkpt>
      <trkpt lat="43.64554" lon="1.37989">
        <ele>147</ele>
        <time>2025-03-25T18:34:28Z</time>
      </trkpt>
      <trkpt lat="43.64554" lon="1.37989">
        <ele>147</ele>
        <time>2025-03-25T18:34:29Z</time>
      </trkpt>
      <trkpt lat="43.64554" lon="1.37989">
        <ele>147</ele>
        <time>2025-03-25T18:34:30Z</time>
      </trkpt>
      <trkpt lat="43.64554" lon="1.37989">
        <ele>147</ele>
        <time>2025-03-25T18:34:31Z</time>
      </trkpt>
      <trkpt lat="43.64554" lon="1.37989">
        <ele>147</ele>
        <time>2025-03-25T18:34:32Z</time>
      </trkpt>
      <trkpt lat="43.64554" lon="1.37989">
        <ele>147</ele>
        <time>2025-03-25T18:34:33Z</time>
      </trkpt>
      <trkpt lat="43.64554" lon="1.37989">
        <ele>146</ele>
        <time>2025-03-25T18:34:34Z</time>
      </trkpt>
      <trkpt lat="43.64554" lon="1.37989">
        <ele>146</ele>
        <time>2025-03-25T18:34:35Z</time>
      </trkpt>
      <trkpt lat="43.64554" lon="1.37989">
        <ele>146</ele>
        <time>2025-03-25T18:34:36Z</time>
      </trkpt>
      <trkpt lat="43.64554" lon="1.37989">
        <ele>146</ele>
        <time>2025-03-25T18:34:37Z</time>
      </trkpt>
      <trkpt lat="43.64554" lon="1.37989">
        <ele>146</ele>
        <time>2025-03-25T18:34:38Z</time>
      </trkpt>
      <trkpt lat="43.64554" lon="1.37989">
        <ele>146</ele>
        <time>2025-03-25T18:34:39Z</time>
      </trkpt>
      <trkpt lat="43.64554" lon="1.37989">
        <ele>146</ele>
        <time>2025-03-25T18:34:40Z</time>
      </trkpt>
      <trkpt lat="43.64554" lon="1.37989">
        <ele>146</ele>
        <time>2025-03-25T18:34:41Z</time>
      </trkpt>
      <trkpt lat="43.64554" lon="1.37989">
        <ele>147</ele>
        <time>2025-03-25T18:34:42Z</time>
      </trkpt>
      <trkpt lat="43.64554" lon="1.37989">
        <ele>147</ele>
        <time>2025-03-25T18:34:43Z</time>
      </trkpt>
      <trkpt lat="43.64554" lon="1.37986">
        <ele>147</ele>
        <time>2025-03-25T18:34:44Z</time>
      </trkpt>
      <trkpt lat="43.64554" lon="1.37986">
        <ele>147</ele>
        <time>2025-03-25T18:34:45Z</time>
      </trkpt>
      <trkpt lat="43.64554" lon="1.37986">
        <ele>147</ele>
        <time>2025-03-25T18:34:46Z</time>
      </trkpt>
      <trkpt lat="43.64554" lon="1.37986">
        <ele>147</ele>
        <time>2025-03-25T18:34:47Z</time>
      </trkpt>
      <trkpt lat="43.64554" lon="1.37986">
        <ele>147</ele>
        <time>2025-03-25T18:34:48Z</time>
      </trkpt>
      <trkpt lat="43.64554" lon="1.37986">
        <ele>146</ele>
        <time>2025-03-25T18:34:49Z</time>
      </trkpt>
      <trkpt lat="43.64554" lon="1.37986">
        <ele>146</ele>
        <time>2025-03-25T18:34:50Z</time>
      </trkpt>
      <trkpt lat="43.64554" lon="1.37986">
        <ele>146</ele>
        <time>2025-03-25T18:34:51Z</time>
      </trkpt>
      <trkpt lat="43.64554" lon="1.37986">
        <ele>146</ele>
        <time>2025-03-25T18:34:52Z</time>
      </trkpt>
      <trkpt lat="43.64554" lon="1.37986">
        <ele>146</ele>
        <time>2025-03-25T18:34:53Z</time>
      </trkpt>
      <trkpt lat="43.64555" lon="1.37984">
        <ele>146</ele>
        <time>2025-03-25T18:34:54Z</time>
      </trkpt>
      <trkpt lat="43.64555" lon="1.37984">
        <ele>146</ele>
        <time>2025-03-25T18:34:55Z</time>
      </trkpt>
      <trkpt lat="43.64555" lon="1.37984">
        <ele>146</ele>
        <time>2025-03-25T18:34:56Z</time>
      </trkpt>
      <trkpt lat="43.64555" lon="1.37984">
        <ele>146</ele>
        <time>2025-03-25T18:34:57Z</time>
      </trkpt>
      <trkpt lat="43.64555" lon="1.37984">
        <ele>146</ele>
        <time>2025-03-25T18:34:58Z</time>
      </trkpt>
      <trkpt lat="43.64555" lon="1.37984">
        <ele>146</ele>
        <time>2025-03-25T18:34:59Z</time>
      </trkpt>
      <trkpt lat="43.64555" lon="1.37984">
        <ele>146</ele>
        <time>2025-03-25T18:35:00Z</time>
      </trkpt>
      <trkpt lat="43.64555" lon="1.37984">
        <ele>146</ele>
        <time>2025-03-25T18:35:01Z</time>
      </trkpt>
      <trkpt lat="43.64555" lon="1.37984">
        <ele>146</ele>
        <time>2025-03-25T18:35:02Z</time>
      </trkpt>
      <trkpt lat="43.64555" lon="1.37984">
        <ele>146</ele>
        <time>2025-03-25T18:35:03Z</time>
      </trkpt>
      <trkpt lat="43.64555" lon="1.37984">
        <ele>146</ele>
        <time>2025-03-25T18:35:04Z</time>
      </trkpt>
      <trkpt lat="43.64555" lon="1.37984">
        <ele>146</ele>
        <time>2025-03-25T18:35:05Z</time>
      </trkpt>
      <trkpt lat="43.64555" lon="1.37984">
        <ele>146</ele>
        <time>2025-03-25T18:35:06Z</time>
      </trkpt>
      <trkpt lat="43.64555" lon="1.37984">
        <ele>146</ele>
        <time>2025-03-25T18:35:07Z</time>
      </trkpt>
      <trkpt lat="43.64555" lon="1.37984">
        <ele>146</ele>
        <time>2025-03-25T18:35:08Z</time>
      </trkpt>
      <trkpt lat="43.64555" lon="1.37984">
        <ele>146</ele>
        <time>2025-03-25T18:35:09Z</time>
      </trkpt>
      <trkpt lat="43.64555" lon="1.37984">
        <ele>146</ele>
        <time>2025-03-25T18:35:10Z</time>
      </trkpt>
      <trkpt lat="43.64555" lon="1.37984">
        <ele>146</ele>
        <time>2025-03-25T18:35:11Z</time>
      </trkpt>
      <trkpt lat="43.64555" lon="1.37984">
        <ele>146</ele>
        <time>2025-03-25T18:35:12Z</time>
      </trkpt>
      <trkpt lat="43.64555" lon="1.37984">
        <ele>146</ele>
        <time>2025-03-25T18:35:13Z</time>
      </trkpt>
      <trkpt lat="43.64555" lon="1.37984">
        <ele>146</ele>
        <time>2025-03-25T18:35:14Z</time>
      </trkpt>
      <trkpt lat="43.64555" lon="1.37984">
        <ele>146</ele>
        <time>2025-03-25T18:35:15Z</time>
      </trkpt>
      <trkpt lat="43.64555" lon="1.37984">
        <ele>146</ele>
        <time>2025-03-25T18:35:16Z</time>
      </trkpt>
      <trkpt lat="43.64555" lon="1.37984">
        <ele>146</ele>
        <time>2025-03-25T18:35:17Z</time>
      </trkpt>
      <trkpt lat="43.64555" lon="1.37984">
        <ele>146</ele>
        <time>2025-03-25T18:35:18Z</time>
      </trkpt>
      <trkpt lat="43.64555" lon="1.37984">
        <ele>146</ele>
        <time>2025-03-25T18:35:19Z</time>
      </trkpt>
      <trkpt lat="43.64555" lon="1.37984">
        <ele>146</ele>
        <time>2025-03-25T18:35:20Z</time>
      </trkpt>
      <trkpt lat="43.64555" lon="1.37984">
        <ele>146</ele>
        <time>2025-03-25T18:35:21Z</time>
      </trkpt>
      <trkpt lat="43.64555" lon="1.37984">
        <ele>146</ele>
        <time>2025-03-25T18:35:22Z</time>
      </trkpt>
      <trkpt lat="43.64555" lon="1.37984">
        <ele>147</ele>
        <time>2025-03-25T18:35:23Z</time>
      </trkpt>
      <trkpt lat="43.64555" lon="1.37984">
        <ele>147</ele>
        <time>2025-03-25T18:35:24Z</time>
      </trkpt>
      <trkpt lat="43.64555" lon="1.37984">
        <ele>147</ele>
        <time>2025-03-25T18:35:25Z</time>
      </trkpt>
      <trkpt lat="43.64555" lon="1.37984">
        <ele>147</ele>
        <time>2025-03-25T18:35:26Z</time>
      </trkpt>
      <trkpt lat="43.64555" lon="1.37984">
        <ele>147</ele>
        <time>2025-03-25T18:35:27Z</time>
      </trkpt>
      <trkpt lat="43.64555" lon="1.37984">
        <ele>147</ele>
        <time>2025-03-25T18:35:28Z</time>
      </trkpt>
      <trkpt lat="43.64555" lon="1.37984">
        <ele>147</ele>
        <time>2025-03-25T18:35:29Z</time>
      </trkpt>
      <trkpt lat="43.64555" lon="1.37984">
        <ele>147</ele>
        <time>2025-03-25T18:35:30Z</time>
      </trkpt>
      <trkpt lat="43.64555" lon="1.37984">
        <ele>147</ele>
        <time>2025-03-25T18:35:31Z</time>
      </trkpt>
      <trkpt lat="43.64555" lon="1.37984">
        <ele>147</ele>
        <time>2025-03-25T18:35:32Z</time>
      </trkpt>
      <trkpt lat="43.64555" lon="1.37984">
        <ele>147</ele>
        <time>2025-03-25T18:35:33Z</time>
      </trkpt>
      <trkpt lat="43.64555" lon="1.37984">
        <ele>147</ele>
        <time>2025-03-25T18:35:34Z</time>
      </trkpt>
      <trkpt lat="43.64555" lon="1.37984">
        <ele>147</ele>
        <time>2025-03-25T18:35:35Z</time>
      </trkpt>
      <trkpt lat="43.64555" lon="1.37984">
        <ele>147</ele>
        <time>2025-03-25T18:35:36Z</time>
      </trkpt>
      <trkpt lat="43.64555" lon="1.37984">
        <ele>147</ele>
        <time>2025-03-25T18:35:37Z</time>
      </trkpt>
      <trkpt lat="43.64555" lon="1.37984">
        <ele>147</ele>
        <time>2025-03-25T18:35:38Z</time>
      </trkpt>
      <trkpt lat="43.64555" lon="1.37984">
        <ele>146</ele>
        <time>2025-03-25T18:35:39Z</time>
      </trkpt>
      <trkpt lat="43.64555" lon="1.37984">
        <ele>146</ele>
        <time>2025-03-25T18:35:40Z</time>
      </trkpt>
      <trkpt lat="43.64555" lon="1.37984">
        <ele>146</ele>
        <time>2025-03-25T18:35:41Z</time>
      </trkpt>
      <trkpt lat="43.64555" lon="1.37984">
        <ele>146</ele>
        <time>2025-03-25T18:35:42Z</time>
      </trkpt>
      <trkpt lat="43.64555" lon="1.37984">
        <ele>146</ele>
        <time>2025-03-25T18:35:43Z</time>
      </trkpt>
      <trkpt lat="43.64555" lon="1.37984">
        <ele>146</ele>
        <time>2025-03-25T18:35:44Z</time>
      </trkpt>
      <trkpt lat="43.64555" lon="1.37984">
        <ele>146</ele>
        <time>2025-03-25T18:35:45Z</time>
      </trkpt>
      <trkpt lat="43.64555" lon="1.37984">
        <ele>146</ele>
        <time>2025-03-25T18:35:46Z</time>
      </trkpt>
      <trkpt lat="43.64555" lon="1.37984">
        <ele>147</ele>
        <time>2025-03-25T18:35:47Z</time>
      </trkpt>
      <trkpt lat="43.64555" lon="1.37984">
        <ele>147</ele>
        <time>2025-03-25T18:35:48Z</time>
      </trkpt>
      <trkpt lat="43.64555" lon="1.37984">
        <ele>147</ele>
        <time>2025-03-25T18:35:49Z</time>
      </trkpt>
      <trkpt lat="43.64555" lon="1.37984">
        <ele>147</ele>
        <time>2025-03-25T18:35:50Z</time>
      </trkpt>
      <trkpt lat="43.64555" lon="1.37984">
        <ele>146</ele>
        <time>2025-03-25T18:35:51Z</time>
      </trkpt>
      <trkpt lat="43.64555" lon="1.37984">
        <ele>146</ele>
        <time>2025-03-25T18:35:52Z</time>
      </trkpt>
      <trkpt lat="43.64555" lon="1.37984">
        <ele>146</ele>
        <time>2025-03-25T18:35:53Z</time>
      </trkpt>
      <trkpt lat="43.64555" lon="1.37984">
        <ele>146</ele>
        <time>2025-03-25T18:35:54Z</time>
      </trkpt>
      <trkpt lat="43.64555" lon="1.37984">
        <ele>146</ele>
        <time>2025-03-25T18:35:55Z</time>
      </trkpt>
      <trkpt lat="43.64555" lon="1.37984">
        <ele>146</ele>
        <time>2025-03-25T18:35:56Z</time>
      </trkpt>
      <trkpt lat="43.64555" lon="1.37984">
        <ele>146</ele>
        <time>2025-03-25T18:35:57Z</time>
      </trkpt>
      <trkpt lat="43.64555" lon="1.37984">
        <ele>146</ele>
        <time>2025-03-25T18:35:58Z</time>
      </trkpt>
      <trkpt lat="43.64555" lon="1.37984">
        <ele>146</ele>
        <time>2025-03-25T18:35:59Z</time>
      </trkpt>
      <trkpt lat="43.64555" lon="1.37984">
        <ele>146</ele>
        <time>2025-03-25T18:36:00Z</time>
      </trkpt>
      <trkpt lat="43.64555" lon="1.37984">
        <ele>146</ele>
        <time>2025-03-25T18:36:01Z</time>
      </trkpt>
      <trkpt lat="43.64555" lon="1.37984">
        <ele>147</ele>
        <time>2025-03-25T18:36:02Z</time>
      </trkpt>
      <trkpt lat="43.64555" lon="1.37984">
        <ele>147</ele>
        <time>2025-03-25T18:36:03Z</time>
      </trkpt>
      <trkpt lat="43.64555" lon="1.37984">
        <ele>146</ele>
        <time>2025-03-25T18:36:04Z</time>
      </trkpt>
      <trkpt lat="43.64555" lon="1.37984">
        <ele>146</ele>
        <time>2025-03-25T18:36:05Z</time>
      </trkpt>
      <trkpt lat="43.64555" lon="1.37984">
        <ele>146</ele>
        <time>2025-03-25T18:36:06Z</time>
      </trkpt>
      <trkpt lat="43.64555" lon="1.37984">
        <ele>146</ele>
        <time>2025-03-25T18:36:07Z</time>
      </trkpt>
      <trkpt lat="43.64555" lon="1.37984">
        <ele>146</ele>
        <time>2025-03-25T18:36:08Z</time>
      </trkpt>
      <trkpt lat="43.64555" lon="1.37984">
        <ele>146</ele>
        <time>2025-03-25T18:36:09Z</time>
      </trkpt>
      <trkpt lat="43.64555" lon="1.37984">
        <ele>146</ele>
        <time>2025-03-25T18:36:10Z</time>
      </trkpt>
      <trkpt lat="43.64555" lon="1.37984">
        <ele>146</ele>
        <time>2025-03-25T18:36:11Z</time>
      </trkpt>
      <trkpt lat="43.64555" lon="1.37984">
        <ele>146</ele>
        <time>2025-03-25T18:36:12Z</time>
      </trkpt>
      <trkpt lat="43.64555" lon="1.37984">
        <ele>146</ele>
        <time>2025-03-25T18:36:13Z</time>
      </trkpt>
      <trkpt lat="43.64555" lon="1.37984">
        <ele>146</ele>
        <time>2025-03-25T18:36:14Z</time>
      </trkpt>
      <trkpt lat="43.64555" lon="1.37984">
        <ele>146</ele>
        <time>2025-03-25T18:36:15Z</time>
      </trkpt>
      <trkpt lat="43.64555" lon="1.37984">
        <ele>146</ele>
        <time>2025-03-25T18:36:16Z</time>
      </trkpt>
      <trkpt lat="43.64555" lon="1.37984">
        <ele>146</ele>
        <time>2025-03-25T18:36:17Z</time>
      </trkpt>
      <trkpt lat="43.64555" lon="1.37984">
        <ele>146</ele>
        <time>2025-03-25T18:36:18Z</time>
      </trkpt>
      <trkpt lat="43.64555" lon="1.37984">
        <ele>146</ele>
        <time>2025-03-25T18:36:19Z</time>
      </trkpt>
      <trkpt lat="43.64555" lon="1.37984">
        <ele>146</ele>
        <time>2025-03-25T18:36:20Z</time>
      </trkpt>
      <trkpt lat="43.64555" lon="1.37984">
        <ele>146</ele>
        <time>2025-03-25T18:36:21Z</time>
      </trkpt>
      <trkpt lat="43.64555" lon="1.37984">
        <ele>146</ele>
        <time>2025-03-25T18:36:22Z</time>
      </trkpt>
      <trkpt lat="43.64555" lon="1.37984">
        <ele>146</ele>
        <time>2025-03-25T18:36:23Z</time>
      </trkpt>
      <trkpt lat="43.64555" lon="1.37984">
        <ele>146</ele>
        <time>2025-03-25T18:36:24Z</time>
      </trkpt>
      <trkpt lat="43.64555" lon="1.37984">
        <ele>146</ele>
        <time>2025-03-25T18:36:25Z</time>
      </trkpt>
      <trkpt lat="43.64555" lon="1.37984">
        <ele>146</ele>
        <time>2025-03-25T18:36:26Z</time>
      </trkpt>
      <trkpt lat="43.64555" lon="1.37984">
        <ele>146</ele>
        <time>2025-03-25T18:36:27Z</time>
      </trkpt>
      <trkpt lat="43.64555" lon="1.37984">
        <ele>146</ele>
        <time>2025-03-25T18:36:28Z</time>
      </trkpt>
      <trkpt lat="43.64555" lon="1.37984">
        <ele>146</ele>
        <time>2025-03-25T18:36:29Z</time>
      </trkpt>
      <trkpt lat="43.64555" lon="1.37984">
        <ele>146</ele>
        <time>2025-03-25T18:36:30Z</time>
      </trkpt>
      <trkpt lat="43.64555" lon="1.37984">
        <ele>146</ele>
        <time>2025-03-25T18:36:31Z</time>
      </trkpt>
      <trkpt lat="43.64555" lon="1.37984">
        <ele>146</ele>
        <time>2025-03-25T18:36:32Z</time>
      </trkpt>
      <trkpt lat="43.64555" lon="1.37984">
        <ele>146</ele>
        <time>2025-03-25T18:36:33Z</time>
      </trkpt>
      <trkpt lat="43.64555" lon="1.37984">
        <ele>146</ele>
        <time>2025-03-25T18:36:34Z</time>
      </trkpt>
      <trkpt lat="43.64555" lon="1.37984">
        <ele>146</ele>
        <time>2025-03-25T18:36:35Z</time>
      </trkpt>
      <trkpt lat="43.64555" lon="1.37984">
        <ele>146</ele>
        <time>2025-03-25T18:36:36Z</time>
      </trkpt>
      <trkpt lat="43.64555" lon="1.37984">
        <ele>146</ele>
        <time>2025-03-25T18:36:37Z</time>
      </trkpt>
      <trkpt lat="43.64555" lon="1.37984">
        <ele>146</ele>
        <time>2025-03-25T18:36:38Z</time>
      </trkpt>
      <trkpt lat="43.64555" lon="1.37984">
        <ele>146</ele>
        <time>2025-03-25T18:36:39Z</time>
      </trkpt>
      <trkpt lat="43.64555" lon="1.37984">
        <ele>146</ele>
        <time>2025-03-25T18:36:40Z</time>
      </trkpt>
      <trkpt lat="43.64555" lon="1.37984">
        <ele>146</ele>
        <time>2025-03-25T18:36:41Z</time>
      </trkpt>
      <trkpt lat="43.64555" lon="1.37984">
        <ele>146</ele>
        <time>2025-03-25T18:36:42Z</time>
      </trkpt>
      <trkpt lat="43.64555" lon="1.37984">
        <ele>146</ele>
        <time>2025-03-25T18:36:43Z</time>
      </trkpt>
      <trkpt lat="43.64555" lon="1.37984">
        <ele>146</ele>
        <time>2025-03-25T18:36:44Z</time>
      </trkpt>
      <trkpt lat="43.64555" lon="1.37984">
        <ele>146</ele>
        <time>2025-03-25T18:36:45Z</time>
      </trkpt>
      <trkpt lat="43.64555" lon="1.37984">
        <ele>146</ele>
        <time>2025-03-25T18:36:46Z</time>
      </trkpt>
      <trkpt lat="43.64555" lon="1.37984">
        <ele>146</ele>
        <time>2025-03-25T18:36:47Z</time>
      </trkpt>
      <trkpt lat="43.64555" lon="1.37984">
        <ele>146</ele>
        <time>2025-03-25T18:36:48Z</time>
      </trkpt>
      <trkpt lat="43.64555" lon="1.37984">
        <ele>146</ele>
        <time>2025-03-25T18:36:49Z</time>
      </trkpt>
      <trkpt lat="43.64555" lon="1.37984">
        <ele>146</ele>
        <time>2025-03-25T18:36:50Z</time>
      </trkpt>
      <trkpt lat="43.64555" lon="1.37984">
        <ele>146</ele>
        <time>2025-03-25T18:36:51Z</time>
      </trkpt>
      <trkpt lat="43.64558" lon="1.37982">
        <ele>146</ele>
        <time>2025-03-25T18:36:52Z</time>
      </trkpt>
      <trkpt lat="43.64561" lon="1.37978">
        <ele>145</ele>
        <time>2025-03-25T18:36:53Z</time>
      </trkpt>
      <trkpt lat="43.64564" lon="1.37974">
        <ele>145</ele>
        <time>2025-03-25T18:36:54Z</time>
      </trkpt>
      <trkpt lat="43.64567" lon="1.37969">
        <ele>145</ele>
        <time>2025-03-25T18:36:55Z</time>
      </trkpt>
      <trkpt lat="43.64568" lon="1.37964">
        <ele>145</ele>
        <time>2025-03-25T18:36:56Z</time>
      </trkpt>
      <trkpt lat="43.6457" lon="1.37959">
        <ele>145</ele>
        <time>2025-03-25T18:36:57Z</time>
      </trkpt>
      <trkpt lat="43.64571" lon="1.37953">
        <ele>146</ele>
        <time>2025-03-25T18:36:58Z</time>
      </trkpt>
      <trkpt lat="43.64571" lon="1.37947">
        <ele>146</ele>
        <time>2025-03-25T18:36:59Z</time>
      </trkpt>
      <trkpt lat="43.64571" lon="1.37941">
        <ele>146</ele>
        <time>2025-03-25T18:37:00Z</time>
      </trkpt>
      <trkpt lat="43.64571" lon="1.37935">
        <ele>146</ele>
        <time>2025-03-25T18:37:01Z</time>
      </trkpt>
      <trkpt lat="43.64569" lon="1.3793">
        <ele>146</ele>
        <time>2025-03-25T18:37:02Z</time>
      </trkpt>
      <trkpt lat="43.64568" lon="1.37926">
        <ele>146</ele>
        <time>2025-03-25T18:37:03Z</time>
      </trkpt>
      <trkpt lat="43.64567" lon="1.37922">
        <ele>146</ele>
        <time>2025-03-25T18:37:04Z</time>
      </trkpt>
      <trkpt lat="43.64565" lon="1.37917">
        <ele>146</ele>
        <time>2025-03-25T18:37:05Z</time>
      </trkpt>
      <trkpt lat="43.64562" lon="1.37914">
        <ele>146</ele>
        <time>2025-03-25T18:37:06Z</time>
      </trkpt>
      <trkpt lat="43.6456" lon="1.3791">
        <ele>146</ele>
        <time>2025-03-25T18:37:07Z</time>
      </trkpt>
      <trkpt lat="43.64557" lon="1.37907">
        <ele>146</ele>
        <time>2025-03-25T18:37:08Z</time>
      </trkpt>
      <trkpt lat="43.64554" lon="1.37906">
        <ele>146</ele>
        <time>2025-03-25T18:37:09Z</time>
      </trkpt>
      <trkpt lat="43.6455" lon="1.37904">
        <ele>146</ele>
        <time>2025-03-25T18:37:10Z</time>
      </trkpt>
      <trkpt lat="43.64547" lon="1.37902">
        <ele>146</ele>
        <time>2025-03-25T18:37:11Z</time>
      </trkpt>
      <trkpt lat="43.64543" lon="1.37901">
        <ele>146</ele>
        <time>2025-03-25T18:37:12Z</time>
      </trkpt>
      <trkpt lat="43.64539" lon="1.37899">
        <ele>146</ele>
        <time>2025-03-25T18:37:13Z</time>
      </trkpt>
      <trkpt lat="43.64536" lon="1.37897">
        <ele>146</ele>
        <time>2025-03-25T18:37:14Z</time>
      </trkpt>
      <trkpt lat="43.64532" lon="1.37896">
        <ele>146</ele>
        <time>2025-03-25T18:37:15Z</time>
      </trkpt>
      <trkpt lat="43.64529" lon="1.37894">
        <ele>146</ele>
        <time>2025-03-25T18:37:16Z</time>
      </trkpt>
      <trkpt lat="43.64526" lon="1.37892">
        <ele>146</ele>
        <time>2025-03-25T18:37:17Z</time>
      </trkpt>
      <trkpt lat="43.64523" lon="1.3789">
        <ele>146</ele>
        <time>2025-03-25T18:37:18Z</time>
      </trkpt>
      <trkpt lat="43.6452" lon="1.37889">
        <ele>146</ele>
        <time>2025-03-25T18:37:19Z</time>
      </trkpt>
      <trkpt lat="43.64516" lon="1.37886">
        <ele>146</ele>
        <time>2025-03-25T18:37:20Z</time>
      </trkpt>
      <trkpt lat="43.64513" lon="1.37884">
        <ele>146</ele>
        <time>2025-03-25T18:37:21Z</time>
      </trkpt>
      <trkpt lat="43.64509" lon="1.37882">
        <ele>146</ele>
        <time>2025-03-25T18:37:22Z</time>
      </trkpt>
      <trkpt lat="43.64506" lon="1.3788">
        <ele>146</ele>
        <time>2025-03-25T18:37:23Z</time>
      </trkpt>
      <trkpt lat="43.64503" lon="1.37878">
        <ele>146</ele>
        <time>2025-03-25T18:37:24Z</time>
      </trkpt>
      <trkpt lat="43.64499" lon="1.37875">
        <ele>146</ele>
        <time>2025-03-25T18:37:25Z</time>
      </trkpt>
      <trkpt lat="43.64496" lon="1.37874">
        <ele>146</ele>
        <time>2025-03-25T18:37:26Z</time>
      </trkpt>
      <trkpt lat="43.64493" lon="1.37873">
        <ele>146</ele>
        <time>2025-03-25T18:37:27Z</time>
      </trkpt>
      <trkpt lat="43.6449" lon="1.37872">
        <ele>146</ele>
        <time>2025-03-25T18:37:28Z</time>
      </trkpt>
      <trkpt lat="43.64487" lon="1.37871">
        <ele>146</ele>
        <time>2025-03-25T18:37:29Z</time>
      </trkpt>
      <trkpt lat="43.64484" lon="1.37872">
        <ele>146</ele>
        <time>2025-03-25T18:37:30Z</time>
      </trkpt>
      <trkpt lat="43.64481" lon="1.37872">
        <ele>146</ele>
        <time>2025-03-25T18:37:31Z</time>
      </trkpt>
      <trkpt lat="43.64476" lon="1.37875">
        <ele>146</ele>
        <time>2025-03-25T18:37:32Z</time>
      </trkpt>
      <trkpt lat="43.64476" lon="1.37875">
        <ele>145</ele>
        <time>2025-03-25T18:37:33Z</time>
      </trkpt>
      <trkpt lat="43.64473" lon="1.37877">
        <ele>145</ele>
        <time>2025-03-25T18:37:34Z</time>
      </trkpt>
      <trkpt lat="43.64469" lon="1.37879">
        <ele>145</ele>
        <time>2025-03-25T18:37:35Z</time>
      </trkpt>
      <trkpt lat="43.64467" lon="1.37883">
        <ele>145</ele>
        <time>2025-03-25T18:37:36Z</time>
      </trkpt>
      <trkpt lat="43.64465" lon="1.37886">
        <ele>145</ele>
        <time>2025-03-25T18:37:37Z</time>
      </trkpt>
      <trkpt lat="43.64462" lon="1.3789">
        <ele>145</ele>
        <time>2025-03-25T18:37:38Z</time>
      </trkpt>
      <trkpt lat="43.64461" lon="1.37894">
        <ele>146</ele>
        <time>2025-03-25T18:37:39Z</time>
      </trkpt>
      <trkpt lat="43.64459" lon="1.37898">
        <ele>146</ele>
        <time>2025-03-25T18:37:40Z</time>
      </trkpt>
      <trkpt lat="43.64458" lon="1.37902">
        <ele>146</ele>
        <time>2025-03-25T18:37:41Z</time>
      </trkpt>
      <trkpt lat="43.64458" lon="1.37907">
        <ele>146</ele>
        <time>2025-03-25T18:37:42Z</time>
      </trkpt>
      <trkpt lat="43.64458" lon="1.37912">
        <ele>146</ele>
        <time>2025-03-25T18:37:43Z</time>
      </trkpt>
      <trkpt lat="43.64458" lon="1.37917">
        <ele>145</ele>
        <time>2025-03-25T18:37:44Z</time>
      </trkpt>
      <trkpt lat="43.64459" lon="1.37926">
        <ele>145</ele>
        <time>2025-03-25T18:37:45Z</time>
      </trkpt>
      <trkpt lat="43.64459" lon="1.37926">
        <ele>145</ele>
        <time>2025-03-25T18:37:46Z</time>
      </trkpt>
      <trkpt lat="43.6446" lon="1.3793">
        <ele>145</ele>
        <time>2025-03-25T18:37:47Z</time>
      </trkpt>
      <trkpt lat="43.64461" lon="1.37934">
        <ele>145</ele>
        <time>2025-03-25T18:37:48Z</time>
      </trkpt>
      <trkpt lat="43.64463" lon="1.37938">
        <ele>145</ele>
        <time>2025-03-25T18:37:49Z</time>
      </trkpt>
      <trkpt lat="43.64465" lon="1.37942">
        <ele>146</ele>
        <time>2025-03-25T18:37:50Z</time>
      </trkpt>
      <trkpt lat="43.64467" lon="1.37945">
        <ele>146</ele>
        <time>2025-03-25T18:37:51Z</time>
      </trkpt>
      <trkpt lat="43.6447" lon="1.37949">
        <ele>146</ele>
        <time>2025-03-25T18:37:52Z</time>
      </trkpt>
      <trkpt lat="43.64472" lon="1.37951">
        <ele>146</ele>
        <time>2025-03-25T18:37:53Z</time>
      </trkpt>
      <trkpt lat="43.64475" lon="1.37953">
        <ele>146</ele>
        <time>2025-03-25T18:37:54Z</time>
      </trkpt>
      <trkpt lat="43.64478" lon="1.37955">
        <ele>146</ele>
        <time>2025-03-25T18:37:55Z</time>
      </trkpt>
      <trkpt lat="43.6448" lon="1.37956">
        <ele>146</ele>
        <time>2025-03-25T18:37:56Z</time>
      </trkpt>
      <trkpt lat="43.64483" lon="1.37957">
        <ele>146</ele>
        <time>2025-03-25T18:37:57Z</time>
      </trkpt>
      <trkpt lat="43.64486" lon="1.37959">
        <ele>145</ele>
        <time>2025-03-25T18:37:58Z</time>
      </trkpt>
      <trkpt lat="43.6449" lon="1.3796">
        <ele>145</ele>
        <time>2025-03-25T18:37:59Z</time>
      </trkpt>
      <trkpt lat="43.64493" lon="1.37962">
        <ele>145</ele>
        <time>2025-03-25T18:38:00Z</time>
      </trkpt>
      <trkpt lat="43.64496" lon="1.37963">
        <ele>145</ele>
        <time>2025-03-25T18:38:01Z</time>
      </trkpt>
      <trkpt lat="43.64499" lon="1.37964">
        <ele>145</ele>
        <time>2025-03-25T18:38:02Z</time>
      </trkpt>
      <trkpt lat="43.64505" lon="1.37968">
        <ele>145</ele>
        <time>2025-03-25T18:38:03Z</time>
      </trkpt>
      <trkpt lat="43.64505" lon="1.37968">
        <ele>145</ele>
        <time>2025-03-25T18:38:04Z</time>
      </trkpt>
      <trkpt lat="43.64508" lon="1.3797">
        <ele>145</ele>
        <time>2025-03-25T18:38:05Z</time>
      </trkpt>
      <trkpt lat="43.64511" lon="1.37972">
        <ele>145</ele>
        <time>2025-03-25T18:38:06Z</time>
      </trkpt>
      <trkpt lat="43.64514" lon="1.37974">
        <ele>145</ele>
        <time>2025-03-25T18:38:07Z</time>
      </trkpt>
      <trkpt lat="43.64517" lon="1.37976">
        <ele>145</ele>
        <time>2025-03-25T18:38:08Z</time>
      </trkpt>
      <trkpt lat="43.6452" lon="1.37977">
        <ele>145</ele>
        <time>2025-03-25T18:38:09Z</time>
      </trkpt>
      <trkpt lat="43.64523" lon="1.37979">
        <ele>145</ele>
        <time>2025-03-25T18:38:10Z</time>
      </trkpt>
      <trkpt lat="43.64527" lon="1.37981">
        <ele>145</ele>
        <time>2025-03-25T18:38:11Z</time>
      </trkpt>
      <trkpt lat="43.6453" lon="1.37983">
        <ele>145</ele>
        <time>2025-03-25T18:38:12Z</time>
      </trkpt>
      <trkpt lat="43.64532" lon="1.37984">
        <ele>145</ele>
        <time>2025-03-25T18:38:13Z</time>
      </trkpt>
      <trkpt lat="43.64535" lon="1.37986">
        <ele>145</ele>
        <time>2025-03-25T18:38:14Z</time>
      </trkpt>
      <trkpt lat="43.64538" lon="1.37987">
        <ele>145</ele>
        <time>2025-03-25T18:38:15Z</time>
      </trkpt>
      <trkpt lat="43.64541" lon="1.37987">
        <ele>145</ele>
        <time>2025-03-25T18:38:16Z</time>
      </trkpt>
      <trkpt lat="43.64544" lon="1.37987">
        <ele>145</ele>
        <time>2025-03-25T18:38:17Z</time>
      </trkpt>
      <trkpt lat="43.64547" lon="1.37987">
        <ele>145</ele>
        <time>2025-03-25T18:38:18Z</time>
      </trkpt>
      <trkpt lat="43.6455" lon="1.37986">
        <ele>145</ele>
        <time>2025-03-25T18:38:19Z</time>
      </trkpt>
      <trkpt lat="43.64553" lon="1.37984">
        <ele>145</ele>
        <time>2025-03-25T18:38:20Z</time>
      </trkpt>
      <trkpt lat="43.64556" lon="1.37983">
        <ele>146</ele>
        <time>2025-03-25T18:38:21Z</time>
      </trkpt>
      <trkpt lat="43.64559" lon="1.37981">
        <ele>146</ele>
        <time>2025-03-25T18:38:22Z</time>
      </trkpt>
      <trkpt lat="43.64561" lon="1.37977">
        <ele>146</ele>
        <time>2025-03-25T18:38:23Z</time>
      </trkpt>
      <trkpt lat="43.64563" lon="1.37974">
        <ele>146</ele>
        <time>2025-03-25T18:38:24Z</time>
      </trkpt>
      <trkpt lat="43.64565" lon="1.37971">
        <ele>146</ele>
        <time>2025-03-25T18:38:25Z</time>
      </trkpt>
      <trkpt lat="43.64567" lon="1.37967">
        <ele>145</ele>
        <time>2025-03-25T18:38:26Z</time>
      </trkpt>
      <trkpt lat="43.64568" lon="1.37963">
        <ele>145</ele>
        <time>2025-03-25T18:38:27Z</time>
      </trkpt>
      <trkpt lat="43.64569" lon="1.37959">
        <ele>145</ele>
        <time>2025-03-25T18:38:28Z</time>
      </trkpt>
      <trkpt lat="43.64571" lon="1.37955">
        <ele>145</ele>
        <time>2025-03-25T18:38:29Z</time>
      </trkpt>
      <trkpt lat="43.6457" lon="1.3795">
        <ele>145</ele>
        <time>2025-03-25T18:38:30Z</time>
      </trkpt>
      <trkpt lat="43.6457" lon="1.37944">
        <ele>146</ele>
        <time>2025-03-25T18:38:31Z</time>
      </trkpt>
      <trkpt lat="43.64569" lon="1.37939">
        <ele>146</ele>
        <time>2025-03-25T18:38:32Z</time>
      </trkpt>
      <trkpt lat="43.64569" lon="1.37934">
        <ele>146</ele>
        <time>2025-03-25T18:38:33Z</time>
      </trkpt>
      <trkpt lat="43.64568" lon="1.3793">
        <ele>146</ele>
        <time>2025-03-25T18:38:34Z</time>
      </trkpt>
      <trkpt lat="43.64566" lon="1.37925">
        <ele>146</ele>
        <time>2025-03-25T18:38:35Z</time>
      </trkpt>
      <trkpt lat="43.64564" lon="1.37921">
        <ele>146</ele>
        <time>2025-03-25T18:38:36Z</time>
      </trkpt>
      <trkpt lat="43.64563" lon="1.37918">
        <ele>146</ele>
        <time>2025-03-25T18:38:37Z</time>
      </trkpt>
      <trkpt lat="43.6456" lon="1.37916">
        <ele>146</ele>
        <time>2025-03-25T18:38:38Z</time>
      </trkpt>
      <trkpt lat="43.64558" lon="1.37913">
        <ele>146</ele>
        <time>2025-03-25T18:38:39Z</time>
      </trkpt>
      <trkpt lat="43.64556" lon="1.37913">
        <ele>146</ele>
        <time>2025-03-25T18:38:40Z</time>
      </trkpt>
      <trkpt lat="43.64553" lon="1.37911">
        <ele>146</ele>
        <time>2025-03-25T18:38:41Z</time>
      </trkpt>
      <trkpt lat="43.6455" lon="1.37909">
        <ele>145</ele>
        <time>2025-03-25T18:38:42Z</time>
      </trkpt>
      <trkpt lat="43.64547" lon="1.37907">
        <ele>145</ele>
        <time>2025-03-25T18:38:43Z</time>
      </trkpt>
      <trkpt lat="43.64544" lon="1.37905">
        <ele>145</ele>
        <time>2025-03-25T18:38:44Z</time>
      </trkpt>
      <trkpt lat="43.64541" lon="1.37904">
        <ele>145</ele>
        <time>2025-03-25T18:38:45Z</time>
      </trkpt>
      <trkpt lat="43.64538" lon="1.37902">
        <ele>145</ele>
        <time>2025-03-25T18:38:46Z</time>
      </trkpt>
      <trkpt lat="43.64535" lon="1.379">
        <ele>145</ele>
        <time>2025-03-25T18:38:47Z</time>
      </trkpt>
      <trkpt lat="43.64532" lon="1.37898">
        <ele>145</ele>
        <time>2025-03-25T18:38:48Z</time>
      </trkpt>
      <trkpt lat="43.64529" lon="1.37896">
        <ele>145</ele>
        <time>2025-03-25T18:38:49Z</time>
      </trkpt>
      <trkpt lat="43.64526" lon="1.37894">
        <ele>145</ele>
        <time>2025-03-25T18:38:50Z</time>
      </trkpt>
      <trkpt lat="43.64523" lon="1.37892">
        <ele>146</ele>
        <time>2025-03-25T18:38:51Z</time>
      </trkpt>
      <trkpt lat="43.6452" lon="1.37891">
        <ele>146</ele>
        <time>2025-03-25T18:38:52Z</time>
      </trkpt>
      <trkpt lat="43.64518" lon="1.37889">
        <ele>146</ele>
        <time>2025-03-25T18:38:53Z</time>
      </trkpt>
      <trkpt lat="43.64514" lon="1.37888">
        <ele>146</ele>
        <time>2025-03-25T18:38:54Z</time>
      </trkpt>
      <trkpt lat="43.64511" lon="1.37886">
        <ele>146</ele>
        <time>2025-03-25T18:38:55Z</time>
      </trkpt>
      <trkpt lat="43.64508" lon="1.37884">
        <ele>145</ele>
        <time>2025-03-25T18:38:56Z</time>
      </trkpt>
      <trkpt lat="43.64505" lon="1.37881">
        <ele>145</ele>
        <time>2025-03-25T18:38:57Z</time>
      </trkpt>
      <trkpt lat="43.64502" lon="1.3788">
        <ele>145</ele>
        <time>2025-03-25T18:38:58Z</time>
      </trkpt>
      <trkpt lat="43.64499" lon="1.37878">
        <ele>145</ele>
        <time>2025-03-25T18:38:59Z</time>
      </trkpt>
      <trkpt lat="43.64497" lon="1.37876">
        <ele>145</ele>
        <time>2025-03-25T18:39:00Z</time>
      </trkpt>
      <trkpt lat="43.64494" lon="1.37874">
        <ele>145</ele>
        <time>2025-03-25T18:39:01Z</time>
      </trkpt>
      <trkpt lat="43.64492" lon="1.37873">
        <ele>145</ele>
        <time>2025-03-25T18:39:02Z</time>
      </trkpt>
      <trkpt lat="43.64489" lon="1.37872">
        <ele>145</ele>
        <time>2025-03-25T18:39:03Z</time>
      </trkpt>
      <trkpt lat="43.64486" lon="1.37872">
        <ele>145</ele>
        <time>2025-03-25T18:39:04Z</time>
      </trkpt>
      <trkpt lat="43.64484" lon="1.37872">
        <ele>145</ele>
        <time>2025-03-25T18:39:05Z</time>
      </trkpt>
      <trkpt lat="43.64481" lon="1.37873">
        <ele>145</ele>
        <time>2025-03-25T18:39:06Z</time>
      </trkpt>
      <trkpt lat="43.64478" lon="1.37874">
        <ele>145</ele>
        <time>2025-03-25T18:39:07Z</time>
      </trkpt>
      <trkpt lat="43.64476" lon="1.37875">
        <ele>145</ele>
        <time>2025-03-25T18:39:08Z</time>
      </trkpt>
      <trkpt lat="43.64472" lon="1.37878">
        <ele>145</ele>
        <time>2025-03-25T18:39:09Z</time>
      </trkpt>
      <trkpt lat="43.6447" lon="1.3788">
        <ele>145</ele>
        <time>2025-03-25T18:39:10Z</time>
      </trkpt>
      <trkpt lat="43.64467" lon="1.37883">
        <ele>145</ele>
        <time>2025-03-25T18:39:11Z</time>
      </trkpt>
      <trkpt lat="43.64465" lon="1.37886">
        <ele>145</ele>
        <time>2025-03-25T18:39:12Z</time>
      </trkpt>
      <trkpt lat="43.64463" lon="1.3789">
        <ele>145</ele>
        <time>2025-03-25T18:39:13Z</time>
      </trkpt>
      <trkpt lat="43.64461" lon="1.37894">
        <ele>145</ele>
        <time>2025-03-25T18:39:14Z</time>
      </trkpt>
      <trkpt lat="43.6446" lon="1.37897">
        <ele>145</ele>
        <time>2025-03-25T18:39:15Z</time>
      </trkpt>
      <trkpt lat="43.64458" lon="1.37901">
        <ele>145</ele>
        <time>2025-03-25T18:39:16Z</time>
      </trkpt>
      <trkpt lat="43.64458" lon="1.37905">
        <ele>145</ele>
        <time>2025-03-25T18:39:17Z</time>
      </trkpt>
      <trkpt lat="43.64457" lon="1.37909">
        <ele>144</ele>
        <time>2025-03-25T18:39:18Z</time>
      </trkpt>
      <trkpt lat="43.64456" lon="1.37913">
        <ele>144</ele>
        <time>2025-03-25T18:39:19Z</time>
      </trkpt>
      <trkpt lat="43.64457" lon="1.37916">
        <ele>144</ele>
        <time>2025-03-25T18:39:20Z</time>
      </trkpt>
      <trkpt lat="43.64457" lon="1.37922">
        <ele>144</ele>
        <time>2025-03-25T18:39:21Z</time>
      </trkpt>
      <trkpt lat="43.64457" lon="1.37924">
        <ele>144</ele>
        <time>2025-03-25T18:39:22Z</time>
      </trkpt>
      <trkpt lat="43.64459" lon="1.37928">
        <ele>144</ele>
        <time>2025-03-25T18:39:23Z</time>
      </trkpt>
      <trkpt lat="43.6446" lon="1.37932">
        <ele>144</ele>
        <time>2025-03-25T18:39:24Z</time>
      </trkpt>
      <trkpt lat="43.64461" lon="1.37936">
        <ele>144</ele>
        <time>2025-03-25T18:39:25Z</time>
      </trkpt>
      <trkpt lat="43.64463" lon="1.3794">
        <ele>145</ele>
        <time>2025-03-25T18:39:26Z</time>
      </trkpt>
      <trkpt lat="43.64465" lon="1.37944">
        <ele>145</ele>
        <time>2025-03-25T18:39:27Z</time>
      </trkpt>
      <trkpt lat="43.64467" lon="1.37947">
        <ele>145</ele>
        <time>2025-03-25T18:39:28Z</time>
      </trkpt>
      <trkpt lat="43.6447" lon="1.37949">
        <ele>145</ele>
        <time>2025-03-25T18:39:29Z</time>
      </trkpt>
      <trkpt lat="43.64473" lon="1.37951">
        <ele>145</ele>
        <time>2025-03-25T18:39:30Z</time>
      </trkpt>
      <trkpt lat="43.64476" lon="1.37953">
        <ele>145</ele>
        <time>2025-03-25T18:39:31Z</time>
      </trkpt>
      <trkpt lat="43.64479" lon="1.37955">
        <ele>146</ele>
        <time>2025-03-25T18:39:32Z</time>
      </trkpt>
      <trkpt lat="43.64481" lon="1.37956">
        <ele>146</ele>
        <time>2025-03-25T18:39:33Z</time>
      </trkpt>
      <trkpt lat="43.64484" lon="1.37958">
        <ele>146</ele>
        <time>2025-03-25T18:39:34Z</time>
      </trkpt>
      <trkpt lat="43.64486" lon="1.37959">
        <ele>146</ele>
        <time>2025-03-25T18:39:35Z</time>
      </trkpt>
      <trkpt lat="43.64489" lon="1.3796">
        <ele>146</ele>
        <time>2025-03-25T18:39:36Z</time>
      </trkpt>
      <trkpt lat="43.64492" lon="1.37961">
        <ele>146</ele>
        <time>2025-03-25T18:39:37Z</time>
      </trkpt>
      <trkpt lat="43.64495" lon="1.37963">
        <ele>146</ele>
        <time>2025-03-25T18:39:38Z</time>
      </trkpt>
      <trkpt lat="43.64497" lon="1.37964">
        <ele>146</ele>
        <time>2025-03-25T18:39:39Z</time>
      </trkpt>
      <trkpt lat="43.645" lon="1.37966">
        <ele>146</ele>
        <time>2025-03-25T18:39:40Z</time>
      </trkpt>
      <trkpt lat="43.64503" lon="1.37968">
        <ele>146</ele>
        <time>2025-03-25T18:39:41Z</time>
      </trkpt>
      <trkpt lat="43.64506" lon="1.3797">
        <ele>146</ele>
        <time>2025-03-25T18:39:42Z</time>
      </trkpt>
      <trkpt lat="43.64509" lon="1.37972">
        <ele>146</ele>
        <time>2025-03-25T18:39:43Z</time>
      </trkpt>
      <trkpt lat="43.64511" lon="1.37973">
        <ele>146</ele>
        <time>2025-03-25T18:39:44Z</time>
      </trkpt>
      <trkpt lat="43.64514" lon="1.37975">
        <ele>146</ele>
        <time>2025-03-25T18:39:45Z</time>
      </trkpt>
      <trkpt lat="43.64517" lon="1.37977">
        <ele>146</ele>
        <time>2025-03-25T18:39:46Z</time>
      </trkpt>
      <trkpt lat="43.6452" lon="1.37978">
        <ele>146</ele>
        <time>2025-03-25T18:39:47Z</time>
      </trkpt>
      <trkpt lat="43.64524" lon="1.3798">
        <ele>146</ele>
        <time>2025-03-25T18:39:48Z</time>
      </trkpt>
      <trkpt lat="43.64527" lon="1.37982">
        <ele>146</ele>
        <time>2025-03-25T18:39:49Z</time>
      </trkpt>
      <trkpt lat="43.6453" lon="1.37983">
        <ele>146</ele>
        <time>2025-03-25T18:39:50Z</time>
      </trkpt>
      <trkpt lat="43.64533" lon="1.37984">
        <ele>146</ele>
        <time>2025-03-25T18:39:51Z</time>
      </trkpt>
      <trkpt lat="43.64537" lon="1.37985">
        <ele>146</ele>
        <time>2025-03-25T18:39:52Z</time>
      </trkpt>
      <trkpt lat="43.6454" lon="1.37985">
        <ele>146</ele>
        <time>2025-03-25T18:39:53Z</time>
      </trkpt>
      <trkpt lat="43.64542" lon="1.37986">
        <ele>146</ele>
        <time>2025-03-25T18:39:54Z</time>
      </trkpt>
      <trkpt lat="43.64545" lon="1.37986">
        <ele>146</ele>
        <time>2025-03-25T18:39:55Z</time>
      </trkpt>
      <trkpt lat="43.64547" lon="1.37986">
        <ele>146</ele>
        <time>2025-03-25T18:39:56Z</time>
      </trkpt>
      <trkpt lat="43.64553" lon="1.37985">
        <ele>146</ele>
        <time>2025-03-25T18:39:57Z</time>
      </trkpt>
      <trkpt lat="43.64553" lon="1.37985">
        <ele>146</ele>
        <time>2025-03-25T18:39:58Z</time>
      </trkpt>
      <trkpt lat="43.64555" lon="1.37983">
        <ele>146</ele>
        <time>2025-03-25T18:39:59Z</time>
      </trkpt>
      <trkpt lat="43.64557" lon="1.37981">
        <ele>146</ele>
        <time>2025-03-25T18:40:00Z</time>
      </trkpt>
      <trkpt lat="43.64559" lon="1.37979">
        <ele>146</ele>
        <time>2025-03-25T18:40:01Z</time>
      </trkpt>
      <trkpt lat="43.64562" lon="1.37977">
        <ele>146</ele>
        <time>2025-03-25T18:40:02Z</time>
      </trkpt>
      <trkpt lat="43.64564" lon="1.37975">
        <ele>146</ele>
        <time>2025-03-25T18:40:03Z</time>
      </trkpt>
      <trkpt lat="43.64566" lon="1.37972">
        <ele>146</ele>
        <time>2025-03-25T18:40:04Z</time>
      </trkpt>
      <trkpt lat="43.64567" lon="1.37969">
        <ele>146</ele>
        <time>2025-03-25T18:40:05Z</time>
      </trkpt>
      <trkpt lat="43.64568" lon="1.37965">
        <ele>146</ele>
        <time>2025-03-25T18:40:06Z</time>
      </trkpt>
      <trkpt lat="43.64569" lon="1.3796">
        <ele>146</ele>
        <time>2025-03-25T18:40:07Z</time>
      </trkpt>
      <trkpt lat="43.64569" lon="1.37955">
        <ele>146</ele>
        <time>2025-03-25T18:40:08Z</time>
      </trkpt>
      <trkpt lat="43.6457" lon="1.3795">
        <ele>146</ele>
        <time>2025-03-25T18:40:09Z</time>
      </trkpt>
      <trkpt lat="43.6457" lon="1.37943">
        <ele>146</ele>
        <time>2025-03-25T18:40:10Z</time>
      </trkpt>
      <trkpt lat="43.64569" lon="1.3794">
        <ele>146</ele>
        <time>2025-03-25T18:40:11Z</time>
      </trkpt>
      <trkpt lat="43.64569" lon="1.37935">
        <ele>146</ele>
        <time>2025-03-25T18:40:12Z</time>
      </trkpt>
      <trkpt lat="43.64568" lon="1.37931">
        <ele>147</ele>
        <time>2025-03-25T18:40:13Z</time>
      </trkpt>
      <trkpt lat="43.64567" lon="1.37927">
        <ele>147</ele>
        <time>2025-03-25T18:40:14Z</time>
      </trkpt>
      <trkpt lat="43.64565" lon="1.37922">
        <ele>147</ele>
        <time>2025-03-25T18:40:15Z</time>
      </trkpt>
      <trkpt lat="43.64563" lon="1.37919">
        <ele>146</ele>
        <time>2025-03-25T18:40:16Z</time>
      </trkpt>
      <trkpt lat="43.64561" lon="1.37917">
        <ele>146</ele>
        <time>2025-03-25T18:40:17Z</time>
      </trkpt>
      <trkpt lat="43.64559" lon="1.37913">
        <ele>146</ele>
        <time>2025-03-25T18:40:18Z</time>
      </trkpt>
      <trkpt lat="43.64557" lon="1.37911">
        <ele>146</ele>
        <time>2025-03-25T18:40:19Z</time>
      </trkpt>
      <trkpt lat="43.64554" lon="1.37909">
        <ele>146</ele>
        <time>2025-03-25T18:40:20Z</time>
      </trkpt>
      <trkpt lat="43.64551" lon="1.37907">
        <ele>146</ele>
        <time>2025-03-25T18:40:21Z</time>
      </trkpt>
      <trkpt lat="43.64548" lon="1.37905">
        <ele>146</ele>
        <time>2025-03-25T18:40:22Z</time>
      </trkpt>
      <trkpt lat="43.64546" lon="1.37904">
        <ele>146</ele>
        <time>2025-03-25T18:40:23Z</time>
      </trkpt>
      <trkpt lat="43.64543" lon="1.37903">
        <ele>146</ele>
        <time>2025-03-25T18:40:24Z</time>
      </trkpt>
      <trkpt lat="43.6454" lon="1.37902">
        <ele>146</ele>
        <time>2025-03-25T18:40:25Z</time>
      </trkpt>
      <trkpt lat="43.64537" lon="1.379">
        <ele>146</ele>
        <time>2025-03-25T18:40:26Z</time>
      </trkpt>
      <trkpt lat="43.64534" lon="1.37899">
        <ele>146</ele>
        <time>2025-03-25T18:40:27Z</time>
      </trkpt>
      <trkpt lat="43.64531" lon="1.37898">
        <ele>146</ele>
        <time>2025-03-25T18:40:28Z</time>
      </trkpt>
      <trkpt lat="43.64528" lon="1.37896">
        <ele>146</ele>
        <time>2025-03-25T18:40:29Z</time>
      </trkpt>
      <trkpt lat="43.64525" lon="1.37895">
        <ele>146</ele>
        <time>2025-03-25T18:40:30Z</time>
      </trkpt>
      <trkpt lat="43.64522" lon="1.37893">
        <ele>146</ele>
        <time>2025-03-25T18:40:31Z</time>
      </trkpt>
      <trkpt lat="43.6452" lon="1.37891">
        <ele>146</ele>
        <time>2025-03-25T18:40:32Z</time>
      </trkpt>
      <trkpt lat="43.64516" lon="1.3789">
        <ele>146</ele>
        <time>2025-03-25T18:40:33Z</time>
      </trkpt>
      <trkpt lat="43.64513" lon="1.37888">
        <ele>146</ele>
        <time>2025-03-25T18:40:34Z</time>
      </trkpt>
      <trkpt lat="43.64511" lon="1.37886">
        <ele>146</ele>
        <time>2025-03-25T18:40:35Z</time>
      </trkpt>
      <trkpt lat="43.64508" lon="1.37885">
        <ele>146</ele>
        <time>2025-03-25T18:40:36Z</time>
      </trkpt>
      <trkpt lat="43.64505" lon="1.37883">
        <ele>146</ele>
        <time>2025-03-25T18:40:37Z</time>
      </trkpt>
      <trkpt lat="43.64503" lon="1.37881">
        <ele>146</ele>
        <time>2025-03-25T18:40:38Z</time>
      </trkpt>
      <trkpt lat="43.645" lon="1.3788">
        <ele>146</ele>
        <time>2025-03-25T18:40:39Z</time>
      </trkpt>
      <trkpt lat="43.64497" lon="1.37878">
        <ele>146</ele>
        <time>2025-03-25T18:40:40Z</time>
      </trkpt>
      <trkpt lat="43.64494" lon="1.37876">
        <ele>146</ele>
        <time>2025-03-25T18:40:41Z</time>
      </trkpt>
      <trkpt lat="43.64492" lon="1.37875">
        <ele>146</ele>
        <time>2025-03-25T18:40:42Z</time>
      </trkpt>
      <trkpt lat="43.64489" lon="1.37876">
        <ele>146</ele>
        <time>2025-03-25T18:40:43Z</time>
      </trkpt>
      <trkpt lat="43.64485" lon="1.37876">
        <ele>146</ele>
        <time>2025-03-25T18:40:44Z</time>
      </trkpt>
      <trkpt lat="43.64483" lon="1.37877">
        <ele>146</ele>
        <time>2025-03-25T18:40:45Z</time>
      </trkpt>
      <trkpt lat="43.6448" lon="1.37878">
        <ele>146</ele>
        <time>2025-03-25T18:40:46Z</time>
      </trkpt>
      <trkpt lat="43.64477" lon="1.37879">
        <ele>146</ele>
        <time>2025-03-25T18:40:47Z</time>
      </trkpt>
      <trkpt lat="43.64474" lon="1.3788">
        <ele>146</ele>
        <time>2025-03-25T18:40:48Z</time>
      </trkpt>
      <trkpt lat="43.64471" lon="1.37881">
        <ele>146</ele>
        <time>2025-03-25T18:40:49Z</time>
      </trkpt>
      <trkpt lat="43.64469" lon="1.37883">
        <ele>146</ele>
        <time>2025-03-25T18:40:50Z</time>
      </trkpt>
      <trkpt lat="43.64467" lon="1.37885">
        <ele>146</ele>
        <time>2025-03-25T18:40:51Z</time>
      </trkpt>
      <trkpt lat="43.64465" lon="1.37888">
        <ele>146</ele>
        <time>2025-03-25T18:40:52Z</time>
      </trkpt>
      <trkpt lat="43.64463" lon="1.37891">
        <ele>146</ele>
        <time>2025-03-25T18:40:53Z</time>
      </trkpt>
      <trkpt lat="43.64462" lon="1.37894">
        <ele>146</ele>
        <time>2025-03-25T18:40:54Z</time>
      </trkpt>
      <trkpt lat="43.6446" lon="1.37898">
        <ele>146</ele>
        <time>2025-03-25T18:40:55Z</time>
      </trkpt>
      <trkpt lat="43.64459" lon="1.37902">
        <ele>146</ele>
        <time>2025-03-25T18:40:56Z</time>
      </trkpt>
      <trkpt lat="43.64458" lon="1.37906">
        <ele>146</ele>
        <time>2025-03-25T18:40:57Z</time>
      </trkpt>
      <trkpt lat="43.64458" lon="1.37909">
        <ele>146</ele>
        <time>2025-03-25T18:40:58Z</time>
      </trkpt>
      <trkpt lat="43.64458" lon="1.37913">
        <ele>146</ele>
        <time>2025-03-25T18:40:59Z</time>
      </trkpt>
      <trkpt lat="43.64458" lon="1.37917">
        <ele>147</ele>
        <time>2025-03-25T18:41:00Z</time>
      </trkpt>
      <trkpt lat="43.64458" lon="1.37921">
        <ele>147</ele>
        <time>2025-03-25T18:41:01Z</time>
      </trkpt>
      <trkpt lat="43.64458" lon="1.37924">
        <ele>146</ele>
        <time>2025-03-25T18:41:02Z</time>
      </trkpt>
      <trkpt lat="43.64459" lon="1.37928">
        <ele>146</ele>
        <time>2025-03-25T18:41:03Z</time>
      </trkpt>
      <trkpt lat="43.6446" lon="1.37932">
        <ele>146</ele>
        <time>2025-03-25T18:41:04Z</time>
      </trkpt>
      <trkpt lat="43.64461" lon="1.37935">
        <ele>146</ele>
        <time>2025-03-25T18:41:05Z</time>
      </trkpt>
      <trkpt lat="43.64462" lon="1.37939">
        <ele>146</ele>
        <time>2025-03-25T18:41:06Z</time>
      </trkpt>
      <trkpt lat="43.64464" lon="1.37942">
        <ele>146</ele>
        <time>2025-03-25T18:41:07Z</time>
      </trkpt>
      <trkpt lat="43.64466" lon="1.37944">
        <ele>146</ele>
        <time>2025-03-25T18:41:08Z</time>
      </trkpt>
      <trkpt lat="43.64468" lon="1.37947">
        <ele>146</ele>
        <time>2025-03-25T18:41:09Z</time>
      </trkpt>
      <trkpt lat="43.6447" lon="1.3795">
        <ele>146</ele>
        <time>2025-03-25T18:41:10Z</time>
      </trkpt>
      <trkpt lat="43.64473" lon="1.37952">
        <ele>146</ele>
        <time>2025-03-25T18:41:11Z</time>
      </trkpt>
      <trkpt lat="43.64476" lon="1.37954">
        <ele>146</ele>
        <time>2025-03-25T18:41:12Z</time>
      </trkpt>
      <trkpt lat="43.64478" lon="1.37955">
        <ele>146</ele>
        <time>2025-03-25T18:41:13Z</time>
      </trkpt>
      <trkpt lat="43.64481" lon="1.37956">
        <ele>146</ele>
        <time>2025-03-25T18:41:14Z</time>
      </trkpt>
      <trkpt lat="43.64484" lon="1.37957">
        <ele>146</ele>
        <time>2025-03-25T18:41:15Z</time>
      </trkpt>
      <trkpt lat="43.64486" lon="1.37958">
        <ele>146</ele>
        <time>2025-03-25T18:41:16Z</time>
      </trkpt>
      <trkpt lat="43.64489" lon="1.3796">
        <ele>146</ele>
        <time>2025-03-25T18:41:17Z</time>
      </trkpt>
      <trkpt lat="43.64491" lon="1.37961">
        <ele>146</ele>
        <time>2025-03-25T18:41:18Z</time>
      </trkpt>
      <trkpt lat="43.64494" lon="1.37963">
        <ele>146</ele>
        <time>2025-03-25T18:41:19Z</time>
      </trkpt>
      <trkpt lat="43.64497" lon="1.37965">
        <ele>146</ele>
        <time>2025-03-25T18:41:20Z</time>
      </trkpt>
      <trkpt lat="43.64499" lon="1.37967">
        <ele>146</ele>
        <time>2025-03-25T18:41:21Z</time>
      </trkpt>
      <trkpt lat="43.64503" lon="1.37969">
        <ele>146</ele>
        <time>2025-03-25T18:41:22Z</time>
      </trkpt>
      <trkpt lat="43.64506" lon="1.37971">
        <ele>146</ele>
        <time>2025-03-25T18:41:23Z</time>
      </trkpt>
      <trkpt lat="43.64508" lon="1.37972">
        <ele>145</ele>
        <time>2025-03-25T18:41:24Z</time>
      </trkpt>
      <trkpt lat="43.64511" lon="1.37974">
        <ele>145</ele>
        <time>2025-03-25T18:41:25Z</time>
      </trkpt>
      <trkpt lat="43.64514" lon="1.37976">
        <ele>145</ele>
        <time>2025-03-25T18:41:26Z</time>
      </trkpt>
      <trkpt lat="43.64517" lon="1.37978">
        <ele>146</ele>
        <time>2025-03-25T18:41:27Z</time>
      </trkpt>
      <trkpt lat="43.6452" lon="1.3798">
        <ele>146</ele>
        <time>2025-03-25T18:41:28Z</time>
      </trkpt>
      <trkpt lat="43.64523" lon="1.37982">
        <ele>146</ele>
        <time>2025-03-25T18:41:29Z</time>
      </trkpt>
      <trkpt lat="43.64526" lon="1.37984">
        <ele>146</ele>
        <time>2025-03-25T18:41:30Z</time>
      </trkpt>
      <trkpt lat="43.64528" lon="1.37986">
        <ele>146</ele>
        <time>2025-03-25T18:41:31Z</time>
      </trkpt>
      <trkpt lat="43.64528" lon="1.37986">
        <ele>146</ele>
        <time>2025-03-25T18:41:32Z</time>
      </trkpt>
      <trkpt lat="43.6453" lon="1.37987">
        <ele>146</ele>
        <time>2025-03-25T18:41:33Z</time>
      </trkpt>
      <trkpt lat="43.6453" lon="1.37987">
        <ele>146</ele>
        <time>2025-03-25T18:41:34Z</time>
      </trkpt>
      <trkpt lat="43.64532" lon="1.37988">
        <ele>146</ele>
        <time>2025-03-25T18:41:35Z</time>
      </trkpt>
      <trkpt lat="43.64532" lon="1.37988">
        <ele>146</ele>
        <time>2025-03-25T18:41:36Z</time>
      </trkpt>
      <trkpt lat="43.64535" lon="1.3799">
        <ele>146</ele>
        <time>2025-03-25T18:41:37Z</time>
      </trkpt>
      <trkpt lat="43.64535" lon="1.3799">
        <ele>146</ele>
        <time>2025-03-25T18:41:38Z</time>
      </trkpt>
      <trkpt lat="43.64537" lon="1.37991">
        <ele>146</ele>
        <time>2025-03-25T18:41:39Z</time>
      </trkpt>
      <trkpt lat="43.64537" lon="1.37991">
        <ele>146</ele>
        <time>2025-03-25T18:41:40Z</time>
      </trkpt>
      <trkpt lat="43.64539" lon="1.37991">
        <ele>146</ele>
        <time>2025-03-25T18:41:41Z</time>
      </trkpt>
      <trkpt lat="43.64539" lon="1.37991">
        <ele>146</ele>
        <time>2025-03-25T18:41:42Z</time>
      </trkpt>
      <trkpt lat="43.64541" lon="1.37991">
        <ele>146</ele>
        <time>2025-03-25T18:41:43Z</time>
      </trkpt>
      <trkpt lat="43.64541" lon="1.37991">
        <ele>146</ele>
        <time>2025-03-25T18:41:44Z</time>
      </trkpt>
      <trkpt lat="43.64541" lon="1.37991">
        <ele>146</ele>
        <time>2025-03-25T18:41:45Z</time>
      </trkpt>
      <trkpt lat="43.64544" lon="1.3799">
        <ele>146</ele>
        <time>2025-03-25T18:41:46Z</time>
      </trkpt>
      <trkpt lat="43.64544" lon="1.3799">
        <ele>146</ele>
        <time>2025-03-25T18:41:47Z</time>
      </trkpt>
      <trkpt lat="43.64544" lon="1.3799">
        <ele>147</ele>
        <time>2025-03-25T18:41:48Z</time>
      </trkpt>
      <trkpt lat="43.64544" lon="1.3799">
        <ele>147</ele>
        <time>2025-03-25T18:41:49Z</time>
      </trkpt>
      <trkpt lat="43.64544" lon="1.3799">
        <ele>147</ele>
        <time>2025-03-25T18:41:50Z</time>
      </trkpt>
      <trkpt lat="43.64544" lon="1.3799">
        <ele>147</ele>
        <time>2025-03-25T18:41:51Z</time>
      </trkpt>
      <trkpt lat="43.64544" lon="1.3799">
        <ele>147</ele>
        <time>2025-03-25T18:41:52Z</time>
      </trkpt>
      <trkpt lat="43.64544" lon="1.3799">
        <ele>147</ele>
        <time>2025-03-25T18:41:53Z</time>
      </trkpt>
      <trkpt lat="43.64544" lon="1.3799">
        <ele>147</ele>
        <time>2025-03-25T18:41:54Z</time>
      </trkpt>
      <trkpt lat="43.64544" lon="1.3799">
        <ele>147</ele>
        <time>2025-03-25T18:41:55Z</time>
      </trkpt>
      <trkpt lat="43.64544" lon="1.3799">
        <ele>147</ele>
        <time>2025-03-25T18:41:56Z</time>
      </trkpt>
      <trkpt lat="43.64544" lon="1.3799">
        <ele>147</ele>
        <time>2025-03-25T18:41:57Z</time>
      </trkpt>
      <trkpt lat="43.64544" lon="1.3799">
        <ele>147</ele>
        <time>2025-03-25T18:41:58Z</time>
      </trkpt>
      <trkpt lat="43.64544" lon="1.3799">
        <ele>147</ele>
        <time>2025-03-25T18:41:59Z</time>
      </trkpt>
      <trkpt lat="43.64544" lon="1.3799">
        <ele>146</ele>
        <time>2025-03-25T18:42:00Z</time>
      </trkpt>
      <trkpt lat="43.64542" lon="1.37988">
        <ele>146</ele>
        <time>2025-03-25T18:42:01Z</time>
      </trkpt>
      <trkpt lat="43.64542" lon="1.37988">
        <ele>146</ele>
        <time>2025-03-25T18:42:02Z</time>
      </trkpt>
      <trkpt lat="43.64542" lon="1.37988">
        <ele>146</ele>
        <time>2025-03-25T18:42:03Z</time>
      </trkpt>
      <trkpt lat="43.6454" lon="1.37988">
        <ele>146</ele>
        <time>2025-03-25T18:42:04Z</time>
      </trkpt>
      <trkpt lat="43.6454" lon="1.37988">
        <ele>146</ele>
        <time>2025-03-25T18:42:05Z</time>
      </trkpt>
      <trkpt lat="43.6454" lon="1.37988">
        <ele>146</ele>
        <time>2025-03-25T18:42:06Z</time>
      </trkpt>
      <trkpt lat="43.64538" lon="1.37989">
        <ele>146</ele>
        <time>2025-03-25T18:42:07Z</time>
      </trkpt>
      <trkpt lat="43.64538" lon="1.37989">
        <ele>146</ele>
        <time>2025-03-25T18:42:08Z</time>
      </trkpt>
      <trkpt lat="43.64538" lon="1.37989">
        <ele>146</ele>
        <time>2025-03-25T18:42:09Z</time>
      </trkpt>
      <trkpt lat="43.64535" lon="1.3799">
        <ele>146</ele>
        <time>2025-03-25T18:42:10Z</time>
      </trkpt>
      <trkpt lat="43.64535" lon="1.3799">
        <ele>146</ele>
        <time>2025-03-25T18:42:11Z</time>
      </trkpt>
      <trkpt lat="43.64533" lon="1.37991">
        <ele>146</ele>
        <time>2025-03-25T18:42:12Z</time>
      </trkpt>
      <trkpt lat="43.64533" lon="1.37991">
        <ele>146</ele>
        <time>2025-03-25T18:42:13Z</time>
      </trkpt>
      <trkpt lat="43.64533" lon="1.37991">
        <ele>146</ele>
        <time>2025-03-25T18:42:14Z</time>
      </trkpt>
      <trkpt lat="43.64532" lon="1.37993">
        <ele>146</ele>
        <time>2025-03-25T18:42:15Z</time>
      </trkpt>
      <trkpt lat="43.64532" lon="1.37993">
        <ele>146</ele>
        <time>2025-03-25T18:42:16Z</time>
      </trkpt>
      <trkpt lat="43.64532" lon="1.37993">
        <ele>146</ele>
        <time>2025-03-25T18:42:17Z</time>
      </trkpt>
      <trkpt lat="43.64533" lon="1.37996">
        <ele>146</ele>
        <time>2025-03-25T18:42:18Z</time>
      </trkpt>
      <trkpt lat="43.64533" lon="1.37996">
        <ele>146</ele>
        <time>2025-03-25T18:42:19Z</time>
      </trkpt>
      <trkpt lat="43.64533" lon="1.37996">
        <ele>146</ele>
        <time>2025-03-25T18:42:20Z</time>
      </trkpt>
      <trkpt lat="43.64533" lon="1.37996">
        <ele>146</ele>
        <time>2025-03-25T18:42:21Z</time>
      </trkpt>
      <trkpt lat="43.64535" lon="1.37996">
        <ele>146</ele>
        <time>2025-03-25T18:42:22Z</time>
      </trkpt>
      <trkpt lat="43.64535" lon="1.37996">
        <ele>146</ele>
        <time>2025-03-25T18:42:23Z</time>
      </trkpt>
      <trkpt lat="43.64537" lon="1.37995">
        <ele>146</ele>
        <time>2025-03-25T18:42:24Z</time>
      </trkpt>
      <trkpt lat="43.64537" lon="1.37995">
        <ele>146</ele>
        <time>2025-03-25T18:42:25Z</time>
      </trkpt>
      <trkpt lat="43.64537" lon="1.37995">
        <ele>146</ele>
        <time>2025-03-25T18:42:26Z</time>
      </trkpt>
      <trkpt lat="43.64537" lon="1.37995">
        <ele>146</ele>
        <time>2025-03-25T18:42:27Z</time>
      </trkpt>
      <trkpt lat="43.64537" lon="1.37995">
        <ele>146</ele>
        <time>2025-03-25T18:42:28Z</time>
      </trkpt>
      <trkpt lat="43.64537" lon="1.37995">
        <ele>146</ele>
        <time>2025-03-25T18:42:29Z</time>
      </trkpt>
      <trkpt lat="43.64539" lon="1.37994">
        <ele>146</ele>
        <time>2025-03-25T18:42:30Z</time>
      </trkpt>
      <trkpt lat="43.64539" lon="1.37994">
        <ele>146</ele>
        <time>2025-03-25T18:42:31Z</time>
      </trkpt>
      <trkpt lat="43.64539" lon="1.37994">
        <ele>146</ele>
        <time>2025-03-25T18:42:32Z</time>
      </trkpt>
      <trkpt lat="43.64541" lon="1.37994">
        <ele>146</ele>
        <time>2025-03-25T18:42:33Z</time>
      </trkpt>
      <trkpt lat="43.64541" lon="1.37994">
        <ele>146</ele>
        <time>2025-03-25T18:42:34Z</time>
      </trkpt>
      <trkpt lat="43.64541" lon="1.37994">
        <ele>146</ele>
        <time>2025-03-25T18:42:35Z</time>
      </trkpt>
      <trkpt lat="43.64543" lon="1.37992">
        <ele>146</ele>
        <time>2025-03-25T18:42:36Z</time>
      </trkpt>
      <trkpt lat="43.64543" lon="1.37992">
        <ele>146</ele>
        <time>2025-03-25T18:42:37Z</time>
      </trkpt>
      <trkpt lat="43.64545" lon="1.37991">
        <ele>146</ele>
        <time>2025-03-25T18:42:38Z</time>
      </trkpt>
      <trkpt lat="43.64545" lon="1.37991">
        <ele>146</ele>
        <time>2025-03-25T18:42:39Z</time>
      </trkpt>
      <trkpt lat="43.64548" lon="1.37991">
        <ele>146</ele>
        <time>2025-03-25T18:42:40Z</time>
      </trkpt>
      <trkpt lat="43.64548" lon="1.37991">
        <ele>146</ele>
        <time>2025-03-25T18:42:41Z</time>
      </trkpt>
      <trkpt lat="43.64548" lon="1.37991">
        <ele>146</ele>
        <time>2025-03-25T18:42:42Z</time>
      </trkpt>
      <trkpt lat="43.64549" lon="1.37992">
        <ele>146</ele>
        <time>2025-03-25T18:42:43Z</time>
      </trkpt>
      <trkpt lat="43.64549" lon="1.37992">
        <ele>145</ele>
        <time>2025-03-25T18:42:44Z</time>
      </trkpt>
      <trkpt lat="43.64549" lon="1.37992">
        <ele>145</ele>
        <time>2025-03-25T18:42:45Z</time>
      </trkpt>
      <trkpt lat="43.64551" lon="1.37989">
        <ele>145</ele>
        <time>2025-03-25T18:42:46Z</time>
      </trkpt>
      <trkpt lat="43.64551" lon="1.37989">
        <ele>145</ele>
        <time>2025-03-25T18:42:47Z</time>
      </trkpt>
      <trkpt lat="43.6455" lon="1.37986">
        <ele>145</ele>
        <time>2025-03-25T18:42:48Z</time>
      </trkpt>
      <trkpt lat="43.6455" lon="1.37986">
        <ele>145</ele>
        <time>2025-03-25T18:42:49Z</time>
      </trkpt>
      <trkpt lat="43.6455" lon="1.37986">
        <ele>145</ele>
        <time>2025-03-25T18:42:50Z</time>
      </trkpt>
      <trkpt lat="43.6455" lon="1.37986">
        <ele>145</ele>
        <time>2025-03-25T18:42:51Z</time>
      </trkpt>
      <trkpt lat="43.6455" lon="1.37986">
        <ele>145</ele>
        <time>2025-03-25T18:42:52Z</time>
      </trkpt>
      <trkpt lat="43.6455" lon="1.37986">
        <ele>145</ele>
        <time>2025-03-25T18:42:53Z</time>
      </trkpt>
      <trkpt lat="43.64548" lon="1.37986">
        <ele>145</ele>
        <time>2025-03-25T18:42:54Z</time>
      </trkpt>
      <trkpt lat="43.64548" lon="1.37986">
        <ele>145</ele>
        <time>2025-03-25T18:42:55Z</time>
      </trkpt>
      <trkpt lat="43.64548" lon="1.37986">
        <ele>145</ele>
        <time>2025-03-25T18:42:56Z</time>
      </trkpt>
      <trkpt lat="43.64547" lon="1.37989">
        <ele>145</ele>
        <time>2025-03-25T18:42:57Z</time>
      </trkpt>
      <trkpt lat="43.64547" lon="1.37989">
        <ele>145</ele>
        <time>2025-03-25T18:42:58Z</time>
      </trkpt>
      <trkpt lat="43.64547" lon="1.37989">
        <ele>145</ele>
        <time>2025-03-25T18:42:59Z</time>
      </trkpt>
      <trkpt lat="43.64544" lon="1.3799">
        <ele>145</ele>
        <time>2025-03-25T18:43:00Z</time>
      </trkpt>
      <trkpt lat="43.64544" lon="1.3799">
        <ele>145</ele>
        <time>2025-03-25T18:43:01Z</time>
      </trkpt>
      <trkpt lat="43.64544" lon="1.3799">
        <ele>145</ele>
        <time>2025-03-25T18:43:02Z</time>
      </trkpt>
      <trkpt lat="43.64544" lon="1.3799">
        <ele>145</ele>
        <time>2025-03-25T18:43:03Z</time>
      </trkpt>
      <trkpt lat="43.64544" lon="1.3799">
        <ele>145</ele>
        <time>2025-03-25T18:43:04Z</time>
      </trkpt>
      <trkpt lat="43.64544" lon="1.3799">
        <ele>145</ele>
        <time>2025-03-25T18:43:05Z</time>
      </trkpt>
      <trkpt lat="43.64544" lon="1.3799">
        <ele>145</ele>
        <time>2025-03-25T18:43:06Z</time>
      </trkpt>
      <trkpt lat="43.64544" lon="1.3799">
        <ele>145</ele>
        <time>2025-03-25T18:43:07Z</time>
      </trkpt>
      <trkpt lat="43.64544" lon="1.3799">
        <ele>145</ele>
        <time>2025-03-25T18:43:08Z</time>
      </trkpt>
      <trkpt lat="43.64544" lon="1.3799">
        <ele>145</ele>
        <time>2025-03-25T18:43:09Z</time>
      </trkpt>
      <trkpt lat="43.64544" lon="1.3799">
        <ele>146</ele>
        <time>2025-03-25T18:43:10Z</time>
      </trkpt>
      <trkpt lat="43.64546" lon="1.3799">
        <ele>146</ele>
        <time>2025-03-25T18:43:11Z</time>
      </trkpt>
      <trkpt lat="43.64546" lon="1.3799">
        <ele>146</ele>
        <time>2025-03-25T18:43:12Z</time>
      </trkpt>
      <trkpt lat="43.64546" lon="1.3799">
        <ele>146</ele>
        <time>2025-03-25T18:43:13Z</time>
      </trkpt>
      <trkpt lat="43.64548" lon="1.37989">
        <ele>146</ele>
        <time>2025-03-25T18:43:14Z</time>
      </trkpt>
      <trkpt lat="43.64548" lon="1.37989">
        <ele>146</ele>
        <time>2025-03-25T18:43:15Z</time>
      </trkpt>
      <trkpt lat="43.64548" lon="1.37989">
        <ele>146</ele>
        <time>2025-03-25T18:43:16Z</time>
      </trkpt>
      <trkpt lat="43.6455" lon="1.37987">
        <ele>146</ele>
        <time>2025-03-25T18:43:17Z</time>
      </trkpt>
      <trkpt lat="43.6455" lon="1.37987">
        <ele>146</ele>
        <time>2025-03-25T18:43:18Z</time>
      </trkpt>
      <trkpt lat="43.6455" lon="1.37987">
        <ele>146</ele>
        <time>2025-03-25T18:43:19Z</time>
      </trkpt>
      <trkpt lat="43.64552" lon="1.37986">
        <ele>146</ele>
        <time>2025-03-25T18:43:20Z</time>
      </trkpt>
      <trkpt lat="43.64552" lon="1.37986">
        <ele>146</ele>
        <time>2025-03-25T18:43:21Z</time>
      </trkpt>
      <trkpt lat="43.64552" lon="1.37986">
        <ele>146</ele>
        <time>2025-03-25T18:43:22Z</time>
      </trkpt>
      <trkpt lat="43.64552" lon="1.37986">
        <ele>146</ele>
        <time>2025-03-25T18:43:23Z</time>
      </trkpt>
      <trkpt lat="43.64552" lon="1.37986">
        <ele>146</ele>
        <time>2025-03-25T18:43:24Z</time>
      </trkpt>
      <trkpt lat="43.64553" lon="1.37984">
        <ele>146</ele>
        <time>2025-03-25T18:43:25Z</time>
      </trkpt>
      <trkpt lat="43.64553" lon="1.37984">
        <ele>146</ele>
        <time>2025-03-25T18:43:26Z</time>
      </trkpt>
      <trkpt lat="43.64553" lon="1.37984">
        <ele>146</ele>
        <time>2025-03-25T18:43:27Z</time>
      </trkpt>
      <trkpt lat="43.64553" lon="1.37984">
        <ele>146</ele>
        <time>2025-03-25T18:43:28Z</time>
      </trkpt>
      <trkpt lat="43.64553" lon="1.37984">
        <ele>146</ele>
        <time>2025-03-25T18:43:29Z</time>
      </trkpt>
      <trkpt lat="43.64553" lon="1.37984">
        <ele>146</ele>
        <time>2025-03-25T18:43:30Z</time>
      </trkpt>
      <trkpt lat="43.64553" lon="1.37984">
        <ele>146</ele>
        <time>2025-03-25T18:43:31Z</time>
      </trkpt>
      <trkpt lat="43.64553" lon="1.37984">
        <ele>146</ele>
        <time>2025-03-25T18:43:32Z</time>
      </trkpt>
      <trkpt lat="43.64553" lon="1.37984">
        <ele>146</ele>
        <time>2025-03-25T18:43:33Z</time>
      </trkpt>
      <trkpt lat="43.64553" lon="1.37984">
        <ele>146</ele>
        <time>2025-03-25T18:43:34Z</time>
      </trkpt>
      <trkpt lat="43.64553" lon="1.37984">
        <ele>146</ele>
        <time>2025-03-25T18:43:35Z</time>
      </trkpt>
      <trkpt lat="43.64553" lon="1.37984">
        <ele>146</ele>
        <time>2025-03-25T18:43:36Z</time>
      </trkpt>
      <trkpt lat="43.64553" lon="1.37984">
        <ele>146</ele>
        <time>2025-03-25T18:43:37Z</time>
      </trkpt>
      <trkpt lat="43.64553" lon="1.37984">
        <ele>145</ele>
        <time>2025-03-25T18:43:38Z</time>
      </trkpt>
      <trkpt lat="43.64553" lon="1.37984">
        <ele>145</ele>
        <time>2025-03-25T18:43:39Z</time>
      </trkpt>
      <trkpt lat="43.64553" lon="1.37984">
        <ele>145</ele>
        <time>2025-03-25T18:43:40Z</time>
      </trkpt>
      <trkpt lat="43.64553" lon="1.37984">
        <ele>145</ele>
        <time>2025-03-25T18:43:41Z</time>
      </trkpt>
      <trkpt lat="43.64553" lon="1.37984">
        <ele>145</ele>
        <time>2025-03-25T18:43:42Z</time>
      </trkpt>
      <trkpt lat="43.64553" lon="1.37984">
        <ele>145</ele>
        <time>2025-03-25T18:43:43Z</time>
      </trkpt>
      <trkpt lat="43.64553" lon="1.37984">
        <ele>145</ele>
        <time>2025-03-25T18:43:44Z</time>
      </trkpt>
      <trkpt lat="43.64553" lon="1.37984">
        <ele>145</ele>
        <time>2025-03-25T18:43:45Z</time>
      </trkpt>
      <trkpt lat="43.64553" lon="1.37984">
        <ele>145</ele>
        <time>2025-03-25T18:43:46Z</time>
      </trkpt>
      <trkpt lat="43.64553" lon="1.37984">
        <ele>145</ele>
        <time>2025-03-25T18:43:47Z</time>
      </trkpt>
      <trkpt lat="43.64553" lon="1.37984">
        <ele>145</ele>
        <time>2025-03-25T18:43:48Z</time>
      </trkpt>
      <trkpt lat="43.64553" lon="1.37984">
        <ele>145</ele>
        <time>2025-03-25T18:43:49Z</time>
      </trkpt>
      <trkpt lat="43.64553" lon="1.37988">
        <ele>145</ele>
        <time>2025-03-25T18:43:50Z</time>
      </trkpt>
      <trkpt lat="43.64553" lon="1.37988">
        <ele>145</ele>
        <time>2025-03-25T18:43:51Z</time>
      </trkpt>
      <trkpt lat="43.64553" lon="1.37988">
        <ele>145</ele>
        <time>2025-03-25T18:43:52Z</time>
      </trkpt>
      <trkpt lat="43.64553" lon="1.37988">
        <ele>145</ele>
        <time>2025-03-25T18:43:53Z</time>
      </trkpt>
      <trkpt lat="43.64553" lon="1.37988">
        <ele>146</ele>
        <time>2025-03-25T18:43:54Z</time>
      </trkpt>
      <trkpt lat="43.64553" lon="1.37988">
        <ele>146</ele>
        <time>2025-03-25T18:43:55Z</time>
      </trkpt>
      <trkpt lat="43.64553" lon="1.37988">
        <ele>146</ele>
        <time>2025-03-25T18:43:56Z</time>
      </trkpt>
      <trkpt lat="43.64553" lon="1.37988">
        <ele>146</ele>
        <time>2025-03-25T18:43:57Z</time>
      </trkpt>
      <trkpt lat="43.64553" lon="1.37988">
        <ele>146</ele>
        <time>2025-03-25T18:43:58Z</time>
      </trkpt>
      <trkpt lat="43.64553" lon="1.37988">
        <ele>146</ele>
        <time>2025-03-25T18:43:59Z</time>
      </trkpt>
      <trkpt lat="43.64553" lon="1.37988">
        <ele>146</ele>
        <time>2025-03-25T18:44:00Z</time>
      </trkpt>
      <trkpt lat="43.64553" lon="1.37988">
        <ele>146</ele>
        <time>2025-03-25T18:44:01Z</time>
      </trkpt>
      <trkpt lat="43.64553" lon="1.37988">
        <ele>146</ele>
        <time>2025-03-25T18:44:02Z</time>
      </trkpt>
      <trkpt lat="43.64555" lon="1.37985">
        <ele>146</ele>
        <time>2025-03-25T18:44:03Z</time>
      </trkpt>
      <trkpt lat="43.64555" lon="1.37985">
        <ele>146</ele>
        <time>2025-03-25T18:44:04Z</time>
      </trkpt>
      <trkpt lat="43.64555" lon="1.37985">
        <ele>146</ele>
        <time>2025-03-25T18:44:05Z</time>
      </trkpt>
      <trkpt lat="43.64555" lon="1.37985">
        <ele>146</ele>
        <time>2025-03-25T18:44:06Z</time>
      </trkpt>
      <trkpt lat="43.64555" lon="1.37985">
        <ele>146</ele>
        <time>2025-03-25T18:44:07Z</time>
      </trkpt>
      <trkpt lat="43.64555" lon="1.37985">
        <ele>146</ele>
        <time>2025-03-25T18:44:08Z</time>
      </trkpt>
      <trkpt lat="43.64555" lon="1.37985">
        <ele>146</ele>
        <time>2025-03-25T18:44:09Z</time>
      </trkpt>
      <trkpt lat="43.64555" lon="1.37985">
        <ele>146</ele>
        <time>2025-03-25T18:44:10Z</time>
      </trkpt>
      <trkpt lat="43.64555" lon="1.37985">
        <ele>146</ele>
        <time>2025-03-25T18:44:11Z</time>
      </trkpt>
      <trkpt lat="43.64555" lon="1.37985">
        <ele>146</ele>
        <time>2025-03-25T18:44:12Z</time>
      </trkpt>
      <trkpt lat="43.64555" lon="1.37985">
        <ele>146</ele>
        <time>2025-03-25T18:44:13Z</time>
      </trkpt>
      <trkpt lat="43.64555" lon="1.37985">
        <ele>146</ele>
        <time>2025-03-25T18:44:14Z</time>
      </trkpt>
      <trkpt lat="43.64555" lon="1.37985">
        <ele>146</ele>
        <time>2025-03-25T18:44:15Z</time>
      </trkpt>
      <trkpt lat="43.64555" lon="1.37985">
        <ele>146</ele>
        <time>2025-03-25T18:44:16Z</time>
      </trkpt>
      <trkpt lat="43.64555" lon="1.37985">
        <ele>146</ele>
        <time>2025-03-25T18:44:17Z</time>
      </trkpt>
      <trkpt lat="43.64555" lon="1.37985">
        <ele>146</ele>
        <time>2025-03-25T18:44:18Z</time>
      </trkpt>
      <trkpt lat="43.64555" lon="1.37985">
        <ele>146</ele>
        <time>2025-03-25T18:44:19Z</time>
      </trkpt>
      <trkpt lat="43.64555" lon="1.37985">
        <ele>146</ele>
        <time>2025-03-25T18:44:20Z</time>
      </trkpt>
      <trkpt lat="43.64555" lon="1.37985">
        <ele>146</ele>
        <time>2025-03-25T18:44:21Z</time>
      </trkpt>
      <trkpt lat="43.64555" lon="1.37985">
        <ele>146</ele>
        <time>2025-03-25T18:44:22Z</time>
      </trkpt>
      <trkpt lat="43.64555" lon="1.37985">
        <ele>146</ele>
        <time>2025-03-25T18:44:23Z</time>
      </trkpt>
      <trkpt lat="43.64555" lon="1.37985">
        <ele>146</ele>
        <time>2025-03-25T18:44:24Z</time>
      </trkpt>
      <trkpt lat="43.64555" lon="1.37985">
        <ele>146</ele>
        <time>2025-03-25T18:44:25Z</time>
      </trkpt>
      <trkpt lat="43.64555" lon="1.37985">
        <ele>146</ele>
        <time>2025-03-25T18:44:26Z</time>
      </trkpt>
      <trkpt lat="43.64555" lon="1.37985">
        <ele>146</ele>
        <time>2025-03-25T18:44:27Z</time>
      </trkpt>
      <trkpt lat="43.64555" lon="1.37985">
        <ele>146</ele>
        <time>2025-03-25T18:44:28Z</time>
      </trkpt>
      <trkpt lat="43.64555" lon="1.37985">
        <ele>146</ele>
        <time>2025-03-25T18:44:29Z</time>
      </trkpt>
      <trkpt lat="43.64555" lon="1.37985">
        <ele>146</ele>
        <time>2025-03-25T18:44:30Z</time>
      </trkpt>
      <trkpt lat="43.64555" lon="1.37985">
        <ele>146</ele>
        <time>2025-03-25T18:44:31Z</time>
      </trkpt>
      <trkpt lat="43.64555" lon="1.37985">
        <ele>146</ele>
        <time>2025-03-25T18:44:32Z</time>
      </trkpt>
      <trkpt lat="43.64555" lon="1.37985">
        <ele>146</ele>
        <time>2025-03-25T18:44:33Z</time>
      </trkpt>
      <trkpt lat="43.64555" lon="1.37985">
        <ele>146</ele>
        <time>2025-03-25T18:44:34Z</time>
      </trkpt>
      <trkpt lat="43.64555" lon="1.37985">
        <ele>146</ele>
        <time>2025-03-25T18:44:35Z</time>
      </trkpt>
      <trkpt lat="43.64555" lon="1.37985">
        <ele>146</ele>
        <time>2025-03-25T18:44:36Z</time>
      </trkpt>
      <trkpt lat="43.64555" lon="1.37985">
        <ele>146</ele>
        <time>2025-03-25T18:44:37Z</time>
      </trkpt>
      <trkpt lat="43.64555" lon="1.37985">
        <ele>146</ele>
        <time>2025-03-25T18:44:38Z</time>
      </trkpt>
      <trkpt lat="43.64555" lon="1.37985">
        <ele>146</ele>
        <time>2025-03-25T18:44:39Z</time>
      </trkpt>
      <trkpt lat="43.64555" lon="1.37985">
        <ele>146</ele>
        <time>2025-03-25T18:44:40Z</time>
      </trkpt>
      <trkpt lat="43.64555" lon="1.37985">
        <ele>146</ele>
        <time>2025-03-25T18:44:41Z</time>
      </trkpt>
      <trkpt lat="43.64555" lon="1.37985">
        <ele>146</ele>
        <time>2025-03-25T18:44:42Z</time>
      </trkpt>
      <trkpt lat="43.64555" lon="1.37985">
        <ele>146</ele>
        <time>2025-03-25T18:44:43Z</time>
      </trkpt>
      <trkpt lat="43.64555" lon="1.37985">
        <ele>146</ele>
        <time>2025-03-25T18:44:44Z</time>
      </trkpt>
      <trkpt lat="43.64555" lon="1.37985">
        <ele>146</ele>
        <time>2025-03-25T18:44:45Z</time>
      </trkpt>
      <trkpt lat="43.64555" lon="1.37985">
        <ele>146</ele>
        <time>2025-03-25T18:44:46Z</time>
      </trkpt>
      <trkpt lat="43.64555" lon="1.37985">
        <ele>146</ele>
        <time>2025-03-25T18:44:47Z</time>
      </trkpt>
      <trkpt lat="43.64555" lon="1.37985">
        <ele>146</ele>
        <time>2025-03-25T18:44:48Z</time>
      </trkpt>
      <trkpt lat="43.64555" lon="1.37985">
        <ele>145</ele>
        <time>2025-03-25T18:44:49Z</time>
      </trkpt>
      <trkpt lat="43.64555" lon="1.37985">
        <ele>145</ele>
        <time>2025-03-25T18:44:50Z</time>
      </trkpt>
      <trkpt lat="43.64555" lon="1.37985">
        <ele>145</ele>
        <time>2025-03-25T18:44:51Z</time>
      </trkpt>
      <trkpt lat="43.64555" lon="1.37985">
        <ele>145</ele>
        <time>2025-03-25T18:44:52Z</time>
      </trkpt>
      <trkpt lat="43.64555" lon="1.37985">
        <ele>145</ele>
        <time>2025-03-25T18:44:53Z</time>
      </trkpt>
      <trkpt lat="43.64555" lon="1.37985">
        <ele>145</ele>
        <time>2025-03-25T18:44:54Z</time>
      </trkpt>
      <trkpt lat="43.64555" lon="1.37985">
        <ele>145</ele>
        <time>2025-03-25T18:44:55Z</time>
      </trkpt>
      <trkpt lat="43.64555" lon="1.37985">
        <ele>145</ele>
        <time>2025-03-25T18:44:56Z</time>
      </trkpt>
      <trkpt lat="43.64555" lon="1.37985">
        <ele>145</ele>
        <time>2025-03-25T18:44:57Z</time>
      </trkpt>
      <trkpt lat="43.64555" lon="1.37985">
        <ele>145</ele>
        <time>2025-03-25T18:44:58Z</time>
      </trkpt>
      <trkpt lat="43.64556" lon="1.37984">
        <ele>145</ele>
        <time>2025-03-25T18:44:59Z</time>
      </trkpt>
      <trkpt lat="43.64556" lon="1.37984">
        <ele>145</ele>
        <time>2025-03-25T18:45:00Z</time>
      </trkpt>
      <trkpt lat="43.64556" lon="1.37984">
        <ele>145</ele>
        <time>2025-03-25T18:45:01Z</time>
      </trkpt>
      <trkpt lat="43.64556" lon="1.37984">
        <ele>145</ele>
        <time>2025-03-25T18:45:02Z</time>
      </trkpt>
      <trkpt lat="43.64556" lon="1.37984">
        <ele>145</ele>
        <time>2025-03-25T18:45:03Z</time>
      </trkpt>
      <trkpt lat="43.64556" lon="1.37984">
        <ele>145</ele>
        <time>2025-03-25T18:45:04Z</time>
      </trkpt>
      <trkpt lat="43.64556" lon="1.37984">
        <ele>145</ele>
        <time>2025-03-25T18:45:05Z</time>
      </trkpt>
      <trkpt lat="43.64556" lon="1.37984">
        <ele>145</ele>
        <time>2025-03-25T18:45:06Z</time>
      </trkpt>
      <trkpt lat="43.64556" lon="1.37984">
        <ele>145</ele>
        <time>2025-03-25T18:45:07Z</time>
      </trkpt>
      <trkpt lat="43.64556" lon="1.37984">
        <ele>145</ele>
        <time>2025-03-25T18:45:08Z</time>
      </trkpt>
      <trkpt lat="43.64556" lon="1.37984">
        <ele>145</ele>
        <time>2025-03-25T18:45:09Z</time>
      </trkpt>
      <trkpt lat="43.64556" lon="1.37984">
        <ele>145</ele>
        <time>2025-03-25T18:45:10Z</time>
      </trkpt>
      <trkpt lat="43.64556" lon="1.37984">
        <ele>145</ele>
        <time>2025-03-25T18:45:11Z</time>
      </trkpt>
      <trkpt lat="43.64556" lon="1.37984">
        <ele>145</ele>
        <time>2025-03-25T18:45:12Z</time>
      </trkpt>
      <trkpt lat="43.64556" lon="1.37984">
        <ele>145</ele>
        <time>2025-03-25T18:45:13Z</time>
      </trkpt>
      <trkpt lat="43.64559" lon="1.37981">
        <ele>145</ele>
        <time>2025-03-25T18:45:14Z</time>
      </trkpt>
      <trkpt lat="43.64562" lon="1.37978">
        <ele>145</ele>
        <time>2025-03-25T18:45:15Z</time>
      </trkpt>
      <trkpt lat="43.64565" lon="1.37974">
        <ele>146</ele>
        <time>2025-03-25T18:45:16Z</time>
      </trkpt>
      <trkpt lat="43.64568" lon="1.3797">
        <ele>146</ele>
        <time>2025-03-25T18:45:17Z</time>
      </trkpt>
      <trkpt lat="43.6457" lon="1.37966">
        <ele>146</ele>
        <time>2025-03-25T18:45:18Z</time>
      </trkpt>
      <trkpt lat="43.64572" lon="1.37962">
        <ele>146</ele>
        <time>2025-03-25T18:45:19Z</time>
      </trkpt>
      <trkpt lat="43.64573" lon="1.37957">
        <ele>146</ele>
        <time>2025-03-25T18:45:20Z</time>
      </trkpt>
      <trkpt lat="43.64573" lon="1.3795">
        <ele>145</ele>
        <time>2025-03-25T18:45:21Z</time>
      </trkpt>
      <trkpt lat="43.64573" lon="1.37947">
        <ele>145</ele>
        <time>2025-03-25T18:45:22Z</time>
      </trkpt>
      <trkpt lat="43.64572" lon="1.37942">
        <ele>145</ele>
        <time>2025-03-25T18:45:23Z</time>
      </trkpt>
      <trkpt lat="43.64571" lon="1.37937">
        <ele>145</ele>
        <time>2025-03-25T18:45:24Z</time>
      </trkpt>
      <trkpt lat="43.64569" lon="1.37932">
        <ele>145</ele>
        <time>2025-03-25T18:45:25Z</time>
      </trkpt>
      <trkpt lat="43.64568" lon="1.37928">
        <ele>146</ele>
        <time>2025-03-25T18:45:26Z</time>
      </trkpt>
      <trkpt lat="43.64565" lon="1.37924">
        <ele>146</ele>
        <time>2025-03-25T18:45:27Z</time>
      </trkpt>
      <trkpt lat="43.64563" lon="1.3792">
        <ele>146</ele>
        <time>2025-03-25T18:45:28Z</time>
      </trkpt>
      <trkpt lat="43.6456" lon="1.37917">
        <ele>146</ele>
        <time>2025-03-25T18:45:29Z</time>
      </trkpt>
      <trkpt lat="43.64557" lon="1.37914">
        <ele>146</ele>
        <time>2025-03-25T18:45:30Z</time>
      </trkpt>
      <trkpt lat="43.64554" lon="1.37912">
        <ele>145</ele>
        <time>2025-03-25T18:45:31Z</time>
      </trkpt>
      <trkpt lat="43.64551" lon="1.3791">
        <ele>145</ele>
        <time>2025-03-25T18:45:32Z</time>
      </trkpt>
      <trkpt lat="43.64547" lon="1.37908">
        <ele>145</ele>
        <time>2025-03-25T18:45:33Z</time>
      </trkpt>
      <trkpt lat="43.64544" lon="1.37906">
        <ele>145</ele>
        <time>2025-03-25T18:45:34Z</time>
      </trkpt>
      <trkpt lat="43.64537" lon="1.37903">
        <ele>145</ele>
        <time>2025-03-25T18:45:35Z</time>
      </trkpt>
      <trkpt lat="43.64537" lon="1.37903">
        <ele>145</ele>
        <time>2025-03-25T18:45:36Z</time>
      </trkpt>
      <trkpt lat="43.64533" lon="1.37901">
        <ele>145</ele>
        <time>2025-03-25T18:45:37Z</time>
      </trkpt>
      <trkpt lat="43.6453" lon="1.37899">
        <ele>145</ele>
        <time>2025-03-25T18:45:38Z</time>
      </trkpt>
      <trkpt lat="43.64527" lon="1.37897">
        <ele>145</ele>
        <time>2025-03-25T18:45:39Z</time>
      </trkpt>
      <trkpt lat="43.64523" lon="1.37895">
        <ele>145</ele>
        <time>2025-03-25T18:45:40Z</time>
      </trkpt>
      <trkpt lat="43.6452" lon="1.37893">
        <ele>145</ele>
        <time>2025-03-25T18:45:41Z</time>
      </trkpt>
      <trkpt lat="43.64517" lon="1.37891">
        <ele>145</ele>
        <time>2025-03-25T18:45:42Z</time>
      </trkpt>
      <trkpt lat="43.64514" lon="1.37889">
        <ele>145</ele>
        <time>2025-03-25T18:45:43Z</time>
      </trkpt>
      <trkpt lat="43.64511" lon="1.37887">
        <ele>145</ele>
        <time>2025-03-25T18:45:44Z</time>
      </trkpt>
      <trkpt lat="43.64508" lon="1.37885">
        <ele>145</ele>
        <time>2025-03-25T18:45:45Z</time>
      </trkpt>
      <trkpt lat="43.64505" lon="1.37883">
        <ele>145</ele>
        <time>2025-03-25T18:45:46Z</time>
      </trkpt>
      <trkpt lat="43.64502" lon="1.37881">
        <ele>145</ele>
        <time>2025-03-25T18:45:47Z</time>
      </trkpt>
      <trkpt lat="43.64499" lon="1.37879">
        <ele>145</ele>
        <time>2025-03-25T18:45:48Z</time>
      </trkpt>
      <trkpt lat="43.64495" lon="1.37877">
        <ele>145</ele>
        <time>2025-03-25T18:45:49Z</time>
      </trkpt>
      <trkpt lat="43.64492" lon="1.37876">
        <ele>145</ele>
        <time>2025-03-25T18:45:50Z</time>
      </trkpt>
      <trkpt lat="43.64489" lon="1.37875">
        <ele>145</ele>
        <time>2025-03-25T18:45:51Z</time>
      </trkpt>
      <trkpt lat="43.64486" lon="1.37874">
        <ele>145</ele>
        <time>2025-03-25T18:45:52Z</time>
      </trkpt>
      <trkpt lat="43.64482" lon="1.37873">
        <ele>145</ele>
        <time>2025-03-25T18:45:53Z</time>
      </trkpt>
      <trkpt lat="43.64479" lon="1.37874">
        <ele>145</ele>
        <time>2025-03-25T18:45:54Z</time>
      </trkpt>
      <trkpt lat="43.64475" lon="1.37874">
        <ele>145</ele>
        <time>2025-03-25T18:45:55Z</time>
      </trkpt>
      <trkpt lat="43.64472" lon="1.37876">
        <ele>145</ele>
        <time>2025-03-25T18:45:56Z</time>
      </trkpt>
      <trkpt lat="43.6447" lon="1.37878">
        <ele>145</ele>
        <time>2025-03-25T18:45:57Z</time>
      </trkpt>
      <trkpt lat="43.64467" lon="1.37881">
        <ele>145</ele>
        <time>2025-03-25T18:45:58Z</time>
      </trkpt>
      <trkpt lat="43.64464" lon="1.37884">
        <ele>145</ele>
        <time>2025-03-25T18:45:59Z</time>
      </trkpt>
      <trkpt lat="43.64462" lon="1.37888">
        <ele>145</ele>
        <time>2025-03-25T18:46:00Z</time>
      </trkpt>
      <trkpt lat="43.6446" lon="1.37891">
        <ele>145</ele>
        <time>2025-03-25T18:46:01Z</time>
      </trkpt>
      <trkpt lat="43.64458" lon="1.37896">
        <ele>145</ele>
        <time>2025-03-25T18:46:02Z</time>
      </trkpt>
      <trkpt lat="43.64458" lon="1.37901">
        <ele>145</ele>
        <time>2025-03-25T18:46:03Z</time>
      </trkpt>
      <trkpt lat="43.64457" lon="1.37906">
        <ele>145</ele>
        <time>2025-03-25T18:46:04Z</time>
      </trkpt>
      <trkpt lat="43.64456" lon="1.37911">
        <ele>145</ele>
        <time>2025-03-25T18:46:05Z</time>
      </trkpt>
      <trkpt lat="43.64456" lon="1.37915">
        <ele>145</ele>
        <time>2025-03-25T18:46:06Z</time>
      </trkpt>
      <trkpt lat="43.64456" lon="1.37919">
        <ele>145</ele>
        <time>2025-03-25T18:46:07Z</time>
      </trkpt>
      <trkpt lat="43.64456" lon="1.37923">
        <ele>145</ele>
        <time>2025-03-25T18:46:08Z</time>
      </trkpt>
      <trkpt lat="43.64457" lon="1.37927">
        <ele>145</ele>
        <time>2025-03-25T18:46:09Z</time>
      </trkpt>
      <trkpt lat="43.64458" lon="1.37931">
        <ele>145</ele>
        <time>2025-03-25T18:46:10Z</time>
      </trkpt>
      <trkpt lat="43.6446" lon="1.37936">
        <ele>145</ele>
        <time>2025-03-25T18:46:11Z</time>
      </trkpt>
      <trkpt lat="43.64461" lon="1.3794">
        <ele>145</ele>
        <time>2025-03-25T18:46:12Z</time>
      </trkpt>
      <trkpt lat="43.64463" lon="1.37944">
        <ele>145</ele>
        <time>2025-03-25T18:46:13Z</time>
      </trkpt>
      <trkpt lat="43.64466" lon="1.37947">
        <ele>145</ele>
        <time>2025-03-25T18:46:14Z</time>
      </trkpt>
      <trkpt lat="43.64469" lon="1.3795">
        <ele>145</ele>
        <time>2025-03-25T18:46:15Z</time>
      </trkpt>
      <trkpt lat="43.64472" lon="1.37952">
        <ele>146</ele>
        <time>2025-03-25T18:46:16Z</time>
      </trkpt>
      <trkpt lat="43.64478" lon="1.37955">
        <ele>146</ele>
        <time>2025-03-25T18:46:17Z</time>
      </trkpt>
      <trkpt lat="43.64478" lon="1.37955">
        <ele>145</ele>
        <time>2025-03-25T18:46:18Z</time>
      </trkpt>
      <trkpt lat="43.6448" lon="1.37957">
        <ele>145</ele>
        <time>2025-03-25T18:46:19Z</time>
      </trkpt>
      <trkpt lat="43.64483" lon="1.37958">
        <ele>145</ele>
        <time>2025-03-25T18:46:20Z</time>
      </trkpt>
      <trkpt lat="43.64486" lon="1.37958">
        <ele>145</ele>
        <time>2025-03-25T18:46:21Z</time>
      </trkpt>
      <trkpt lat="43.64489" lon="1.3796">
        <ele>145</ele>
        <time>2025-03-25T18:46:22Z</time>
      </trkpt>
      <trkpt lat="43.64492" lon="1.37962">
        <ele>145</ele>
        <time>2025-03-25T18:46:23Z</time>
      </trkpt>
      <trkpt lat="43.64496" lon="1.37964">
        <ele>145</ele>
        <time>2025-03-25T18:46:24Z</time>
      </trkpt>
      <trkpt lat="43.64498" lon="1.37965">
        <ele>145</ele>
        <time>2025-03-25T18:46:25Z</time>
      </trkpt>
      <trkpt lat="43.64502" lon="1.37967">
        <ele>145</ele>
        <time>2025-03-25T18:46:26Z</time>
      </trkpt>
      <trkpt lat="43.64505" lon="1.37969">
        <ele>144</ele>
        <time>2025-03-25T18:46:27Z</time>
      </trkpt>
      <trkpt lat="43.64508" lon="1.37971">
        <ele>144</ele>
        <time>2025-03-25T18:46:28Z</time>
      </trkpt>
      <trkpt lat="43.64511" lon="1.37973">
        <ele>144</ele>
        <time>2025-03-25T18:46:29Z</time>
      </trkpt>
      <trkpt lat="43.64513" lon="1.37975">
        <ele>144</ele>
        <time>2025-03-25T18:46:30Z</time>
      </trkpt>
      <trkpt lat="43.64516" lon="1.37977">
        <ele>144</ele>
        <time>2025-03-25T18:46:31Z</time>
      </trkpt>
      <trkpt lat="43.6452" lon="1.37979">
        <ele>144</ele>
        <time>2025-03-25T18:46:32Z</time>
      </trkpt>
      <trkpt lat="43.64523" lon="1.3798">
        <ele>144</ele>
        <time>2025-03-25T18:46:33Z</time>
      </trkpt>
      <trkpt lat="43.64526" lon="1.37982">
        <ele>144</ele>
        <time>2025-03-25T18:46:34Z</time>
      </trkpt>
      <trkpt lat="43.64529" lon="1.37983">
        <ele>144</ele>
        <time>2025-03-25T18:46:35Z</time>
      </trkpt>
      <trkpt lat="43.64535" lon="1.37985">
        <ele>144</ele>
        <time>2025-03-25T18:46:36Z</time>
      </trkpt>
      <trkpt lat="43.64535" lon="1.37985">
        <ele>144</ele>
        <time>2025-03-25T18:46:37Z</time>
      </trkpt>
      <trkpt lat="43.64539" lon="1.37986">
        <ele>144</ele>
        <time>2025-03-25T18:46:38Z</time>
      </trkpt>
      <trkpt lat="43.64542" lon="1.37986">
        <ele>144</ele>
        <time>2025-03-25T18:46:39Z</time>
      </trkpt>
      <trkpt lat="43.64545" lon="1.37986">
        <ele>144</ele>
        <time>2025-03-25T18:46:40Z</time>
      </trkpt>
      <trkpt lat="43.64549" lon="1.37985">
        <ele>144</ele>
        <time>2025-03-25T18:46:41Z</time>
      </trkpt>
      <trkpt lat="43.64552" lon="1.37984">
        <ele>145</ele>
        <time>2025-03-25T18:46:42Z</time>
      </trkpt>
      <trkpt lat="43.64555" lon="1.37982">
        <ele>145</ele>
        <time>2025-03-25T18:46:43Z</time>
      </trkpt>
      <trkpt lat="43.64558" lon="1.3798">
        <ele>145</ele>
        <time>2025-03-25T18:46:44Z</time>
      </trkpt>
      <trkpt lat="43.64561" lon="1.37978">
        <ele>145</ele>
        <time>2025-03-25T18:46:45Z</time>
      </trkpt>
      <trkpt lat="43.64563" lon="1.37975">
        <ele>145</ele>
        <time>2025-03-25T18:46:46Z</time>
      </trkpt>
      <trkpt lat="43.64565" lon="1.37972">
        <ele>145</ele>
        <time>2025-03-25T18:46:47Z</time>
      </trkpt>
      <trkpt lat="43.64567" lon="1.37969">
        <ele>145</ele>
        <time>2025-03-25T18:46:48Z</time>
      </trkpt>
      <trkpt lat="43.64569" lon="1.37966">
        <ele>145</ele>
        <time>2025-03-25T18:46:49Z</time>
      </trkpt>
      <trkpt lat="43.64571" lon="1.37962">
        <ele>145</ele>
        <time>2025-03-25T18:46:50Z</time>
      </trkpt>
      <trkpt lat="43.64572" lon="1.37957">
        <ele>145</ele>
        <time>2025-03-25T18:46:51Z</time>
      </trkpt>
      <trkpt lat="43.64572" lon="1.37951">
        <ele>145</ele>
        <time>2025-03-25T18:46:52Z</time>
      </trkpt>
      <trkpt lat="43.64572" lon="1.37946">
        <ele>145</ele>
        <time>2025-03-25T18:46:53Z</time>
      </trkpt>
      <trkpt lat="43.64571" lon="1.37941">
        <ele>145</ele>
        <time>2025-03-25T18:46:54Z</time>
      </trkpt>
      <trkpt lat="43.6457" lon="1.37937">
        <ele>145</ele>
        <time>2025-03-25T18:46:55Z</time>
      </trkpt>
      <trkpt lat="43.64569" lon="1.37933">
        <ele>144</ele>
        <time>2025-03-25T18:46:56Z</time>
      </trkpt>
      <trkpt lat="43.64568" lon="1.37928">
        <ele>144</ele>
        <time>2025-03-25T18:46:57Z</time>
      </trkpt>
      <trkpt lat="43.64566" lon="1.37925">
        <ele>145</ele>
        <time>2025-03-25T18:46:58Z</time>
      </trkpt>
      <trkpt lat="43.64564" lon="1.37922">
        <ele>145</ele>
        <time>2025-03-25T18:46:59Z</time>
      </trkpt>
      <trkpt lat="43.64562" lon="1.37919">
        <ele>145</ele>
        <time>2025-03-25T18:47:00Z</time>
      </trkpt>
      <trkpt lat="43.6456" lon="1.37916">
        <ele>145</ele>
        <time>2025-03-25T18:47:01Z</time>
      </trkpt>
      <trkpt lat="43.64558" lon="1.37914">
        <ele>145</ele>
        <time>2025-03-25T18:47:02Z</time>
      </trkpt>
      <trkpt lat="43.64555" lon="1.37912">
        <ele>145</ele>
        <time>2025-03-25T18:47:03Z</time>
      </trkpt>
      <trkpt lat="43.64552" lon="1.3791">
        <ele>145</ele>
        <time>2025-03-25T18:47:04Z</time>
      </trkpt>
      <trkpt lat="43.6455" lon="1.37908">
        <ele>145</ele>
        <time>2025-03-25T18:47:05Z</time>
      </trkpt>
      <trkpt lat="43.64547" lon="1.37907">
        <ele>145</ele>
        <time>2025-03-25T18:47:06Z</time>
      </trkpt>
      <trkpt lat="43.64544" lon="1.37905">
        <ele>145</ele>
        <time>2025-03-25T18:47:07Z</time>
      </trkpt>
      <trkpt lat="43.64541" lon="1.37904">
        <ele>145</ele>
        <time>2025-03-25T18:47:08Z</time>
      </trkpt>
      <trkpt lat="43.64537" lon="1.37902">
        <ele>145</ele>
        <time>2025-03-25T18:47:09Z</time>
      </trkpt>
      <trkpt lat="43.64534" lon="1.379">
        <ele>145</ele>
        <time>2025-03-25T18:47:10Z</time>
      </trkpt>
      <trkpt lat="43.64531" lon="1.37898">
        <ele>145</ele>
        <time>2025-03-25T18:47:11Z</time>
      </trkpt>
      <trkpt lat="43.64528" lon="1.37896">
        <ele>144</ele>
        <time>2025-03-25T18:47:12Z</time>
      </trkpt>
      <trkpt lat="43.64525" lon="1.37895">
        <ele>144</ele>
        <time>2025-03-25T18:47:13Z</time>
      </trkpt>
      <trkpt lat="43.64522" lon="1.37893">
        <ele>144</ele>
        <time>2025-03-25T18:47:14Z</time>
      </trkpt>
      <trkpt lat="43.64519" lon="1.37892">
        <ele>144</ele>
        <time>2025-03-25T18:47:15Z</time>
      </trkpt>
      <trkpt lat="43.64517" lon="1.3789">
        <ele>144</ele>
        <time>2025-03-25T18:47:16Z</time>
      </trkpt>
      <trkpt lat="43.64514" lon="1.37889">
        <ele>144</ele>
        <time>2025-03-25T18:47:17Z</time>
      </trkpt>
      <trkpt lat="43.64511" lon="1.37887">
        <ele>144</ele>
        <time>2025-03-25T18:47:18Z</time>
      </trkpt>
      <trkpt lat="43.64508" lon="1.37885">
        <ele>144</ele>
        <time>2025-03-25T18:47:19Z</time>
      </trkpt>
      <trkpt lat="43.64504" lon="1.37882">
        <ele>144</ele>
        <time>2025-03-25T18:47:20Z</time>
      </trkpt>
      <trkpt lat="43.64502" lon="1.37882">
        <ele>145</ele>
        <time>2025-03-25T18:47:21Z</time>
      </trkpt>
      <trkpt lat="43.64499" lon="1.3788">
        <ele>145</ele>
        <time>2025-03-25T18:47:22Z</time>
      </trkpt>
      <trkpt lat="43.64496" lon="1.37878">
        <ele>144</ele>
        <time>2025-03-25T18:47:23Z</time>
      </trkpt>
      <trkpt lat="43.64493" lon="1.37877">
        <ele>144</ele>
        <time>2025-03-25T18:47:24Z</time>
      </trkpt>
      <trkpt lat="43.64491" lon="1.37877">
        <ele>144</ele>
        <time>2025-03-25T18:47:25Z</time>
      </trkpt>
      <trkpt lat="43.64487" lon="1.37876">
        <ele>144</ele>
        <time>2025-03-25T18:47:26Z</time>
      </trkpt>
      <trkpt lat="43.64485" lon="1.37876">
        <ele>144</ele>
        <time>2025-03-25T18:47:27Z</time>
      </trkpt>
      <trkpt lat="43.64482" lon="1.37876">
        <ele>145</ele>
        <time>2025-03-25T18:47:28Z</time>
      </trkpt>
      <trkpt lat="43.64479" lon="1.37877">
        <ele>145</ele>
        <time>2025-03-25T18:47:29Z</time>
      </trkpt>
      <trkpt lat="43.64476" lon="1.37878">
        <ele>145</ele>
        <time>2025-03-25T18:47:30Z</time>
      </trkpt>
      <trkpt lat="43.64473" lon="1.3788">
        <ele>145</ele>
        <time>2025-03-25T18:47:31Z</time>
      </trkpt>
      <trkpt lat="43.6447" lon="1.37882">
        <ele>145</ele>
        <time>2025-03-25T18:47:32Z</time>
      </trkpt>
      <trkpt lat="43.64468" lon="1.37884">
        <ele>145</ele>
        <time>2025-03-25T18:47:33Z</time>
      </trkpt>
      <trkpt lat="43.64466" lon="1.37886">
        <ele>145</ele>
        <time>2025-03-25T18:47:34Z</time>
      </trkpt>
      <trkpt lat="43.64464" lon="1.37889">
        <ele>145</ele>
        <time>2025-03-25T18:47:35Z</time>
      </trkpt>
      <trkpt lat="43.64462" lon="1.37893">
        <ele>145</ele>
        <time>2025-03-25T18:47:36Z</time>
      </trkpt>
      <trkpt lat="43.64461" lon="1.37897">
        <ele>144</ele>
        <time>2025-03-25T18:47:37Z</time>
      </trkpt>
      <trkpt lat="43.64459" lon="1.37901">
        <ele>144</ele>
        <time>2025-03-25T18:47:38Z</time>
      </trkpt>
      <trkpt lat="43.64459" lon="1.37905">
        <ele>144</ele>
        <time>2025-03-25T18:47:39Z</time>
      </trkpt>
      <trkpt lat="43.64458" lon="1.3791">
        <ele>144</ele>
        <time>2025-03-25T18:47:40Z</time>
      </trkpt>
      <trkpt lat="43.64458" lon="1.37914">
        <ele>144</ele>
        <time>2025-03-25T18:47:41Z</time>
      </trkpt>
      <trkpt lat="43.64457" lon="1.37918">
        <ele>144</ele>
        <time>2025-03-25T18:47:42Z</time>
      </trkpt>
      <trkpt lat="43.64457" lon="1.37922">
        <ele>144</ele>
        <time>2025-03-25T18:47:43Z</time>
      </trkpt>
      <trkpt lat="43.64458" lon="1.37925">
        <ele>145</ele>
        <time>2025-03-25T18:47:44Z</time>
      </trkpt>
      <trkpt lat="43.64459" lon="1.3793">
        <ele>145</ele>
        <time>2025-03-25T18:47:45Z</time>
      </trkpt>
      <trkpt lat="43.6446" lon="1.37934">
        <ele>145</ele>
        <time>2025-03-25T18:47:46Z</time>
      </trkpt>
      <trkpt lat="43.64461" lon="1.37938">
        <ele>145</ele>
        <time>2025-03-25T18:47:47Z</time>
      </trkpt>
      <trkpt lat="43.64463" lon="1.37941">
        <ele>144</ele>
        <time>2025-03-25T18:47:48Z</time>
      </trkpt>
      <trkpt lat="43.64465" lon="1.37944">
        <ele>144</ele>
        <time>2025-03-25T18:47:49Z</time>
      </trkpt>
      <trkpt lat="43.64467" lon="1.37947">
        <ele>144</ele>
        <time>2025-03-25T18:47:50Z</time>
      </trkpt>
      <trkpt lat="43.6447" lon="1.3795">
        <ele>144</ele>
        <time>2025-03-25T18:47:51Z</time>
      </trkpt>
      <trkpt lat="43.64472" lon="1.37951">
        <ele>144</ele>
        <time>2025-03-25T18:47:52Z</time>
      </trkpt>
      <trkpt lat="43.64476" lon="1.37953">
        <ele>144</ele>
        <time>2025-03-25T18:47:53Z</time>
      </trkpt>
      <trkpt lat="43.64479" lon="1.37955">
        <ele>144</ele>
        <time>2025-03-25T18:47:54Z</time>
      </trkpt>
      <trkpt lat="43.64481" lon="1.37956">
        <ele>144</ele>
        <time>2025-03-25T18:47:55Z</time>
      </trkpt>
      <trkpt lat="43.64484" lon="1.37957">
        <ele>144</ele>
        <time>2025-03-25T18:47:56Z</time>
      </trkpt>
      <trkpt lat="43.64487" lon="1.37959">
        <ele>145</ele>
        <time>2025-03-25T18:47:57Z</time>
      </trkpt>
      <trkpt lat="43.6449" lon="1.3796">
        <ele>145</ele>
        <time>2025-03-25T18:47:58Z</time>
      </trkpt>
      <trkpt lat="43.64494" lon="1.37962">
        <ele>145</ele>
        <time>2025-03-25T18:47:59Z</time>
      </trkpt>
      <trkpt lat="43.64497" lon="1.37963">
        <ele>145</ele>
        <time>2025-03-25T18:48:00Z</time>
      </trkpt>
      <trkpt lat="43.64499" lon="1.37965">
        <ele>145</ele>
        <time>2025-03-25T18:48:01Z</time>
      </trkpt>
      <trkpt lat="43.64502" lon="1.37967">
        <ele>145</ele>
        <time>2025-03-25T18:48:02Z</time>
      </trkpt>
      <trkpt lat="43.64505" lon="1.37969">
        <ele>145</ele>
        <time>2025-03-25T18:48:03Z</time>
      </trkpt>
      <trkpt lat="43.64508" lon="1.3797">
        <ele>145</ele>
        <time>2025-03-25T18:48:04Z</time>
      </trkpt>
      <trkpt lat="43.64511" lon="1.37972">
        <ele>145</ele>
        <time>2025-03-25T18:48:05Z</time>
      </trkpt>
      <trkpt lat="43.64514" lon="1.37974">
        <ele>145</ele>
        <time>2025-03-25T18:48:06Z</time>
      </trkpt>
      <trkpt lat="43.64516" lon="1.37976">
        <ele>145</ele>
        <time>2025-03-25T18:48:07Z</time>
      </trkpt>
      <trkpt lat="43.64519" lon="1.37978">
        <ele>144</ele>
        <time>2025-03-25T18:48:08Z</time>
      </trkpt>
      <trkpt lat="43.64522" lon="1.37979">
        <ele>145</ele>
        <time>2025-03-25T18:48:09Z</time>
      </trkpt>
      <trkpt lat="43.64525" lon="1.37981">
        <ele>145</ele>
        <time>2025-03-25T18:48:10Z</time>
      </trkpt>
      <trkpt lat="43.64528" lon="1.37982">
        <ele>145</ele>
        <time>2025-03-25T18:48:11Z</time>
      </trkpt>
      <trkpt lat="43.64531" lon="1.37984">
        <ele>144</ele>
        <time>2025-03-25T18:48:12Z</time>
      </trkpt>
      <trkpt lat="43.64534" lon="1.37985">
        <ele>144</ele>
        <time>2025-03-25T18:48:13Z</time>
      </trkpt>
      <trkpt lat="43.64537" lon="1.37985">
        <ele>144</ele>
        <time>2025-03-25T18:48:14Z</time>
      </trkpt>
      <trkpt lat="43.6454" lon="1.37986">
        <ele>144</ele>
        <time>2025-03-25T18:48:15Z</time>
      </trkpt>
      <trkpt lat="43.64543" lon="1.37985">
        <ele>144</ele>
        <time>2025-03-25T18:48:16Z</time>
      </trkpt>
      <trkpt lat="43.64546" lon="1.37984">
        <ele>145</ele>
        <time>2025-03-25T18:48:17Z</time>
      </trkpt>
      <trkpt lat="43.64549" lon="1.37983">
        <ele>145</ele>
        <time>2025-03-25T18:48:18Z</time>
      </trkpt>
      <trkpt lat="43.64552" lon="1.37981">
        <ele>144</ele>
        <time>2025-03-25T18:48:19Z</time>
      </trkpt>
      <trkpt lat="43.64555" lon="1.37979">
        <ele>144</ele>
        <time>2025-03-25T18:48:20Z</time>
      </trkpt>
      <trkpt lat="43.64558" lon="1.37977">
        <ele>144</ele>
        <time>2025-03-25T18:48:21Z</time>
      </trkpt>
      <trkpt lat="43.64561" lon="1.37975">
        <ele>144</ele>
        <time>2025-03-25T18:48:22Z</time>
      </trkpt>
      <trkpt lat="43.64563" lon="1.37971">
        <ele>144</ele>
        <time>2025-03-25T18:48:23Z</time>
      </trkpt>
      <trkpt lat="43.64565" lon="1.37968">
        <ele>144</ele>
        <time>2025-03-25T18:48:24Z</time>
      </trkpt>
      <trkpt lat="43.64567" lon="1.37965">
        <ele>144</ele>
        <time>2025-03-25T18:48:25Z</time>
      </trkpt>
      <trkpt lat="43.64569" lon="1.37962">
        <ele>144</ele>
        <time>2025-03-25T18:48:26Z</time>
      </trkpt>
      <trkpt lat="43.6457" lon="1.37958">
        <ele>144</ele>
        <time>2025-03-25T18:48:27Z</time>
      </trkpt>
      <trkpt lat="43.6457" lon="1.37953">
        <ele>144</ele>
        <time>2025-03-25T18:48:28Z</time>
      </trkpt>
      <trkpt lat="43.64571" lon="1.37948">
        <ele>144</ele>
        <time>2025-03-25T18:48:29Z</time>
      </trkpt>
      <trkpt lat="43.64571" lon="1.37943">
        <ele>144</ele>
        <time>2025-03-25T18:48:30Z</time>
      </trkpt>
      <trkpt lat="43.64571" lon="1.37938">
        <ele>144</ele>
        <time>2025-03-25T18:48:31Z</time>
      </trkpt>
      <trkpt lat="43.6457" lon="1.37933">
        <ele>144</ele>
        <time>2025-03-25T18:48:32Z</time>
      </trkpt>
      <trkpt lat="43.64569" lon="1.37929">
        <ele>145</ele>
        <time>2025-03-25T18:48:33Z</time>
      </trkpt>
      <trkpt lat="43.64567" lon="1.37925">
        <ele>145</ele>
        <time>2025-03-25T18:48:34Z</time>
      </trkpt>
      <trkpt lat="43.64566" lon="1.37921">
        <ele>144</ele>
        <time>2025-03-25T18:48:35Z</time>
      </trkpt>
      <trkpt lat="43.64564" lon="1.37918">
        <ele>144</ele>
        <time>2025-03-25T18:48:36Z</time>
      </trkpt>
      <trkpt lat="43.64562" lon="1.37915">
        <ele>144</ele>
        <time>2025-03-25T18:48:37Z</time>
      </trkpt>
      <trkpt lat="43.6456" lon="1.37913">
        <ele>145</ele>
        <time>2025-03-25T18:48:38Z</time>
      </trkpt>
      <trkpt lat="43.64558" lon="1.37911">
        <ele>145</ele>
        <time>2025-03-25T18:48:39Z</time>
      </trkpt>
      <trkpt lat="43.64555" lon="1.37909">
        <ele>145</ele>
        <time>2025-03-25T18:48:40Z</time>
      </trkpt>
      <trkpt lat="43.64553" lon="1.37908">
        <ele>145</ele>
        <time>2025-03-25T18:48:41Z</time>
      </trkpt>
      <trkpt lat="43.6455" lon="1.37907">
        <ele>145</ele>
        <time>2025-03-25T18:48:42Z</time>
      </trkpt>
      <trkpt lat="43.64547" lon="1.37906">
        <ele>145</ele>
        <time>2025-03-25T18:48:43Z</time>
      </trkpt>
      <trkpt lat="43.64544" lon="1.37904">
        <ele>145</ele>
        <time>2025-03-25T18:48:44Z</time>
      </trkpt>
      <trkpt lat="43.64541" lon="1.37903">
        <ele>145</ele>
        <time>2025-03-25T18:48:45Z</time>
      </trkpt>
      <trkpt lat="43.64538" lon="1.37902">
        <ele>145</ele>
        <time>2025-03-25T18:48:46Z</time>
      </trkpt>
      <trkpt lat="43.64535" lon="1.379">
        <ele>145</ele>
        <time>2025-03-25T18:48:47Z</time>
      </trkpt>
      <trkpt lat="43.64532" lon="1.37898">
        <ele>145</ele>
        <time>2025-03-25T18:48:48Z</time>
      </trkpt>
      <trkpt lat="43.64529" lon="1.37896">
        <ele>145</ele>
        <time>2025-03-25T18:48:49Z</time>
      </trkpt>
      <trkpt lat="43.64526" lon="1.37894">
        <ele>144</ele>
        <time>2025-03-25T18:48:50Z</time>
      </trkpt>
      <trkpt lat="43.64523" lon="1.37893">
        <ele>144</ele>
        <time>2025-03-25T18:48:51Z</time>
      </trkpt>
      <trkpt lat="43.6452" lon="1.37891">
        <ele>144</ele>
        <time>2025-03-25T18:48:52Z</time>
      </trkpt>
      <trkpt lat="43.64518" lon="1.37889">
        <ele>144</ele>
        <time>2025-03-25T18:48:53Z</time>
      </trkpt>
      <trkpt lat="43.64515" lon="1.37887">
        <ele>144</ele>
        <time>2025-03-25T18:48:54Z</time>
      </trkpt>
      <trkpt lat="43.64512" lon="1.37885">
        <ele>144</ele>
        <time>2025-03-25T18:48:55Z</time>
      </trkpt>
      <trkpt lat="43.64509" lon="1.37883">
        <ele>144</ele>
        <time>2025-03-25T18:48:56Z</time>
      </trkpt>
      <trkpt lat="43.64506" lon="1.37881">
        <ele>144</ele>
        <time>2025-03-25T18:48:57Z</time>
      </trkpt>
      <trkpt lat="43.64503" lon="1.37879">
        <ele>144</ele>
        <time>2025-03-25T18:48:58Z</time>
      </trkpt>
      <trkpt lat="43.645" lon="1.37877">
        <ele>144</ele>
        <time>2025-03-25T18:48:59Z</time>
      </trkpt>
      <trkpt lat="43.64497" lon="1.37876">
        <ele>144</ele>
        <time>2025-03-25T18:49:00Z</time>
      </trkpt>
      <trkpt lat="43.64494" lon="1.37874">
        <ele>144</ele>
        <time>2025-03-25T18:49:01Z</time>
      </trkpt>
      <trkpt lat="43.64491" lon="1.37874">
        <ele>144</ele>
        <time>2025-03-25T18:49:02Z</time>
      </trkpt>
      <trkpt lat="43.64488" lon="1.37874">
        <ele>144</ele>
        <time>2025-03-25T18:49:03Z</time>
      </trkpt>
      <trkpt lat="43.64485" lon="1.37874">
        <ele>144</ele>
        <time>2025-03-25T18:49:04Z</time>
      </trkpt>
      <trkpt lat="43.64482" lon="1.37875">
        <ele>144</ele>
        <time>2025-03-25T18:49:05Z</time>
      </trkpt>
      <trkpt lat="43.64479" lon="1.37876">
        <ele>144</ele>
        <time>2025-03-25T18:49:06Z</time>
      </trkpt>
      <trkpt lat="43.64476" lon="1.37877">
        <ele>145</ele>
        <time>2025-03-25T18:49:07Z</time>
      </trkpt>
      <trkpt lat="43.6447" lon="1.37881">
        <ele>145</ele>
        <time>2025-03-25T18:49:08Z</time>
      </trkpt>
      <trkpt lat="43.6447" lon="1.37881">
        <ele>145</ele>
        <time>2025-03-25T18:49:09Z</time>
      </trkpt>
      <trkpt lat="43.64467" lon="1.37884">
        <ele>145</ele>
        <time>2025-03-25T18:49:10Z</time>
      </trkpt>
      <trkpt lat="43.64465" lon="1.37887">
        <ele>145</ele>
        <time>2025-03-25T18:49:11Z</time>
      </trkpt>
      <trkpt lat="43.64463" lon="1.3789">
        <ele>145</ele>
        <time>2025-03-25T18:49:12Z</time>
      </trkpt>
      <trkpt lat="43.64461" lon="1.37893">
        <ele>145</ele>
        <time>2025-03-25T18:49:13Z</time>
      </trkpt>
      <trkpt lat="43.6446" lon="1.37897">
        <ele>145</ele>
        <time>2025-03-25T18:49:14Z</time>
      </trkpt>
      <trkpt lat="43.64459" lon="1.37902">
        <ele>145</ele>
        <time>2025-03-25T18:49:15Z</time>
      </trkpt>
      <trkpt lat="43.64458" lon="1.37907">
        <ele>145</ele>
        <time>2025-03-25T18:49:16Z</time>
      </trkpt>
      <trkpt lat="43.64457" lon="1.37912">
        <ele>145</ele>
        <time>2025-03-25T18:49:17Z</time>
      </trkpt>
      <trkpt lat="43.64456" lon="1.37917">
        <ele>145</ele>
        <time>2025-03-25T18:49:18Z</time>
      </trkpt>
      <trkpt lat="43.64456" lon="1.37921">
        <ele>145</ele>
        <time>2025-03-25T18:49:19Z</time>
      </trkpt>
      <trkpt lat="43.64456" lon="1.37925">
        <ele>145</ele>
        <time>2025-03-25T18:49:20Z</time>
      </trkpt>
      <trkpt lat="43.64456" lon="1.37929">
        <ele>144</ele>
        <time>2025-03-25T18:49:21Z</time>
      </trkpt>
      <trkpt lat="43.64457" lon="1.37932">
        <ele>144</ele>
        <time>2025-03-25T18:49:22Z</time>
      </trkpt>
      <trkpt lat="43.64459" lon="1.37936">
        <ele>144</ele>
        <time>2025-03-25T18:49:23Z</time>
      </trkpt>
      <trkpt lat="43.64461" lon="1.37939">
        <ele>144</ele>
        <time>2025-03-25T18:49:24Z</time>
      </trkpt>
      <trkpt lat="43.64462" lon="1.37943">
        <ele>144</ele>
        <time>2025-03-25T18:49:25Z</time>
      </trkpt>
      <trkpt lat="43.64465" lon="1.37946">
        <ele>144</ele>
        <time>2025-03-25T18:49:26Z</time>
      </trkpt>
      <trkpt lat="43.6447" lon="1.3795">
        <ele>144</ele>
        <time>2025-03-25T18:49:27Z</time>
      </trkpt>
      <trkpt lat="43.6447" lon="1.3795">
        <ele>145</ele>
        <time>2025-03-25T18:49:28Z</time>
      </trkpt>
      <trkpt lat="43.64472" lon="1.37952">
        <ele>145</ele>
        <time>2025-03-25T18:49:29Z</time>
      </trkpt>
      <trkpt lat="43.64475" lon="1.37954">
        <ele>144</ele>
        <time>2025-03-25T18:49:30Z</time>
      </trkpt>
      <trkpt lat="43.64477" lon="1.37956">
        <ele>143</ele>
        <time>2025-03-25T18:49:31Z</time>
      </trkpt>
      <trkpt lat="43.6448" lon="1.37957">
        <ele>144</ele>
        <time>2025-03-25T18:49:32Z</time>
      </trkpt>
      <trkpt lat="43.64483" lon="1.37959">
        <ele>144</ele>
        <time>2025-03-25T18:49:33Z</time>
      </trkpt>
      <trkpt lat="43.64485" lon="1.37961">
        <ele>145</ele>
        <time>2025-03-25T18:49:34Z</time>
      </trkpt>
      <trkpt lat="43.64488" lon="1.37962">
        <ele>145</ele>
        <time>2025-03-25T18:49:35Z</time>
      </trkpt>
      <trkpt lat="43.6449" lon="1.37964">
        <ele>144</ele>
        <time>2025-03-25T18:49:36Z</time>
      </trkpt>
      <trkpt lat="43.64493" lon="1.37967">
        <ele>144</ele>
        <time>2025-03-25T18:49:37Z</time>
      </trkpt>
      <trkpt lat="43.64495" lon="1.37968">
        <ele>144</ele>
        <time>2025-03-25T18:49:38Z</time>
      </trkpt>
      <trkpt lat="43.64498" lon="1.3797">
        <ele>144</ele>
        <time>2025-03-25T18:49:39Z</time>
      </trkpt>
      <trkpt lat="43.645" lon="1.37971">
        <ele>144</ele>
        <time>2025-03-25T18:49:40Z</time>
      </trkpt>
      <trkpt lat="43.64503" lon="1.37973">
        <ele>144</ele>
        <time>2025-03-25T18:49:41Z</time>
      </trkpt>
      <trkpt lat="43.64507" lon="1.37975">
        <ele>144</ele>
        <time>2025-03-25T18:49:42Z</time>
      </trkpt>
      <trkpt lat="43.6451" lon="1.37977">
        <ele>144</ele>
        <time>2025-03-25T18:49:43Z</time>
      </trkpt>
      <trkpt lat="43.64516" lon="1.3798">
        <ele>144</ele>
        <time>2025-03-25T18:49:44Z</time>
      </trkpt>
      <trkpt lat="43.64517" lon="1.37981">
        <ele>144</ele>
        <time>2025-03-25T18:49:45Z</time>
      </trkpt>
      <trkpt lat="43.64521" lon="1.37983">
        <ele>144</ele>
        <time>2025-03-25T18:49:46Z</time>
      </trkpt>
      <trkpt lat="43.64523" lon="1.37984">
        <ele>144</ele>
        <time>2025-03-25T18:49:47Z</time>
      </trkpt>
      <trkpt lat="43.64525" lon="1.37986">
        <ele>144</ele>
        <time>2025-03-25T18:49:48Z</time>
      </trkpt>
      <trkpt lat="43.64525" lon="1.37986">
        <ele>144</ele>
        <time>2025-03-25T18:49:49Z</time>
      </trkpt>
      <trkpt lat="43.64527" lon="1.37988">
        <ele>143</ele>
        <time>2025-03-25T18:49:50Z</time>
      </trkpt>
      <trkpt lat="43.64529" lon="1.37988">
        <ele>144</ele>
        <time>2025-03-25T18:49:51Z</time>
      </trkpt>
      <trkpt lat="43.64532" lon="1.37989">
        <ele>144</ele>
        <time>2025-03-25T18:49:52Z</time>
      </trkpt>
      <trkpt lat="43.64532" lon="1.37989">
        <ele>144</ele>
        <time>2025-03-25T18:49:53Z</time>
      </trkpt>
      <trkpt lat="43.64534" lon="1.3799">
        <ele>144</ele>
        <time>2025-03-25T18:49:54Z</time>
      </trkpt>
      <trkpt lat="43.64534" lon="1.3799">
        <ele>144</ele>
        <time>2025-03-25T18:49:55Z</time>
      </trkpt>
      <trkpt lat="43.64534" lon="1.3799">
        <ele>144</ele>
        <time>2025-03-25T18:49:56Z</time>
      </trkpt>
      <trkpt lat="43.64534" lon="1.3799">
        <ele>144</ele>
        <time>2025-03-25T18:49:57Z</time>
      </trkpt>
      <trkpt lat="43.64537" lon="1.37989">
        <ele>144</ele>
        <time>2025-03-25T18:49:58Z</time>
      </trkpt>
      <trkpt lat="43.64537" lon="1.37989">
        <ele>144</ele>
        <time>2025-03-25T18:49:59Z</time>
      </trkpt>
      <trkpt lat="43.64539" lon="1.37989">
        <ele>144</ele>
        <time>2025-03-25T18:50:00Z</time>
      </trkpt>
      <trkpt lat="43.64539" lon="1.37989">
        <ele>144</ele>
        <time>2025-03-25T18:50:01Z</time>
      </trkpt>
      <trkpt lat="43.64539" lon="1.37989">
        <ele>144</ele>
        <time>2025-03-25T18:50:02Z</time>
      </trkpt>
      <trkpt lat="43.64541" lon="1.37989">
        <ele>144</ele>
        <time>2025-03-25T18:50:03Z</time>
      </trkpt>
      <trkpt lat="43.64541" lon="1.37989">
        <ele>144</ele>
        <time>2025-03-25T18:50:04Z</time>
      </trkpt>
      <trkpt lat="43.64544" lon="1.3799">
        <ele>144</ele>
        <time>2025-03-25T18:50:05Z</time>
      </trkpt>
      <trkpt lat="43.64544" lon="1.3799">
        <ele>144</ele>
        <time>2025-03-25T18:50:06Z</time>
      </trkpt>
      <trkpt lat="43.64544" lon="1.3799">
        <ele>144</ele>
        <time>2025-03-25T18:50:07Z</time>
      </trkpt>
      <trkpt lat="43.64545" lon="1.3799">
        <ele>144</ele>
        <time>2025-03-25T18:50:08Z</time>
      </trkpt>
      <trkpt lat="43.64545" lon="1.3799">
        <ele>144</ele>
        <time>2025-03-25T18:50:09Z</time>
      </trkpt>
      <trkpt lat="43.64545" lon="1.3799">
        <ele>144</ele>
        <time>2025-03-25T18:50:10Z</time>
      </trkpt>
      <trkpt lat="43.64545" lon="1.3799">
        <ele>144</ele>
        <time>2025-03-25T18:50:11Z</time>
      </trkpt>
      <trkpt lat="43.64543" lon="1.37987">
        <ele>144</ele>
        <time>2025-03-25T18:50:12Z</time>
      </trkpt>
      <trkpt lat="43.64543" lon="1.37987">
        <ele>144</ele>
        <time>2025-03-25T18:50:13Z</time>
      </trkpt>
      <trkpt lat="43.64543" lon="1.37987">
        <ele>144</ele>
        <time>2025-03-25T18:50:14Z</time>
      </trkpt>
      <trkpt lat="43.64541" lon="1.37987">
        <ele>145</ele>
        <time>2025-03-25T18:50:15Z</time>
      </trkpt>
      <trkpt lat="43.64541" lon="1.37987">
        <ele>145</ele>
        <time>2025-03-25T18:50:16Z</time>
      </trkpt>
      <trkpt lat="43.64541" lon="1.37987">
        <ele>145</ele>
        <time>2025-03-25T18:50:17Z</time>
      </trkpt>
      <trkpt lat="43.64541" lon="1.37987">
        <ele>145</ele>
        <time>2025-03-25T18:50:18Z</time>
      </trkpt>
      <trkpt lat="43.6454" lon="1.37988">
        <ele>145</ele>
        <time>2025-03-25T18:50:19Z</time>
      </trkpt>
      <trkpt lat="43.6454" lon="1.37988">
        <ele>145</ele>
        <time>2025-03-25T18:50:20Z</time>
      </trkpt>
      <trkpt lat="43.6454" lon="1.37988">
        <ele>145</ele>
        <time>2025-03-25T18:50:21Z</time>
      </trkpt>
      <trkpt lat="43.6454" lon="1.37988">
        <ele>145</ele>
        <time>2025-03-25T18:50:22Z</time>
      </trkpt>
      <trkpt lat="43.6454" lon="1.37988">
        <ele>145</ele>
        <time>2025-03-25T18:50:23Z</time>
      </trkpt>
      <trkpt lat="43.6454" lon="1.37988">
        <ele>145</ele>
        <time>2025-03-25T18:50:24Z</time>
      </trkpt>
      <trkpt lat="43.64539" lon="1.3799">
        <ele>145</ele>
        <time>2025-03-25T18:50:25Z</time>
      </trkpt>
      <trkpt lat="43.64539" lon="1.3799">
        <ele>145</ele>
        <time>2025-03-25T18:50:26Z</time>
      </trkpt>
      <trkpt lat="43.64539" lon="1.3799">
        <ele>145</ele>
        <time>2025-03-25T18:50:27Z</time>
      </trkpt>
      <trkpt lat="43.64539" lon="1.3799">
        <ele>145</ele>
        <time>2025-03-25T18:50:28Z</time>
      </trkpt>
      <trkpt lat="43.64539" lon="1.3799">
        <ele>145</ele>
        <time>2025-03-25T18:50:29Z</time>
      </trkpt>
      <trkpt lat="43.64539" lon="1.3799">
        <ele>144</ele>
        <time>2025-03-25T18:50:30Z</time>
      </trkpt>
      <trkpt lat="43.64539" lon="1.3799">
        <ele>144</ele>
        <time>2025-03-25T18:50:31Z</time>
      </trkpt>
      <trkpt lat="43.64539" lon="1.3799">
        <ele>144</ele>
        <time>2025-03-25T18:50:32Z</time>
      </trkpt>
      <trkpt lat="43.64539" lon="1.3799">
        <ele>144</ele>
        <time>2025-03-25T18:50:33Z</time>
      </trkpt>
      <trkpt lat="43.64539" lon="1.3799">
        <ele>144</ele>
        <time>2025-03-25T18:50:34Z</time>
      </trkpt>
      <trkpt lat="43.6454" lon="1.37993">
        <ele>144</ele>
        <time>2025-03-25T18:50:35Z</time>
      </trkpt>
      <trkpt lat="43.6454" lon="1.37993">
        <ele>144</ele>
        <time>2025-03-25T18:50:36Z</time>
      </trkpt>
      <trkpt lat="43.6454" lon="1.37993">
        <ele>144</ele>
        <time>2025-03-25T18:50:37Z</time>
      </trkpt>
      <trkpt lat="43.6454" lon="1.37993">
        <ele>144</ele>
        <time>2025-03-25T18:50:38Z</time>
      </trkpt>
      <trkpt lat="43.6454" lon="1.37996">
        <ele>144</ele>
        <time>2025-03-25T18:50:39Z</time>
      </trkpt>
      <trkpt lat="43.6454" lon="1.37996">
        <ele>144</ele>
        <time>2025-03-25T18:50:40Z</time>
      </trkpt>
      <trkpt lat="43.64542" lon="1.37997">
        <ele>144</ele>
        <time>2025-03-25T18:50:41Z</time>
      </trkpt>
      <trkpt lat="43.64542" lon="1.37997">
        <ele>144</ele>
        <time>2025-03-25T18:50:42Z</time>
      </trkpt>
      <trkpt lat="43.64542" lon="1.37997">
        <ele>144</ele>
        <time>2025-03-25T18:50:43Z</time>
      </trkpt>
      <trkpt lat="43.64544" lon="1.37997">
        <ele>144</ele>
        <time>2025-03-25T18:50:44Z</time>
      </trkpt>
      <trkpt lat="43.64544" lon="1.37997">
        <ele>144</ele>
        <time>2025-03-25T18:50:45Z</time>
      </trkpt>
      <trkpt lat="43.64546" lon="1.37996">
        <ele>144</ele>
        <time>2025-03-25T18:50:46Z</time>
      </trkpt>
      <trkpt lat="43.64546" lon="1.37996">
        <ele>144</ele>
        <time>2025-03-25T18:50:47Z</time>
      </trkpt>
      <trkpt lat="43.64546" lon="1.37996">
        <ele>144</ele>
        <time>2025-03-25T18:50:48Z</time>
      </trkpt>
      <trkpt lat="43.64546" lon="1.37996">
        <ele>144</ele>
        <time>2025-03-25T18:50:49Z</time>
      </trkpt>
      <trkpt lat="43.64547" lon="1.37993">
        <ele>144</ele>
        <time>2025-03-25T18:50:50Z</time>
      </trkpt>
      <trkpt lat="43.64547" lon="1.37993">
        <ele>144</ele>
        <time>2025-03-25T18:50:51Z</time>
      </trkpt>
      <trkpt lat="43.64547" lon="1.37993">
        <ele>144</ele>
        <time>2025-03-25T18:50:52Z</time>
      </trkpt>
      <trkpt lat="43.64547" lon="1.37993">
        <ele>144</ele>
        <time>2025-03-25T18:50:53Z</time>
      </trkpt>
      <trkpt lat="43.64547" lon="1.37993">
        <ele>144</ele>
        <time>2025-03-25T18:50:54Z</time>
      </trkpt>
      <trkpt lat="43.64547" lon="1.37993">
        <ele>144</ele>
        <time>2025-03-25T18:50:55Z</time>
      </trkpt>
      <trkpt lat="43.64547" lon="1.37993">
        <ele>144</ele>
        <time>2025-03-25T18:50:56Z</time>
      </trkpt>
      <trkpt lat="43.64547" lon="1.37993">
        <ele>144</ele>
        <time>2025-03-25T18:50:57Z</time>
      </trkpt>
      <trkpt lat="43.64547" lon="1.37993">
        <ele>144</ele>
        <time>2025-03-25T18:50:58Z</time>
      </trkpt>
      <trkpt lat="43.64546" lon="1.37991">
        <ele>144</ele>
        <time>2025-03-25T18:50:59Z</time>
      </trkpt>
      <trkpt lat="43.64546" lon="1.37991">
        <ele>144</ele>
        <time>2025-03-25T18:51:00Z</time>
      </trkpt>
      <trkpt lat="43.64546" lon="1.37991">
        <ele>144</ele>
        <time>2025-03-25T18:51:01Z</time>
      </trkpt>
      <trkpt lat="43.64544" lon="1.37989">
        <ele>144</ele>
        <time>2025-03-25T18:51:02Z</time>
      </trkpt>
      <trkpt lat="43.64544" lon="1.37989">
        <ele>144</ele>
        <time>2025-03-25T18:51:03Z</time>
      </trkpt>
      <trkpt lat="43.64544" lon="1.37989">
        <ele>144</ele>
        <time>2025-03-25T18:51:04Z</time>
      </trkpt>
      <trkpt lat="43.64543" lon="1.37986">
        <ele>144</ele>
        <time>2025-03-25T18:51:05Z</time>
      </trkpt>
      <trkpt lat="43.64543" lon="1.37986">
        <ele>144</ele>
        <time>2025-03-25T18:51:06Z</time>
      </trkpt>
      <trkpt lat="43.64543" lon="1.37986">
        <ele>145</ele>
        <time>2025-03-25T18:51:07Z</time>
      </trkpt>
      <trkpt lat="43.64543" lon="1.37986">
        <ele>145</ele>
        <time>2025-03-25T18:51:08Z</time>
      </trkpt>
      <trkpt lat="43.64543" lon="1.37986">
        <ele>145</ele>
        <time>2025-03-25T18:51:09Z</time>
      </trkpt>
      <trkpt lat="43.64543" lon="1.37986">
        <ele>145</ele>
        <time>2025-03-25T18:51:10Z</time>
      </trkpt>
      <trkpt lat="43.64543" lon="1.37986">
        <ele>145</ele>
        <time>2025-03-25T18:51:11Z</time>
      </trkpt>
      <trkpt lat="43.64543" lon="1.37986">
        <ele>145</ele>
        <time>2025-03-25T18:51:12Z</time>
      </trkpt>
      <trkpt lat="43.64543" lon="1.37986">
        <ele>145</ele>
        <time>2025-03-25T18:51:13Z</time>
      </trkpt>
      <trkpt lat="43.64543" lon="1.37986">
        <ele>145</ele>
        <time>2025-03-25T18:51:14Z</time>
      </trkpt>
      <trkpt lat="43.64543" lon="1.37989">
        <ele>145</ele>
        <time>2025-03-25T18:51:15Z</time>
      </trkpt>
      <trkpt lat="43.64543" lon="1.37989">
        <ele>144</ele>
        <time>2025-03-25T18:51:16Z</time>
      </trkpt>
      <trkpt lat="43.64543" lon="1.37989">
        <ele>144</ele>
        <time>2025-03-25T18:51:17Z</time>
      </trkpt>
      <trkpt lat="43.64543" lon="1.37989">
        <ele>144</ele>
        <time>2025-03-25T18:51:18Z</time>
      </trkpt>
      <trkpt lat="43.64543" lon="1.37992">
        <ele>144</ele>
        <time>2025-03-25T18:51:19Z</time>
      </trkpt>
      <trkpt lat="43.64543" lon="1.37992">
        <ele>144</ele>
        <time>2025-03-25T18:51:20Z</time>
      </trkpt>
      <trkpt lat="43.64543" lon="1.37992">
        <ele>144</ele>
        <time>2025-03-25T18:51:21Z</time>
      </trkpt>
      <trkpt lat="43.64543" lon="1.37992">
        <ele>144</ele>
        <time>2025-03-25T18:51:22Z</time>
      </trkpt>
      <trkpt lat="43.64545" lon="1.37993">
        <ele>144</ele>
        <time>2025-03-25T18:51:23Z</time>
      </trkpt>
      <trkpt lat="43.64545" lon="1.37993">
        <ele>144</ele>
        <time>2025-03-25T18:51:24Z</time>
      </trkpt>
      <trkpt lat="43.64545" lon="1.37993">
        <ele>144</ele>
        <time>2025-03-25T18:51:25Z</time>
      </trkpt>
      <trkpt lat="43.64546" lon="1.37991">
        <ele>144</ele>
        <time>2025-03-25T18:51:26Z</time>
      </trkpt>
      <trkpt lat="43.64546" lon="1.37991">
        <ele>144</ele>
        <time>2025-03-25T18:51:27Z</time>
      </trkpt>
      <trkpt lat="43.64547" lon="1.37988">
        <ele>144</ele>
        <time>2025-03-25T18:51:28Z</time>
      </trkpt>
      <trkpt lat="43.64547" lon="1.37988">
        <ele>144</ele>
        <time>2025-03-25T18:51:29Z</time>
      </trkpt>
      <trkpt lat="43.64547" lon="1.37988">
        <ele>144</ele>
        <time>2025-03-25T18:51:30Z</time>
      </trkpt>
      <trkpt lat="43.64548" lon="1.37986">
        <ele>144</ele>
        <time>2025-03-25T18:51:31Z</time>
      </trkpt>
      <trkpt lat="43.64548" lon="1.37986">
        <ele>144</ele>
        <time>2025-03-25T18:51:32Z</time>
      </trkpt>
      <trkpt lat="43.64548" lon="1.37986">
        <ele>144</ele>
        <time>2025-03-25T18:51:33Z</time>
      </trkpt>
      <trkpt lat="43.64551" lon="1.37987">
        <ele>144</ele>
        <time>2025-03-25T18:51:34Z</time>
      </trkpt>
      <trkpt lat="43.64551" lon="1.37987">
        <ele>144</ele>
        <time>2025-03-25T18:51:35Z</time>
      </trkpt>
      <trkpt lat="43.64551" lon="1.37987">
        <ele>145</ele>
        <time>2025-03-25T18:51:36Z</time>
      </trkpt>
      <trkpt lat="43.64553" lon="1.37985">
        <ele>145</ele>
        <time>2025-03-25T18:51:37Z</time>
      </trkpt>
      <trkpt lat="43.64553" lon="1.37985">
        <ele>145</ele>
        <time>2025-03-25T18:51:38Z</time>
      </trkpt>
      <trkpt lat="43.64553" lon="1.37985">
        <ele>145</ele>
        <time>2025-03-25T18:51:39Z</time>
      </trkpt>
      <trkpt lat="43.64554" lon="1.37983">
        <ele>144</ele>
        <time>2025-03-25T18:51:40Z</time>
      </trkpt>
      <trkpt lat="43.64554" lon="1.37983">
        <ele>144</ele>
        <time>2025-03-25T18:51:41Z</time>
      </trkpt>
      <trkpt lat="43.64554" lon="1.37983">
        <ele>144</ele>
        <time>2025-03-25T18:51:42Z</time>
      </trkpt>
      <trkpt lat="43.64556" lon="1.37982">
        <ele>144</ele>
        <time>2025-03-25T18:51:43Z</time>
      </trkpt>
      <trkpt lat="43.64556" lon="1.37982">
        <ele>144</ele>
        <time>2025-03-25T18:51:44Z</time>
      </trkpt>
      <trkpt lat="43.64556" lon="1.37982">
        <ele>144</ele>
        <time>2025-03-25T18:51:45Z</time>
      </trkpt>
      <trkpt lat="43.64556" lon="1.37982">
        <ele>144</ele>
        <time>2025-03-25T18:51:46Z</time>
      </trkpt>
      <trkpt lat="43.64557" lon="1.37983">
        <ele>144</ele>
        <time>2025-03-25T18:51:47Z</time>
      </trkpt>
      <trkpt lat="43.64557" lon="1.37983">
        <ele>144</ele>
        <time>2025-03-25T18:51:48Z</time>
      </trkpt>
      <trkpt lat="43.64557" lon="1.37983">
        <ele>144</ele>
        <time>2025-03-25T18:51:49Z</time>
      </trkpt>
      <trkpt lat="43.64557" lon="1.37983">
        <ele>144</ele>
        <time>2025-03-25T18:51:50Z</time>
      </trkpt>
      <trkpt lat="43.64557" lon="1.37983">
        <ele>144</ele>
        <time>2025-03-25T18:51:51Z</time>
      </trkpt>
      <trkpt lat="43.64557" lon="1.37983">
        <ele>144</ele>
        <time>2025-03-25T18:51:52Z</time>
      </trkpt>
      <trkpt lat="43.64557" lon="1.37983">
        <ele>144</ele>
        <time>2025-03-25T18:51:53Z</time>
      </trkpt>
      <trkpt lat="43.64557" lon="1.37983">
        <ele>144</ele>
        <time>2025-03-25T18:51:54Z</time>
      </trkpt>
      <trkpt lat="43.64557" lon="1.37983">
        <ele>144</ele>
        <time>2025-03-25T18:51:55Z</time>
      </trkpt>
      <trkpt lat="43.64557" lon="1.37983">
        <ele>144</ele>
        <time>2025-03-25T18:51:56Z</time>
      </trkpt>
      <trkpt lat="43.64557" lon="1.37983">
        <ele>144</ele>
        <time>2025-03-25T18:51:57Z</time>
      </trkpt>
      <trkpt lat="43.64557" lon="1.37983">
        <ele>144</ele>
        <time>2025-03-25T18:51:58Z</time>
      </trkpt>
      <trkpt lat="43.64557" lon="1.37983">
        <ele>144</ele>
        <time>2025-03-25T18:51:59Z</time>
      </trkpt>
      <trkpt lat="43.64557" lon="1.37983">
        <ele>144</ele>
        <time>2025-03-25T18:52:00Z</time>
      </trkpt>
      <trkpt lat="43.64557" lon="1.37983">
        <ele>144</ele>
        <time>2025-03-25T18:52:01Z</time>
      </trkpt>
      <trkpt lat="43.64557" lon="1.37983">
        <ele>144</ele>
        <time>2025-03-25T18:52:02Z</time>
      </trkpt>
      <trkpt lat="43.64557" lon="1.37983">
        <ele>144</ele>
        <time>2025-03-25T18:52:03Z</time>
      </trkpt>
      <trkpt lat="43.64557" lon="1.37983">
        <ele>144</ele>
        <time>2025-03-25T18:52:04Z</time>
      </trkpt>
      <trkpt lat="43.64557" lon="1.37983">
        <ele>144</ele>
        <time>2025-03-25T18:52:05Z</time>
      </trkpt>
      <trkpt lat="43.64557" lon="1.37983">
        <ele>144</ele>
        <time>2025-03-25T18:52:06Z</time>
      </trkpt>
      <trkpt lat="43.64557" lon="1.37983">
        <ele>144</ele>
        <time>2025-03-25T18:52:07Z</time>
      </trkpt>
      <trkpt lat="43.64557" lon="1.37983">
        <ele>144</ele>
        <time>2025-03-25T18:52:08Z</time>
      </trkpt>
      <trkpt lat="43.64557" lon="1.37983">
        <ele>144</ele>
        <time>2025-03-25T18:52:09Z</time>
      </trkpt>
      <trkpt lat="43.64557" lon="1.37983">
        <ele>144</ele>
        <time>2025-03-25T18:52:10Z</time>
      </trkpt>
      <trkpt lat="43.64557" lon="1.37983">
        <ele>144</ele>
        <time>2025-03-25T18:52:11Z</time>
      </trkpt>
      <trkpt lat="43.64557" lon="1.37983">
        <ele>144</ele>
        <time>2025-03-25T18:52:12Z</time>
      </trkpt>
      <trkpt lat="43.64557" lon="1.37983">
        <ele>144</ele>
        <time>2025-03-25T18:52:13Z</time>
      </trkpt>
      <trkpt lat="43.64557" lon="1.37983">
        <ele>144</ele>
        <time>2025-03-25T18:52:14Z</time>
      </trkpt>
      <trkpt lat="43.64557" lon="1.37983">
        <ele>144</ele>
        <time>2025-03-25T18:52:15Z</time>
      </trkpt>
      <trkpt lat="43.64557" lon="1.37983">
        <ele>144</ele>
        <time>2025-03-25T18:52:16Z</time>
      </trkpt>
      <trkpt lat="43.64556" lon="1.37982">
        <ele>144</ele>
        <time>2025-03-25T18:52:17Z</time>
      </trkpt>
      <trkpt lat="43.64556" lon="1.37982">
        <ele>144</ele>
        <time>2025-03-25T18:52:18Z</time>
      </trkpt>
      <trkpt lat="43.64556" lon="1.37982">
        <ele>144</ele>
        <time>2025-03-25T18:52:19Z</time>
      </trkpt>
      <trkpt lat="43.64556" lon="1.37982">
        <ele>144</ele>
        <time>2025-03-25T18:52:20Z</time>
      </trkpt>
      <trkpt lat="43.64556" lon="1.37982">
        <ele>144</ele>
        <time>2025-03-25T18:52:21Z</time>
      </trkpt>
      <trkpt lat="43.64556" lon="1.37982">
        <ele>144</ele>
        <time>2025-03-25T18:52:22Z</time>
      </trkpt>
      <trkpt lat="43.64556" lon="1.37982">
        <ele>144</ele>
        <time>2025-03-25T18:52:23Z</time>
      </trkpt>
      <trkpt lat="43.64556" lon="1.37982">
        <ele>144</ele>
        <time>2025-03-25T18:52:24Z</time>
      </trkpt>
      <trkpt lat="43.64556" lon="1.37982">
        <ele>144</ele>
        <time>2025-03-25T18:52:25Z</time>
      </trkpt>
      <trkpt lat="43.64556" lon="1.37982">
        <ele>144</ele>
        <time>2025-03-25T18:52:26Z</time>
      </trkpt>
      <trkpt lat="43.64556" lon="1.37982">
        <ele>144</ele>
        <time>2025-03-25T18:52:27Z</time>
      </trkpt>
      <trkpt lat="43.64556" lon="1.37982">
        <ele>144</ele>
        <time>2025-03-25T18:52:28Z</time>
      </trkpt>
      <trkpt lat="43.64556" lon="1.37982">
        <ele>145</ele>
        <time>2025-03-25T18:52:29Z</time>
      </trkpt>
      <trkpt lat="43.64556" lon="1.37982">
        <ele>145</ele>
        <time>2025-03-25T18:52:30Z</time>
      </trkpt>
      <trkpt lat="43.64556" lon="1.37982">
        <ele>145</ele>
        <time>2025-03-25T18:52:31Z</time>
      </trkpt>
      <trkpt lat="43.64556" lon="1.37982">
        <ele>145</ele>
        <time>2025-03-25T18:52:32Z</time>
      </trkpt>
      <trkpt lat="43.64556" lon="1.37982">
        <ele>144</ele>
        <time>2025-03-25T18:52:33Z</time>
      </trkpt>
      <trkpt lat="43.64556" lon="1.37982">
        <ele>144</ele>
        <time>2025-03-25T18:52:34Z</time>
      </trkpt>
      <trkpt lat="43.64556" lon="1.37982">
        <ele>144</ele>
        <time>2025-03-25T18:52:35Z</time>
      </trkpt>
      <trkpt lat="43.64556" lon="1.37982">
        <ele>144</ele>
        <time>2025-03-25T18:52:36Z</time>
      </trkpt>
      <trkpt lat="43.64556" lon="1.37982">
        <ele>144</ele>
        <time>2025-03-25T18:52:37Z</time>
      </trkpt>
      <trkpt lat="43.64556" lon="1.37982">
        <ele>144</ele>
        <time>2025-03-25T18:52:38Z</time>
      </trkpt>
      <trkpt lat="43.64556" lon="1.37982">
        <ele>144</ele>
        <time>2025-03-25T18:52:39Z</time>
      </trkpt>
      <trkpt lat="43.64556" lon="1.37982">
        <ele>144</ele>
        <time>2025-03-25T18:52:40Z</time>
      </trkpt>
      <trkpt lat="43.64556" lon="1.37982">
        <ele>144</ele>
        <time>2025-03-25T18:52:41Z</time>
      </trkpt>
      <trkpt lat="43.64556" lon="1.37982">
        <ele>144</ele>
        <time>2025-03-25T18:52:42Z</time>
      </trkpt>
      <trkpt lat="43.64556" lon="1.37982">
        <ele>144</ele>
        <time>2025-03-25T18:52:43Z</time>
      </trkpt>
      <trkpt lat="43.64556" lon="1.37982">
        <ele>144</ele>
        <time>2025-03-25T18:52:44Z</time>
      </trkpt>
      <trkpt lat="43.64556" lon="1.37982">
        <ele>144</ele>
        <time>2025-03-25T18:52:45Z</time>
      </trkpt>
      <trkpt lat="43.64554" lon="1.37985">
        <ele>144</ele>
        <time>2025-03-25T18:52:46Z</time>
      </trkpt>
      <trkpt lat="43.64554" lon="1.37985">
        <ele>144</ele>
        <time>2025-03-25T18:52:47Z</time>
      </trkpt>
      <trkpt lat="43.64554" lon="1.37985">
        <ele>144</ele>
        <time>2025-03-25T18:52:48Z</time>
      </trkpt>
      <trkpt lat="43.64554" lon="1.37985">
        <ele>144</ele>
        <time>2025-03-25T18:52:49Z</time>
      </trkpt>
      <trkpt lat="43.64554" lon="1.37985">
        <ele>144</ele>
        <time>2025-03-25T18:52:50Z</time>
      </trkpt>
      <trkpt lat="43.64554" lon="1.37985">
        <ele>144</ele>
        <time>2025-03-25T18:52:51Z</time>
      </trkpt>
      <trkpt lat="43.64554" lon="1.37985">
        <ele>144</ele>
        <time>2025-03-25T18:52:52Z</time>
      </trkpt>
      <trkpt lat="43.64554" lon="1.37985">
        <ele>144</ele>
        <time>2025-03-25T18:52:53Z</time>
      </trkpt>
      <trkpt lat="43.64554" lon="1.37985">
        <ele>144</ele>
        <time>2025-03-25T18:52:54Z</time>
      </trkpt>
      <trkpt lat="43.64554" lon="1.37985">
        <ele>144</ele>
        <time>2025-03-25T18:52:55Z</time>
      </trkpt>
      <trkpt lat="43.64554" lon="1.37985">
        <ele>144</ele>
        <time>2025-03-25T18:52:56Z</time>
      </trkpt>
      <trkpt lat="43.64554" lon="1.37985">
        <ele>144</ele>
        <time>2025-03-25T18:52:57Z</time>
      </trkpt>
      <trkpt lat="43.64554" lon="1.37985">
        <ele>144</ele>
        <time>2025-03-25T18:52:58Z</time>
      </trkpt>
      <trkpt lat="43.64554" lon="1.37985">
        <ele>144</ele>
        <time>2025-03-25T18:52:59Z</time>
      </trkpt>
      <trkpt lat="43.64554" lon="1.37985">
        <ele>144</ele>
        <time>2025-03-25T18:53:00Z</time>
      </trkpt>
      <trkpt lat="43.64554" lon="1.37985">
        <ele>144</ele>
        <time>2025-03-25T18:53:01Z</time>
      </trkpt>
      <trkpt lat="43.64554" lon="1.37985">
        <ele>144</ele>
        <time>2025-03-25T18:53:02Z</time>
      </trkpt>
      <trkpt lat="43.64554" lon="1.37985">
        <ele>144</ele>
        <time>2025-03-25T18:53:03Z</time>
      </trkpt>
      <trkpt lat="43.64554" lon="1.37985">
        <ele>144</ele>
        <time>2025-03-25T18:53:04Z</time>
      </trkpt>
      <trkpt lat="43.64556" lon="1.37986">
        <ele>144</ele>
        <time>2025-03-25T18:53:05Z</time>
      </trkpt>
      <trkpt lat="43.64556" lon="1.37986">
        <ele>144</ele>
        <time>2025-03-25T18:53:06Z</time>
      </trkpt>
      <trkpt lat="43.64557" lon="1.37986">
        <ele>144</ele>
        <time>2025-03-25T18:53:07Z</time>
      </trkpt>
      <trkpt lat="43.64557" lon="1.37985">
        <ele>144</ele>
        <time>2025-03-25T18:53:08Z</time>
      </trkpt>
      <trkpt lat="43.64557" lon="1.37985">
        <ele>144</ele>
        <time>2025-03-25T18:53:09Z</time>
      </trkpt>
      <trkpt lat="43.64557" lon="1.37985">
        <ele>144</ele>
        <time>2025-03-25T18:53:10Z</time>
      </trkpt>
      <trkpt lat="43.64558" lon="1.37985">
        <ele>144</ele>
        <time>2025-03-25T18:53:11Z</time>
      </trkpt>
      <trkpt lat="43.64558" lon="1.37985">
        <ele>144</ele>
        <time>2025-03-25T18:53:12Z</time>
      </trkpt>
      <trkpt lat="43.64558" lon="1.37984">
        <ele>144</ele>
        <time>2025-03-25T18:53:13Z</time>
      </trkpt>
      <trkpt lat="43.64558" lon="1.37984">
        <ele>144</ele>
        <time>2025-03-25T18:53:14Z</time>
      </trkpt>
      <trkpt lat="43.64559" lon="1.37984">
        <ele>144</ele>
        <time>2025-03-25T18:53:15Z</time>
      </trkpt>
      <trkpt lat="43.64559" lon="1.37984">
        <ele>144</ele>
        <time>2025-03-25T18:53:16Z</time>
      </trkpt>
      <trkpt lat="43.64559" lon="1.37983">
        <ele>144</ele>
        <time>2025-03-25T18:53:17Z</time>
      </trkpt>
      <trkpt lat="43.64559" lon="1.37983">
        <ele>144</ele>
        <time>2025-03-25T18:53:18Z</time>
      </trkpt>
      <trkpt lat="43.6456" lon="1.37983">
        <ele>144</ele>
        <time>2025-03-25T18:53:19Z</time>
      </trkpt>
      <trkpt lat="43.6456" lon="1.37983">
        <ele>144</ele>
        <time>2025-03-25T18:53:20Z</time>
      </trkpt>
      <trkpt lat="43.64563" lon="1.37979">
        <ele>144</ele>
        <time>2025-03-25T18:53:21Z</time>
      </trkpt>
      <trkpt lat="43.64566" lon="1.37975">
        <ele>144</ele>
        <time>2025-03-25T18:53:22Z</time>
      </trkpt>
      <trkpt lat="43.64569" lon="1.3797">
        <ele>144</ele>
        <time>2025-03-25T18:53:23Z</time>
      </trkpt>
      <trkpt lat="43.6457" lon="1.37965">
        <ele>144</ele>
        <time>2025-03-25T18:53:24Z</time>
      </trkpt>
      <trkpt lat="43.64572" lon="1.37959">
        <ele>144</ele>
        <time>2025-03-25T18:53:25Z</time>
      </trkpt>
      <trkpt lat="43.64573" lon="1.37953">
        <ele>144</ele>
        <time>2025-03-25T18:53:26Z</time>
      </trkpt>
      <trkpt lat="43.64574" lon="1.37948">
        <ele>145</ele>
        <time>2025-03-25T18:53:27Z</time>
      </trkpt>
      <trkpt lat="43.64574" lon="1.37943">
        <ele>145</ele>
        <time>2025-03-25T18:53:28Z</time>
      </trkpt>
      <trkpt lat="43.64573" lon="1.37938">
        <ele>145</ele>
        <time>2025-03-25T18:53:29Z</time>
      </trkpt>
      <trkpt lat="43.64572" lon="1.37932">
        <ele>145</ele>
        <time>2025-03-25T18:53:30Z</time>
      </trkpt>
      <trkpt lat="43.6457" lon="1.37928">
        <ele>145</ele>
        <time>2025-03-25T18:53:31Z</time>
      </trkpt>
      <trkpt lat="43.64568" lon="1.37924">
        <ele>145</ele>
        <time>2025-03-25T18:53:32Z</time>
      </trkpt>
      <trkpt lat="43.64565" lon="1.3792">
        <ele>145</ele>
        <time>2025-03-25T18:53:33Z</time>
      </trkpt>
      <trkpt lat="43.64559" lon="1.37915">
        <ele>145</ele>
        <time>2025-03-25T18:53:34Z</time>
      </trkpt>
      <trkpt lat="43.64559" lon="1.37915">
        <ele>145</ele>
        <time>2025-03-25T18:53:35Z</time>
      </trkpt>
      <trkpt lat="43.64556" lon="1.37912">
        <ele>145</ele>
        <time>2025-03-25T18:53:36Z</time>
      </trkpt>
      <trkpt lat="43.64553" lon="1.37911">
        <ele>145</ele>
        <time>2025-03-25T18:53:37Z</time>
      </trkpt>
      <trkpt lat="43.6455" lon="1.37909">
        <ele>145</ele>
        <time>2025-03-25T18:53:38Z</time>
      </trkpt>
      <trkpt lat="43.64546" lon="1.37907">
        <ele>145</ele>
        <time>2025-03-25T18:53:39Z</time>
      </trkpt>
      <trkpt lat="43.64543" lon="1.37905">
        <ele>145</ele>
        <time>2025-03-25T18:53:40Z</time>
      </trkpt>
      <trkpt lat="43.6454" lon="1.37903">
        <ele>145</ele>
        <time>2025-03-25T18:53:41Z</time>
      </trkpt>
      <trkpt lat="43.64536" lon="1.37901">
        <ele>145</ele>
        <time>2025-03-25T18:53:42Z</time>
      </trkpt>
      <trkpt lat="43.64533" lon="1.37899">
        <ele>145</ele>
        <time>2025-03-25T18:53:43Z</time>
      </trkpt>
      <trkpt lat="43.64529" lon="1.37898">
        <ele>145</ele>
        <time>2025-03-25T18:53:44Z</time>
      </trkpt>
      <trkpt lat="43.64526" lon="1.37896">
        <ele>145</ele>
        <time>2025-03-25T18:53:45Z</time>
      </trkpt>
      <trkpt lat="43.64523" lon="1.37894">
        <ele>145</ele>
        <time>2025-03-25T18:53:46Z</time>
      </trkpt>
      <trkpt lat="43.64519" lon="1.37892">
        <ele>145</ele>
        <time>2025-03-25T18:53:47Z</time>
      </trkpt>
      <trkpt lat="43.64516" lon="1.3789">
        <ele>145</ele>
        <time>2025-03-25T18:53:48Z</time>
      </trkpt>
      <trkpt lat="43.64513" lon="1.37888">
        <ele>145</ele>
        <time>2025-03-25T18:53:49Z</time>
      </trkpt>
      <trkpt lat="43.64509" lon="1.37886">
        <ele>145</ele>
        <time>2025-03-25T18:53:50Z</time>
      </trkpt>
      <trkpt lat="43.64506" lon="1.37884">
        <ele>145</ele>
        <time>2025-03-25T18:53:51Z</time>
      </trkpt>
      <trkpt lat="43.64503" lon="1.37882">
        <ele>145</ele>
        <time>2025-03-25T18:53:52Z</time>
      </trkpt>
      <trkpt lat="43.64497" lon="1.37878">
        <ele>145</ele>
        <time>2025-03-25T18:53:53Z</time>
      </trkpt>
      <trkpt lat="43.64497" lon="1.37878">
        <ele>145</ele>
        <time>2025-03-25T18:53:54Z</time>
      </trkpt>
      <trkpt lat="43.64494" lon="1.37877">
        <ele>145</ele>
        <time>2025-03-25T18:53:55Z</time>
      </trkpt>
      <trkpt lat="43.64491" lon="1.37876">
        <ele>145</ele>
        <time>2025-03-25T18:53:56Z</time>
      </trkpt>
      <trkpt lat="43.64487" lon="1.37876">
        <ele>145</ele>
        <time>2025-03-25T18:53:57Z</time>
      </trkpt>
      <trkpt lat="43.64484" lon="1.37877">
        <ele>145</ele>
        <time>2025-03-25T18:53:58Z</time>
      </trkpt>
      <trkpt lat="43.64481" lon="1.37878">
        <ele>145</ele>
        <time>2025-03-25T18:53:59Z</time>
      </trkpt>
      <trkpt lat="43.64478" lon="1.3788">
        <ele>145</ele>
        <time>2025-03-25T18:54:00Z</time>
      </trkpt>
      <trkpt lat="43.64475" lon="1.37882">
        <ele>145</ele>
        <time>2025-03-25T18:54:01Z</time>
      </trkpt>
      <trkpt lat="43.64471" lon="1.37885">
        <ele>145</ele>
        <time>2025-03-25T18:54:02Z</time>
      </trkpt>
      <trkpt lat="43.64469" lon="1.37888">
        <ele>145</ele>
        <time>2025-03-25T18:54:03Z</time>
      </trkpt>
      <trkpt lat="43.64466" lon="1.37891">
        <ele>145</ele>
        <time>2025-03-25T18:54:04Z</time>
      </trkpt>
      <trkpt lat="43.64464" lon="1.37895">
        <ele>145</ele>
        <time>2025-03-25T18:54:05Z</time>
      </trkpt>
      <trkpt lat="43.64462" lon="1.37899">
        <ele>145</ele>
        <time>2025-03-25T18:54:06Z</time>
      </trkpt>
      <trkpt lat="43.64461" lon="1.37903">
        <ele>145</ele>
        <time>2025-03-25T18:54:07Z</time>
      </trkpt>
      <trkpt lat="43.6446" lon="1.37908">
        <ele>145</ele>
        <time>2025-03-25T18:54:08Z</time>
      </trkpt>
      <trkpt lat="43.64459" lon="1.37912">
        <ele>145</ele>
        <time>2025-03-25T18:54:09Z</time>
      </trkpt>
      <trkpt lat="43.64458" lon="1.37917">
        <ele>145</ele>
        <time>2025-03-25T18:54:10Z</time>
      </trkpt>
      <trkpt lat="43.64458" lon="1.37921">
        <ele>145</ele>
        <time>2025-03-25T18:54:11Z</time>
      </trkpt>
      <trkpt lat="43.64458" lon="1.37925">
        <ele>145</ele>
        <time>2025-03-25T18:54:12Z</time>
      </trkpt>
      <trkpt lat="43.64458" lon="1.37928">
        <ele>145</ele>
        <time>2025-03-25T18:54:13Z</time>
      </trkpt>
      <trkpt lat="43.64459" lon="1.37931">
        <ele>145</ele>
        <time>2025-03-25T18:54:14Z</time>
      </trkpt>
      <trkpt lat="43.6446" lon="1.37934">
        <ele>145</ele>
        <time>2025-03-25T18:54:15Z</time>
      </trkpt>
      <trkpt lat="43.64461" lon="1.37938">
        <ele>145</ele>
        <time>2025-03-25T18:54:16Z</time>
      </trkpt>
      <trkpt lat="43.64464" lon="1.37942">
        <ele>145</ele>
        <time>2025-03-25T18:54:17Z</time>
      </trkpt>
      <trkpt lat="43.64466" lon="1.37945">
        <ele>145</ele>
        <time>2025-03-25T18:54:18Z</time>
      </trkpt>
      <trkpt lat="43.64469" lon="1.37948">
        <ele>145</ele>
        <time>2025-03-25T18:54:19Z</time>
      </trkpt>
      <trkpt lat="43.64472" lon="1.3795">
        <ele>145</ele>
        <time>2025-03-25T18:54:20Z</time>
      </trkpt>
      <trkpt lat="43.64475" lon="1.37952">
        <ele>145</ele>
        <time>2025-03-25T18:54:21Z</time>
      </trkpt>
      <trkpt lat="43.64478" lon="1.37954">
        <ele>145</ele>
        <time>2025-03-25T18:54:22Z</time>
      </trkpt>
      <trkpt lat="43.64482" lon="1.37956">
        <ele>145</ele>
        <time>2025-03-25T18:54:23Z</time>
      </trkpt>
      <trkpt lat="43.64484" lon="1.37957">
        <ele>145</ele>
        <time>2025-03-25T18:54:24Z</time>
      </trkpt>
      <trkpt lat="43.64488" lon="1.37959">
        <ele>145</ele>
        <time>2025-03-25T18:54:25Z</time>
      </trkpt>
      <trkpt lat="43.64491" lon="1.37961">
        <ele>145</ele>
        <time>2025-03-25T18:54:26Z</time>
      </trkpt>
      <trkpt lat="43.64494" lon="1.37962">
        <ele>145</ele>
        <time>2025-03-25T18:54:27Z</time>
      </trkpt>
      <trkpt lat="43.645" lon="1.37966">
        <ele>145</ele>
        <time>2025-03-25T18:54:28Z</time>
      </trkpt>
      <trkpt lat="43.645" lon="1.37966">
        <ele>145</ele>
        <time>2025-03-25T18:54:29Z</time>
      </trkpt>
      <trkpt lat="43.64503" lon="1.37968">
        <ele>145</ele>
        <time>2025-03-25T18:54:30Z</time>
      </trkpt>
      <trkpt lat="43.64506" lon="1.37969">
        <ele>145</ele>
        <time>2025-03-25T18:54:31Z</time>
      </trkpt>
      <trkpt lat="43.64509" lon="1.37971">
        <ele>145</ele>
        <time>2025-03-25T18:54:32Z</time>
      </trkpt>
      <trkpt lat="43.64512" lon="1.37973">
        <ele>144</ele>
        <time>2025-03-25T18:54:33Z</time>
      </trkpt>
      <trkpt lat="43.64515" lon="1.37975">
        <ele>144</ele>
        <time>2025-03-25T18:54:34Z</time>
      </trkpt>
      <trkpt lat="43.64518" lon="1.37977">
        <ele>144</ele>
        <time>2025-03-25T18:54:35Z</time>
      </trkpt>
      <trkpt lat="43.64522" lon="1.3798">
        <ele>144</ele>
        <time>2025-03-25T18:54:36Z</time>
      </trkpt>
      <trkpt lat="43.64525" lon="1.37982">
        <ele>145</ele>
        <time>2025-03-25T18:54:37Z</time>
      </trkpt>
      <trkpt lat="43.64529" lon="1.37983">
        <ele>145</ele>
        <time>2025-03-25T18:54:38Z</time>
      </trkpt>
      <trkpt lat="43.64532" lon="1.37984">
        <ele>145</ele>
        <time>2025-03-25T18:54:39Z</time>
      </trkpt>
      <trkpt lat="43.64536" lon="1.37985">
        <ele>145</ele>
        <time>2025-03-25T18:54:40Z</time>
      </trkpt>
      <trkpt lat="43.64539" lon="1.37984">
        <ele>145</ele>
        <time>2025-03-25T18:54:41Z</time>
      </trkpt>
      <trkpt lat="43.64542" lon="1.37984">
        <ele>144</ele>
        <time>2025-03-25T18:54:42Z</time>
      </trkpt>
      <trkpt lat="43.64548" lon="1.37982">
        <ele>144</ele>
        <time>2025-03-25T18:54:43Z</time>
      </trkpt>
      <trkpt lat="43.64548" lon="1.37982">
        <ele>144</ele>
        <time>2025-03-25T18:54:44Z</time>
      </trkpt>
      <trkpt lat="43.64552" lon="1.3798">
        <ele>144</ele>
        <time>2025-03-25T18:54:45Z</time>
      </trkpt>
      <trkpt lat="43.64555" lon="1.37977">
        <ele>144</ele>
        <time>2025-03-25T18:54:46Z</time>
      </trkpt>
      <trkpt lat="43.64558" lon="1.37974">
        <ele>144</ele>
        <time>2025-03-25T18:54:47Z</time>
      </trkpt>
      <trkpt lat="43.6456" lon="1.37971">
        <ele>145</ele>
        <time>2025-03-25T18:54:48Z</time>
      </trkpt>
      <trkpt lat="43.64562" lon="1.37967">
        <ele>145</ele>
        <time>2025-03-25T18:54:49Z</time>
      </trkpt>
      <trkpt lat="43.64565" lon="1.37964">
        <ele>145</ele>
        <time>2025-03-25T18:54:50Z</time>
      </trkpt>
      <trkpt lat="43.64566" lon="1.3796">
        <ele>145</ele>
        <time>2025-03-25T18:54:51Z</time>
      </trkpt>
      <trkpt lat="43.64567" lon="1.37956">
        <ele>145</ele>
        <time>2025-03-25T18:54:52Z</time>
      </trkpt>
      <trkpt lat="43.64569" lon="1.37951">
        <ele>145</ele>
        <time>2025-03-25T18:54:53Z</time>
      </trkpt>
      <trkpt lat="43.6457" lon="1.37947">
        <ele>145</ele>
        <time>2025-03-25T18:54:54Z</time>
      </trkpt>
      <trkpt lat="43.6457" lon="1.37942">
        <ele>145</ele>
        <time>2025-03-25T18:54:55Z</time>
      </trkpt>
      <trkpt lat="43.64571" lon="1.37938">
        <ele>145</ele>
        <time>2025-03-25T18:54:56Z</time>
      </trkpt>
      <trkpt lat="43.6457" lon="1.37933">
        <ele>145</ele>
        <time>2025-03-25T18:54:57Z</time>
      </trkpt>
      <trkpt lat="43.6457" lon="1.37929">
        <ele>145</ele>
        <time>2025-03-25T18:54:58Z</time>
      </trkpt>
      <trkpt lat="43.64568" lon="1.37925">
        <ele>145</ele>
        <time>2025-03-25T18:54:59Z</time>
      </trkpt>
      <trkpt lat="43.64567" lon="1.37922">
        <ele>145</ele>
        <time>2025-03-25T18:55:00Z</time>
      </trkpt>
      <trkpt lat="43.64565" lon="1.37919">
        <ele>145</ele>
        <time>2025-03-25T18:55:01Z</time>
      </trkpt>
      <trkpt lat="43.64563" lon="1.37916">
        <ele>145</ele>
        <time>2025-03-25T18:55:02Z</time>
      </trkpt>
      <trkpt lat="43.64561" lon="1.37914">
        <ele>145</ele>
        <time>2025-03-25T18:55:03Z</time>
      </trkpt>
      <trkpt lat="43.64558" lon="1.37912">
        <ele>145</ele>
        <time>2025-03-25T18:55:04Z</time>
      </trkpt>
      <trkpt lat="43.64555" lon="1.3791">
        <ele>145</ele>
        <time>2025-03-25T18:55:05Z</time>
      </trkpt>
      <trkpt lat="43.64552" lon="1.37908">
        <ele>145</ele>
        <time>2025-03-25T18:55:06Z</time>
      </trkpt>
      <trkpt lat="43.64549" lon="1.37907">
        <ele>145</ele>
        <time>2025-03-25T18:55:07Z</time>
      </trkpt>
      <trkpt lat="43.64546" lon="1.37905">
        <ele>145</ele>
        <time>2025-03-25T18:55:08Z</time>
      </trkpt>
      <trkpt lat="43.64543" lon="1.37904">
        <ele>145</ele>
        <time>2025-03-25T18:55:09Z</time>
      </trkpt>
      <trkpt lat="43.6454" lon="1.37902">
        <ele>145</ele>
        <time>2025-03-25T18:55:10Z</time>
      </trkpt>
      <trkpt lat="43.64537" lon="1.37901">
        <ele>145</ele>
        <time>2025-03-25T18:55:11Z</time>
      </trkpt>
      <trkpt lat="43.64534" lon="1.37899">
        <ele>145</ele>
        <time>2025-03-25T18:55:12Z</time>
      </trkpt>
      <trkpt lat="43.64531" lon="1.37898">
        <ele>145</ele>
        <time>2025-03-25T18:55:13Z</time>
      </trkpt>
      <trkpt lat="43.64528" lon="1.37896">
        <ele>145</ele>
        <time>2025-03-25T18:55:14Z</time>
      </trkpt>
      <trkpt lat="43.64525" lon="1.37894">
        <ele>145</ele>
        <time>2025-03-25T18:55:15Z</time>
      </trkpt>
      <trkpt lat="43.64522" lon="1.37893">
        <ele>145</ele>
        <time>2025-03-25T18:55:16Z</time>
      </trkpt>
      <trkpt lat="43.64519" lon="1.37891">
        <ele>145</ele>
        <time>2025-03-25T18:55:17Z</time>
      </trkpt>
      <trkpt lat="43.64516" lon="1.37889">
        <ele>145</ele>
        <time>2025-03-25T18:55:18Z</time>
      </trkpt>
      <trkpt lat="43.64513" lon="1.37887">
        <ele>145</ele>
        <time>2025-03-25T18:55:19Z</time>
      </trkpt>
      <trkpt lat="43.6451" lon="1.37886">
        <ele>145</ele>
        <time>2025-03-25T18:55:20Z</time>
      </trkpt>
      <trkpt lat="43.64507" lon="1.37884">
        <ele>145</ele>
        <time>2025-03-25T18:55:21Z</time>
      </trkpt>
      <trkpt lat="43.64504" lon="1.37881">
        <ele>145</ele>
        <time>2025-03-25T18:55:22Z</time>
      </trkpt>
      <trkpt lat="43.64501" lon="1.37879">
        <ele>145</ele>
        <time>2025-03-25T18:55:23Z</time>
      </trkpt>
      <trkpt lat="43.64498" lon="1.37878">
        <ele>145</ele>
        <time>2025-03-25T18:55:24Z</time>
      </trkpt>
      <trkpt lat="43.64495" lon="1.37877">
        <ele>145</ele>
        <time>2025-03-25T18:55:25Z</time>
      </trkpt>
      <trkpt lat="43.64492" lon="1.37877">
        <ele>145</ele>
        <time>2025-03-25T18:55:26Z</time>
      </trkpt>
      <trkpt lat="43.64489" lon="1.37876">
        <ele>145</ele>
        <time>2025-03-25T18:55:27Z</time>
      </trkpt>
      <trkpt lat="43.64486" lon="1.37877">
        <ele>145</ele>
        <time>2025-03-25T18:55:28Z</time>
      </trkpt>
      <trkpt lat="43.64483" lon="1.37878">
        <ele>145</ele>
        <time>2025-03-25T18:55:29Z</time>
      </trkpt>
      <trkpt lat="43.64481" lon="1.37878">
        <ele>145</ele>
        <time>2025-03-25T18:55:30Z</time>
      </trkpt>
      <trkpt lat="43.64478" lon="1.3788">
        <ele>145</ele>
        <time>2025-03-25T18:55:31Z</time>
      </trkpt>
      <trkpt lat="43.64475" lon="1.37882">
        <ele>145</ele>
        <time>2025-03-25T18:55:32Z</time>
      </trkpt>
      <trkpt lat="43.64472" lon="1.37884">
        <ele>145</ele>
        <time>2025-03-25T18:55:33Z</time>
      </trkpt>
      <trkpt lat="43.64469" lon="1.37887">
        <ele>145</ele>
        <time>2025-03-25T18:55:34Z</time>
      </trkpt>
      <trkpt lat="43.64467" lon="1.3789">
        <ele>145</ele>
        <time>2025-03-25T18:55:35Z</time>
      </trkpt>
      <trkpt lat="43.64465" lon="1.37894">
        <ele>145</ele>
        <time>2025-03-25T18:55:36Z</time>
      </trkpt>
      <trkpt lat="43.64463" lon="1.37897">
        <ele>145</ele>
        <time>2025-03-25T18:55:37Z</time>
      </trkpt>
      <trkpt lat="43.64461" lon="1.37902">
        <ele>145</ele>
        <time>2025-03-25T18:55:38Z</time>
      </trkpt>
      <trkpt lat="43.64459" lon="1.37906">
        <ele>144</ele>
        <time>2025-03-25T18:55:39Z</time>
      </trkpt>
      <trkpt lat="43.64458" lon="1.3791">
        <ele>144</ele>
        <time>2025-03-25T18:55:40Z</time>
      </trkpt>
      <trkpt lat="43.64457" lon="1.37914">
        <ele>144</ele>
        <time>2025-03-25T18:55:41Z</time>
      </trkpt>
      <trkpt lat="43.64456" lon="1.37918">
        <ele>144</ele>
        <time>2025-03-25T18:55:42Z</time>
      </trkpt>
      <trkpt lat="43.64456" lon="1.37922">
        <ele>144</ele>
        <time>2025-03-25T18:55:43Z</time>
      </trkpt>
      <trkpt lat="43.64455" lon="1.37924">
        <ele>144</ele>
        <time>2025-03-25T18:55:44Z</time>
      </trkpt>
      <trkpt lat="43.64456" lon="1.37927">
        <ele>144</ele>
        <time>2025-03-25T18:55:45Z</time>
      </trkpt>
      <trkpt lat="43.64457" lon="1.37931">
        <ele>144</ele>
        <time>2025-03-25T18:55:46Z</time>
      </trkpt>
      <trkpt lat="43.64458" lon="1.37934">
        <ele>144</ele>
        <time>2025-03-25T18:55:47Z</time>
      </trkpt>
      <trkpt lat="43.64461" lon="1.37937">
        <ele>144</ele>
        <time>2025-03-25T18:55:48Z</time>
      </trkpt>
      <trkpt lat="43.64463" lon="1.37941">
        <ele>144</ele>
        <time>2025-03-25T18:55:49Z</time>
      </trkpt>
      <trkpt lat="43.64466" lon="1.37944">
        <ele>144</ele>
        <time>2025-03-25T18:55:50Z</time>
      </trkpt>
      <trkpt lat="43.64468" lon="1.37947">
        <ele>144</ele>
        <time>2025-03-25T18:55:51Z</time>
      </trkpt>
      <trkpt lat="43.64471" lon="1.37949">
        <ele>144</ele>
        <time>2025-03-25T18:55:52Z</time>
      </trkpt>
      <trkpt lat="43.64474" lon="1.37952">
        <ele>144</ele>
        <time>2025-03-25T18:55:53Z</time>
      </trkpt>
      <trkpt lat="43.64477" lon="1.37953">
        <ele>144</ele>
        <time>2025-03-25T18:55:54Z</time>
      </trkpt>
      <trkpt lat="43.6448" lon="1.37955">
        <ele>144</ele>
        <time>2025-03-25T18:55:55Z</time>
      </trkpt>
      <trkpt lat="43.64483" lon="1.37957">
        <ele>144</ele>
        <time>2025-03-25T18:55:56Z</time>
      </trkpt>
      <trkpt lat="43.64486" lon="1.37959">
        <ele>144</ele>
        <time>2025-03-25T18:55:57Z</time>
      </trkpt>
      <trkpt lat="43.64489" lon="1.37961">
        <ele>144</ele>
        <time>2025-03-25T18:55:58Z</time>
      </trkpt>
      <trkpt lat="43.64492" lon="1.37963">
        <ele>144</ele>
        <time>2025-03-25T18:55:59Z</time>
      </trkpt>
      <trkpt lat="43.64495" lon="1.37964">
        <ele>144</ele>
        <time>2025-03-25T18:56:00Z</time>
      </trkpt>
      <trkpt lat="43.64498" lon="1.37965">
        <ele>144</ele>
        <time>2025-03-25T18:56:01Z</time>
      </trkpt>
      <trkpt lat="43.64501" lon="1.37967">
        <ele>144</ele>
        <time>2025-03-25T18:56:02Z</time>
      </trkpt>
      <trkpt lat="43.64505" lon="1.37969">
        <ele>144</ele>
        <time>2025-03-25T18:56:03Z</time>
      </trkpt>
      <trkpt lat="43.64508" lon="1.3797">
        <ele>144</ele>
        <time>2025-03-25T18:56:04Z</time>
      </trkpt>
      <trkpt lat="43.64511" lon="1.37972">
        <ele>144</ele>
        <time>2025-03-25T18:56:05Z</time>
      </trkpt>
      <trkpt lat="43.64514" lon="1.37974">
        <ele>144</ele>
        <time>2025-03-25T18:56:06Z</time>
      </trkpt>
      <trkpt lat="43.64517" lon="1.37976">
        <ele>144</ele>
        <time>2025-03-25T18:56:07Z</time>
      </trkpt>
      <trkpt lat="43.64521" lon="1.37978">
        <ele>144</ele>
        <time>2025-03-25T18:56:08Z</time>
      </trkpt>
      <trkpt lat="43.64524" lon="1.3798">
        <ele>144</ele>
        <time>2025-03-25T18:56:09Z</time>
      </trkpt>
      <trkpt lat="43.64528" lon="1.37982">
        <ele>144</ele>
        <time>2025-03-25T18:56:10Z</time>
      </trkpt>
      <trkpt lat="43.64532" lon="1.37984">
        <ele>144</ele>
        <time>2025-03-25T18:56:11Z</time>
      </trkpt>
      <trkpt lat="43.64535" lon="1.37985">
        <ele>144</ele>
        <time>2025-03-25T18:56:12Z</time>
      </trkpt>
      <trkpt lat="43.64539" lon="1.37985">
        <ele>144</ele>
        <time>2025-03-25T18:56:13Z</time>
      </trkpt>
      <trkpt lat="43.64542" lon="1.37985">
        <ele>144</ele>
        <time>2025-03-25T18:56:14Z</time>
      </trkpt>
      <trkpt lat="43.64546" lon="1.37983">
        <ele>144</ele>
        <time>2025-03-25T18:56:15Z</time>
      </trkpt>
      <trkpt lat="43.64549" lon="1.37982">
        <ele>144</ele>
        <time>2025-03-25T18:56:16Z</time>
      </trkpt>
      <trkpt lat="43.64552" lon="1.3798">
        <ele>144</ele>
        <time>2025-03-25T18:56:17Z</time>
      </trkpt>
      <trkpt lat="43.64555" lon="1.37978">
        <ele>144</ele>
        <time>2025-03-25T18:56:18Z</time>
      </trkpt>
      <trkpt lat="43.64558" lon="1.37975">
        <ele>144</ele>
        <time>2025-03-25T18:56:19Z</time>
      </trkpt>
      <trkpt lat="43.64561" lon="1.37972">
        <ele>144</ele>
        <time>2025-03-25T18:56:20Z</time>
      </trkpt>
      <trkpt lat="43.64564" lon="1.37969">
        <ele>144</ele>
        <time>2025-03-25T18:56:21Z</time>
      </trkpt>
      <trkpt lat="43.64566" lon="1.37966">
        <ele>144</ele>
        <time>2025-03-25T18:56:22Z</time>
      </trkpt>
      <trkpt lat="43.64568" lon="1.37962">
        <ele>144</ele>
        <time>2025-03-25T18:56:23Z</time>
      </trkpt>
      <trkpt lat="43.64569" lon="1.37957">
        <ele>144</ele>
        <time>2025-03-25T18:56:24Z</time>
      </trkpt>
      <trkpt lat="43.64571" lon="1.37953">
        <ele>144</ele>
        <time>2025-03-25T18:56:25Z</time>
      </trkpt>
      <trkpt lat="43.64572" lon="1.37949">
        <ele>144</ele>
        <time>2025-03-25T18:56:26Z</time>
      </trkpt>
      <trkpt lat="43.64573" lon="1.37944">
        <ele>144</ele>
        <time>2025-03-25T18:56:27Z</time>
      </trkpt>
      <trkpt lat="43.64573" lon="1.3794">
        <ele>144</ele>
        <time>2025-03-25T18:56:28Z</time>
      </trkpt>
      <trkpt lat="43.64572" lon="1.37935">
        <ele>144</ele>
        <time>2025-03-25T18:56:29Z</time>
      </trkpt>
      <trkpt lat="43.64571" lon="1.3793">
        <ele>144</ele>
        <time>2025-03-25T18:56:30Z</time>
      </trkpt>
      <trkpt lat="43.64569" lon="1.37926">
        <ele>144</ele>
        <time>2025-03-25T18:56:31Z</time>
      </trkpt>
      <trkpt lat="43.64568" lon="1.37922">
        <ele>144</ele>
        <time>2025-03-25T18:56:32Z</time>
      </trkpt>
      <trkpt lat="43.64565" lon="1.37919">
        <ele>145</ele>
        <time>2025-03-25T18:56:33Z</time>
      </trkpt>
      <trkpt lat="43.64563" lon="1.37916">
        <ele>145</ele>
        <time>2025-03-25T18:56:34Z</time>
      </trkpt>
      <trkpt lat="43.6456" lon="1.37913">
        <ele>145</ele>
        <time>2025-03-25T18:56:35Z</time>
      </trkpt>
      <trkpt lat="43.64557" lon="1.37911">
        <ele>145</ele>
        <time>2025-03-25T18:56:36Z</time>
      </trkpt>
      <trkpt lat="43.64554" lon="1.3791">
        <ele>145</ele>
        <time>2025-03-25T18:56:37Z</time>
      </trkpt>
      <trkpt lat="43.6455" lon="1.37909">
        <ele>145</ele>
        <time>2025-03-25T18:56:38Z</time>
      </trkpt>
      <trkpt lat="43.64547" lon="1.37907">
        <ele>145</ele>
        <time>2025-03-25T18:56:39Z</time>
      </trkpt>
      <trkpt lat="43.64543" lon="1.37906">
        <ele>145</ele>
        <time>2025-03-25T18:56:40Z</time>
      </trkpt>
      <trkpt lat="43.64539" lon="1.37905">
        <ele>144</ele>
        <time>2025-03-25T18:56:41Z</time>
      </trkpt>
      <trkpt lat="43.64536" lon="1.37903">
        <ele>145</ele>
        <time>2025-03-25T18:56:42Z</time>
      </trkpt>
      <trkpt lat="43.64532" lon="1.37902">
        <ele>145</ele>
        <time>2025-03-25T18:56:43Z</time>
      </trkpt>
      <trkpt lat="43.64529" lon="1.379">
        <ele>145</ele>
        <time>2025-03-25T18:56:44Z</time>
      </trkpt>
      <trkpt lat="43.64526" lon="1.37898">
        <ele>145</ele>
        <time>2025-03-25T18:56:45Z</time>
      </trkpt>
      <trkpt lat="43.64523" lon="1.37896">
        <ele>145</ele>
        <time>2025-03-25T18:56:46Z</time>
      </trkpt>
      <trkpt lat="43.6452" lon="1.37894">
        <ele>145</ele>
        <time>2025-03-25T18:56:47Z</time>
      </trkpt>
      <trkpt lat="43.64517" lon="1.37892">
        <ele>145</ele>
        <time>2025-03-25T18:56:48Z</time>
      </trkpt>
      <trkpt lat="43.64513" lon="1.3789">
        <ele>145</ele>
        <time>2025-03-25T18:56:49Z</time>
      </trkpt>
      <trkpt lat="43.6451" lon="1.37889">
        <ele>145</ele>
        <time>2025-03-25T18:56:50Z</time>
      </trkpt>
      <trkpt lat="43.64507" lon="1.37886">
        <ele>145</ele>
        <time>2025-03-25T18:56:51Z</time>
      </trkpt>
      <trkpt lat="43.64503" lon="1.37884">
        <ele>145</ele>
        <time>2025-03-25T18:56:52Z</time>
      </trkpt>
      <trkpt lat="43.645" lon="1.37882">
        <ele>145</ele>
        <time>2025-03-25T18:56:53Z</time>
      </trkpt>
      <trkpt lat="43.64497" lon="1.3788">
        <ele>145</ele>
        <time>2025-03-25T18:56:54Z</time>
      </trkpt>
      <trkpt lat="43.64494" lon="1.37879">
        <ele>145</ele>
        <time>2025-03-25T18:56:55Z</time>
      </trkpt>
      <trkpt lat="43.64491" lon="1.37878">
        <ele>144</ele>
        <time>2025-03-25T18:56:56Z</time>
      </trkpt>
      <trkpt lat="43.64488" lon="1.37878">
        <ele>144</ele>
        <time>2025-03-25T18:56:57Z</time>
      </trkpt>
      <trkpt lat="43.64485" lon="1.37878">
        <ele>144</ele>
        <time>2025-03-25T18:56:58Z</time>
      </trkpt>
      <trkpt lat="43.64483" lon="1.37878">
        <ele>144</ele>
        <time>2025-03-25T18:56:59Z</time>
      </trkpt>
      <trkpt lat="43.64481" lon="1.37879">
        <ele>145</ele>
        <time>2025-03-25T18:57:00Z</time>
      </trkpt>
      <trkpt lat="43.64478" lon="1.3788">
        <ele>145</ele>
        <time>2025-03-25T18:57:01Z</time>
      </trkpt>
      <trkpt lat="43.64476" lon="1.37882">
        <ele>145</ele>
        <time>2025-03-25T18:57:02Z</time>
      </trkpt>
      <trkpt lat="43.64473" lon="1.37884">
        <ele>145</ele>
        <time>2025-03-25T18:57:03Z</time>
      </trkpt>
      <trkpt lat="43.64471" lon="1.37887">
        <ele>144</ele>
        <time>2025-03-25T18:57:04Z</time>
      </trkpt>
      <trkpt lat="43.64468" lon="1.3789">
        <ele>144</ele>
        <time>2025-03-25T18:57:05Z</time>
      </trkpt>
      <trkpt lat="43.64466" lon="1.37893">
        <ele>144</ele>
        <time>2025-03-25T18:57:06Z</time>
      </trkpt>
      <trkpt lat="43.64464" lon="1.37898">
        <ele>144</ele>
        <time>2025-03-25T18:57:07Z</time>
      </trkpt>
      <trkpt lat="43.64463" lon="1.37902">
        <ele>144</ele>
        <time>2025-03-25T18:57:08Z</time>
      </trkpt>
      <trkpt lat="43.64461" lon="1.37907">
        <ele>144</ele>
        <time>2025-03-25T18:57:09Z</time>
      </trkpt>
      <trkpt lat="43.6446" lon="1.37912">
        <ele>144</ele>
        <time>2025-03-25T18:57:10Z</time>
      </trkpt>
      <trkpt lat="43.64459" lon="1.37917">
        <ele>144</ele>
        <time>2025-03-25T18:57:11Z</time>
      </trkpt>
      <trkpt lat="43.64459" lon="1.37921">
        <ele>144</ele>
        <time>2025-03-25T18:57:12Z</time>
      </trkpt>
      <trkpt lat="43.64459" lon="1.37924">
        <ele>144</ele>
        <time>2025-03-25T18:57:13Z</time>
      </trkpt>
      <trkpt lat="43.64459" lon="1.37928">
        <ele>144</ele>
        <time>2025-03-25T18:57:14Z</time>
      </trkpt>
      <trkpt lat="43.64459" lon="1.37932">
        <ele>144</ele>
        <time>2025-03-25T18:57:15Z</time>
      </trkpt>
      <trkpt lat="43.64461" lon="1.37936">
        <ele>144</ele>
        <time>2025-03-25T18:57:16Z</time>
      </trkpt>
      <trkpt lat="43.64463" lon="1.3794">
        <ele>144</ele>
        <time>2025-03-25T18:57:17Z</time>
      </trkpt>
      <trkpt lat="43.64465" lon="1.37943">
        <ele>144</ele>
        <time>2025-03-25T18:57:18Z</time>
      </trkpt>
      <trkpt lat="43.64467" lon="1.37946">
        <ele>145</ele>
        <time>2025-03-25T18:57:19Z</time>
      </trkpt>
      <trkpt lat="43.6447" lon="1.37948">
        <ele>145</ele>
        <time>2025-03-25T18:57:20Z</time>
      </trkpt>
      <trkpt lat="43.64473" lon="1.37951">
        <ele>144</ele>
        <time>2025-03-25T18:57:21Z</time>
      </trkpt>
      <trkpt lat="43.64476" lon="1.37953">
        <ele>144</ele>
        <time>2025-03-25T18:57:22Z</time>
      </trkpt>
      <trkpt lat="43.64479" lon="1.37955">
        <ele>144</ele>
        <time>2025-03-25T18:57:23Z</time>
      </trkpt>
      <trkpt lat="43.64482" lon="1.37957">
        <ele>144</ele>
        <time>2025-03-25T18:57:24Z</time>
      </trkpt>
      <trkpt lat="43.64485" lon="1.37959">
        <ele>144</ele>
        <time>2025-03-25T18:57:25Z</time>
      </trkpt>
      <trkpt lat="43.64489" lon="1.37961">
        <ele>144</ele>
        <time>2025-03-25T18:57:26Z</time>
      </trkpt>
      <trkpt lat="43.64492" lon="1.37963">
        <ele>144</ele>
        <time>2025-03-25T18:57:27Z</time>
      </trkpt>
      <trkpt lat="43.64494" lon="1.37964">
        <ele>144</ele>
        <time>2025-03-25T18:57:28Z</time>
      </trkpt>
      <trkpt lat="43.64498" lon="1.37966">
        <ele>144</ele>
        <time>2025-03-25T18:57:29Z</time>
      </trkpt>
      <trkpt lat="43.64501" lon="1.37968">
        <ele>144</ele>
        <time>2025-03-25T18:57:30Z</time>
      </trkpt>
      <trkpt lat="43.64504" lon="1.3797">
        <ele>144</ele>
        <time>2025-03-25T18:57:31Z</time>
      </trkpt>
      <trkpt lat="43.64507" lon="1.37972">
        <ele>144</ele>
        <time>2025-03-25T18:57:32Z</time>
      </trkpt>
      <trkpt lat="43.64511" lon="1.37974">
        <ele>144</ele>
        <time>2025-03-25T18:57:33Z</time>
      </trkpt>
      <trkpt lat="43.64515" lon="1.37976">
        <ele>144</ele>
        <time>2025-03-25T18:57:34Z</time>
      </trkpt>
      <trkpt lat="43.64518" lon="1.37978">
        <ele>144</ele>
        <time>2025-03-25T18:57:35Z</time>
      </trkpt>
      <trkpt lat="43.64521" lon="1.3798">
        <ele>144</ele>
        <time>2025-03-25T18:57:36Z</time>
      </trkpt>
      <trkpt lat="43.64524" lon="1.37981">
        <ele>144</ele>
        <time>2025-03-25T18:57:37Z</time>
      </trkpt>
      <trkpt lat="43.64526" lon="1.37982">
        <ele>144</ele>
        <time>2025-03-25T18:57:38Z</time>
      </trkpt>
      <trkpt lat="43.64528" lon="1.37983">
        <ele>144</ele>
        <time>2025-03-25T18:57:39Z</time>
      </trkpt>
      <trkpt lat="43.64528" lon="1.37983">
        <ele>144</ele>
        <time>2025-03-25T18:57:40Z</time>
      </trkpt>
      <trkpt lat="43.64531" lon="1.37984">
        <ele>144</ele>
        <time>2025-03-25T18:57:41Z</time>
      </trkpt>
      <trkpt lat="43.64531" lon="1.37984">
        <ele>144</ele>
        <time>2025-03-25T18:57:42Z</time>
      </trkpt>
      <trkpt lat="43.64533" lon="1.37985">
        <ele>144</ele>
        <time>2025-03-25T18:57:43Z</time>
      </trkpt>
      <trkpt lat="43.64533" lon="1.37985">
        <ele>144</ele>
        <time>2025-03-25T18:57:44Z</time>
      </trkpt>
      <trkpt lat="43.64536" lon="1.37986">
        <ele>144</ele>
        <time>2025-03-25T18:57:45Z</time>
      </trkpt>
      <trkpt lat="43.64536" lon="1.37986">
        <ele>144</ele>
        <time>2025-03-25T18:57:46Z</time>
      </trkpt>
      <trkpt lat="43.64537" lon="1.37987">
        <ele>144</ele>
        <time>2025-03-25T18:57:47Z</time>
      </trkpt>
      <trkpt lat="43.64537" lon="1.37987">
        <ele>144</ele>
        <time>2025-03-25T18:57:48Z</time>
      </trkpt>
      <trkpt lat="43.64537" lon="1.37987">
        <ele>144</ele>
        <time>2025-03-25T18:57:49Z</time>
      </trkpt>
      <trkpt lat="43.6454" lon="1.37988">
        <ele>144</ele>
        <time>2025-03-25T18:57:50Z</time>
      </trkpt>
      <trkpt lat="43.6454" lon="1.37988">
        <ele>144</ele>
        <time>2025-03-25T18:57:51Z</time>
      </trkpt>
      <trkpt lat="43.64542" lon="1.37988">
        <ele>144</ele>
        <time>2025-03-25T18:57:52Z</time>
      </trkpt>
      <trkpt lat="43.64542" lon="1.37988">
        <ele>144</ele>
        <time>2025-03-25T18:57:53Z</time>
      </trkpt>
      <trkpt lat="43.64544" lon="1.37988">
        <ele>144</ele>
        <time>2025-03-25T18:57:54Z</time>
      </trkpt>
      <trkpt lat="43.64544" lon="1.37988">
        <ele>144</ele>
        <time>2025-03-25T18:57:55Z</time>
      </trkpt>
      <trkpt lat="43.64546" lon="1.37988">
        <ele>144</ele>
        <time>2025-03-25T18:57:56Z</time>
      </trkpt>
      <trkpt lat="43.64546" lon="1.37988">
        <ele>144</ele>
        <time>2025-03-25T18:57:57Z</time>
      </trkpt>
      <trkpt lat="43.64546" lon="1.37988">
        <ele>145</ele>
        <time>2025-03-25T18:57:58Z</time>
      </trkpt>
      <trkpt lat="43.64548" lon="1.37988">
        <ele>145</ele>
        <time>2025-03-25T18:57:59Z</time>
      </trkpt>
      <trkpt lat="43.64548" lon="1.37988">
        <ele>145</ele>
        <time>2025-03-25T18:58:00Z</time>
      </trkpt>
      <trkpt lat="43.64548" lon="1.37988">
        <ele>145</ele>
        <time>2025-03-25T18:58:01Z</time>
      </trkpt>
      <trkpt lat="43.64548" lon="1.37988">
        <ele>145</ele>
        <time>2025-03-25T18:58:02Z</time>
      </trkpt>
      <trkpt lat="43.64548" lon="1.37988">
        <ele>145</ele>
        <time>2025-03-25T18:58:03Z</time>
      </trkpt>
      <trkpt lat="43.64548" lon="1.37988">
        <ele>145</ele>
        <time>2025-03-25T18:58:04Z</time>
      </trkpt>
      <trkpt lat="43.64548" lon="1.37988">
        <ele>145</ele>
        <time>2025-03-25T18:58:05Z</time>
      </trkpt>
      <trkpt lat="43.64548" lon="1.37988">
        <ele>145</ele>
        <time>2025-03-25T18:58:06Z</time>
      </trkpt>
      <trkpt lat="43.64548" lon="1.37988">
        <ele>145</ele>
        <time>2025-03-25T18:58:07Z</time>
      </trkpt>
      <trkpt lat="43.64548" lon="1.37988">
        <ele>145</ele>
        <time>2025-03-25T18:58:08Z</time>
      </trkpt>
      <trkpt lat="43.64546" lon="1.37989">
        <ele>145</ele>
        <time>2025-03-25T18:58:09Z</time>
      </trkpt>
      <trkpt lat="43.64546" lon="1.37989">
        <ele>145</ele>
        <time>2025-03-25T18:58:10Z</time>
      </trkpt>
      <trkpt lat="43.64546" lon="1.37989">
        <ele>145</ele>
        <time>2025-03-25T18:58:11Z</time>
      </trkpt>
      <trkpt lat="43.64545" lon="1.37992">
        <ele>145</ele>
        <time>2025-03-25T18:58:12Z</time>
      </trkpt>
      <trkpt lat="43.64545" lon="1.37992">
        <ele>145</ele>
        <time>2025-03-25T18:58:13Z</time>
      </trkpt>
      <trkpt lat="43.64543" lon="1.37995">
        <ele>145</ele>
        <time>2025-03-25T18:58:14Z</time>
      </trkpt>
      <trkpt lat="43.64543" lon="1.37995">
        <ele>145</ele>
        <time>2025-03-25T18:58:15Z</time>
      </trkpt>
      <trkpt lat="43.64541" lon="1.37996">
        <ele>145</ele>
        <time>2025-03-25T18:58:16Z</time>
      </trkpt>
      <trkpt lat="43.64541" lon="1.37996">
        <ele>145</ele>
        <time>2025-03-25T18:58:17Z</time>
      </trkpt>
      <trkpt lat="43.64539" lon="1.37996">
        <ele>145</ele>
        <time>2025-03-25T18:58:18Z</time>
      </trkpt>
      <trkpt lat="43.64539" lon="1.37996">
        <ele>145</ele>
        <time>2025-03-25T18:58:19Z</time>
      </trkpt>
      <trkpt lat="43.64537" lon="1.37996">
        <ele>145</ele>
        <time>2025-03-25T18:58:20Z</time>
      </trkpt>
      <trkpt lat="43.64537" lon="1.37996">
        <ele>145</ele>
        <time>2025-03-25T18:58:21Z</time>
      </trkpt>
      <trkpt lat="43.64537" lon="1.37996">
        <ele>145</ele>
        <time>2025-03-25T18:58:22Z</time>
      </trkpt>
      <trkpt lat="43.64537" lon="1.37996">
        <ele>145</ele>
        <time>2025-03-25T18:58:23Z</time>
      </trkpt>
      <trkpt lat="43.64537" lon="1.37996">
        <ele>145</ele>
        <time>2025-03-25T18:58:24Z</time>
      </trkpt>
      <trkpt lat="43.64537" lon="1.37996">
        <ele>145</ele>
        <time>2025-03-25T18:58:25Z</time>
      </trkpt>
      <trkpt lat="43.64537" lon="1.37996">
        <ele>145</ele>
        <time>2025-03-25T18:58:26Z</time>
      </trkpt>
      <trkpt lat="43.64537" lon="1.37996">
        <ele>145</ele>
        <time>2025-03-25T18:58:27Z</time>
      </trkpt>
      <trkpt lat="43.64539" lon="1.37995">
        <ele>145</ele>
        <time>2025-03-25T18:58:28Z</time>
      </trkpt>
      <trkpt lat="43.64539" lon="1.37995">
        <ele>145</ele>
        <time>2025-03-25T18:58:29Z</time>
      </trkpt>
      <trkpt lat="43.64539" lon="1.37995">
        <ele>144</ele>
        <time>2025-03-25T18:58:30Z</time>
      </trkpt>
      <trkpt lat="43.64539" lon="1.37995">
        <ele>144</ele>
        <time>2025-03-25T18:58:31Z</time>
      </trkpt>
      <trkpt lat="43.64539" lon="1.37995">
        <ele>144</ele>
        <time>2025-03-25T18:58:32Z</time>
      </trkpt>
      <trkpt lat="43.64539" lon="1.37995">
        <ele>144</ele>
        <time>2025-03-25T18:58:33Z</time>
      </trkpt>
      <trkpt lat="43.64539" lon="1.37995">
        <ele>144</ele>
        <time>2025-03-25T18:58:34Z</time>
      </trkpt>
      <trkpt lat="43.64539" lon="1.37995">
        <ele>144</ele>
        <time>2025-03-25T18:58:35Z</time>
      </trkpt>
      <trkpt lat="43.64539" lon="1.37995">
        <ele>144</ele>
        <time>2025-03-25T18:58:36Z</time>
      </trkpt>
      <trkpt lat="43.64539" lon="1.37995">
        <ele>144</ele>
        <time>2025-03-25T18:58:37Z</time>
      </trkpt>
      <trkpt lat="43.64539" lon="1.37995">
        <ele>144</ele>
        <time>2025-03-25T18:58:38Z</time>
      </trkpt>
      <trkpt lat="43.6454" lon="1.37992">
        <ele>144</ele>
        <time>2025-03-25T18:58:39Z</time>
      </trkpt>
      <trkpt lat="43.6454" lon="1.37992">
        <ele>144</ele>
        <time>2025-03-25T18:58:40Z</time>
      </trkpt>
      <trkpt lat="43.6454" lon="1.37992">
        <ele>144</ele>
        <time>2025-03-25T18:58:41Z</time>
      </trkpt>
      <trkpt lat="43.6454" lon="1.37992">
        <ele>144</ele>
        <time>2025-03-25T18:58:42Z</time>
      </trkpt>
      <trkpt lat="43.6454" lon="1.37992">
        <ele>144</ele>
        <time>2025-03-25T18:58:43Z</time>
      </trkpt>
      <trkpt lat="43.6454" lon="1.37992">
        <ele>144</ele>
        <time>2025-03-25T18:58:44Z</time>
      </trkpt>
      <trkpt lat="43.6454" lon="1.37992">
        <ele>144</ele>
        <time>2025-03-25T18:58:45Z</time>
      </trkpt>
      <trkpt lat="43.64538" lon="1.37994">
        <ele>144</ele>
        <time>2025-03-25T18:58:46Z</time>
      </trkpt>
      <trkpt lat="43.64538" lon="1.37994">
        <ele>144</ele>
        <time>2025-03-25T18:58:47Z</time>
      </trkpt>
      <trkpt lat="43.64538" lon="1.37994">
        <ele>144</ele>
        <time>2025-03-25T18:58:48Z</time>
      </trkpt>
      <trkpt lat="43.64536" lon="1.37994">
        <ele>145</ele>
        <time>2025-03-25T18:58:49Z</time>
      </trkpt>
      <trkpt lat="43.64536" lon="1.37994">
        <ele>145</ele>
        <time>2025-03-25T18:58:50Z</time>
      </trkpt>
      <trkpt lat="43.64536" lon="1.37994">
        <ele>145</ele>
        <time>2025-03-25T18:58:51Z</time>
      </trkpt>
      <trkpt lat="43.64535" lon="1.37991">
        <ele>145</ele>
        <time>2025-03-25T18:58:52Z</time>
      </trkpt>
      <trkpt lat="43.64535" lon="1.37991">
        <ele>145</ele>
        <time>2025-03-25T18:58:53Z</time>
      </trkpt>
      <trkpt lat="43.64535" lon="1.37991">
        <ele>145</ele>
        <time>2025-03-25T18:58:54Z</time>
      </trkpt>
      <trkpt lat="43.64535" lon="1.37987">
        <ele>145</ele>
        <time>2025-03-25T18:58:55Z</time>
      </trkpt>
      <trkpt lat="43.64535" lon="1.37987">
        <ele>145</ele>
        <time>2025-03-25T18:58:56Z</time>
      </trkpt>
      <trkpt lat="43.64535" lon="1.37987">
        <ele>145</ele>
        <time>2025-03-25T18:58:57Z</time>
      </trkpt>
      <trkpt lat="43.64535" lon="1.37987">
        <ele>145</ele>
        <time>2025-03-25T18:58:58Z</time>
      </trkpt>
      <trkpt lat="43.64535" lon="1.37987">
        <ele>145</ele>
        <time>2025-03-25T18:58:59Z</time>
      </trkpt>
      <trkpt lat="43.64535" lon="1.37987">
        <ele>145</ele>
        <time>2025-03-25T18:59:00Z</time>
      </trkpt>
      <trkpt lat="43.64535" lon="1.37987">
        <ele>145</ele>
        <time>2025-03-25T18:59:01Z</time>
      </trkpt>
      <trkpt lat="43.64535" lon="1.37987">
        <ele>145</ele>
        <time>2025-03-25T18:59:02Z</time>
      </trkpt>
      <trkpt lat="43.64533" lon="1.37987">
        <ele>145</ele>
        <time>2025-03-25T18:59:03Z</time>
      </trkpt>
      <trkpt lat="43.64533" lon="1.37987">
        <ele>145</ele>
        <time>2025-03-25T18:59:04Z</time>
      </trkpt>
      <trkpt lat="43.64533" lon="1.37987">
        <ele>145</ele>
        <time>2025-03-25T18:59:05Z</time>
      </trkpt>
      <trkpt lat="43.64531" lon="1.37989">
        <ele>145</ele>
        <time>2025-03-25T18:59:06Z</time>
      </trkpt>
      <trkpt lat="43.64531" lon="1.37989">
        <ele>145</ele>
        <time>2025-03-25T18:59:07Z</time>
      </trkpt>
      <trkpt lat="43.6453" lon="1.37989">
        <ele>145</ele>
        <time>2025-03-25T18:59:08Z</time>
      </trkpt>
      <trkpt lat="43.6453" lon="1.37989">
        <ele>145</ele>
        <time>2025-03-25T18:59:09Z</time>
      </trkpt>
      <trkpt lat="43.6453" lon="1.37989">
        <ele>145</ele>
        <time>2025-03-25T18:59:10Z</time>
      </trkpt>
      <trkpt lat="43.64528" lon="1.3799">
        <ele>145</ele>
        <time>2025-03-25T18:59:11Z</time>
      </trkpt>
      <trkpt lat="43.64528" lon="1.3799">
        <ele>145</ele>
        <time>2025-03-25T18:59:12Z</time>
      </trkpt>
      <trkpt lat="43.64528" lon="1.3799">
        <ele>145</ele>
        <time>2025-03-25T18:59:13Z</time>
      </trkpt>
      <trkpt lat="43.64528" lon="1.3799">
        <ele>145</ele>
        <time>2025-03-25T18:59:14Z</time>
      </trkpt>
      <trkpt lat="43.64528" lon="1.3799">
        <ele>145</ele>
        <time>2025-03-25T18:59:15Z</time>
      </trkpt>
      <trkpt lat="43.64528" lon="1.3799">
        <ele>145</ele>
        <time>2025-03-25T18:59:16Z</time>
      </trkpt>
      <trkpt lat="43.64526" lon="1.37991">
        <ele>145</ele>
        <time>2025-03-25T18:59:17Z</time>
      </trkpt>
      <trkpt lat="43.64526" lon="1.37991">
        <ele>145</ele>
        <time>2025-03-25T18:59:18Z</time>
      </trkpt>
      <trkpt lat="43.64526" lon="1.37991">
        <ele>145</ele>
        <time>2025-03-25T18:59:19Z</time>
      </trkpt>
      <trkpt lat="43.64524" lon="1.37991">
        <ele>145</ele>
        <time>2025-03-25T18:59:20Z</time>
      </trkpt>
      <trkpt lat="43.64524" lon="1.37991">
        <ele>145</ele>
        <time>2025-03-25T18:59:21Z</time>
      </trkpt>
      <trkpt lat="43.64524" lon="1.37991">
        <ele>145</ele>
        <time>2025-03-25T18:59:22Z</time>
      </trkpt>
      <trkpt lat="43.64521" lon="1.3799">
        <ele>145</ele>
        <time>2025-03-25T18:59:23Z</time>
      </trkpt>
      <trkpt lat="43.64521" lon="1.3799">
        <ele>145</ele>
        <time>2025-03-25T18:59:24Z</time>
      </trkpt>
      <trkpt lat="43.64519" lon="1.37988">
        <ele>145</ele>
        <time>2025-03-25T18:59:25Z</time>
      </trkpt>
      <trkpt lat="43.64519" lon="1.37988">
        <ele>145</ele>
        <time>2025-03-25T18:59:26Z</time>
      </trkpt>
      <trkpt lat="43.64517" lon="1.37987">
        <ele>145</ele>
        <time>2025-03-25T18:59:27Z</time>
      </trkpt>
      <trkpt lat="43.64517" lon="1.37987">
        <ele>145</ele>
        <time>2025-03-25T18:59:28Z</time>
      </trkpt>
      <trkpt lat="43.64514" lon="1.37986">
        <ele>145</ele>
        <time>2025-03-25T18:59:29Z</time>
      </trkpt>
      <trkpt lat="43.64514" lon="1.37986">
        <ele>145</ele>
        <time>2025-03-25T18:59:30Z</time>
      </trkpt>
      <trkpt lat="43.64512" lon="1.37984">
        <ele>145</ele>
        <time>2025-03-25T18:59:31Z</time>
      </trkpt>
      <trkpt lat="43.64512" lon="1.37984">
        <ele>145</ele>
        <time>2025-03-25T18:59:32Z</time>
      </trkpt>
      <trkpt lat="43.64511" lon="1.37983">
        <ele>145</ele>
        <time>2025-03-25T18:59:33Z</time>
      </trkpt>
      <trkpt lat="43.64511" lon="1.37983">
        <ele>145</ele>
        <time>2025-03-25T18:59:34Z</time>
      </trkpt>
      <trkpt lat="43.64509" lon="1.37981">
        <ele>145</ele>
        <time>2025-03-25T18:59:35Z</time>
      </trkpt>
      <trkpt lat="43.64509" lon="1.37981">
        <ele>145</ele>
        <time>2025-03-25T18:59:36Z</time>
      </trkpt>
      <trkpt lat="43.64509" lon="1.37981">
        <ele>146</ele>
        <time>2025-03-25T18:59:37Z</time>
      </trkpt>
      <trkpt lat="43.64507" lon="1.3798">
        <ele>146</ele>
        <time>2025-03-25T18:59:38Z</time>
      </trkpt>
      <trkpt lat="43.64507" lon="1.3798">
        <ele>146</ele>
        <time>2025-03-25T18:59:39Z</time>
      </trkpt>
      <trkpt lat="43.64507" lon="1.3798">
        <ele>146</ele>
        <time>2025-03-25T18:59:40Z</time>
      </trkpt>
      <trkpt lat="43.64507" lon="1.3798">
        <ele>146</ele>
        <time>2025-03-25T18:59:41Z</time>
      </trkpt>
      <trkpt lat="43.64505" lon="1.37979">
        <ele>146</ele>
        <time>2025-03-25T18:59:42Z</time>
      </trkpt>
      <trkpt lat="43.64505" lon="1.37979">
        <ele>145</ele>
        <time>2025-03-25T18:59:43Z</time>
      </trkpt>
      <trkpt lat="43.64505" lon="1.37979">
        <ele>145</ele>
        <time>2025-03-25T18:59:44Z</time>
      </trkpt>
      <trkpt lat="43.64505" lon="1.37979">
        <ele>145</ele>
        <time>2025-03-25T18:59:45Z</time>
      </trkpt>
      <trkpt lat="43.64504" lon="1.37978">
        <ele>145</ele>
        <time>2025-03-25T18:59:46Z</time>
      </trkpt>
      <trkpt lat="43.64504" lon="1.37978">
        <ele>145</ele>
        <time>2025-03-25T18:59:47Z</time>
      </trkpt>
      <trkpt lat="43.64504" lon="1.37978">
        <ele>145</ele>
        <time>2025-03-25T18:59:48Z</time>
      </trkpt>
      <trkpt lat="43.64502" lon="1.37976">
        <ele>145</ele>
        <time>2025-03-25T18:59:49Z</time>
      </trkpt>
      <trkpt lat="43.64502" lon="1.37976">
        <ele>145</ele>
        <time>2025-03-25T18:59:50Z</time>
      </trkpt>
      <trkpt lat="43.64502" lon="1.37976">
        <ele>145</ele>
        <time>2025-03-25T18:59:51Z</time>
      </trkpt>
      <trkpt lat="43.645" lon="1.37974">
        <ele>145</ele>
        <time>2025-03-25T18:59:52Z</time>
      </trkpt>
      <trkpt lat="43.645" lon="1.37974">
        <ele>145</ele>
        <time>2025-03-25T18:59:53Z</time>
      </trkpt>
      <trkpt lat="43.64498" lon="1.37972">
        <ele>145</ele>
        <time>2025-03-25T18:59:54Z</time>
      </trkpt>
      <trkpt lat="43.64498" lon="1.37972">
        <ele>145</ele>
        <time>2025-03-25T18:59:55Z</time>
      </trkpt>
      <trkpt lat="43.64496" lon="1.37971">
        <ele>146</ele>
        <time>2025-03-25T18:59:56Z</time>
      </trkpt>
      <trkpt lat="43.64496" lon="1.37971">
        <ele>146</ele>
        <time>2025-03-25T18:59:57Z</time>
      </trkpt>
      <trkpt lat="43.64494" lon="1.37969">
        <ele>146</ele>
        <time>2025-03-25T18:59:58Z</time>
      </trkpt>
      <trkpt lat="43.64494" lon="1.37969">
        <ele>146</ele>
        <time>2025-03-25T18:59:59Z</time>
      </trkpt>
      <trkpt lat="43.64494" lon="1.37969">
        <ele>146</ele>
        <time>2025-03-25T19:00:00Z</time>
      </trkpt>
      <trkpt lat="43.64492" lon="1.37967">
        <ele>146</ele>
        <time>2025-03-25T19:00:01Z</time>
      </trkpt>
      <trkpt lat="43.64492" lon="1.37967">
        <ele>146</ele>
        <time>2025-03-25T19:00:02Z</time>
      </trkpt>
      <trkpt lat="43.6449" lon="1.37966">
        <ele>146</ele>
        <time>2025-03-25T19:00:03Z</time>
      </trkpt>
      <trkpt lat="43.6449" lon="1.37966">
        <ele>146</ele>
        <time>2025-03-25T19:00:04Z</time>
      </trkpt>
      <trkpt lat="43.64489" lon="1.37965">
        <ele>146</ele>
        <time>2025-03-25T19:00:05Z</time>
      </trkpt>
      <trkpt lat="43.64489" lon="1.37965">
        <ele>146</ele>
        <time>2025-03-25T19:00:06Z</time>
      </trkpt>
      <trkpt lat="43.64487" lon="1.37963">
        <ele>146</ele>
        <time>2025-03-25T19:00:07Z</time>
      </trkpt>
      <trkpt lat="43.64487" lon="1.37963">
        <ele>146</ele>
        <time>2025-03-25T19:00:08Z</time>
      </trkpt>
      <trkpt lat="43.64487" lon="1.37963">
        <ele>146</ele>
        <time>2025-03-25T19:00:09Z</time>
      </trkpt>
      <trkpt lat="43.64485" lon="1.37962">
        <ele>146</ele>
        <time>2025-03-25T19:00:10Z</time>
      </trkpt>
      <trkpt lat="43.64485" lon="1.37962">
        <ele>146</ele>
        <time>2025-03-25T19:00:11Z</time>
      </trkpt>
      <trkpt lat="43.64483" lon="1.37961">
        <ele>146</ele>
        <time>2025-03-25T19:00:12Z</time>
      </trkpt>
      <trkpt lat="43.64483" lon="1.37961">
        <ele>146</ele>
        <time>2025-03-25T19:00:13Z</time>
      </trkpt>
      <trkpt lat="43.64483" lon="1.37961">
        <ele>146</ele>
        <time>2025-03-25T19:00:14Z</time>
      </trkpt>
      <trkpt lat="43.64483" lon="1.37961">
        <ele>146</ele>
        <time>2025-03-25T19:00:15Z</time>
      </trkpt>
      <trkpt lat="43.64481" lon="1.3796">
        <ele>146</ele>
        <time>2025-03-25T19:00:16Z</time>
      </trkpt>
      <trkpt lat="43.64481" lon="1.3796">
        <ele>146</ele>
        <time>2025-03-25T19:00:17Z</time>
      </trkpt>
      <trkpt lat="43.64481" lon="1.3796">
        <ele>146</ele>
        <time>2025-03-25T19:00:18Z</time>
      </trkpt>
      <trkpt lat="43.6448" lon="1.37958">
        <ele>146</ele>
        <time>2025-03-25T19:00:19Z</time>
      </trkpt>
      <trkpt lat="43.6448" lon="1.37958">
        <ele>146</ele>
        <time>2025-03-25T19:00:20Z</time>
      </trkpt>
      <trkpt lat="43.6448" lon="1.37958">
        <ele>146</ele>
        <time>2025-03-25T19:00:21Z</time>
      </trkpt>
      <trkpt lat="43.64477" lon="1.37956">
        <ele>146</ele>
        <time>2025-03-25T19:00:22Z</time>
      </trkpt>
      <trkpt lat="43.64477" lon="1.37956">
        <ele>146</ele>
        <time>2025-03-25T19:00:23Z</time>
      </trkpt>
      <trkpt lat="43.64477" lon="1.37956">
        <ele>146</ele>
        <time>2025-03-25T19:00:24Z</time>
      </trkpt>
      <trkpt lat="43.64475" lon="1.37955">
        <ele>146</ele>
        <time>2025-03-25T19:00:25Z</time>
      </trkpt>
      <trkpt lat="43.64475" lon="1.37955">
        <ele>146</ele>
        <time>2025-03-25T19:00:26Z</time>
      </trkpt>
      <trkpt lat="43.64475" lon="1.37955">
        <ele>146</ele>
        <time>2025-03-25T19:00:27Z</time>
      </trkpt>
      <trkpt lat="43.64473" lon="1.37954">
        <ele>146</ele>
        <time>2025-03-25T19:00:28Z</time>
      </trkpt>
      <trkpt lat="43.64473" lon="1.37954">
        <ele>147</ele>
        <time>2025-03-25T19:00:29Z</time>
      </trkpt>
      <trkpt lat="43.64473" lon="1.37954">
        <ele>147</ele>
        <time>2025-03-25T19:00:30Z</time>
      </trkpt>
      <trkpt lat="43.64473" lon="1.37954">
        <ele>147</ele>
        <time>2025-03-25T19:00:31Z</time>
      </trkpt>
      <trkpt lat="43.64474" lon="1.37951">
        <ele>147</ele>
        <time>2025-03-25T19:00:32Z</time>
      </trkpt>
      <trkpt lat="43.64474" lon="1.37951">
        <ele>147</ele>
        <time>2025-03-25T19:00:33Z</time>
      </trkpt>
      <trkpt lat="43.64474" lon="1.37951">
        <ele>147</ele>
        <time>2025-03-25T19:00:34Z</time>
      </trkpt>
      <trkpt lat="43.64474" lon="1.37951">
        <ele>147</ele>
        <time>2025-03-25T19:00:35Z</time>
      </trkpt>
      <trkpt lat="43.64475" lon="1.3795">
        <ele>147</ele>
        <time>2025-03-25T19:00:36Z</time>
      </trkpt>
      <trkpt lat="43.64475" lon="1.3795">
        <ele>147</ele>
        <time>2025-03-25T19:00:37Z</time>
      </trkpt>
      <trkpt lat="43.64475" lon="1.3795">
        <ele>147</ele>
        <time>2025-03-25T19:00:38Z</time>
      </trkpt>
      <trkpt lat="43.64475" lon="1.3795">
        <ele>147</ele>
        <time>2025-03-25T19:00:39Z</time>
      </trkpt>
      <trkpt lat="43.64475" lon="1.3795">
        <ele>147</ele>
        <time>2025-03-25T19:00:40Z</time>
      </trkpt>
      <trkpt lat="43.64475" lon="1.3795">
        <ele>147</ele>
        <time>2025-03-25T19:00:41Z</time>
      </trkpt>
      <trkpt lat="43.64475" lon="1.3795">
        <ele>147</ele>
        <time>2025-03-25T19:00:42Z</time>
      </trkpt>
      <trkpt lat="43.64475" lon="1.3795">
        <ele>147</ele>
        <time>2025-03-25T19:00:43Z</time>
      </trkpt>
      <trkpt lat="43.64475" lon="1.3795">
        <ele>147</ele>
        <time>2025-03-25T19:00:44Z</time>
      </trkpt>
      <trkpt lat="43.64475" lon="1.3795">
        <ele>147</ele>
        <time>2025-03-25T19:00:45Z</time>
      </trkpt>
      <trkpt lat="43.64475" lon="1.3795">
        <ele>147</ele>
        <time>2025-03-25T19:00:46Z</time>
      </trkpt>
      <trkpt lat="43.64475" lon="1.3795">
        <ele>147</ele>
        <time>2025-03-25T19:00:47Z</time>
      </trkpt>
      <trkpt lat="43.64475" lon="1.3795">
        <ele>147</ele>
        <time>2025-03-25T19:00:48Z</time>
      </trkpt>
      <trkpt lat="43.64475" lon="1.3795">
        <ele>147</ele>
        <time>2025-03-25T19:00:49Z</time>
      </trkpt>
      <trkpt lat="43.64475" lon="1.3795">
        <ele>147</ele>
        <time>2025-03-25T19:00:50Z</time>
      </trkpt>
      <trkpt lat="43.64477" lon="1.37952">
        <ele>147</ele>
        <time>2025-03-25T19:00:51Z</time>
      </trkpt>
      <trkpt lat="43.64477" lon="1.37952">
        <ele>147</ele>
        <time>2025-03-25T19:00:52Z</time>
      </trkpt>
      <trkpt lat="43.64477" lon="1.37952">
        <ele>147</ele>
        <time>2025-03-25T19:00:53Z</time>
      </trkpt>
      <trkpt lat="43.64477" lon="1.37952">
        <ele>147</ele>
        <time>2025-03-25T19:00:54Z</time>
      </trkpt>
      <trkpt lat="43.64479" lon="1.37952">
        <ele>147</ele>
        <time>2025-03-25T19:00:55Z</time>
      </trkpt>
      <trkpt lat="43.64479" lon="1.37952">
        <ele>147</ele>
        <time>2025-03-25T19:00:56Z</time>
      </trkpt>
      <trkpt lat="43.64479" lon="1.37952">
        <ele>147</ele>
        <time>2025-03-25T19:00:57Z</time>
      </trkpt>
      <trkpt lat="43.64479" lon="1.37952">
        <ele>147</ele>
        <time>2025-03-25T19:00:58Z</time>
      </trkpt>
      <trkpt lat="43.64479" lon="1.37952">
        <ele>147</ele>
        <time>2025-03-25T19:00:59Z</time>
      </trkpt>
      <trkpt lat="43.64481" lon="1.37952">
        <ele>147</ele>
        <time>2025-03-25T19:01:00Z</time>
      </trkpt>
      <trkpt lat="43.64481" lon="1.37952">
        <ele>147</ele>
        <time>2025-03-25T19:01:01Z</time>
      </trkpt>
      <trkpt lat="43.64481" lon="1.37952">
        <ele>147</ele>
        <time>2025-03-25T19:01:02Z</time>
      </trkpt>
      <trkpt lat="43.64481" lon="1.37952">
        <ele>147</ele>
        <time>2025-03-25T19:01:03Z</time>
      </trkpt>
      <trkpt lat="43.64481" lon="1.37952">
        <ele>147</ele>
        <time>2025-03-25T19:01:04Z</time>
      </trkpt>
      <trkpt lat="43.64481" lon="1.37952">
        <ele>147</ele>
        <time>2025-03-25T19:01:05Z</time>
      </trkpt>
      <trkpt lat="43.64481" lon="1.37952">
        <ele>147</ele>
        <time>2025-03-25T19:01:06Z</time>
      </trkpt>
      <trkpt lat="43.64481" lon="1.37952">
        <ele>147</ele>
        <time>2025-03-25T19:01:07Z</time>
      </trkpt>
      <trkpt lat="43.64481" lon="1.37952">
        <ele>147</ele>
        <time>2025-03-25T19:01:08Z</time>
      </trkpt>
      <trkpt lat="43.64481" lon="1.37952">
        <ele>147</ele>
        <time>2025-03-25T19:01:09Z</time>
      </trkpt>
      <trkpt lat="43.64481" lon="1.37952">
        <ele>147</ele>
        <time>2025-03-25T19:01:10Z</time>
      </trkpt>
      <trkpt lat="43.64481" lon="1.37952">
        <ele>147</ele>
        <time>2025-03-25T19:01:11Z</time>
      </trkpt>
      <trkpt lat="43.64481" lon="1.37952">
        <ele>147</ele>
        <time>2025-03-25T19:01:12Z</time>
      </trkpt>
      <trkpt lat="43.64481" lon="1.37952">
        <ele>147</ele>
        <time>2025-03-25T19:01:13Z</time>
      </trkpt>
      <trkpt lat="43.64482" lon="1.37954">
        <ele>147</ele>
        <time>2025-03-25T19:01:14Z</time>
      </trkpt>
      <trkpt lat="43.64482" lon="1.37954">
        <ele>147</ele>
        <time>2025-03-25T19:01:15Z</time>
      </trkpt>
      <trkpt lat="43.64482" lon="1.37954">
        <ele>147</ele>
        <time>2025-03-25T19:01:16Z</time>
      </trkpt>
      <trkpt lat="43.64484" lon="1.37955">
        <ele>147</ele>
        <time>2025-03-25T19:01:17Z</time>
      </trkpt>
      <trkpt lat="43.64486" lon="1.37956">
        <ele>147</ele>
        <time>2025-03-25T19:01:18Z</time>
      </trkpt>
      <trkpt lat="43.64488" lon="1.37957">
        <ele>147</ele>
        <time>2025-03-25T19:01:19Z</time>
      </trkpt>
      <trkpt lat="43.64491" lon="1.37958">
        <ele>147</ele>
        <time>2025-03-25T19:01:20Z</time>
      </trkpt>
      <trkpt lat="43.64494" lon="1.37959">
        <ele>147</ele>
        <time>2025-03-25T19:01:21Z</time>
      </trkpt>
      <trkpt lat="43.64498" lon="1.37962">
        <ele>147</ele>
        <time>2025-03-25T19:01:22Z</time>
      </trkpt>
      <trkpt lat="43.64502" lon="1.37965">
        <ele>147</ele>
        <time>2025-03-25T19:01:23Z</time>
      </trkpt>
      <trkpt lat="43.64506" lon="1.37967">
        <ele>147</ele>
        <time>2025-03-25T19:01:24Z</time>
      </trkpt>
      <trkpt lat="43.64509" lon="1.3797">
        <ele>148</ele>
        <time>2025-03-25T19:01:25Z</time>
      </trkpt>
      <trkpt lat="43.64513" lon="1.37974">
        <ele>148</ele>
        <time>2025-03-25T19:01:26Z</time>
      </trkpt>
      <trkpt lat="43.64517" lon="1.37977">
        <ele>148</ele>
        <time>2025-03-25T19:01:27Z</time>
      </trkpt>
      <trkpt lat="43.64521" lon="1.37979">
        <ele>148</ele>
        <time>2025-03-25T19:01:28Z</time>
      </trkpt>
      <trkpt lat="43.64524" lon="1.37982">
        <ele>148</ele>
        <time>2025-03-25T19:01:29Z</time>
      </trkpt>
      <trkpt lat="43.64529" lon="1.37984">
        <ele>147</ele>
        <time>2025-03-25T19:01:30Z</time>
      </trkpt>
      <trkpt lat="43.64533" lon="1.37986">
        <ele>147</ele>
        <time>2025-03-25T19:01:31Z</time>
      </trkpt>
      <trkpt lat="43.64539" lon="1.37987">
        <ele>147</ele>
        <time>2025-03-25T19:01:32Z</time>
      </trkpt>
      <trkpt lat="43.64544" lon="1.37988">
        <ele>147</ele>
        <time>2025-03-25T19:01:33Z</time>
      </trkpt>
      <trkpt lat="43.6455" lon="1.37989">
        <ele>147</ele>
        <time>2025-03-25T19:01:34Z</time>
      </trkpt>
      <trkpt lat="43.64556" lon="1.37989">
        <ele>148</ele>
        <time>2025-03-25T19:01:35Z</time>
      </trkpt>
      <trkpt lat="43.6456" lon="1.37987">
        <ele>148</ele>
        <time>2025-03-25T19:01:36Z</time>
      </trkpt>
      <trkpt lat="43.64565" lon="1.37984">
        <ele>148</ele>
        <time>2025-03-25T19:01:37Z</time>
      </trkpt>
      <trkpt lat="43.64568" lon="1.37981">
        <ele>148</ele>
        <time>2025-03-25T19:01:38Z</time>
      </trkpt>
      <trkpt lat="43.64572" lon="1.37978">
        <ele>148</ele>
        <time>2025-03-25T19:01:39Z</time>
      </trkpt>
      <trkpt lat="43.64576" lon="1.37974">
        <ele>148</ele>
        <time>2025-03-25T19:01:40Z</time>
      </trkpt>
      <trkpt lat="43.64578" lon="1.37969">
        <ele>148</ele>
        <time>2025-03-25T19:01:41Z</time>
      </trkpt>
      <trkpt lat="43.6458" lon="1.37964">
        <ele>148</ele>
        <time>2025-03-25T19:01:42Z</time>
      </trkpt>
      <trkpt lat="43.64582" lon="1.37957">
        <ele>148</ele>
        <time>2025-03-25T19:01:43Z</time>
      </trkpt>
      <trkpt lat="43.64583" lon="1.37951">
        <ele>148</ele>
        <time>2025-03-25T19:01:44Z</time>
      </trkpt>
      <trkpt lat="43.64583" lon="1.37946">
        <ele>148</ele>
        <time>2025-03-25T19:01:45Z</time>
      </trkpt>
      <trkpt lat="43.64582" lon="1.3794">
        <ele>148</ele>
        <time>2025-03-25T19:01:46Z</time>
      </trkpt>
      <trkpt lat="43.64581" lon="1.37934">
        <ele>149</ele>
        <time>2025-03-25T19:01:47Z</time>
      </trkpt>
      <trkpt lat="43.64579" lon="1.37929">
        <ele>149</ele>
        <time>2025-03-25T19:01:48Z</time>
      </trkpt>
      <trkpt lat="43.64577" lon="1.37924">
        <ele>149</ele>
        <time>2025-03-25T19:01:49Z</time>
      </trkpt>
      <trkpt lat="43.64575" lon="1.37921">
        <ele>149</ele>
        <time>2025-03-25T19:01:50Z</time>
      </trkpt>
      <trkpt lat="43.64572" lon="1.37917">
        <ele>149</ele>
        <time>2025-03-25T19:01:51Z</time>
      </trkpt>
      <trkpt lat="43.64569" lon="1.37913">
        <ele>149</ele>
        <time>2025-03-25T19:01:52Z</time>
      </trkpt>
      <trkpt lat="43.64565" lon="1.3791">
        <ele>149</ele>
        <time>2025-03-25T19:01:53Z</time>
      </trkpt>
      <trkpt lat="43.64561" lon="1.37907">
        <ele>149</ele>
        <time>2025-03-25T19:01:54Z</time>
      </trkpt>
      <trkpt lat="43.64557" lon="1.37905">
        <ele>149</ele>
        <time>2025-03-25T19:01:55Z</time>
      </trkpt>
      <trkpt lat="43.64553" lon="1.37903">
        <ele>149</ele>
        <time>2025-03-25T19:01:56Z</time>
      </trkpt>
      <trkpt lat="43.64549" lon="1.379">
        <ele>148</ele>
        <time>2025-03-25T19:01:57Z</time>
      </trkpt>
      <trkpt lat="43.64545" lon="1.37899">
        <ele>148</ele>
        <time>2025-03-25T19:01:58Z</time>
      </trkpt>
      <trkpt lat="43.64541" lon="1.37897">
        <ele>148</ele>
        <time>2025-03-25T19:01:59Z</time>
      </trkpt>
      <trkpt lat="43.64537" lon="1.37896">
        <ele>148</ele>
        <time>2025-03-25T19:02:00Z</time>
      </trkpt>
      <trkpt lat="43.64533" lon="1.37893">
        <ele>148</ele>
        <time>2025-03-25T19:02:01Z</time>
      </trkpt>
      <trkpt lat="43.64529" lon="1.37891">
        <ele>149</ele>
        <time>2025-03-25T19:02:02Z</time>
      </trkpt>
      <trkpt lat="43.64525" lon="1.37889">
        <ele>149</ele>
        <time>2025-03-25T19:02:03Z</time>
      </trkpt>
      <trkpt lat="43.64522" lon="1.37887">
        <ele>149</ele>
        <time>2025-03-25T19:02:04Z</time>
      </trkpt>
      <trkpt lat="43.64518" lon="1.37885">
        <ele>149</ele>
        <time>2025-03-25T19:02:05Z</time>
      </trkpt>
      <trkpt lat="43.64514" lon="1.37883">
        <ele>148</ele>
        <time>2025-03-25T19:02:06Z</time>
      </trkpt>
      <trkpt lat="43.64508" lon="1.37879">
        <ele>148</ele>
        <time>2025-03-25T19:02:07Z</time>
      </trkpt>
      <trkpt lat="43.64508" lon="1.37879">
        <ele>148</ele>
        <time>2025-03-25T19:02:08Z</time>
      </trkpt>
      <trkpt lat="43.64504" lon="1.37877">
        <ele>148</ele>
        <time>2025-03-25T19:02:09Z</time>
      </trkpt>
      <trkpt lat="43.645" lon="1.37877">
        <ele>148</ele>
        <time>2025-03-25T19:02:10Z</time>
      </trkpt>
      <trkpt lat="43.64496" lon="1.37877">
        <ele>148</ele>
        <time>2025-03-25T19:02:11Z</time>
      </trkpt>
      <trkpt lat="43.64493" lon="1.37878">
        <ele>148</ele>
        <time>2025-03-25T19:02:12Z</time>
      </trkpt>
      <trkpt lat="43.64489" lon="1.37879">
        <ele>148</ele>
        <time>2025-03-25T19:02:13Z</time>
      </trkpt>
      <trkpt lat="43.64486" lon="1.3788">
        <ele>149</ele>
        <time>2025-03-25T19:02:14Z</time>
      </trkpt>
      <trkpt lat="43.64482" lon="1.37882">
        <ele>149</ele>
        <time>2025-03-25T19:02:15Z</time>
      </trkpt>
      <trkpt lat="43.64479" lon="1.37885">
        <ele>149</ele>
        <time>2025-03-25T19:02:16Z</time>
      </trkpt>
      <trkpt lat="43.64476" lon="1.37889">
        <ele>148</ele>
        <time>2025-03-25T19:02:17Z</time>
      </trkpt>
      <trkpt lat="43.64473" lon="1.37893">
        <ele>148</ele>
        <time>2025-03-25T19:02:18Z</time>
      </trkpt>
      <trkpt lat="43.6447" lon="1.37897">
        <ele>148</ele>
        <time>2025-03-25T19:02:19Z</time>
      </trkpt>
      <trkpt lat="43.64468" lon="1.37901">
        <ele>148</ele>
        <time>2025-03-25T19:02:20Z</time>
      </trkpt>
      <trkpt lat="43.64466" lon="1.37906">
        <ele>148</ele>
        <time>2025-03-25T19:02:21Z</time>
      </trkpt>
      <trkpt lat="43.64464" lon="1.3791">
        <ele>148</ele>
        <time>2025-03-25T19:02:22Z</time>
      </trkpt>
      <trkpt lat="43.64463" lon="1.37915">
        <ele>148</ele>
        <time>2025-03-25T19:02:23Z</time>
      </trkpt>
      <trkpt lat="43.64461" lon="1.3792">
        <ele>148</ele>
        <time>2025-03-25T19:02:24Z</time>
      </trkpt>
      <trkpt lat="43.6446" lon="1.37925">
        <ele>148</ele>
        <time>2025-03-25T19:02:25Z</time>
      </trkpt>
      <trkpt lat="43.64461" lon="1.37935">
        <ele>148</ele>
        <time>2025-03-25T19:02:26Z</time>
      </trkpt>
      <trkpt lat="43.64461" lon="1.37935">
        <ele>148</ele>
        <time>2025-03-25T19:02:27Z</time>
      </trkpt>
      <trkpt lat="43.64462" lon="1.37939">
        <ele>148</ele>
        <time>2025-03-25T19:02:28Z</time>
      </trkpt>
      <trkpt lat="43.64464" lon="1.37943">
        <ele>148</ele>
        <time>2025-03-25T19:02:29Z</time>
      </trkpt>
      <trkpt lat="43.64466" lon="1.37947">
        <ele>148</ele>
        <time>2025-03-25T19:02:30Z</time>
      </trkpt>
      <trkpt lat="43.6447" lon="1.3795">
        <ele>148</ele>
        <time>2025-03-25T19:02:31Z</time>
      </trkpt>
      <trkpt lat="43.64473" lon="1.37952">
        <ele>148</ele>
        <time>2025-03-25T19:02:32Z</time>
      </trkpt>
      <trkpt lat="43.64477" lon="1.37955">
        <ele>148</ele>
        <time>2025-03-25T19:02:33Z</time>
      </trkpt>
      <trkpt lat="43.6448" lon="1.37957">
        <ele>148</ele>
        <time>2025-03-25T19:02:34Z</time>
      </trkpt>
      <trkpt lat="43.64483" lon="1.37957">
        <ele>148</ele>
        <time>2025-03-25T19:02:35Z</time>
      </trkpt>
      <trkpt lat="43.64485" lon="1.37959">
        <ele>148</ele>
        <time>2025-03-25T19:02:36Z</time>
      </trkpt>
      <trkpt lat="43.64488" lon="1.37961">
        <ele>148</ele>
        <time>2025-03-25T19:02:37Z</time>
      </trkpt>
      <trkpt lat="43.64491" lon="1.37962">
        <ele>148</ele>
        <time>2025-03-25T19:02:38Z</time>
      </trkpt>
      <trkpt lat="43.64493" lon="1.37964">
        <ele>148</ele>
        <time>2025-03-25T19:02:39Z</time>
      </trkpt>
      <trkpt lat="43.64496" lon="1.37966">
        <ele>148</ele>
        <time>2025-03-25T19:02:40Z</time>
      </trkpt>
      <trkpt lat="43.64501" lon="1.37968">
        <ele>148</ele>
        <time>2025-03-25T19:02:41Z</time>
      </trkpt>
      <trkpt lat="43.64504" lon="1.3797">
        <ele>148</ele>
        <time>2025-03-25T19:02:42Z</time>
      </trkpt>
      <trkpt lat="43.64508" lon="1.37971">
        <ele>148</ele>
        <time>2025-03-25T19:02:43Z</time>
      </trkpt>
      <trkpt lat="43.64512" lon="1.37973">
        <ele>148</ele>
        <time>2025-03-25T19:02:44Z</time>
      </trkpt>
      <trkpt lat="43.6452" lon="1.37977">
        <ele>148</ele>
        <time>2025-03-25T19:02:45Z</time>
      </trkpt>
      <trkpt lat="43.6452" lon="1.37977">
        <ele>148</ele>
        <time>2025-03-25T19:02:46Z</time>
      </trkpt>
      <trkpt lat="43.64523" lon="1.37978">
        <ele>148</ele>
        <time>2025-03-25T19:02:47Z</time>
      </trkpt>
      <trkpt lat="43.64527" lon="1.3798">
        <ele>148</ele>
        <time>2025-03-25T19:02:48Z</time>
      </trkpt>
      <trkpt lat="43.64529" lon="1.37981">
        <ele>148</ele>
        <time>2025-03-25T19:02:49Z</time>
      </trkpt>
      <trkpt lat="43.64531" lon="1.37981">
        <ele>148</ele>
        <time>2025-03-25T19:02:50Z</time>
      </trkpt>
      <trkpt lat="43.64533" lon="1.37982">
        <ele>148</ele>
        <time>2025-03-25T19:02:51Z</time>
      </trkpt>
      <trkpt lat="43.64533" lon="1.37982">
        <ele>148</ele>
        <time>2025-03-25T19:02:52Z</time>
      </trkpt>
      <trkpt lat="43.64535" lon="1.37982">
        <ele>148</ele>
        <time>2025-03-25T19:02:53Z</time>
      </trkpt>
      <trkpt lat="43.64535" lon="1.37982">
        <ele>148</ele>
        <time>2025-03-25T19:02:54Z</time>
      </trkpt>
      <trkpt lat="43.64538" lon="1.37982">
        <ele>148</ele>
        <time>2025-03-25T19:02:55Z</time>
      </trkpt>
      <trkpt lat="43.6454" lon="1.37982">
        <ele>148</ele>
        <time>2025-03-25T19:02:56Z</time>
      </trkpt>
      <trkpt lat="43.64542" lon="1.37981">
        <ele>148</ele>
        <time>2025-03-25T19:02:57Z</time>
      </trkpt>
      <trkpt lat="43.64542" lon="1.37981">
        <ele>149</ele>
        <time>2025-03-25T19:02:58Z</time>
      </trkpt>
      <trkpt lat="43.64544" lon="1.37981">
        <ele>149</ele>
        <time>2025-03-25T19:02:59Z</time>
      </trkpt>
      <trkpt lat="43.64544" lon="1.37981">
        <ele>149</ele>
        <time>2025-03-25T19:03:00Z</time>
      </trkpt>
      <trkpt lat="43.64546" lon="1.37982">
        <ele>149</ele>
        <time>2025-03-25T19:03:01Z</time>
      </trkpt>
      <trkpt lat="43.64546" lon="1.37982">
        <ele>149</ele>
        <time>2025-03-25T19:03:02Z</time>
      </trkpt>
      <trkpt lat="43.64548" lon="1.37982">
        <ele>149</ele>
        <time>2025-03-25T19:03:03Z</time>
      </trkpt>
      <trkpt lat="43.64548" lon="1.37982">
        <ele>149</ele>
        <time>2025-03-25T19:03:04Z</time>
      </trkpt>
      <trkpt lat="43.64551" lon="1.37984">
        <ele>149</ele>
        <time>2025-03-25T19:03:05Z</time>
      </trkpt>
      <trkpt lat="43.64551" lon="1.37984">
        <ele>149</ele>
        <time>2025-03-25T19:03:06Z</time>
      </trkpt>
      <trkpt lat="43.64553" lon="1.37985">
        <ele>149</ele>
        <time>2025-03-25T19:03:07Z</time>
      </trkpt>
      <trkpt lat="43.64553" lon="1.37985">
        <ele>149</ele>
        <time>2025-03-25T19:03:08Z</time>
      </trkpt>
      <trkpt lat="43.64556" lon="1.37986">
        <ele>149</ele>
        <time>2025-03-25T19:03:09Z</time>
      </trkpt>
      <trkpt lat="43.64556" lon="1.37986">
        <ele>149</ele>
        <time>2025-03-25T19:03:10Z</time>
      </trkpt>
      <trkpt lat="43.64559" lon="1.37986">
        <ele>149</ele>
        <time>2025-03-25T19:03:11Z</time>
      </trkpt>
      <trkpt lat="43.64559" lon="1.37986">
        <ele>149</ele>
        <time>2025-03-25T19:03:12Z</time>
      </trkpt>
      <trkpt lat="43.64561" lon="1.37986">
        <ele>149</ele>
        <time>2025-03-25T19:03:13Z</time>
      </trkpt>
      <trkpt lat="43.64561" lon="1.37986">
        <ele>149</ele>
        <time>2025-03-25T19:03:14Z</time>
      </trkpt>
      <trkpt lat="43.64563" lon="1.37985">
        <ele>149</ele>
        <time>2025-03-25T19:03:15Z</time>
      </trkpt>
      <trkpt lat="43.64563" lon="1.37985">
        <ele>149</ele>
        <time>2025-03-25T19:03:16Z</time>
      </trkpt>
      <trkpt lat="43.64565" lon="1.37985">
        <ele>149</ele>
        <time>2025-03-25T19:03:17Z</time>
      </trkpt>
      <trkpt lat="43.64565" lon="1.37985">
        <ele>149</ele>
        <time>2025-03-25T19:03:18Z</time>
      </trkpt>
      <trkpt lat="43.64567" lon="1.37984">
        <ele>149</ele>
        <time>2025-03-25T19:03:19Z</time>
      </trkpt>
      <trkpt lat="43.64567" lon="1.37984">
        <ele>149</ele>
        <time>2025-03-25T19:03:20Z</time>
      </trkpt>
      <trkpt lat="43.64567" lon="1.37984">
        <ele>149</ele>
        <time>2025-03-25T19:03:21Z</time>
      </trkpt>
      <trkpt lat="43.64569" lon="1.37984">
        <ele>149</ele>
        <time>2025-03-25T19:03:22Z</time>
      </trkpt>
      <trkpt lat="43.64569" lon="1.37984">
        <ele>149</ele>
        <time>2025-03-25T19:03:23Z</time>
      </trkpt>
      <trkpt lat="43.64569" lon="1.37984">
        <ele>149</ele>
        <time>2025-03-25T19:03:24Z</time>
      </trkpt>
      <trkpt lat="43.64569" lon="1.37984">
        <ele>149</ele>
        <time>2025-03-25T19:03:25Z</time>
      </trkpt>
      <trkpt lat="43.64569" lon="1.37984">
        <ele>149</ele>
        <time>2025-03-25T19:03:26Z</time>
      </trkpt>
      <trkpt lat="43.64569" lon="1.37984">
        <ele>149</ele>
        <time>2025-03-25T19:03:27Z</time>
      </trkpt>
      <trkpt lat="43.64569" lon="1.37984">
        <ele>149</ele>
        <time>2025-03-25T19:03:28Z</time>
      </trkpt>
      <trkpt lat="43.64567" lon="1.37987">
        <ele>149</ele>
        <time>2025-03-25T19:03:29Z</time>
      </trkpt>
      <trkpt lat="43.64567" lon="1.37987">
        <ele>149</ele>
        <time>2025-03-25T19:03:30Z</time>
      </trkpt>
      <trkpt lat="43.64565" lon="1.37989">
        <ele>149</ele>
        <time>2025-03-25T19:03:31Z</time>
      </trkpt>
      <trkpt lat="43.64565" lon="1.37989">
        <ele>149</ele>
        <time>2025-03-25T19:03:32Z</time>
      </trkpt>
      <trkpt lat="43.64562" lon="1.37988">
        <ele>149</ele>
        <time>2025-03-25T19:03:33Z</time>
      </trkpt>
      <trkpt lat="43.64562" lon="1.37988">
        <ele>149</ele>
        <time>2025-03-25T19:03:34Z</time>
      </trkpt>
      <trkpt lat="43.64559" lon="1.37988">
        <ele>149</ele>
        <time>2025-03-25T19:03:35Z</time>
      </trkpt>
      <trkpt lat="43.64559" lon="1.37988">
        <ele>149</ele>
        <time>2025-03-25T19:03:36Z</time>
      </trkpt>
      <trkpt lat="43.64557" lon="1.37987">
        <ele>149</ele>
        <time>2025-03-25T19:03:37Z</time>
      </trkpt>
      <trkpt lat="43.64557" lon="1.37987">
        <ele>149</ele>
        <time>2025-03-25T19:03:38Z</time>
      </trkpt>
      <trkpt lat="43.64556" lon="1.37988">
        <ele>149</ele>
        <time>2025-03-25T19:03:39Z</time>
      </trkpt>
      <trkpt lat="43.64556" lon="1.37988">
        <ele>149</ele>
        <time>2025-03-25T19:03:40Z</time>
      </trkpt>
      <trkpt lat="43.64553" lon="1.37989">
        <ele>149</ele>
        <time>2025-03-25T19:03:41Z</time>
      </trkpt>
      <trkpt lat="43.64553" lon="1.37989">
        <ele>149</ele>
        <time>2025-03-25T19:03:42Z</time>
      </trkpt>
      <trkpt lat="43.6455" lon="1.37989">
        <ele>149</ele>
        <time>2025-03-25T19:03:43Z</time>
      </trkpt>
      <trkpt lat="43.6455" lon="1.37989">
        <ele>149</ele>
        <time>2025-03-25T19:03:44Z</time>
      </trkpt>
      <trkpt lat="43.64548" lon="1.3799">
        <ele>149</ele>
        <time>2025-03-25T19:03:45Z</time>
      </trkpt>
      <trkpt lat="43.64548" lon="1.3799">
        <ele>149</ele>
        <time>2025-03-25T19:03:46Z</time>
      </trkpt>
      <trkpt lat="43.64545" lon="1.37991">
        <ele>149</ele>
        <time>2025-03-25T19:03:47Z</time>
      </trkpt>
      <trkpt lat="43.64545" lon="1.37991">
        <ele>149</ele>
        <time>2025-03-25T19:03:48Z</time>
      </trkpt>
      <trkpt lat="43.64543" lon="1.37994">
        <ele>149</ele>
        <time>2025-03-25T19:03:49Z</time>
      </trkpt>
      <trkpt lat="43.64543" lon="1.37994">
        <ele>149</ele>
        <time>2025-03-25T19:03:50Z</time>
      </trkpt>
      <trkpt lat="43.6454" lon="1.37996">
        <ele>149</ele>
        <time>2025-03-25T19:03:51Z</time>
      </trkpt>
      <trkpt lat="43.6454" lon="1.37996">
        <ele>149</ele>
        <time>2025-03-25T19:03:52Z</time>
      </trkpt>
      <trkpt lat="43.64537" lon="1.37996">
        <ele>149</ele>
        <time>2025-03-25T19:03:53Z</time>
      </trkpt>
      <trkpt lat="43.64537" lon="1.37996">
        <ele>149</ele>
        <time>2025-03-25T19:03:54Z</time>
      </trkpt>
      <trkpt lat="43.64537" lon="1.37996">
        <ele>149</ele>
        <time>2025-03-25T19:03:55Z</time>
      </trkpt>
      <trkpt lat="43.64537" lon="1.37996">
        <ele>149</ele>
        <time>2025-03-25T19:03:56Z</time>
      </trkpt>
      <trkpt lat="43.64535" lon="1.37997">
        <ele>149</ele>
        <time>2025-03-25T19:03:57Z</time>
      </trkpt>
      <trkpt lat="43.64535" lon="1.37997">
        <ele>149</ele>
        <time>2025-03-25T19:03:58Z</time>
      </trkpt>
      <trkpt lat="43.64535" lon="1.37997">
        <ele>149</ele>
        <time>2025-03-25T19:03:59Z</time>
      </trkpt>
      <trkpt lat="43.64535" lon="1.37997">
        <ele>149</ele>
        <time>2025-03-25T19:04:00Z</time>
      </trkpt>
      <trkpt lat="43.64533" lon="1.37996">
        <ele>149</ele>
        <time>2025-03-25T19:04:01Z</time>
      </trkpt>
      <trkpt lat="43.64533" lon="1.37996">
        <ele>149</ele>
        <time>2025-03-25T19:04:02Z</time>
      </trkpt>
      <trkpt lat="43.64531" lon="1.37996">
        <ele>149</ele>
        <time>2025-03-25T19:04:03Z</time>
      </trkpt>
      <trkpt lat="43.64531" lon="1.37996">
        <ele>149</ele>
        <time>2025-03-25T19:04:04Z</time>
      </trkpt>
      <trkpt lat="43.64531" lon="1.37996">
        <ele>149</ele>
        <time>2025-03-25T19:04:05Z</time>
      </trkpt>
      <trkpt lat="43.64531" lon="1.37996">
        <ele>149</ele>
        <time>2025-03-25T19:04:06Z</time>
      </trkpt>
      <trkpt lat="43.64531" lon="1.37996">
        <ele>149</ele>
        <time>2025-03-25T19:04:07Z</time>
      </trkpt>
      <trkpt lat="43.6453" lon="1.37994">
        <ele>149</ele>
        <time>2025-03-25T19:04:08Z</time>
      </trkpt>
      <trkpt lat="43.6453" lon="1.37994">
        <ele>149</ele>
        <time>2025-03-25T19:04:09Z</time>
      </trkpt>
      <trkpt lat="43.6453" lon="1.37994">
        <ele>149</ele>
        <time>2025-03-25T19:04:10Z</time>
      </trkpt>
      <trkpt lat="43.64531" lon="1.37991">
        <ele>149</ele>
        <time>2025-03-25T19:04:11Z</time>
      </trkpt>
      <trkpt lat="43.64531" lon="1.37991">
        <ele>149</ele>
        <time>2025-03-25T19:04:12Z</time>
      </trkpt>
      <trkpt lat="43.64531" lon="1.37991">
        <ele>149</ele>
        <time>2025-03-25T19:04:13Z</time>
      </trkpt>
      <trkpt lat="43.64531" lon="1.37991">
        <ele>148</ele>
        <time>2025-03-25T19:04:14Z</time>
      </trkpt>
      <trkpt lat="43.64531" lon="1.37991">
        <ele>148</ele>
        <time>2025-03-25T19:04:15Z</time>
      </trkpt>
      <trkpt lat="43.64531" lon="1.37991">
        <ele>149</ele>
        <time>2025-03-25T19:04:16Z</time>
      </trkpt>
      <trkpt lat="43.64532" lon="1.37989">
        <ele>149</ele>
        <time>2025-03-25T19:04:17Z</time>
      </trkpt>
      <trkpt lat="43.64532" lon="1.37989">
        <ele>149</ele>
        <time>2025-03-25T19:04:18Z</time>
      </trkpt>
      <trkpt lat="43.64532" lon="1.37989">
        <ele>149</ele>
        <time>2025-03-25T19:04:19Z</time>
      </trkpt>
      <trkpt lat="43.64532" lon="1.37989">
        <ele>149</ele>
        <time>2025-03-25T19:04:20Z</time>
      </trkpt>
      <trkpt lat="43.64532" lon="1.37989">
        <ele>148</ele>
        <time>2025-03-25T19:04:21Z</time>
      </trkpt>
      <trkpt lat="43.64535" lon="1.3799">
        <ele>148</ele>
        <time>2025-03-25T19:04:22Z</time>
      </trkpt>
      <trkpt lat="43.64535" lon="1.3799">
        <ele>148</ele>
        <time>2025-03-25T19:04:23Z</time>
      </trkpt>
      <trkpt lat="43.64535" lon="1.3799">
        <ele>148</ele>
        <time>2025-03-25T19:04:24Z</time>
      </trkpt>
      <trkpt lat="43.64535" lon="1.3799">
        <ele>148</ele>
        <time>2025-03-25T19:04:25Z</time>
      </trkpt>
      <trkpt lat="43.64535" lon="1.3799">
        <ele>149</ele>
        <time>2025-03-25T19:04:26Z</time>
      </trkpt>
      <trkpt lat="43.64536" lon="1.37992">
        <ele>149</ele>
        <time>2025-03-25T19:04:27Z</time>
      </trkpt>
      <trkpt lat="43.64536" lon="1.37992">
        <ele>149</ele>
        <time>2025-03-25T19:04:28Z</time>
      </trkpt>
      <trkpt lat="43.64536" lon="1.37992">
        <ele>148</ele>
        <time>2025-03-25T19:04:29Z</time>
      </trkpt>
      <trkpt lat="43.64536" lon="1.37992">
        <ele>148</ele>
        <time>2025-03-25T19:04:30Z</time>
      </trkpt>
      <trkpt lat="43.64536" lon="1.37992">
        <ele>148</ele>
        <time>2025-03-25T19:04:31Z</time>
      </trkpt>
      <trkpt lat="43.64536" lon="1.37992">
        <ele>148</ele>
        <time>2025-03-25T19:04:32Z</time>
      </trkpt>
      <trkpt lat="43.64536" lon="1.37992">
        <ele>148</ele>
        <time>2025-03-25T19:04:33Z</time>
      </trkpt>
      <trkpt lat="43.64536" lon="1.37992">
        <ele>148</ele>
        <time>2025-03-25T19:04:34Z</time>
      </trkpt>
      <trkpt lat="43.64536" lon="1.37992">
        <ele>148</ele>
        <time>2025-03-25T19:04:35Z</time>
      </trkpt>
      <trkpt lat="43.64536" lon="1.37992">
        <ele>148</ele>
        <time>2025-03-25T19:04:36Z</time>
      </trkpt>
      <trkpt lat="43.64536" lon="1.37992">
        <ele>148</ele>
        <time>2025-03-25T19:04:37Z</time>
      </trkpt>
      <trkpt lat="43.64536" lon="1.37992">
        <ele>148</ele>
        <time>2025-03-25T19:04:38Z</time>
      </trkpt>
      <trkpt lat="43.64536" lon="1.37992">
        <ele>148</ele>
        <time>2025-03-25T19:04:39Z</time>
      </trkpt>
      <trkpt lat="43.64536" lon="1.37992">
        <ele>148</ele>
        <time>2025-03-25T19:04:40Z</time>
      </trkpt>
      <trkpt lat="43.64536" lon="1.37992">
        <ele>148</ele>
        <time>2025-03-25T19:04:41Z</time>
      </trkpt>
      <trkpt lat="43.64536" lon="1.37992">
        <ele>148</ele>
        <time>2025-03-25T19:04:42Z</time>
      </trkpt>
      <trkpt lat="43.64536" lon="1.37992">
        <ele>148</ele>
        <time>2025-03-25T19:04:43Z</time>
      </trkpt>
      <trkpt lat="43.64536" lon="1.37992">
        <ele>148</ele>
        <time>2025-03-25T19:04:44Z</time>
      </trkpt>
      <trkpt lat="43.64536" lon="1.37992">
        <ele>148</ele>
        <time>2025-03-25T19:04:45Z</time>
      </trkpt>
      <trkpt lat="43.64536" lon="1.37992">
        <ele>148</ele>
        <time>2025-03-25T19:04:46Z</time>
      </trkpt>
      <trkpt lat="43.64536" lon="1.37992">
        <ele>148</ele>
        <time>2025-03-25T19:04:47Z</time>
      </trkpt>
      <trkpt lat="43.64536" lon="1.37992">
        <ele>148</ele>
        <time>2025-03-25T19:04:48Z</time>
      </trkpt>
      <trkpt lat="43.64536" lon="1.37992">
        <ele>148</ele>
        <time>2025-03-25T19:04:49Z</time>
      </trkpt>
      <trkpt lat="43.64536" lon="1.37992">
        <ele>148</ele>
        <time>2025-03-25T19:04:50Z</time>
      </trkpt>
      <trkpt lat="43.64536" lon="1.37992">
        <ele>149</ele>
        <time>2025-03-25T19:04:51Z</time>
      </trkpt>
      <trkpt lat="43.64535" lon="1.37989">
        <ele>149</ele>
        <time>2025-03-25T19:04:52Z</time>
      </trkpt>
    </trkseg>
  </trk>
</gpx>